# Wetter Temperatur Luftdruck Luftfeuchtigkeit Sichtweite Windgeschwindigkeit Windrichtung Zeit
1 Clear 27 1020 49 10000 2.36 130 11:18 14.08.2022
2 Clear 24 1021 58 10000 1.82 117 08:53 14.08.2022
3 Clouds 20 1021 64 10000 1.64 99 06:23 14.08.2022
4 Clouds 20 1021 64 10000 1.64 99 06:23 14.08.2022
5 Clouds 18 1021 63 10000 1.45 75 03:48 14.08.2022
6 Clouds 19 1020 59 10000 1.61 79 00:42 14.08.2022
7 Clouds 20 1021 55 10000 1.82 42 22:56 13.08.2022
8 Clouds 21 1021 52 10000 1.62 3 21:55 13.08.2022
9 Clouds 22 1021 50 10000 1.64 332 20:49 13.08.2022
10 Clouds 24 1021 48 10000 0.78 256 19:46 13.08.2022
11 Clouds 26 1020 40 10000 1.67 161 18:19 13.08.2022
12 Clouds 27 1021 43 10000 1.16 115 16:23 13.08.2022
13 Clouds 28 1021 44 10000 0.93 118 14:41 13.08.2022
14 Clouds 27 1021 45 10000 0.93 118 13:48 13.08.2022
15 Clouds 27 1022 45 10000 0.79 74 13:23 13.08.2022
16 Clouds 25 1023 49 10000 0.87 90 11:27 13.08.2022
17 Clouds 24 1023 53 10000 0.84 44 09:23 13.08.2022
18 Clouds 19 1023 60 10000 0.81 39 06:44 13.08.2022
19 Clouds 17 1024 56 10000 0.75 0 01:37 13.08.2022
20 Clouds 19 1024 52 10000 1 48 23:25 12.08.2022
21 Clouds 20 1024 55 10000 1.41 21 21:37 12.08.2022
22 Clouds 22 1023 51 10000 1.62 350 19:48 12.08.2022
23 Clouds 24 1023 46 10000 1.6 334 19:23 12.08.2022
24 Clouds 25 1023 40 10000 1.66 331 18:21 12.08.2022
25 Clouds 27 1023 39 10000 1.95 335 16:26 12.08.2022
26 Clouds 27 1023 41 10000 1.76 330 15:19 12.08.2022
27 Clouds 26 1024 45 10000 1.86 331 13:43 12.08.2022
28 Clouds 25 1025 47 10000 1.75 317 12:32 12.08.2022
29 Clouds 22 1026 58 10000 1.28 331 08:52 12.08.2022
30 Clear 21 1026 61 10000 1.2 314 07:45 12.08.2022
31 Clear 17 1026 64 10000 0.97 327 06:23 12.08.2022
32 Clear 16 1025 57 10000 0.8 74 00:32 12.08.2022
33 Clear 16 1025 56 10000 1.19 64 23:58 11.08.2022
34 Clear 17 1025 55 10000 1.53 45 23:22 11.08.2022
35 Clear 19 1025 52 10000 1.65 43 21:53 11.08.2022
36 Clear 20 1025 52 10000 1.94 42 21:28 11.08.2022
37 Clear 20 1025 52 10000 1.94 42 21:28 11.08.2022
38 Clear 20 1025 51 10000 1.95 42 20:31 11.08.2022
39 Clear 20 1025 51 10000 1.95 42 20:31 11.08.2022
40 Clear 22 1024 45 10000 2.92 21 19:33 11.08.2022
41 Clear 24 1024 44 10000 2.92 21 18:56 11.08.2022
42 Clear 25 1024 42 10000 2.89 10 16:47 11.08.2022
43 Clear 26 1024 43 10000 2.37 9 15:48 11.08.2022
44 Clear 25 1024 45 10000 1.84 12 14:40 11.08.2022
45 Clear 23 1025 50 10000 1.78 53 11:59 11.08.2022
46 Clear 21 1026 60 10000 2.75 48 09:22 11.08.2022
47 Clear 17 1026 63 10000 2.47 41 06:52 11.08.2022
48 Clear 14 1025 68 10000 2.49 19 03:23 11.08.2022
49 Clouds 16 1024 62 10000 2.75 33 00:19 11.08.2022
50 Clouds 19 1024 54 10000 3.46 33 21:56 10.08.2022
51 Clouds 19 1024 53 10000 3.58 35 21:19 10.08.2022
52 Clouds 20 1024 54 10000 3.58 35 20:42 10.08.2022
53 Clouds 21 1023 52 10000 3.75 29 18:53 10.08.2022
54 Clouds 22 1022 44 10000 5.19 18 17:28 10.08.2022
55 Clear 23 1022 52 10000 3.97 34 15:26 10.08.2022
56 Clouds 23 1022 55 10000 3.63 40 13:34 10.08.2022
57 Clouds 22 1022 59 10000 3.86 39 12:24 10.08.2022
58 Clouds 19 1023 54 10000 3.43 41 08:45 10.08.2022
59 Clouds 17 1023 62 10000 3.56 33 07:44 10.08.2022
60 Clouds 16 1023 75 10000 3.47 18 05:53 10.08.2022
61 Clouds 15 1022 81 10000 3.04 16 02:44 10.08.2022
62 Clouds 16 1022 74 10000 2.99 11 23:33 09.08.2022
63 Clouds 17 1022 74 10000 2.89 18 22:48 09.08.2022
64 Clouds 17 1022 73 10000 2.55 17 21:34 09.08.2022
65 Clouds 19 1022 86 10000 2.77 9 19:34 09.08.2022
66 Clouds 20 1021 83 10000 2.8 16 18:23 09.08.2022
67 Clouds 20 1022 82 10000 2.83 19 17:26 09.08.2022
68 Clouds 21 1022 82 10000 2.83 19 16:40 09.08.2022
69 Clouds 22 1022 81 10000 2.74 20 15:40 09.08.2022
70 Clouds 20 1021 84 10000 3.36 12 12:25 09.08.2022
71 Clouds 18 1021 78 10000 2.89 20 09:22 09.08.2022
72 Clouds 17 1021 78 10000 2.83 19 08:26 09.08.2022
73 Rain 17 1022 80 10000 2.91 9 07:20 09.08.2022
74 Clouds 16 1022 81 10000 2.23 7 03:32 09.08.2022
75 Clouds 18 1022 72 10000 2.71 21 23:27 08.08.2022
76 Clouds 18 1022 72 10000 2.71 21 23:27 08.08.2022
77 Clouds 18 1022 83 10000 2.71 21 22:53 08.08.2022
78 Clouds 18 1022 82 10000 2.72 20 21:49 08.08.2022
79 Clouds 19 1022 81 10000 2.72 5 20:55 08.08.2022
80 Clouds 19 1022 79 10000 3.15 7 19:50 08.08.2022
81 Clouds 20 1021 64 10000 3.16 359 18:35 08.08.2022
82 Clouds 22 1022 63 10000 2.32 349 16:34 08.08.2022
83 Clouds 21 1022 64 10000 2.32 349 15:38 08.08.2022
84 Clouds 21 1022 67 10000 2.26 353 15:38 08.08.2022
85 Clouds 21 1022 63 10000 2.21 332 12:51 08.08.2022
86 Clouds 19 1022 74 10000 2.14 340 11:53 08.08.2022
87 Clouds 19 1022 68 10000 1.7 341 09:36 08.08.2022
88 Clouds 17 1021 75 10000 2.49 17 05:37 08.08.2022
89 Clouds 18 1020 72 10000 2.24 39 02:27 08.08.2022
90 Clouds 19 1019 90 10000 3.08 19 22:25 07.08.2022
91 Clouds 20 1019 90 10000 3.08 19 21:38 07.08.2022
92 Clouds 20 1019 85 10000 3.52 355 20:25 07.08.2022
93 Clouds 21 1019 85 10000 3.52 355 19:54 07.08.2022
94 Clouds 21 1018 86 10000 5.42 3 19:33 07.08.2022
95 Clouds 23 1017 53 10000 5.29 341 18:23 07.08.2022
96 Clouds 23 1017 57 10000 5.31 315 16:54 07.08.2022
97 Clouds 22 1016 43 10000 2.8 278 16:28 07.08.2022
98 Clouds 28 1016 48 10000 3.66 237 15:19 07.08.2022
99 Clouds 31 1016 46 10000 4.31 230 13:24 07.08.2022
100 Clouds 28 1017 51 10000 3.64 221 10:59 07.08.2022
101 Clouds 26 1017 52 10000 3.45 218 10:34 07.08.2022
102 Clouds 22 1017 61 10000 3.34 205 06:52 07.08.2022
103 Clouds 20 1017 63 10000 2.61 182 03:19 07.08.2022
104 Clouds 21 1017 77 10000 1.82 172 23:44 06.08.2022
105 Clouds 23 1018 76 10000 3.63 166 22:20 06.08.2022
106 Clouds 25 1018 74 10000 4.34 167 20:42 06.08.2022
107 Clouds 27 1019 46 10000 3.82 140 19:41 06.08.2022
108 Clouds 29 1018 51 10000 2.1 79 18:28 06.08.2022
109 Clouds 29 1018 51 10000 2.1 79 17:31 06.08.2022
110 Clouds 32 1019 44 10000 1.92 198 14:43 06.08.2022
111 Clouds 31 1019 45 10000 2.76 166 13:44 06.08.2022
112 Clear 30 1020 49 10000 3.09 166 11:55 06.08.2022
113 Clear 28 1021 54 10000 3.42 146 10:32 06.08.2022
114 Clear 25 1021 57 10000 3.39 138 08:32 06.08.2022
115 Clear 20 1021 57 10000 2.07 120 03:52 06.08.2022
116 Clouds 20 1021 58 10000 2.58 127 23:50 05.08.2022
117 Clouds 21 1021 54 10000 1.99 139 22:32 05.08.2022
118 Clouds 27 1021 41 10000 2.4 50 19:46 05.08.2022
119 Clouds 28 1021 41 10000 1.39 44 18:46 05.08.2022
120 Clouds 28 1020 37 10000 1.09 102 18:25 05.08.2022
121 Clouds 30 1020 39 10000 2.15 117 16:49 05.08.2022
122 Clouds 30 1021 41 10000 2.27 107 15:22 05.08.2022
123 Clouds 30 1021 42 10000 2.26 105 14:31 05.08.2022
124 Clouds 30 1021 44 10000 1.57 115 13:24 05.08.2022
125 Clouds 29 1021 45 10000 1.57 115 12:44 05.08.2022
126 Clouds 28 1022 48 10000 2.11 143 10:55 05.08.2022
127 Clouds 24 1022 56 10000 2.22 136 08:36 05.08.2022
128 Clouds 21 1022 53 10000 2.33 120 07:28 05.08.2022
129 Clouds 20 1022 65 10000 1.87 100 01:46 05.08.2022
130 Clouds 23 1021 51 10000 1.75 144 22:40 04.08.2022
131 Clouds 24 1021 50 10000 1.18 95 21:27 04.08.2022
132 Clouds 24 1021 48 10000 1.18 95 20:45 04.08.2022
133 Clouds 25 1020 48 10000 0.96 64 19:58 04.08.2022
134 Clouds 27 1020 43 10000 1.4 122 18:57 04.08.2022
135 Clouds 27 1020 43 10000 1.4 122 18:33 04.08.2022
136 Clouds 29 1020 42 10000 2.78 126 14:50 04.08.2022
137 Clouds 28 1021 44 10000 3.27 100 13:23 04.08.2022
138 Clouds 27 1021 44 10000 3.5 98 11:39 04.08.2022
139 Clouds 26 1021 46 10000 2.99 105 10:20 04.08.2022
140 Clouds 24 1021 49 10000 3.13 107 07:44 04.08.2022
141 Clouds 18 1020 57 10000 1.78 109 02:46 04.08.2022
142 Clouds 19 1019 57 10000 2.21 87 00:33 04.08.2022
143 Clouds 21 1019 57 10000 2.01 71 23:39 03.08.2022
144 Clouds 23 1018 48 10000 1.39 27 21:27 03.08.2022
145 Clouds 24 1018 53 10000 0.47 339 20:21 03.08.2022
146 Clouds 26 1018 52 10000 0.97 253 19:19 03.08.2022
147 Clouds 28 1018 45 10000 1.8 201 16:48 03.08.2022
148 Clouds 28 1018 44 10000 2.22 174 16:22 03.08.2022
149 Clouds 28 1018 44 10000 3.19 154 13:40 03.08.2022
150 Clouds 27 1018 47 10000 3.24 132 10:56 03.08.2022
151 Clouds 21 1017 57 10000 2.74 103 07:26 03.08.2022
152 Clouds 16 1017 65 10000 1.84 56 04:22 03.08.2022
153 Clouds 16 1017 62 10000 1.63 45 03:23 03.08.2022
154 Clouds 17 1016 57 10000 1.64 76 00:49 03.08.2022
155 Clouds 18 1016 55 10000 1.93 65 22:37 02.08.2022
156 Clouds 20 1016 51 10000 2.1 49 21:51 02.08.2022
157 Clouds 22 1016 48 10000 1.86 47 20:32 02.08.2022
158 Clouds 26 1015 40 10000 1.38 163 18:34 02.08.2022
159 Clouds 26 1015 36 10000 3.12 161 15:20 02.08.2022
160 Clouds 25 1016 46 10000 3.53 154 11:30 02.08.2022
161 Clouds 22 1017 52 10000 2.82 140 08:59 02.08.2022
162 Clouds 20 1017 53 10000 2.77 139 07:52 02.08.2022
163 Clouds 17 1017 61 10000 2.76 134 06:41 02.08.2022
164 Clouds 14 1017 64 10000 2.4 123 04:31 02.08.2022
165 Clouds 17 1017 58 10000 1.97 122 23:35 01.08.2022
166 Clouds 19 1017 48 10000 1.84 138 22:23 01.08.2022
167 Clouds 20 1017 45 10000 1.88 142 20:51 01.08.2022
168 Clouds 23 1017 46 10000 2.4 136 19:23 01.08.2022
169 Clouds 23 1017 41 10000 3.06 140 18:30 01.08.2022
170 Clouds 25 1017 39 10000 3.19 144 16:53 01.08.2022
171 Clouds 25 1017 40 10000 3.1 148 15:52 01.08.2022
172 Clouds 25 1017 40 10000 3.1 148 15:30 01.08.2022
173 Clouds 25 1018 40 10000 2.86 158 14:20 01.08.2022
174 Clouds 24 1018 39 10000 2.65 158 11:50 01.08.2022
175 Clouds 22 1019 49 10000 2.55 137 09:40 01.08.2022
176 Clouds 21 1018 51 10000 2.69 109 08:25 01.08.2022
177 Clouds 15 1019 57 10000 2.25 78 04:48 01.08.2022
178 Clouds 15 1019 69 10000 1.94 74 03:49 01.08.2022
179 Clouds 17 1019 63 10000 2.37 66 00:23 01.08.2022
180 Clouds 17 1019 61 10000 2.75 59 22:39 31.07.2022
181 Clouds 17 1018 54 10000 3.19 62 21:27 31.07.2022
182 Clouds 20 1018 47 10000 2.76 45 19:53 31.07.2022
183 Clouds 23 1017 39 10000 2.28 38 17:57 31.07.2022
184 Clouds 23 1017 35 10000 2.85 5 15:39 31.07.2022
185 Clouds 23 1018 29 10000 1.58 300 13:43 31.07.2022
186 Clouds 23 1018 43 10000 1.81 270 11:59 31.07.2022
187 Clouds 22 1019 49 10000 1.31 232 09:55 31.07.2022
188 Clouds 20 1019 52 10000 0.81 251 07:59 31.07.2022
189 Clouds 14 1019 61 10000 0.36 122 02:58 31.07.2022
190 Clouds 16 1019 55 10000 0.47 41 23:46 30.07.2022
191 Clouds 17 1019 51 10000 0.86 18 22:19 30.07.2022
192 Clouds 17 1019 50 10000 0.86 18 21:49 30.07.2022
193 Clouds 19 1019 49 10000 1.32 2 20:57 30.07.2022
194 Clouds 19 1019 49 10000 1.32 2 20:57 30.07.2022
195 Clouds 20 1018 47 10000 1.47 326 19:59 30.07.2022
196 Clear 21 1018 43 10000 1.63 296 18:53 30.07.2022
197 Clear 22 1018 37 10000 2.52 294 17:45 30.07.2022
198 Clear 23 1018 44 10000 3.6 285 15:54 30.07.2022
199 Clear 23 1018 44 10000 3.58 281 15:24 30.07.2022
200 Clear 22 1019 50 10000 2.71 277 13:19 30.07.2022
201 Clear 22 1019 51 10000 2.64 276 12:19 30.07.2022
202 Clear 20 1020 41 10000 2.43 290 10:35 30.07.2022
203 Clear 21 1020 54 10000 2.43 290 09:57 30.07.2022
204 Clear 19 1020 57 10000 2.03 315 07:55 30.07.2022
205 Clear 13 1019 69 10000 1.79 306 04:20 30.07.2022
206 Clear 13 1019 78 10000 2.52 321 02:28 30.07.2022
207 Clear 16 1019 77 10000 2.82 306 22:46 29.07.2022
208 Clear 18 1018 59 10000 3.5 300 21:24 29.07.2022
209 Clear 19 1018 58 10000 3.5 300 20:41 29.07.2022
210 Rain 21 1017 52 10000 3.53 296 18:27 29.07.2022
211 Clouds 23 1017 52 10000 3.91 301 16:32 29.07.2022
212 Clouds 23 1017 51 10000 4.44 297 13:45 29.07.2022
213 Clouds 22 1017 57 10000 3.86 297 11:33 29.07.2022
214 Clouds 19 1017 67 10000 4.12 290 08:51 29.07.2022
215 Clouds 19 1017 67 10000 3.83 296 08:20 29.07.2022
216 Clouds 15 1016 75 10000 3.82 304 02:52 29.07.2022
217 Clouds 17 1014 74 10000 4.61 315 23:20 28.07.2022
218 Clouds 19 1013 73 10000 5.04 293 21:31 28.07.2022
219 Clouds 19 1013 72 10000 5.04 293 20:50 28.07.2022
220 Clouds 21 1012 73 6949 1.12 203 19:58 28.07.2022
221 Clouds 21 1012 71 6359 2 190 19:26 28.07.2022
222 Clouds 22 1012 70 10000 3.19 231 17:46 28.07.2022
223 Clouds 22 1011 69 10000 4 254 17:20 28.07.2022
224 Rain 22 1011 55 10000 4.36 256 16:40 28.07.2022
225 Clouds 27 1011 56 10000 4.47 202 13:56 28.07.2022
226 Clouds 28 1011 53 10000 4.49 203 12:33 28.07.2022
227 Clouds 25 1012 71 10000 2.44 172 07:46 28.07.2022
228 Clouds 20 1012 84 10000 1.63 169 05:39 28.07.2022
229 Clouds 20 1012 89 10000 1.84 155 05:20 28.07.2022
230 Clouds 20 1012 86 10000 1.66 192 23:19 27.07.2022
231 Clouds 22 1012 86 10000 1.94 186 21:30 27.07.2022
232 Clouds 25 1011 62 10000 1.5 204 19:48 27.07.2022
233 Clouds 26 1010 51 10000 2.51 202 19:20 27.07.2022
234 Clouds 30 1010 46 10000 3.12 171 16:31 27.07.2022
235 Clouds 30 1010 50 10000 1.93 178 15:51 27.07.2022
236 Clouds 30 1010 50 10000 3.64 177 14:41 27.07.2022
237 Clouds 30 1010 50 10000 3.74 163 13:34 27.07.2022
238 Clouds 28 1010 58 10000 1.75 165 10:39 27.07.2022
239 Clear 25 1011 61 10000 0.84 171 07:53 27.07.2022
240 Clouds 19 1011 82 10000 0.36 123 04:54 27.07.2022
241 Clouds 21 1010 75 10000 1.68 41 23:25 26.07.2022
242 Clouds 23 1010 73 10000 1.21 360 21:52 26.07.2022
243 Rain 24 1010 70 10000 1.66 47 20:58 26.07.2022
244 Clouds 25 1009 65 10000 0.97 326 19:32 26.07.2022
245 Clouds 26 1009 55 10000 0.97 326 18:40 26.07.2022
246 Rain 25 1009 61 10000 0.43 21 17:54 26.07.2022
247 Clouds 29 1009 62 10000 1.09 10 15:46 26.07.2022
248 Clouds 29 1009 56 10000 1.85 48 14:43 26.07.2022
249 Rain 28 1009 56 10000 2.68 16 12:33 26.07.2022
250 Clear 26 1009 60 10000 2.4 29 10:32 26.07.2022
251 Clouds 24 1009 64 10000 2.87 19 08:28 26.07.2022
252 Rain 19 1008 93 10000 2.54 3 01:55 26.07.2022
253 Clouds 20 1008 93 10000 2.87 347 00:21 26.07.2022
254 Rain 20 1008 92 10000 3.04 322 22:40 25.07.2022
255 Rain 21 1008 65 10000 2.76 314 21:44 25.07.2022
256 Rain 22 1008 62 10000 3 309 20:46 25.07.2022
257 Rain 22 1007 72 10000 3.12 321 20:24 25.07.2022
258 Clouds 23 1007 64 10000 3.76 308 19:25 25.07.2022
259 Clouds 25 1007 58 10000 3.72 311 17:56 25.07.2022
260 Clouds 25 1007 53 10000 4 303 17:23 25.07.2022
261 Clouds 25 1007 47 10000 2.89 277 13:36 25.07.2022
262 Clouds 25 1008 63 10000 2.46 266 10:55 25.07.2022
263 Clouds 23 1008 70 10000 2.23 291 08:22 25.07.2022
264 Clouds 20 1008 61 10000 1.18 308 01:44 25.07.2022
265 Clouds 21 1008 56 10000 0.91 305 23:46 24.07.2022
266 Clouds 21 1008 55 10000 1.48 299 22:49 24.07.2022
267 Clouds 22 1009 53 10000 2.19 301 21:48 24.07.2022
268 Clouds 22 1009 52 10000 2.6 280 21:18 24.07.2022
269 Clouds 24 1009 51 10000 2.6 280 20:44 24.07.2022
270 Clouds 26 1008 47 10000 3.23 242 19:37 24.07.2022
271 Clouds 28 1008 41 10000 3.61 250 18:27 24.07.2022
272 Clouds 29 1008 43 10000 4.09 229 15:57 24.07.2022
273 Clouds 28 1008 32 10000 3.51 221 15:31 24.07.2022
274 Clear 28 1009 45 10000 3.76 219 13:51 24.07.2022
275 Clear 28 1010 34 10000 3.45 219 12:50 24.07.2022
276 Clear 27 1010 48 10000 3.03 221 11:35 24.07.2022
277 Clear 26 1011 49 10000 2.07 232 10:26 24.07.2022
278 Clear 25 1012 50 10000 1.75 239 08:30 24.07.2022
279 Clear 24 1012 53 10000 2.03 250 07:46 24.07.2022
280 Clear 16 1013 73 10000 1.75 269 03:57 24.07.2022
281 Clear 20 1014 63 10000 1.02 275 23:51 23.07.2022
282 Clear 23 1013 57 10000 0.84 307 20:59 23.07.2022
283 Clouds 26 1013 52 10000 0.84 303 19:44 23.07.2022
284 Clouds 26 1013 48 10000 0.15 357 18:50 23.07.2022
285 Clouds 28 1013 39 10000 0.96 2 17:28 23.07.2022
286 Clouds 28 1013 39 10000 0.96 2 16:31 23.07.2022
287 Clouds 28 1014 46 10000 2.03 311 15:22 23.07.2022
288 Clouds 28 1014 46 10000 2.03 311 14:58 23.07.2022
289 Clouds 28 1014 35 10000 2.26 311 14:26 23.07.2022
290 Clouds 27 1014 37 10000 2.09 334 12:44 23.07.2022
291 Clouds 27 1015 52 10000 2.47 348 10:45 23.07.2022
292 Clouds 26 1015 53 10000 2.5 350 10:21 23.07.2022
293 Clouds 23 1015 58 10000 2.3 352 08:31 23.07.2022
294 Clouds 15 1016 80 10000 2.32 338 03:39 23.07.2022
295 Clear 18 1016 74 10000 1.98 357 00:49 23.07.2022
296 Clear 19 1015 71 10000 2.18 7 22:42 22.07.2022
297 Clear 21 1014 65 10000 2.62 7 20:52 22.07.2022
298 Clouds 23 1014 62 10000 2.37 6 19:35 22.07.2022
299 Clouds 24 1014 58 10000 2.55 21 18:28 22.07.2022
300 Clouds 24 1014 58 10000 2.55 21 18:28 22.07.2022
301 Clouds 25 1014 55 10000 2.72 20 16:55 22.07.2022
302 Clouds 26 1013 52 10000 3.97 52 14:54 22.07.2022
303 Clouds 24 1013 61 10000 5.66 44 11:22 22.07.2022
304 Clear 22 1013 66 10000 5.56 48 09:26 22.07.2022
305 Clear 20 1013 68 10000 5.76 46 08:37 22.07.2022
306 Clouds 18 1013 69 10000 4.83 36 06:59 22.07.2022
307 Clouds 16 1012 81 10000 4.15 17 02:25 22.07.2022
308 Clouds 17 1011 76 10000 4.39 37 22:43 21.07.2022
309 Clouds 16 1010 77 10000 4.47 34 21:34 21.07.2022
310 Clouds 18 1009 64 10000 6.06 38 19:28 21.07.2022
311 Rain 19 1009 68 10000 6.16 40 17:41 21.07.2022
312 Rain 19 1008 70 10000 6.23 37 17:19 21.07.2022
313 Rain 21 1008 65 10000 6.21 44 15:22 21.07.2022
314 Rain 20 1008 69 10000 6.21 44 14:39 21.07.2022
315 Clouds 20 1006 54 10000 5.22 45 12:28 21.07.2022
316 Clouds 17 1005 62 10000 4.09 54 11:19 21.07.2022
317 Rain 18 1004 93 10000 3.29 76 09:41 21.07.2022
318 Rain 17 1004 93 10000 3.29 76 08:52 21.07.2022
319 Rain 16 1004 92 10000 3.53 39 07:50 21.07.2022
320 Rain 15 1004 96 8746 2.32 344 06:24 21.07.2022
321 Clouds 14 1004 94 10000 2.98 307 01:42 21.07.2022
322 Clouds 15 1005 86 10000 3.26 295 22:22 20.07.2022
323 Clouds 15 1005 86 10000 3.26 295 21:30 20.07.2022
324 Clouds 16 1006 83 10000 3.69 323 19:54 20.07.2022
325 Rain 16 1005 77 10000 4.3 344 19:25 20.07.2022
326 Rain 17 1005 77 10000 4.3 344 18:52 20.07.2022
327 Rain 16 1005 73 10000 4.24 344 18:26 20.07.2022
328 Rain 20 1005 65 10000 4.07 336 16:46 20.07.2022
329 Clouds 20 1005 68 10000 4.22 336 15:32 20.07.2022
330 Rain 20 1005 71 10000 4.64 332 14:26 20.07.2022
331 Rain 17 1005 74 10000 2.51 317 11:55 20.07.2022
332 Rain 16 1006 86 10000 3.19 294 10:24 20.07.2022
333 Clouds 12 1010 76 10000 3.33 240 04:50 20.07.2022
334 Clouds 14 1012 73 10000 3.35 257 00:54 20.07.2022
335 Clouds 14 1012 72 10000 2.98 264 00:25 20.07.2022
336 Clouds 16 1013 72 10000 3.01 267 22:34 19.07.2022
337 Clouds 16 1013 72 10000 3.01 267 21:53 19.07.2022
338 Clouds 16 1013 68 10000 2.49 250 20:48 19.07.2022
339 Clouds 18 1013 54 10000 2.34 294 19:22 19.07.2022
340 Clouds 18 1013 51 10000 3.91 308 18:35 19.07.2022
341 Clouds 18 1013 51 10000 3.91 308 17:51 19.07.2022
342 Clouds 18 1014 47 10000 5.05 300 15:21 19.07.2022
343 Clouds 20 1013 42 10000 4.73 307 12:44 19.07.2022
344 Clouds 19 1014 43 10000 5 300 11:32 19.07.2022
345 Clouds 18 1014 50 10000 5.24 292 09:51 19.07.2022
346 Clear 16 1014 56 10000 5.21 293 08:42 19.07.2022
347 Clouds 15 1014 67 10000 5.15 291 07:19 19.07.2022
348 Clouds 13 1014 73 10000 4.71 292 06:27 19.07.2022
349 Clouds 11 1014 77 10000 4.06 293 05:18 19.07.2022
350 Clouds 12 1014 79 10000 4.21 288 02:37 19.07.2022
351 Clouds 12 1013 83 10000 4.02 299 23:54 18.07.2022
352 Clouds 13 1013 86 10000 4.05 300 23:20 18.07.2022
353 Clouds 13 1013 87 10000 3.66 301 22:26 18.07.2022
354 Clouds 14 1013 85 10000 3.36 309 21:20 18.07.2022
355 Clouds 15 1013 83 10000 3.49 323 20:34 18.07.2022
356 Clouds 17 1013 80 10000 1.89 297 18:32 18.07.2022
357 Clouds 19 1014 76 10000 2.05 355 16:34 18.07.2022
358 Clouds 18 1014 86 10000 1.59 4 15:34 18.07.2022
359 Clouds 19 1015 82 10000 2.57 9 13:32 18.07.2022
360 Rain 19 1015 85 10000 2.18 3 11:44 18.07.2022
361 Rain 18 1015 93 10000 1.53 4 09:55 18.07.2022
362 Rain 17 1016 94 4329 2.43 9 08:19 18.07.2022
363 Clouds 15 1016 92 10000 2.22 351 05:35 18.07.2022
364 Clouds 14 1015 65 10000 1.1 340 23:19 17.07.2022
365 Clouds 15 1015 65 10000 1.1 340 22:32 17.07.2022
366 Clouds 15 1015 64 10000 0.46 205 21:40 17.07.2022
367 Clouds 17 1015 61 10000 1.49 124 20:46 17.07.2022
368 Clouds 17 1015 62 10000 1 137 20:18 17.07.2022
369 Clouds 19 1014 62 10000 1.75 48 19:25 17.07.2022
370 Rain 20 1015 62 10000 2.03 360 17:55 17.07.2022
371 Rain 20 1015 62 10000 2.03 360 17:36 17.07.2022
372 Clouds 21 1014 52 10000 1.63 282 16:49 17.07.2022
373 Clouds 21 1014 48 10000 1.4 233 16:24 17.07.2022
374 Clouds 21 1014 37 10000 0.4 246 13:58 17.07.2022
375 Clouds 21 1014 37 10000 1.38 243 13:24 17.07.2022
376 Clouds 20 1015 50 10000 1.39 249 10:34 17.07.2022
377 Clouds 17 1015 61 10000 1.24 245 08:38 17.07.2022
378 Clouds 14 1015 68 10000 0.54 125 02:43 17.07.2022
379 Rain 15 1015 71 10000 0.44 227 00:41 17.07.2022
380 Clouds 15 1014 64 10000 0.69 236 23:19 16.07.2022
381 Clouds 16 1014 59 10000 1.17 270 20:59 16.07.2022
382 Clouds 18 1014 52 10000 2.3 254 18:59 16.07.2022
383 Clouds 19 1014 47 10000 2.79 252 17:53 16.07.2022
384 Clouds 21 1014 44 10000 3.39 257 16:24 16.07.2022
385 Clouds 21 1013 46 10000 3.15 263 13:47 16.07.2022
386 Clear 21 1013 46 10000 3.87 241 10:40 16.07.2022
387 Clear 20 1013 51 10000 3.8 246 09:30 16.07.2022
388 Clear 19 1013 51 10000 3.8 246 08:42 16.07.2022
389 Clear 17 1012 57 10000 3.64 249 07:51 16.07.2022
390 Clear 11 1012 81 10000 3.03 251 03:41 16.07.2022
391 Clear 12 1012 77 10000 3 252 02:35 16.07.2022
392 Clouds 14 1010 62 10000 3.48 251 23:28 15.07.2022
393 Clouds 15 1010 62 10000 3.48 251 22:39 15.07.2022
394 Clear 16 1009 57 10000 3.1 263 21:24 15.07.2022
395 Clouds 18 1009 54 10000 3.39 271 20:24 15.07.2022
396 Clouds 20 1008 51 10000 4.04 252 18:37 15.07.2022
397 Clouds 21 1008 41 10000 4.26 266 17:36 15.07.2022
398 Clouds 23 1007 38 10000 5.93 275 14:53 15.07.2022
399 Clouds 23 1006 33 10000 4.55 260 12:57 15.07.2022
400 Clouds 22 1006 41 10000 4.64 261 11:20 15.07.2022
401 Clear 20 1006 54 10000 4.14 269 09:21 15.07.2022
402 Clear 15 1005 76 10000 3.88 285 05:56 15.07.2022
403 Clouds 16 1004 88 10000 3.33 282 00:53 15.07.2022
404 Clouds 16 1004 89 10000 3.59 292 00:21 15.07.2022
405 Clouds 16 1004 90 10000 3.11 285 22:45 14.07.2022
406 Rain 16 1004 88 10000 1.37 290 21:46 14.07.2022
407 Rain 16 1004 84 10000 0.83 44 21:28 14.07.2022
408 Rain 18 1004 84 10000 0.83 44 20:44 14.07.2022
409 Rain 18 1004 76 10000 0.97 351 20:21 14.07.2022
410 Rain 21 1004 66 10000 3.31 331 19:18 14.07.2022
411 Rain 23 1004 52 10000 3.7 271 16:23 14.07.2022
412 Rain 22 1004 49 10000 2.19 238 15:34 14.07.2022
413 Rain 22 1005 45 10000 2.18 203 14:31 14.07.2022
414 Clouds 23 1006 47 10000 4.56 158 12:58 14.07.2022
415 Clouds 22 1006 47 10000 3.86 143 11:56 14.07.2022
416 Clouds 22 1007 52 10000 4.38 144 11:24 14.07.2022
417 Clouds 21 1008 52 10000 4.36 152 10:37 14.07.2022
418 Clouds 18 1008 63 10000 1.94 150 07:55 14.07.2022
419 Clouds 14 1011 61 10000 1.78 147 01:27 14.07.2022
420 Clouds 16 1011 61 10000 1.78 147 00:54 14.07.2022
421 Clouds 16 1010 60 10000 1.12 104 23:35 13.07.2022
422 Clear 17 1011 60 10000 1.76 177 22:23 13.07.2022
423 Clouds 18 1011 58 10000 1.85 176 21:21 13.07.2022
424 Clouds 20 1011 53 10000 2.07 182 20:23 13.07.2022
425 Clouds 23 1011 43 10000 3.17 187 17:54 13.07.2022
426 Clouds 23 1011 41 10000 3.58 195 16:47 13.07.2022
427 Clouds 24 1011 43 10000 3.91 185 15:51 13.07.2022
428 Clouds 24 1012 36 10000 3.7 179 13:24 13.07.2022
429 Clouds 23 1013 40 10000 3.81 173 10:47 13.07.2022
430 Rain 23 1013 51 10000 3.64 175 10:28 13.07.2022
431 Rain 22 1014 57 10000 3.24 152 09:28 13.07.2022
432 Clouds 21 1014 66 10000 2.51 139 07:53 13.07.2022
433 Clouds 14 1014 85 10000 1.2 152 03:34 13.07.2022
434 Clear 16 1013 80 10000 2.61 193 00:24 13.07.2022
435 Clear 18 1013 74 10000 2.59 182 22:19 12.07.2022
436 Clear 18 1013 74 10000 2.59 182 21:45 12.07.2022
437 Clear 19 1013 71 10000 2.43 187 20:44 12.07.2022
438 Clouds 22 1013 66 10000 2.66 177 19:44 12.07.2022
439 Clouds 22 1012 56 10000 4.91 200 18:25 12.07.2022
440 Clouds 22 1011 53 10000 6.04 194 16:24 12.07.2022
441 Rain 25 1011 58 10000 6.19 187 14:31 12.07.2022
442 Clouds 25 1009 57 10000 5.76 168 13:34 12.07.2022
443 Rain 23 1009 63 10000 5.65 161 11:48 12.07.2022
444 Rain 22 1008 73 8253 5.59 156 10:26 12.07.2022
445 Clouds 21 1008 66 10000 5.63 148 08:46 12.07.2022
446 Clouds 22 1008 76 10000 4.75 141 07:48 12.07.2022
447 Clouds 21 1008 76 10000 7.36 125 05:45 12.07.2022
448 Clouds 21 1008 76 10000 7.55 119 04:57 12.07.2022
449 Clouds 23 1008 89 10000 3.9 79 00:54 12.07.2022
450 Rain 25 1009 89 10000 4.1 106 22:43 11.07.2022
451 Rain 26 1008 75 10000 6.25 67 21:34 11.07.2022
452 Rain 27 1008 68 10000 5.31 60 20:32 11.07.2022
453 Clouds 29 1009 52 10000 3.91 122 19:18 11.07.2022
454 Clouds 30 1009 48 10000 6.31 135 18:29 11.07.2022
455 Clouds 30 1009 43 10000 7.54 137 16:30 11.07.2022
456 Clouds 31 1009 39 10000 7.33 134 15:28 11.07.2022
457 Clouds 31 1008 36 10000 8.13 141 13:19 11.07.2022
458 Clouds 29 1009 36 10000 7.27 127 11:24 11.07.2022
459 Clouds 26 1010 43 10000 6.67 123 09:58 11.07.2022
460 Clouds 25 1011 50 10000 5.83 111 09:35 11.07.2022
461 Clouds 23 1011 58 10000 5.09 102 08:32 11.07.2022
462 Clouds 18 1011 84 10000 2.87 128 01:20 11.07.2022
463 Clouds 18 1011 81 10000 3.53 136 23:55 10.07.2022
464 Rain 18 1010 87 10000 2.82 118 22:48 10.07.2022
465 Rain 19 1010 90 10000 2.69 83 20:56 10.07.2022
466 Rain 19 1010 90 10000 3.6 54 20:36 10.07.2022
467 Rain 19 1009 81 10000 0.97 8 19:38 10.07.2022
468 Rain 18 1010 76 10000 1.52 304 18:35 10.07.2022
469 Rain 21 1010 76 10000 1.52 304 17:35 10.07.2022
470 Clouds 28 1008 47 10000 6.46 160 16:24 10.07.2022
471 Clouds 29 1009 45 10000 6.11 148 15:20 10.07.2022
472 Clouds 28 1009 48 10000 6.24 140 13:40 10.07.2022
473 Clouds 26 1009 57 10000 4.34 144 12:26 10.07.2022
474 Clouds 23 1009 56 10000 4.43 136 09:57 10.07.2022
475 Clouds 21 1010 64 10000 3.93 119 08:44 10.07.2022
476 Clouds 19 1011 88 10000 2.27 92 07:29 10.07.2022
477 Rain 17 1010 90 10000 4.92 104 01:23 10.07.2022
478 Rain 19 1012 90 10000 0.99 18 22:43 09.07.2022
479 Clouds 19 1012 89 10000 0.96 118 22:19 09.07.2022
480 Rain 20 1011 88 10000 2.3 44 20:45 09.07.2022
481 Rain 23 1012 66 10000 2.03 174 18:35 09.07.2022
482 Rain 24 1012 66 10000 2.03 174 17:45 09.07.2022
483 Clouds 23 1011 52 10000 1.87 182 16:44 09.07.2022
484 Clouds 23 1012 46 10000 1.49 131 15:40 09.07.2022
485 Clouds 23 1014 48 10000 0.49 19 14:28 09.07.2022
486 Clouds 22 1013 42 10000 1.69 25 13:50 09.07.2022
487 Clouds 21 1014 45 10000 0.95 252 12:45 09.07.2022
488 Clouds 21 1015 41 10000 2.1 128 11:22 09.07.2022
489 Clouds 22 1015 42 10000 2.08 115 10:22 09.07.2022
490 Clouds 21 1016 50 10000 2.39 104 07:45 09.07.2022
491 Clouds 16 1017 66 10000 1.74 75 04:59 09.07.2022
492 Clouds 17 1017 65 10000 1.71 27 02:34 09.07.2022
493 Clouds 19 1017 59 10000 1.66 335 22:54 08.07.2022
494 Clouds 20 1017 57 10000 1.89 327 21:58 08.07.2022
495 Clouds 22 1017 55 10000 1.9 346 20:41 08.07.2022
496 Clouds 22 1017 51 10000 2.24 350 20:23 08.07.2022
497 Clouds 24 1016 40 10000 1.85 8 18:26 08.07.2022
498 Clouds 24 1016 37 10000 2.04 329 16:49 08.07.2022
499 Clouds 23 1016 35 10000 1.59 352 14:54 08.07.2022
500 Clouds 23 1017 39 10000 1.74 342 13:41 08.07.2022
501 Clouds 22 1017 42 10000 2.44 334 11:59 08.07.2022
502 Clouds 20 1017 45 10000 2.47 339 10:37 08.07.2022
503 Clouds 18 1018 59 10000 3.01 341 08:37 08.07.2022
504 Clouds 17 1018 65 10000 2.69 352 06:50 08.07.2022
505 Clouds 16 1017 83 10000 2.51 336 01:49 08.07.2022
506 Clouds 17 1016 79 10000 3.7 331 23:30 07.07.2022
507 Clouds 18 1015 80 10000 3.83 318 22:38 07.07.2022
508 Clouds 19 1015 80 10000 4.24 311 20:40 07.07.2022
509 Rain 19 1012 60 10000 4.41 272 18:37 07.07.2022
510 Clouds 20 1011 49 10000 4.76 227 17:19 07.07.2022
511 Clouds 32 1011 46 10000 5.82 196 15:18 07.07.2022
512 Clouds 31 1011 44 10000 5.19 186 13:25 07.07.2022
513 Clouds 30 1011 50 10000 4.55 183 12:39 07.07.2022
514 Clouds 30 1011 50 10000 4.55 183 12:19 07.07.2022
515 Clouds 30 1011 45 10000 5.3 182 11:30 07.07.2022
516 Clouds 29 1011 45 10000 5.3 182 10:43 07.07.2022
517 Clouds 29 1011 48 10000 4.9 184 10:25 07.07.2022
518 Clouds 23 1012 67 10000 4.09 181 07:40 07.07.2022
519 Rain 20 1012 89 10000 2.23 164 04:42 07.07.2022
520 Clouds 20 1012 90 10000 2.76 161 23:37 06.07.2022
521 Clouds 19 1012 90 10000 2.4 165 23:19 06.07.2022
522 Clouds 19 1012 90 10000 2.4 165 22:57 06.07.2022
523 Clouds 19 1013 90 10000 2.36 186 22:38 06.07.2022
524 Clouds 21 1013 90 10000 2.23 176 21:30 06.07.2022
525 Rain 21 1013 85 10000 1.58 86 19:39 06.07.2022
526 Clouds 24 1013 79 10000 2 133 18:29 06.07.2022
527 Rain 28 1013 76 10000 3.88 158 16:27 06.07.2022
528 Rain 29 1013 56 10000 0.72 136 14:58 06.07.2022
529 Clouds 29 1014 44 10000 2.43 200 12:43 06.07.2022
530 Clouds 28 1014 44 10000 2.34 203 11:49 06.07.2022
531 Clouds 26 1014 52 10000 1.83 186 10:20 06.07.2022
532 Clouds 25 1015 64 10000 0.52 257 08:26 06.07.2022
533 Clouds 23 1016 65 10000 0.88 58 07:36 06.07.2022
534 Clouds 18 1015 86 10000 0.38 123 05:31 06.07.2022
535 Clouds 18 1015 87 10000 0.85 219 22:49 05.07.2022
536 Clouds 19 1015 86 10000 0.72 208 21:59 05.07.2022
537 Clouds 20 1015 87 10000 1.08 194 20:41 05.07.2022
538 Clouds 20 1015 84 10000 2.39 175 19:43 05.07.2022
539 Clouds 20 1015 82 10000 1.45 210 19:25 05.07.2022
540 Rain 20 1015 88 10000 3.25 311 17:48 05.07.2022
541 Rain 21 1016 92 5416 6.53 273 16:56 05.07.2022
542 Rain 24 1015 77 10000 2.45 243 15:37 05.07.2022
543 Clouds 29 1014 39 10000 4.27 161 14:31 05.07.2022
544 Clear 30 1014 38 10000 3.91 166 12:48 05.07.2022
545 Clear 30 1015 39 10000 3.31 169 11:52 05.07.2022
546 Clear 29 1015 40 10000 3.23 169 10:42 05.07.2022
547 Clouds 28 1015 45 10000 2.78 148 09:24 05.07.2022
548 Clouds 26 1016 49 10000 2.64 154 07:52 05.07.2022
549 Clouds 21 1016 59 10000 2.46 147 05:45 05.07.2022
550 Clouds 19 1016 65 10000 2.21 120 04:25 05.07.2022
551 Clouds 20 1015 66 10000 1.65 130 00:37 05.07.2022
552 Clouds 21 1015 65 10000 0.77 205 23:34 04.07.2022
553 Clouds 21 1015 64 10000 0.77 206 22:50 04.07.2022
554 Clouds 22 1015 64 10000 2.03 118 21:48 04.07.2022
555 Rain 24 1015 60 10000 2.37 116 20:53 04.07.2022
556 Clouds 26 1014 49 10000 2.36 99 20:34 04.07.2022
557 Clouds 27 1015 48 10000 2.48 82 19:55 04.07.2022
558 Clouds 27 1014 45 10000 2.86 68 19:36 04.07.2022
559 Clouds 29 1014 39 10000 3.4 46 18:18 04.07.2022
560 Clouds 30 1014 33 10000 4.02 12 15:58 04.07.2022
561 Clouds 29 1014 33 10000 4.02 12 15:33 04.07.2022
562 Clouds 30 1014 31 10000 3.25 9 13:29 04.07.2022
563 Clouds 29 1015 33 10000 2.97 11 12:30 04.07.2022
564 Clouds 28 1016 39 10000 2.81 7 10:34 04.07.2022
565 Clouds 28 1016 39 10000 2.81 7 09:53 04.07.2022
566 Clouds 26 1016 50 10000 2.49 10 08:24 04.07.2022
567 Clouds 19 1016 68 10000 2.03 10 04:57 04.07.2022
568 Clouds 20 1016 67 10000 2.22 357 00:42 04.07.2022
569 Clear 22 1016 59 10000 2.5 341 22:59 03.07.2022
570 Clear 24 1015 54 10000 2.54 7 20:58 03.07.2022
571 Clear 25 1015 49 10000 2.85 8 20:31 03.07.2022
572 Clear 28 1015 42 10000 3.47 8 19:41 03.07.2022
573 Clear 28 1015 42 10000 3.47 8 19:23 03.07.2022
574 Clear 29 1015 35 10000 4.59 359 17:45 03.07.2022
575 Clear 30 1014 30 10000 5.09 351 15:55 03.07.2022
576 Clear 30 1014 29 10000 4.96 352 14:59 03.07.2022
577 Clear 30 1014 29 10000 4.78 356 14:32 03.07.2022
578 Clear 29 1015 30 10000 4.88 356 13:48 03.07.2022
579 Clear 29 1015 33 10000 4.29 5 12:35 03.07.2022
580 Clear 28 1015 36 10000 4.46 2 11:29 03.07.2022
581 Clear 28 1015 36 10000 4.46 2 10:39 03.07.2022
582 Clear 26 1015 38 10000 4.65 351 09:55 03.07.2022
583 Clouds 22 1016 51 10000 4.14 350 07:36 03.07.2022
584 Clouds 18 1016 64 10000 4.08 320 05:18 03.07.2022
585 Clouds 19 1018 51 10000 3.07 301 00:23 03.07.2022
586 Clouds 19 1018 54 10000 2.46 300 22:35 02.07.2022
587 Clouds 20 1018 52 10000 2.88 303 21:38 02.07.2022
588 Clear 23 1019 47 10000 2.17 326 19:52 02.07.2022
589 Clear 24 1019 40 10000 2.56 348 19:23 02.07.2022
590 Clouds 25 1019 34 10000 3.7 352 17:58 02.07.2022
591 Clouds 25 1019 34 10000 3.7 352 17:36 02.07.2022
592 Clear 25 1020 29 10000 4.04 354 15:28 02.07.2022
593 Clouds 23 1021 29 10000 3.98 355 12:22 02.07.2022
594 Clouds 22 1022 30 10000 4.08 353 11:28 02.07.2022
595 Clouds 22 1022 30 10000 4.08 353 10:48 02.07.2022
596 Clouds 21 1022 32 10000 4.04 350 09:49 02.07.2022
597 Clouds 20 1023 35 10000 3.74 348 08:36 02.07.2022
598 Clouds 20 1023 39 10000 3.11 347 08:18 02.07.2022
599 Clear 11 1023 56 10000 1.95 3 02:52 02.07.2022
600 Clear 14 1023 55 10000 1.95 20 00:27 02.07.2022
601 Clear 15 1023 54 10000 2.36 26 22:59 01.07.2022
602 Clear 16 1023 52 10000 2.7 20 22:19 01.07.2022
603 Clear 16 1022 49 10000 2.71 29 21:37 01.07.2022
604 Clear 17 1022 49 10000 2.71 29 20:57 01.07.2022
605 Clear 20 1022 45 10000 3.22 31 19:47 01.07.2022
606 Clear 21 1022 40 10000 4.16 38 18:42 01.07.2022
607 Clear 22 1020 29 10000 5.97 49 16:35 01.07.2022
608 Clear 22 1020 25 10000 5.83 44 14:21 01.07.2022
609 Clear 22 1020 25 10000 5.63 41 13:22 01.07.2022
610 Clear 21 1020 28 10000 5.37 42 10:53 01.07.2022
611 Clear 20 1019 30 10000 5.39 42 10:19 01.07.2022
612 Clear 18 1018 50 10000 4.56 39 06:20 01.07.2022
613 Clouds 16 1018 75 10000 2.85 6 01:57 01.07.2022
614 Clouds 17 1017 61 10000 3.22 338 23:34 30.06.2022
615 Clouds 18 1017 61 10000 3.22 338 22:47 30.06.2022
616 Clouds 19 1017 58 10000 3.17 344 22:27 30.06.2022
617 Clouds 19 1017 58 10000 3.17 344 21:51 30.06.2022
618 Clouds 22 1017 51 10000 3.72 360 20:41 30.06.2022
619 Clouds 23 1017 52 10000 3.54 357 19:55 30.06.2022
620 Clouds 23 1017 45 10000 4.17 360 19:35 30.06.2022
621 Clouds 23 1017 45 10000 4.17 360 18:49 30.06.2022
622 Clouds 24 1016 38 10000 4.93 1 17:49 30.06.2022
623 Clouds 25 1016 34 10000 5.61 1 16:56 30.06.2022
624 Clouds 25 1016 30 10000 5.58 1 15:52 30.06.2022
625 Clouds 25 1017 28 10000 5.18 354 13:51 30.06.2022
626 Clouds 25 1017 28 10000 4.67 350 13:19 30.06.2022
627 Clouds 24 1017 28 10000 4.67 350 12:33 30.06.2022
628 Clouds 22 1018 31 10000 3.67 358 10:21 30.06.2022
629 Clouds 22 1018 31 10000 3.67 358 09:41 30.06.2022
630 Clouds 21 1019 41 10000 3.36 345 08:26 30.06.2022
631 Clouds 20 1019 40 10000 3.57 351 07:41 30.06.2022
632 Clouds 12 1020 59 10000 1.44 353 03:53 30.06.2022
633 Clear 15 1021 54 10000 1.54 77 23:39 29.06.2022
634 Clear 17 1021 54 10000 1.54 77 22:41 29.06.2022
635 Clear 16 1020 52 10000 1.57 94 22:19 29.06.2022
636 Clear 20 1020 49 10000 1.99 82 20:35 29.06.2022
637 Clear 21 1020 45 10000 2.64 68 19:57 29.06.2022
638 Clear 23 1020 36 10000 2.73 53 18:46 29.06.2022
639 Clear 24 1020 30 10000 2.97 42 17:38 29.06.2022
640 Clear 24 1020 24 10000 2.42 39 16:24 29.06.2022
641 Clear 23 1021 24 10000 2.41 54 13:52 29.06.2022
642 Clear 22 1021 25 10000 2.55 62 12:38 29.06.2022
643 Clear 21 1023 30 10000 3.12 59 10:19 29.06.2022
644 Clear 20 1023 33 10000 3.08 57 09:31 29.06.2022
645 Clear 17 1023 43 10000 2.63 58 06:57 29.06.2022
646 Clear 14 1024 54 10000 2.33 61 04:46 29.06.2022
647 Clear 15 1024 57 10000 2.52 76 00:54 29.06.2022
648 Clear 15 1024 56 10000 2.65 78 00:35 29.06.2022
649 Clear 16 1023 56 10000 2.62 81 22:53 28.06.2022
650 Clear 17 1023 54 10000 3 72 22:21 28.06.2022
651 Clear 19 1023 54 10000 3 72 21:50 28.06.2022
652 Clear 18 1022 51 10000 3.68 64 21:30 28.06.2022
653 Clear 20 1022 46 10000 3.84 66 20:18 28.06.2022
654 Clear 22 1022 45 10000 4.05 72 19:32 28.06.2022
655 Clear 24 1022 40 10000 4.48 68 18:40 28.06.2022
656 Clear 24 1021 31 10000 4.51 45 17:37 28.06.2022
657 Clear 25 1021 30 10000 4.6 36 15:56 28.06.2022
658 Clear 25 1021 30 10000 4.72 30 14:59 28.06.2022
659 Clouds 25 1021 31 10000 4.56 28 14:19 28.06.2022
660 Clouds 25 1021 31 10000 4.49 32 13:47 28.06.2022
661 Clouds 25 1021 31 10000 4.72 35 12:47 28.06.2022
662 Clouds 25 1021 34 10000 4.67 38 10:46 28.06.2022
663 Clear 24 1021 41 10000 4.52 45 09:25 28.06.2022
664 Clear 24 1021 41 10000 4.52 45 08:43 28.06.2022
665 Clear 23 1020 54 10000 4.38 47 07:20 28.06.2022
666 Clear 20 1020 77 10000 3.94 53 04:56 28.06.2022
667 Clear 22 1018 59 10000 2.19 309 23:59 27.06.2022
668 Clear 23 1018 58 10000 2.15 306 23:36 27.06.2022
669 Clear 23 1018 58 10000 2.15 306 22:50 27.06.2022
670 Clear 25 1018 57 10000 1.82 309 21:33 27.06.2022
671 Clear 28 1018 55 10000 1.17 347 20:44 27.06.2022
672 Clouds 30 1018 43 10000 3.02 3 18:58 27.06.2022
673 Clouds 31 1018 39 10000 4.34 6 17:46 27.06.2022
674 Clear 31 1017 33 10000 5.14 324 16:18 27.06.2022
675 Clear 32 1018 32 10000 4.89 319 14:44 27.06.2022
676 Clear 31 1018 34 10000 4.62 319 13:25 27.06.2022
677 Clear 32 1018 34 10000 4.62 319 12:52 27.06.2022
678 Clear 30 1019 42 10000 3.32 320 10:23 27.06.2022
679 Clear 29 1019 47 10000 3.12 314 08:48 27.06.2022
680 Clear 29 1020 53 10000 2.94 307 08:19 27.06.2022
681 Clear 24 1020 59 10000 2.92 299 06:38 27.06.2022
682 Clear 19 1021 68 10000 1.85 292 02:28 27.06.2022
683 Clear 22 1021 61 10000 0.49 334 23:55 26.06.2022
684 Clear 23 1021 60 10000 1.56 317 21:58 26.06.2022
685 Clear 27 1021 54 10000 1.51 310 20:44 26.06.2022
686 Clear 29 1020 44 10000 1.41 31 19:32 26.06.2022
687 Clear 30 1020 44 10000 1.42 31 18:30 26.06.2022
688 Clear 30 1020 34 10000 3.4 358 16:33 26.06.2022
689 Clear 30 1020 31 10000 3.12 331 14:42 26.06.2022
690 Clear 30 1021 32 10000 2.36 309 13:38 26.06.2022
691 Clear 30 1021 32 10000 2.36 309 13:18 26.06.2022
692 Clear 29 1021 35 10000 1.85 288 11:26 26.06.2022
693 Clear 28 1022 38 10000 1.5 300 10:26 26.06.2022
694 Clear 27 1022 43 10000 1.47 328 09:22 26.06.2022
695 Clouds 26 1022 50 10000 1.7 339 07:41 26.06.2022
696 Clear 18 1021 69 10000 0.69 34 01:53 26.06.2022
697 Clear 20 1020 66 10000 1.33 62 00:21 26.06.2022
698 Clear 20 1020 66 10000 1.33 62 23:49 25.06.2022
699 Clear 20 1020 65 10000 1.57 60 22:57 25.06.2022
700 Clear 21 1020 63 10000 1.71 54 22:27 25.06.2022
701 Clear 23 1020 63 10000 1.71 54 21:40 25.06.2022
702 Clear 23 1019 61 10000 1.88 54 21:18 25.06.2022
703 Clear 24 1019 57 10000 2.25 52 20:27 25.06.2022
704 Clear 26 1019 47 10000 2.64 54 19:21 25.06.2022
705 Clear 27 1018 40 10000 3.12 53 17:56 25.06.2022
706 Clear 28 1018 35 10000 3.48 51 17:22 25.06.2022
707 Clear 28 1018 33 10000 3.36 48 15:26 25.06.2022
708 Clear 27 1018 34 10000 3 51 13:34 25.06.2022
709 Clear 27 1018 35 10000 3.01 55 12:38 25.06.2022
710 Clear 26 1019 37 10000 2.73 55 10:35 25.06.2022
711 Clear 24 1019 46 10000 2.69 41 08:59 25.06.2022
712 Clear 24 1019 46 10000 2.69 41 08:37 25.06.2022
713 Clouds 24 1019 51 10000 2.65 36 08:18 25.06.2022
714 Clear 16 1018 76 10000 2 17 03:34 25.06.2022
715 Clouds 19 1017 75 10000 1.85 26 00:35 25.06.2022
716 Clouds 20 1017 72 10000 1.95 22 22:54 24.06.2022
717 Clouds 21 1016 65 10000 2.95 30 21:41 24.06.2022
718 Clouds 21 1016 65 10000 2.94 30 20:47 24.06.2022
719 Clear 22 1016 59 10000 3.26 21 20:19 24.06.2022
720 Clear 24 1016 52 10000 3.66 14 19:21 24.06.2022
721 Clear 25 1016 52 10000 3.66 14 18:49 24.06.2022
722 Clear 25 1016 45 10000 4.7 9 18:30 24.06.2022
723 Clear 26 1015 40 10000 5.17 9 17:20 24.06.2022
724 Clear 26 1015 34 10000 4.61 10 15:29 24.06.2022
725 Clear 26 1015 33 10000 4.55 18 14:27 24.06.2022
726 Clear 26 1015 33 10000 4.55 18 13:55 24.06.2022
727 Clear 26 1015 33 10000 4.55 18 13:55 24.06.2022
728 Clouds 25 1015 33 10000 4.73 16 11:44 24.06.2022
729 Clouds 24 1016 34 10000 4.53 19 11:18 24.06.2022
730 Clouds 23 1016 36 10000 4.13 18 09:55 24.06.2022
731 Clouds 23 1016 41 10000 3.63 16 09:29 24.06.2022
732 Clouds 22 1016 41 10000 3.63 16 08:52 24.06.2022
733 Clouds 20 1017 50 10000 2.66 17 06:48 24.06.2022
734 Clouds 19 1017 58 10000 2.41 18 06:30 24.06.2022
735 Clouds 16 1017 58 10000 2.41 18 05:52 24.06.2022
736 Clouds 15 1016 70 10000 2.08 8 01:28 24.06.2022
737 Clouds 17 1015 68 10000 1.81 34 22:45 23.06.2022
738 Clouds 17 1015 66 10000 1.74 40 22:18 23.06.2022
739 Clear 19 1015 61 10000 3.09 34 20:54 23.06.2022
740 Clear 20 1014 55 10000 3.8 23 20:32 23.06.2022
741 Clear 23 1014 47 10000 3.64 14 18:59 23.06.2022
742 Clear 23 1014 41 10000 4.64 7 17:50 23.06.2022
743 Clear 23 1014 41 10000 4.64 7 17:50 23.06.2022
744 Clear 24 1013 36 10000 4.38 2 16:42 23.06.2022
745 Clear 24 1012 33 10000 4.05 4 15:43 23.06.2022
746 Clear 24 1012 32 10000 3.84 12 15:23 23.06.2022
747 Clear 24 1012 32 10000 4.38 29 13:21 23.06.2022
748 Clear 22 1012 35 10000 4.67 29 11:23 23.06.2022
749 Clear 21 1011 38 10000 4.59 34 10:31 23.06.2022
750 Clear 20 1011 49 10000 4.53 30 08:35 23.06.2022
751 Clear 13 1009 75 10000 3.77 15 02:38 23.06.2022
752 Clear 15 1008 76 10000 3.89 25 00:26 23.06.2022
753 Clear 15 1008 75 10000 4.07 24 23:27 22.06.2022
754 Clear 17 1007 73 10000 3.9 25 22:31 22.06.2022
755 Clear 18 1007 70 10000 3.73 33 21:21 22.06.2022
756 Clouds 19 1006 63 10000 4.51 42 20:25 22.06.2022
757 Clouds 19 1006 63 10000 4.51 42 19:52 22.06.2022
758 Clouds 21 1005 54 10000 4.91 39 18:40 22.06.2022
759 Clouds 21 1004 57 10000 5 42 17:27 22.06.2022
760 Clouds 21 1003 48 10000 5.93 44 16:18 22.06.2022
761 Clouds 21 1003 43 10000 5.46 47 15:26 22.06.2022
762 Clouds 21 1003 44 10000 5.44 63 14:19 22.06.2022
763 Clouds 20 1003 46 10000 4.27 64 13:37 22.06.2022
764 Clouds 20 1003 46 10000 4.27 64 13:18 22.06.2022
765 Clouds 19 1003 50 10000 3.37 74 11:49 22.06.2022
766 Clouds 18 1003 62 10000 3.04 63 10:55 22.06.2022
767 Clouds 17 1003 80 10000 3.16 46 09:59 22.06.2022
768 Clouds 16 1002 92 10000 2.9 42 08:27 22.06.2022
769 Rain 14 1001 91 10000 2.88 52 03:50 22.06.2022
770 Clouds 14 999 86 10000 3.68 69 01:23 22.06.2022
771 Clouds 14 999 75 10000 2.5 66 00:24 22.06.2022
772 Clouds 16 999 74 10000 3.34 62 22:18 21.06.2022
773 Clouds 17 1000 71 10000 1.27 134 19:55 21.06.2022
774 Clouds 17 1000 69 10000 2.08 140 18:35 21.06.2022
775 Clouds 17 1000 69 10000 1.99 152 18:35 21.06.2022
776 Clouds 16 1000 57 10000 2.08 140 17:39 21.06.2022
777 Clouds 17 1002 74 10000 1.67 165 13:54 21.06.2022
778 Clouds 17 1003 73 10000 0.91 149 11:37 21.06.2022
779 Clouds 17 1003 86 10000 0.73 180 09:54 21.06.2022
780 Clouds 16 1003 87 10000 0.95 159 08:47 21.06.2022
781 Clouds 14 1003 76 10000 1.52 90 06:36 21.06.2022
782 Clouds 14 1005 76 10000 0.64 307 01:31 21.06.2022
783 Clouds 14 1006 68 10000 1.14 313 23:24 20.06.2022
784 Clouds 14 1006 67 10000 1.62 310 21:54 20.06.2022
785 Clouds 16 1006 65 10000 2.07 279 20:50 20.06.2022
786 Clouds 17 1006 65 10000 2.54 263 19:40 20.06.2022
787 Clouds 18 1006 57 10000 2.3 258 18:46 20.06.2022
788 Clouds 19 1005 47 10000 2.66 276 18:20 20.06.2022
789 Clouds 19 1005 47 10000 2.66 276 17:35 20.06.2022
790 Clouds 19 1006 63 10000 3.89 260 15:57 20.06.2022
791 Clouds 18 1006 37 10000 3.65 301 12:56 20.06.2022
792 Clouds 18 1006 47 10000 3.74 300 11:25 20.06.2022
793 Clouds 15 1006 60 10000 3.96 304 09:47 20.06.2022
794 Clouds 14 1006 73 10000 4.13 295 08:44 20.06.2022
795 Clouds 13 1007 75 5866 4.89 271 06:37 20.06.2022
796 Rain 14 1006 72 5481 3.14 278 03:20 20.06.2022
797 Clouds 17 1006 61 10000 4.37 266 00:37 20.06.2022
798 Clouds 17 1006 60 10000 5.23 272 23:24 19.06.2022
799 Clouds 18 1006 58 10000 5.54 278 22:18 19.06.2022
800 Clouds 19 1006 56 10000 5.54 278 21:41 19.06.2022
801 Clouds 21 1006 54 10000 6.7 283 20:46 19.06.2022
802 Clouds 20 1005 50 10000 7.05 278 19:48 19.06.2022
803 Clouds 22 1005 55 10000 7.41 266 19:23 19.06.2022
804 Clouds 23 1004 53 10000 5.89 256 18:31 19.06.2022
805 Clouds 23 1004 54 10000 5.89 256 17:39 19.06.2022
806 Clouds 23 1004 51 10000 5.26 252 16:38 19.06.2022
807 Clouds 23 1005 52 10000 6.68 266 15:44 19.06.2022
808 Clouds 23 1005 63 10000 7.64 257 15:26 19.06.2022
809 Clouds 23 1005 56 10000 7.31 246 14:30 19.06.2022
810 Clouds 23 1005 56 10000 7.31 246 13:43 19.06.2022
811 Clouds 22 1006 52 10000 6.63 228 11:53 19.06.2022
812 Clouds 20 1007 48 10000 6.93 236 10:52 19.06.2022
813 Clouds 19 1009 67 10000 4.98 229 08:55 19.06.2022
814 Clouds 19 1010 70 10000 4.67 228 08:30 19.06.2022
815 Clouds 16 1011 66 10000 5.63 237 06:54 19.06.2022
816 Clouds 14 1012 64 10000 3.61 235 03:38 19.06.2022
817 Clouds 15 1013 70 10000 2.58 218 00:28 19.06.2022
818 Clouds 15 1013 70 10000 2.58 218 23:59 18.06.2022
819 Clouds 15 1013 66 10000 2.41 224 23:34 18.06.2022
820 Clouds 16 1013 62 10000 1.93 237 22:23 18.06.2022
821 Clouds 17 1013 60 10000 1.65 259 20:51 18.06.2022
822 Clouds 18 1013 58 10000 2.19 281 20:18 18.06.2022
823 Clouds 20 1013 52 10000 3 278 18:57 18.06.2022
824 Clouds 20 1013 47 10000 3.46 285 18:38 18.06.2022
825 Clouds 20 1013 52 10000 3 278 18:38 18.06.2022
826 Clouds 20 1013 45 10000 3.79 296 17:29 18.06.2022
827 Clouds 20 1013 47 10000 4.01 300 16:18 18.06.2022
828 Clouds 19 1014 46 10000 4.96 305 14:58 18.06.2022
829 Clouds 20 1014 46 10000 4.96 305 14:37 18.06.2022
830 Clouds 20 1014 51 10000 5.13 294 12:31 18.06.2022
831 Clouds 20 1014 53 10000 5.42 284 11:25 18.06.2022
832 Clouds 20 1014 54 10000 5.33 287 10:23 18.06.2022
833 Clouds 18 1014 58 10000 5.02 289 08:59 18.06.2022
834 Clear 16 1015 65 10000 3.18 311 07:34 18.06.2022
835 Clear 15 1015 74 10000 3 312 06:24 18.06.2022
836 Clear 11 1014 76 10000 2.44 303 02:53 18.06.2022
837 Clouds 12 1013 76 10000 2.2 294 01:23 18.06.2022
838 Clouds 12 1013 75 10000 2.24 281 00:39 18.06.2022
839 Clouds 13 1013 73 10000 2.24 281 23:43 17.06.2022
840 Clouds 13 1013 73 10000 2.16 274 22:49 17.06.2022
841 Clouds 15 1013 68 10000 2.77 262 20:33 17.06.2022
842 Clouds 16 1013 59 10000 3.4 258 19:24 17.06.2022
843 Clouds 17 1012 62 10000 4.17 253 18:24 17.06.2022
844 Clouds 19 1013 58 10000 4.54 245 17:22 17.06.2022
845 Clouds 20 1013 58 10000 4.54 245 16:38 17.06.2022
846 Clouds 19 1013 55 10000 4.31 250 15:42 17.06.2022
847 Rain 19 1013 57 10000 4.84 257 14:46 17.06.2022
848 Clouds 20 1013 53 10000 5.44 258 14:18 17.06.2022
849 Clouds 20 1013 52 10000 5.44 259 13:42 17.06.2022
850 Clouds 20 1013 50 10000 5.03 260 12:42 17.06.2022
851 Rain 19 1013 49 10000 4.98 262 11:56 17.06.2022
852 Rain 19 1013 49 10000 4.68 256 11:35 17.06.2022
853 Clouds 20 1013 51 10000 4.21 245 09:59 17.06.2022
854 Clouds 18 1013 53 10000 3.2 260 08:27 17.06.2022
855 Clouds 16 1014 57 10000 3.15 266 06:57 17.06.2022
856 Clouds 12 1014 66 10000 2.97 271 04:52 17.06.2022
857 Clouds 12 1014 59 10000 2.74 278 02:41 17.06.2022
858 Clouds 13 1014 62 10000 2.47 285 00:33 17.06.2022
859 Clouds 15 1013 50 10000 2.42 288 22:44 16.06.2022
860 Clouds 16 1013 47 10000 2.51 264 21:26 16.06.2022
861 Clouds 17 1013 59 10000 2.51 264 20:59 16.06.2022
862 Clouds 17 1013 51 10000 2.6 262 20:36 16.06.2022
863 Clouds 19 1013 52 10000 3.05 259 19:53 16.06.2022
864 Clouds 20 1012 41 10000 4.08 285 18:28 16.06.2022
865 Clouds 21 1012 41 10000 4.07 285 17:43 16.06.2022
866 Clouds 22 1012 43 10000 4.85 279 16:39 16.06.2022
867 Clouds 22 1012 43 10000 4.63 296 15:24 16.06.2022
868 Clouds 22 1012 45 10000 4.63 296 14:46 16.06.2022
869 Clouds 20 1012 37 10000 4.81 292 13:34 16.06.2022
870 Clouds 20 1012 51 10000 4.79 268 12:37 16.06.2022
871 Clouds 20 1012 52 10000 4.44 248 11:52 16.06.2022
872 Rain 20 1012 51 10000 4.09 250 11:18 16.06.2022
873 Clouds 19 1012 39 10000 4.09 257 10:32 16.06.2022
874 Clouds 19 1012 60 10000 4.04 255 09:22 16.06.2022
875 Clouds 18 1012 60 10000 4.04 255 08:36 16.06.2022
876 Clouds 16 1013 61 10000 3.46 256 07:28 16.06.2022
877 Clouds 14 1012 75 10000 3.57 252 05:29 16.06.2022
878 Clouds 13 1012 74 10000 3.94 247 02:50 16.06.2022
879 Clouds 14 1012 72 10000 4.31 253 01:51 16.06.2022
880 Clouds 13 1012 73 10000 4.31 253 01:51 16.06.2022
881 Clear 13 1012 72 10000 4.36 248 01:21 16.06.2022
882 Clear 14 1012 72 10000 4.36 248 01:21 16.06.2022
883 Clear 14 1012 69 10000 4.16 248 23:47 15.06.2022
884 Clear 14 1012 67 10000 4.27 253 22:44 15.06.2022
885 Clear 15 1011 62 10000 5.12 253 21:23 15.06.2022
886 Clear 16 1011 75 10000 5.12 253 20:56 15.06.2022
887 Clouds 17 1010 59 10000 5.17 245 20:35 15.06.2022
888 Clouds 17 1010 68 10000 4.66 244 19:30 15.06.2022
889 Clouds 18 1010 63 10000 5.11 251 18:29 15.06.2022
890 Clouds 18 1010 63 10000 5.11 251 17:41 15.06.2022
891 Clouds 18 1010 55 10000 6.51 255 15:51 15.06.2022
892 Clouds 19 1010 55 10000 6.38 236 14:30 15.06.2022
893 Clouds 17 1010 54 10000 6.03 245 12:57 15.06.2022
894 Clouds 17 1010 49 10000 6.2 231 12:32 15.06.2022
895 Clouds 17 1010 58 10000 6.02 230 10:53 15.06.2022
896 Clouds 16 1010 60 10000 6.11 238 10:20 15.06.2022
897 Clouds 15 1009 54 10000 5.72 240 08:57 15.06.2022
898 Clear 13 1009 65 10000 5.65 232 07:32 15.06.2022
899 Clear 12 1009 75 10000 5.37 234 05:24 15.06.2022
900 Clear 13 1009 77 10000 3.88 228 02:31 15.06.2022
901 Clouds 13 1008 76 10000 4.34 233 01:33 15.06.2022
902 Clouds 15 1008 74 10000 3.26 240 23:55 14.06.2022
903 Clouds 15 1008 90 10000 3 253 23:37 14.06.2022
904 Clouds 15 1008 90 10000 3 253 22:45 14.06.2022
905 Clouds 17 1007 72 10000 3.47 267 21:43 14.06.2022
906 Clouds 16 1007 88 10000 4.27 268 20:58 14.06.2022
907 Clouds 17 1007 88 10000 4.27 268 20:36 14.06.2022
908 Clouds 17 1007 69 10000 3.57 268 19:47 14.06.2022
909 Rain 18 1006 66 10000 4.7 247 18:33 14.06.2022
910 Clouds 20 1005 53 10000 5.63 160 16:50 14.06.2022
911 Clouds 25 1006 50 10000 5.11 161 16:25 14.06.2022
912 Clouds 26 1007 46 10000 5.02 158 15:36 14.06.2022
913 Clouds 26 1007 46 10000 5.02 158 14:53 14.06.2022
914 Clouds 26 1007 43 10000 5.06 154 13:57 14.06.2022
915 Clouds 26 1007 39 10000 4.34 160 12:59 14.06.2022
916 Clouds 25 1008 53 10000 3.69 164 11:56 14.06.2022
917 Clouds 25 1009 57 10000 2.86 166 10:51 14.06.2022
918 Clouds 23 1009 47 10000 2.43 159 10:28 14.06.2022
919 Clouds 22 1009 53 10000 1.88 139 09:18 14.06.2022
920 Clouds 22 1010 62 10000 1.59 111 08:24 14.06.2022
921 Clouds 16 1011 78 10000 1.36 40 06:20 14.06.2022
922 Clouds 15 1010 88 10000 1.31 18 03:52 14.06.2022
923 Clouds 16 1010 89 10000 1.87 354 01:37 14.06.2022
924 Clouds 17 1010 73 10000 2 330 00:21 14.06.2022
925 Clouds 18 1010 71 10000 1.64 317 22:45 13.06.2022
926 Clouds 18 1009 71 10000 0.28 215 22:22 13.06.2022
927 Clouds 18 1009 70 10000 0.28 216 21:39 13.06.2022
928 Clouds 20 1010 66 10000 0.3 24 19:59 13.06.2022
929 Clouds 21 1010 80 10000 1.01 267 18:54 13.06.2022
930 Clouds 22 1009 62 10000 1.16 246 17:56 13.06.2022
931 Clouds 21 1010 80 7591 2.2 247 17:24 13.06.2022
932 Clouds 19 1010 66 4915 3.21 232 16:30 13.06.2022
933 Clouds 20 1010 58 10000 3.48 202 14:51 13.06.2022
934 Clouds 21 1010 55 10000 4.13 193 14:31 13.06.2022
935 Clouds 22 1010 56 10000 4.23 181 13:33 13.06.2022
936 Rain 22 1010 54 10000 4.3 176 12:22 13.06.2022
937 Clouds 22 1010 50 10000 4.38 169 10:56 13.06.2022
938 Clouds 21 1011 55 10000 3.85 172 10:26 13.06.2022
939 Clouds 21 1011 56 10000 3.55 166 08:52 13.06.2022
940 Clouds 18 1012 69 10000 2.49 166 06:37 13.06.2022
941 Clouds 16 1012 69 10000 2.49 166 05:35 13.06.2022
942 Clouds 16 1012 69 10000 2.49 166 05:35 13.06.2022
943 Clear 15 1013 65 10000 2.29 122 02:27 13.06.2022
944 Clear 16 1013 69 10000 2.6 129 01:36 13.06.2022
945 Clear 17 1013 57 10000 2.78 110 23:49 12.06.2022
946 Clear 18 1014 56 10000 2.88 115 22:44 12.06.2022
947 Clear 17 1014 55 10000 2.92 106 21:53 12.06.2022
948 Clear 20 1014 50 10000 3.65 102 20:53 12.06.2022
949 Clouds 20 1014 48 10000 3.6 99 20:18 12.06.2022
950 Clouds 22 1014 48 10000 3.6 99 19:30 12.06.2022
951 Clouds 23 1013 42 10000 3.69 110 17:40 12.06.2022
952 Clouds 23 1013 38 10000 3.47 110 15:57 12.06.2022
953 Clouds 24 1013 37 10000 3.47 102 14:51 12.06.2022
954 Clouds 23 1014 39 10000 3.21 106 14:20 12.06.2022
955 Clouds 23 1014 39 10000 3.21 106 13:49 12.06.2022
956 Clouds 23 1014 56 10000 3.11 91 12:32 12.06.2022
957 Clouds 23 1015 57 10000 3.23 91 11:22 12.06.2022
958 Clouds 22 1015 58 10000 3.41 90 10:21 12.06.2022
959 Clouds 19 1015 51 10000 3.4 90 08:54 12.06.2022
960 Clouds 20 1016 64 10000 3.2 90 08:35 12.06.2022
961 Clouds 19 1016 68 10000 3.35 92 07:31 12.06.2022
962 Clouds 16 1016 82 10000 3.23 85 04:35 12.06.2022
963 Rain 17 1016 85 10000 2.33 69 02:38 12.06.2022
964 Clouds 18 1016 87 10000 2.39 61 01:36 12.06.2022
965 Clouds 18 1016 84 10000 2.07 55 00:58 12.06.2022
966 Clouds 18 1016 80 10000 1.79 52 00:20 12.06.2022
967 Clouds 18 1016 65 10000 1.62 47 23:29 11.06.2022
968 Clouds 18 1016 64 10000 1.62 47 22:38 11.06.2022
969 Clouds 18 1016 64 10000 1.85 50 22:38 11.06.2022
970 Rain 18 1016 59 10000 1.85 50 21:42 11.06.2022
971 Clouds 20 1016 70 10000 1.89 54 20:34 11.06.2022
972 Clouds 21 1016 67 10000 2.31 69 19:46 11.06.2022
973 Clouds 21 1015 61 10000 2.85 75 19:19 11.06.2022
974 Clouds 21 1015 61 10000 2.85 75 18:33 11.06.2022
975 Clouds 23 1015 56 10000 3.24 84 17:50 11.06.2022
976 Clouds 23 1015 55 10000 3.75 73 17:26 11.06.2022
977 Clouds 23 1015 55 10000 3.75 73 16:52 11.06.2022
978 Clouds 23 1015 55 10000 3.91 55 16:26 11.06.2022
979 Clouds 23 1016 53 10000 3.58 56 15:28 11.06.2022
980 Clouds 23 1015 41 10000 4.72 59 13:53 11.06.2022
981 Rain 23 1015 50 10000 4.96 50 12:51 11.06.2022
982 Clouds 22 1015 37 10000 1.81 20 10:46 11.06.2022
983 Clouds 23 1015 40 10000 1.35 17 09:48 11.06.2022
984 Clouds 23 1016 45 10000 1.35 11 09:18 11.06.2022
985 Clouds 21 1016 50 10000 0.87 22 07:40 11.06.2022
986 Clouds 19 1016 61 10000 1.13 13 06:25 11.06.2022
987 Clouds 14 1015 74 10000 1.35 353 04:23 11.06.2022
988 Clouds 16 1015 73 10000 1.13 321 01:52 11.06.2022
989 Clouds 16 1015 73 10000 1.13 321 01:32 11.06.2022
990 Clouds 17 1015 72 10000 0.85 1 23:34 10.06.2022
991 Clouds 17 1015 69 10000 1.7 14 22:31 10.06.2022
992 Clouds 19 1015 69 10000 1.7 14 21:50 10.06.2022
993 Clouds 21 1015 65 10000 2.07 360 20:41 10.06.2022
994 Clouds 22 1014 59 10000 2.11 342 20:21 10.06.2022
995 Clouds 24 1014 51 10000 2.9 348 19:20 10.06.2022
996 Clouds 24 1014 51 10000 2.9 348 18:56 10.06.2022
997 Clouds 25 1014 46 10000 4 343 17:58 10.06.2022
998 Clouds 25 1014 46 10000 4 343 17:35 10.06.2022
999 Clouds 25 1014 42 10000 4.47 326 16:50 10.06.2022
1000 Clouds 25 1014 40 10000 4.22 312 15:44 10.06.2022
1001 Clouds 26 1014 40 10000 4.54 309 14:51 10.06.2022
1002 Clouds 26 1014 42 10000 4.55 313 13:36 10.06.2022
1003 Clouds 26 1014 46 10000 4.17 325 12:21 10.06.2022
1004 Clouds 25 1014 47 10000 4.17 325 11:30 10.06.2022
1005 Clouds 24 1014 49 10000 3.86 331 10:36 10.06.2022
1006 Clouds 23 1014 52 10000 3.64 335 09:37 10.06.2022
1007 Clouds 22 1015 67 10000 3.61 348 07:58 10.06.2022
1008 Clouds 21 1014 77 10000 3.56 339 06:50 10.06.2022
1009 Clouds 21 1014 84 10000 2.92 329 06:31 10.06.2022
1010 Clouds 19 1014 84 10000 2.92 329 05:34 10.06.2022
1011 Clouds 18 1013 94 10000 1.89 302 02:54 10.06.2022
1012 Clouds 18 1013 92 10000 2.09 291 01:37 10.06.2022
1013 Clouds 19 1013 78 10000 1.92 287 23:58 09.06.2022
1014 Clouds 20 1013 75 10000 2.2 277 22:47 09.06.2022
1015 Clouds 21 1013 45 10000 2.5 271 21:46 09.06.2022
1016 Clouds 21 1012 44 10000 2.36 255 21:28 09.06.2022
1017 Clouds 22 1012 42 10000 2.36 255 20:40 09.06.2022
1018 Clouds 23 1013 64 10000 2.01 230 19:51 09.06.2022
1019 Clouds 24 1012 58 10000 1.86 231 18:43 09.06.2022
1020 Clouds 25 1012 56 10000 2.76 223 17:56 09.06.2022
1021 Clouds 26 1012 42 10000 2.72 219 16:38 09.06.2022
1022 Clouds 27 1012 42 10000 2.72 219 15:42 09.06.2022
1023 Clouds 27 1012 35 10000 2.59 224 14:34 09.06.2022
1024 Clouds 27 1012 31 10000 2.38 229 13:46 09.06.2022
1025 Clouds 26 1013 32 10000 2.2 220 13:25 09.06.2022
1026 Clouds 25 1013 34 10000 1.96 216 11:53 09.06.2022
1027 Clouds 24 1013 34 10000 1.8 210 10:40 09.06.2022
1028 Clouds 23 1014 38 10000 1.67 204 09:41 09.06.2022
1029 Clouds 23 1014 39 10000 1.42 200 09:22 09.06.2022
1030 Clouds 19 1014 50 10000 1.09 191 07:29 09.06.2022
1031 Clouds 15 1014 53 10000 0.79 176 05:26 09.06.2022
1032 Clouds 12 1015 66 10000 1.28 182 01:44 09.06.2022
1033 Clouds 14 1015 60 10000 1.78 113 23:24 08.06.2022
1034 Clouds 15 1015 60 10000 1.78 113 22:50 08.06.2022
1035 Clouds 15 1015 55 10000 1.96 96 22:25 08.06.2022
1036 Clouds 16 1015 55 10000 1.96 96 21:48 08.06.2022
1037 Clouds 20 1015 51 10000 1.87 75 20:33 08.06.2022
1038 Clear 21 1015 49 10000 2.15 59 19:49 08.06.2022
1039 Clear 23 1014 43 10000 2.5 34 18:58 08.06.2022
1040 Clear 22 1014 43 10000 2.5 34 18:40 08.06.2022
1041 Clear 23 1014 29 10000 2.68 340 16:34 08.06.2022
1042 Clear 23 1014 28 10000 2.74 334 14:54 08.06.2022
1043 Clear 22 1014 34 10000 2.4 328 13:36 08.06.2022
1044 Clear 22 1014 37 10000 2.44 353 11:50 08.06.2022
1045 Clear 21 1015 38 10000 2.58 358 11:24 08.06.2022
1046 Clear 20 1015 41 10000 3.13 11 09:47 08.06.2022
1047 Clear 20 1015 41 10000 3.23 10 09:20 08.06.2022
1048 Clouds 19 1015 41 10000 3.08 1 08:18 08.06.2022
1049 Clouds 13 1015 68 10000 2.53 330 05:22 08.06.2022
1050 Clouds 10 1015 66 10000 2.15 276 02:39 08.06.2022
1051 Clear 12 1015 46 10000 1.55 272 00:21 08.06.2022
1052 Clear 13 1015 45 10000 1.24 308 23:25 07.06.2022
1053 Clear 14 1015 56 10000 1.24 308 22:42 07.06.2022
1054 Clear 14 1015 54 10000 1.4 301 21:59 07.06.2022
1055 Clear 15 1015 51 10000 1.6 295 21:28 07.06.2022
1056 Clear 16 1015 51 10000 1.6 295 20:52 07.06.2022
1057 Clouds 17 1015 49 10000 1.69 308 20:31 07.06.2022
1058 Clear 19 1015 43 10000 2.69 325 19:24 07.06.2022
1059 Clear 20 1015 36 10000 3.95 327 17:57 07.06.2022
1060 Clear 20 1015 32 10000 4.49 325 17:19 07.06.2022
1061 Clouds 20 1015 29 10000 4.57 323 16:39 07.06.2022
1062 Clouds 20 1015 29 10000 4.57 323 15:43 07.06.2022
1063 Clouds 20 1015 28 10000 4.4 324 15:23 07.06.2022
1064 Clouds 20 1015 28 10000 4.4 324 14:46 07.06.2022
1065 Clear 20 1015 38 10000 4.26 325 13:58 07.06.2022
1066 Clouds 20 1016 40 10000 3.81 327 13:29 07.06.2022
1067 Clouds 19 1016 41 10000 3.81 327 12:45 07.06.2022
1068 Clouds 18 1016 43 10000 3.7 330 11:31 07.06.2022
1069 Clouds 17 1017 47 10000 3.96 331 10:26 07.06.2022
1070 Clouds 16 1017 49 10000 4.08 331 08:49 07.06.2022
1071 Clouds 16 1017 50 10000 4.08 331 08:49 07.06.2022
1072 Clouds 16 1017 50 10000 4.08 331 08:49 07.06.2022
1073 Clear 15 1018 47 10000 4.09 324 07:32 07.06.2022
1074 Clear 12 1018 58 10000 3.41 328 05:56 07.06.2022
1075 Clear 10 1017 81 10000 2.68 325 03:18 07.06.2022
1076 Clear 12 1017 78 10000 2.45 327 00:42 07.06.2022
1077 Clear 13 1017 77 10000 2.84 338 23:35 06.06.2022
1078 Clear 14 1016 76 10000 3.27 322 22:47 06.06.2022
1079 Clear 15 1016 77 10000 2.62 305 21:49 06.06.2022
1080 Clouds 15 1016 72 10000 3.19 323 20:21 06.06.2022
1081 Clouds 17 1016 71 10000 4.09 319 19:23 06.06.2022
1082 Clouds 17 1016 71 10000 4.09 319 18:46 06.06.2022
1083 Clouds 17 1015 54 10000 4.69 321 17:55 06.06.2022
1084 Clouds 17 1015 54 10000 4.06 286 16:51 06.06.2022
1085 Rain 21 1015 49 10000 4.57 315 15:44 06.06.2022
1086 Clouds 21 1015 48 10000 4.35 305 14:57 06.06.2022
1087 Clouds 20 1015 45 10000 3.39 318 13:40 06.06.2022
1088 Clouds 21 1015 51 10000 4.42 328 12:59 06.06.2022
1089 Clouds 20 1016 51 10000 4.29 334 12:27 06.06.2022
1090 Clouds 20 1016 52 10000 4.29 334 11:45 06.06.2022
1091 Clouds 18 1016 57 10000 4.75 334 09:46 06.06.2022
1092 Clear 17 1016 61 10000 4.68 340 08:36 06.06.2022
1093 Clear 16 1016 57 10000 4.68 340 07:44 06.06.2022
1094 Clear 15 1016 66 10000 4.32 338 06:49 06.06.2022
1095 Clear 11 1016 72 10000 3.48 325 04:36 06.06.2022
1096 Clear 12 1015 71 10000 2.88 325 01:31 06.06.2022
1097 Clear 11 1015 70 10000 2.95 326 00:55 06.06.2022
1098 Clear 12 1015 70 10000 2.95 326 00:33 06.06.2022
1099 Clear 13 1015 67 10000 3.48 323 22:58 05.06.2022
1100 Clear 13 1015 85 10000 3.49 316 22:19 05.06.2022
1101 Clouds 15 1015 73 10000 3.12 310 20:23 05.06.2022
1102 Clouds 17 1014 67 10000 3.6 319 18:57 05.06.2022
1103 Clouds 18 1014 55 10000 4.62 322 18:18 05.06.2022
1104 Clouds 18 1014 55 10000 4.62 322 17:38 05.06.2022
1105 Clouds 17 1014 55 10000 5.14 323 17:20 05.06.2022
1106 Clouds 17 1014 55 10000 5.14 323 16:47 05.06.2022
1107 Clouds 18 1014 56 10000 4.68 307 15:25 05.06.2022
1108 Clouds 18 1014 61 10000 4.48 301 14:21 05.06.2022
1109 Clouds 16 1015 62 10000 5.18 327 11:58 05.06.2022
1110 Clouds 15 1015 65 10000 5.35 328 10:45 05.06.2022
1111 Clouds 15 1015 66 10000 6.16 296 10:24 05.06.2022
1112 Clouds 14 1015 58 10000 6.16 296 09:33 05.06.2022
1113 Rain 12 1015 68 10000 4.15 265 08:23 05.06.2022
1114 Clouds 13 1015 76 10000 2.92 258 06:23 05.06.2022
1115 Clouds 12 1016 81 10000 3.01 265 05:19 05.06.2022
1116 Clouds 12 1016 81 10000 2.63 250 02:47 05.06.2022
1117 Clouds 13 1017 62 10000 3.24 225 01:24 05.06.2022
1118 Clouds 14 1017 68 10000 2.92 226 22:51 04.06.2022
1119 Clouds 16 1018 65 10000 2.19 227 21:30 04.06.2022
1120 Clouds 19 1019 58 10000 2.49 249 19:36 04.06.2022
1121 Clouds 21 1019 54 10000 4.07 269 17:21 04.06.2022
1122 Clouds 21 1019 47 10000 3.66 258 16:20 04.06.2022
1123 Clouds 20 1019 47 10000 3.66 258 15:45 04.06.2022
1124 Clouds 19 1020 45 10000 3.93 293 14:18 04.06.2022
1125 Clouds 19 1020 41 10000 3.86 275 11:43 04.06.2022
1126 Clouds 19 1020 54 10000 3.88 275 10:55 04.06.2022
1127 Clouds 19 1021 56 10000 3.75 280 10:19 04.06.2022
1128 Clouds 18 1021 59 10000 3.75 280 09:39 04.06.2022
1129 Clouds 17 1021 61 10000 3.82 283 08:39 04.06.2022
1130 Clear 14 1021 62 10000 2.8 283 07:18 04.06.2022
1131 Clear 9 1021 78 10000 2.78 279 04:29 04.06.2022
1132 Clear 12 1021 73 10000 3.34 276 00:37 04.06.2022
1133 Clear 12 1020 73 10000 2.93 266 23:28 03.06.2022
1134 Clear 12 1020 72 10000 2.91 267 22:20 03.06.2022
1135 Clear 15 1020 69 10000 2.39 250 20:42 03.06.2022
1136 Clouds 15 1019 73 10000 1.72 296 19:58 03.06.2022
1137 Clouds 17 1018 66 10000 5.98 305 17:31 03.06.2022
1138 Clouds 16 1018 62 10000 5.98 305 16:34 03.06.2022
1139 Clouds 16 1018 69 10000 6.48 300 14:52 03.06.2022
1140 Clouds 19 1016 72 10000 4.85 281 12:52 03.06.2022
1141 Clouds 18 1015 91 10000 3.41 281 10:36 03.06.2022
1142 Rain 17 1015 74 10000 3.06 258 09:37 03.06.2022
1143 Clouds 20 1015 83 10000 2.93 230 07:54 03.06.2022
1144 Clouds 20 1015 78 9235 2.72 219 07:26 03.06.2022
1145 Clouds 19 1016 82 10000 2.59 202 06:31 03.06.2022
1146 Clouds 16 1016 87 10000 2 188 04:40 03.06.2022
1147 Clouds 18 1016 72 10000 2.26 155 00:22 03.06.2022
1148 Clouds 19 1016 68 10000 2.75 228 22:35 02.06.2022
1149 Rain 18 1016 66 10000 2.75 228 21:34 02.06.2022
1150 Rain 19 1017 84 10000 2.54 159 20:22 02.06.2022
1151 Clouds 22 1017 84 10000 2.54 159 19:43 02.06.2022
1152 Clouds 23 1017 81 10000 2.17 151 19:23 02.06.2022
1153 Clouds 25 1017 66 10000 3.11 171 16:47 02.06.2022
1154 Clouds 25 1017 52 10000 3.4 166 16:27 02.06.2022
1155 Clouds 25 1018 58 10000 3.04 127 14:19 02.06.2022
1156 Clouds 24 1019 63 10000 2.98 127 13:29 02.06.2022
1157 Clouds 23 1019 64 10000 2.64 163 11:24 02.06.2022
1158 Clouds 22 1019 66 10000 2.89 159 10:20 02.06.2022
1159 Clouds 20 1019 67 10000 2.74 156 09:27 02.06.2022
1160 Clouds 20 1020 65 10000 2.76 155 08:26 02.06.2022
1161 Clouds 17 1020 87 10000 2.76 154 07:21 02.06.2022
1162 Clouds 15 1020 94 10000 2.72 139 04:49 02.06.2022
1163 Clouds 14 1021 96 10000 2.24 129 02:38 02.06.2022
1164 Clouds 16 1021 75 10000 3.32 131 23:47 01.06.2022
1165 Clouds 17 1021 96 10000 3.37 133 22:32 01.06.2022
1166 Clouds 17 1021 96 10000 3.5 139 21:35 01.06.2022
1167 Clouds 17 1021 70 10000 3.98 142 20:58 01.06.2022
1168 Clouds 18 1021 68 10000 3.98 142 20:37 01.06.2022
1169 Clouds 19 1020 67 10000 4.85 137 19:25 01.06.2022
1170 Clouds 20 1020 59 10000 5.23 137 17:46 01.06.2022
1171 Clouds 22 1021 58 10000 5.32 143 16:38 01.06.2022
1172 Clouds 22 1021 57 10000 4.46 133 14:59 01.06.2022
1173 Clouds 22 1021 69 10000 5.1 135 13:53 01.06.2022
1174 Clouds 23 1020 54 10000 4.33 121 12:26 01.06.2022
1175 Clouds 21 1021 64 10000 2.84 103 09:48 01.06.2022
1176 Clouds 20 1021 66 10000 2.78 87 08:53 01.06.2022
1177 Clouds 16 1022 82 10000 2.29 62 07:25 01.06.2022
1178 Clouds 16 1022 82 10000 2.29 62 06:30 01.06.2022
1179 Clouds 14 1021 81 10000 1.41 84 00:48 01.06.2022
1180 Clouds 15 1021 80 10000 1.98 94 23:30 31.05.2022
1181 Clouds 15 1021 79 10000 2.25 91 22:37 31.05.2022
1182 Clouds 15 1021 79 10000 2.25 91 21:46 31.05.2022
1183 Clouds 15 1020 78 10000 2.33 83 20:46 31.05.2022
1184 Clouds 15 1020 78 10000 2.09 84 20:23 31.05.2022
1185 Clouds 16 1021 74 10000 2.87 110 18:53 31.05.2022
1186 Clouds 16 1020 73 10000 3.06 109 17:51 31.05.2022
1187 Rain 16 1020 73 10000 3.53 118 17:18 31.05.2022
1188 Rain 16 1020 89 10000 3.69 132 15:41 31.05.2022
1189 Rain 16 1020 93 10000 3.33 136 14:33 31.05.2022
1190 Clouds 16 1020 95 10000 4.84 138 12:22 31.05.2022
1191 Rain 15 1020 95 10000 4.98 133 11:23 31.05.2022
1192 Rain 15 1020 72 10000 4.85 136 09:49 31.05.2022
1193 Rain 13 1020 71 8456 4.56 145 07:36 31.05.2022
1194 Rain 14 1020 66 10000 3.93 134 05:24 31.05.2022
1195 Clouds 14 1020 60 10000 2.69 138 02:33 31.05.2022
1196 Clouds 15 1020 71 10000 2.63 154 23:29 30.05.2022
1197 Rain 16 1020 53 10000 2.63 154 22:59 30.05.2022
1198 Clouds 16 1020 69 10000 2.39 152 22:24 30.05.2022
1199 Clouds 16 1020 66 10000 2.37 140 21:35 30.05.2022
1200 Clouds 17 1020 63 10000 2.47 149 20:22 30.05.2022
1201 Clouds 18 1020 47 10000 3.08 152 19:26 30.05.2022
1202 Clouds 19 1020 52 10000 3.42 154 17:43 30.05.2022
1203 Clouds 19 1020 41 10000 3.62 160 16:54 30.05.2022
1204 Clouds 20 1020 37 10000 3.47 164 15:43 30.05.2022
1205 Clear 19 1020 47 10000 2.39 182 12:44 30.05.2022
1206 Clear 18 1020 51 10000 1.52 219 11:26 30.05.2022
1207 Clear 17 1020 54 10000 1.82 237 09:39 30.05.2022
1208 Clear 13 1020 58 10000 2.08 248 07:24 30.05.2022
1209 Clear 10 1020 65 10000 2.2 257 05:51 30.05.2022
1210 Clear 7 1019 73 10000 2.42 251 02:36 30.05.2022
1211 Clear 9 1016 64 10000 2.69 254 23:32 29.05.2022
1212 Clear 9 1016 75 10000 2.69 254 22:40 29.05.2022
1213 Clear 10 1016 72 10000 2.69 247 21:40 29.05.2022
1214 Clouds 12 1014 64 10000 2.43 253 19:57 29.05.2022
1215 Clouds 13 1013 57 10000 2.91 255 19:28 29.05.2022
1216 Clouds 15 1013 48 10000 3.45 253 17:48 29.05.2022
1217 Clouds 15 1012 60 10000 4.76 272 15:50 29.05.2022
1218 Clouds 15 1012 59 10000 4.76 272 15:32 29.05.2022
1219 Clouds 14 1011 67 10000 5.82 243 14:31 29.05.2022
1220 Clouds 13 1010 67 10000 6.06 237 12:21 29.05.2022
1221 Clouds 10 1010 46 10000 5.91 239 10:45 29.05.2022
1222 Rain 12 1009 67 10000 5.41 246 09:52 29.05.2022
1223 Rain 10 1009 75 10000 4.63 247 07:28 29.05.2022
1224 Clouds 7 1008 79 10000 3.54 238 04:50 29.05.2022
1225 Clouds 6 1008 83 10000 3.54 238 04:31 29.05.2022
1226 Clear 7 1006 77 10000 2.62 230 00:48 29.05.2022
1227 Clear 7 1006 76 10000 2.95 233 23:42 28.05.2022
1228 Clear 7 1006 74 10000 3.4 232 22:56 28.05.2022
1229 Clear 8 1005 73 10000 3.19 233 21:46 28.05.2022
1230 Clear 10 1005 72 10000 3.4 244 20:40 28.05.2022
1231 Clouds 11 1004 77 10000 4.7 254 19:19 28.05.2022
1232 Clouds 12 1003 77 10000 4.55 251 18:21 28.05.2022
1233 Rain 12 1003 77 10000 4.55 251 17:30 28.05.2022
1234 Clouds 13 1002 84 10000 5.35 260 15:45 28.05.2022
1235 Clouds 14 1002 82 10000 5.58 256 15:19 28.05.2022
1236 Clouds 14 1000 74 10000 5.47 234 13:29 28.05.2022
1237 Clouds 13 1000 76 10000 5.47 234 12:42 28.05.2022
1238 Clouds 12 999 75 10000 5.32 246 11:28 28.05.2022
1239 Clouds 12 999 77 10000 5.32 246 10:38 28.05.2022
1240 Clouds 11 998 78 10000 3.14 249 09:54 28.05.2022
1241 Rain 11 998 77 10000 2.2 232 08:21 28.05.2022
1242 Clouds 9 999 67 10000 2.39 214 06:33 28.05.2022
1243 Clouds 7 999 79 10000 1.88 225 04:46 28.05.2022
1244 Clouds 7 1000 80 10000 2.13 229 02:18 28.05.2022
1245 Clouds 8 1000 78 10000 3.15 233 23:55 27.05.2022
1246 Clouds 9 1000 78 10000 2.76 231 22:38 27.05.2022
1247 Clear 9 1000 74 10000 3.47 240 21:28 27.05.2022
1248 Clear 10 1000 73 10000 3.47 240 20:44 27.05.2022
1249 Clouds 11 1001 72 10000 4.15 248 20:19 27.05.2022
1250 Clouds 12 1001 70 10000 4.43 259 19:37 27.05.2022
1251 Clouds 12 1001 70 10000 4.43 259 19:19 27.05.2022
1252 Clouds 12 1001 70 10000 4.43 259 19:19 27.05.2022
1253 Clouds 14 1000 73 10000 5.4 276 16:53 27.05.2022
1254 Clouds 13 1000 72 10000 5.98 283 15:56 27.05.2022
1255 Rain 13 1000 76 10000 6.08 270 14:53 27.05.2022
1256 Rain 13 999 79 10000 6.5 272 13:40 27.05.2022
1257 Clouds 13 999 86 10000 5.99 268 12:20 27.05.2022
1258 Clouds 13 999 85 10000 5.7 275 11:30 27.05.2022
1259 Clouds 12 999 85 10000 5.7 275 10:41 27.05.2022
1260 Clouds 11 998 88 10000 5.18 281 09:59 27.05.2022
1261 Clouds 11 998 91 10000 5.45 281 09:29 27.05.2022
1262 Rain 10 998 90 10000 5.35 291 07:39 27.05.2022
1263 Rain 10 998 90 10000 5.35 291 07:39 27.05.2022
1264 Rain 10 997 92 9439 5.8 313 03:59 27.05.2022
1265 Clouds 11 997 95 6052 3.18 314 01:38 27.05.2022
1266 Rain 11 998 95 5729 3.64 28 23:23 26.05.2022
1267 Rain 12 998 95 6331 3.16 46 22:22 26.05.2022
1268 Rain 12 999 93 7844 2.43 71 21:27 26.05.2022
1269 Rain 12 1001 85 10000 2.16 150 19:35 26.05.2022
1270 Rain 15 1002 78 10000 3.34 187 18:51 26.05.2022
1271 Clouds 18 1002 70 10000 3.77 205 17:36 26.05.2022
1272 Clouds 19 1003 66 10000 4.09 222 16:30 26.05.2022
1273 Clouds 19 1003 65 10000 5.78 223 15:32 26.05.2022
1274 Clouds 20 1004 35 10000 3.61 186 14:20 26.05.2022
1275 Clouds 19 1005 43 10000 2.26 205 12:18 26.05.2022
1276 Clouds 18 1006 46 10000 1.78 223 11:21 26.05.2022
1277 Clear 16 1007 53 10000 1.85 223 09:39 26.05.2022
1278 Clear 14 1008 55 10000 1.6 239 08:48 26.05.2022
1279 Clouds 10 1009 62 10000 1.51 235 06:51 26.05.2022
1280 Clouds 5 1011 85 10000 1.68 249 02:54 26.05.2022
1281 Clouds 8 1013 59 10000 2.27 282 00:19 26.05.2022
1282 Clouds 8 1013 78 10000 1.94 284 22:58 25.05.2022
1283 Clouds 9 1013 75 10000 1.83 294 21:44 25.05.2022
1284 Clouds 9 1013 74 10000 2.31 286 20:53 25.05.2022
1285 Clouds 10 1014 66 10000 2.59 284 19:56 25.05.2022
1286 Clouds 12 1014 63 10000 3.2 289 18:48 25.05.2022
1287 Clouds 14 1014 39 10000 5.69 289 17:26 25.05.2022
1288 Clouds 14 1014 47 10000 5.69 289 16:35 25.05.2022
1289 Clouds 13 1013 35 10000 3.94 297 15:49 25.05.2022
1290 Clouds 13 1014 33 10000 3.18 305 14:51 25.05.2022
1291 Clouds 13 1014 33 10000 2.99 304 14:32 25.05.2022
1292 Clouds 12 1014 33 10000 2.83 312 13:28 25.05.2022
1293 Clouds 12 1015 43 10000 2.74 317 12:24 25.05.2022
1294 Clouds 11 1015 46 10000 2.7 322 10:42 25.05.2022
1295 Clouds 10 1015 48 10000 2.69 327 09:53 25.05.2022
1296 Clouds 8 1015 49 10000 2.81 339 08:22 25.05.2022
1297 Clouds 8 1016 60 10000 2.67 339 06:45 25.05.2022
1298 Clouds 2 1015 83 10000 2.02 346 02:55 25.05.2022
1299 Clouds 6 1014 78 10000 2.56 354 23:53 24.05.2022
1300 Clouds 6 1013 52 10000 2.84 353 23:23 24.05.2022
1301 Clouds 6 1013 51 10000 3 353 22:19 24.05.2022
1302 Clouds 6 1012 51 10000 3.36 355 21:38 24.05.2022
1303 Clouds 6 1012 50 10000 3.36 355 21:19 24.05.2022
1304 Clouds 6 1011 62 10000 4 346 19:37 24.05.2022
1305 Clouds 7 1011 47 10000 4 346 18:49 24.05.2022
1306 Clouds 7 1010 56 10000 4.52 346 16:41 24.05.2022
1307 Rain 8 1010 52 10000 4.71 345 16:18 24.05.2022
1308 Clouds 7 1010 52 10000 4.71 345 16:18 24.05.2022
1309 Clouds 8 1009 42 10000 4.65 344 14:50 24.05.2022
1310 Clouds 9 1009 42 10000 5.03 345 13:52 24.05.2022
1311 Clouds 8 1009 54 10000 5.69 348 12:46 24.05.2022
1312 Clouds 9 1007 62 10000 6.2 350 10:46 24.05.2022
1313 Clouds 10 1006 53 10000 6.54 347 09:43 24.05.2022
1314 Clouds 10 1006 42 10000 6 330 08:49 24.05.2022
1315 Clouds 8 1006 48 10000 5.54 320 06:56 24.05.2022
1316 Clouds 6 1006 50 10000 4.26 308 03:48 24.05.2022
1317 Clouds 8 1006 36 10000 3.39 317 01:51 24.05.2022
1318 Clouds 7 1005 45 10000 3.8 316 01:19 24.05.2022
1319 Clouds 8 1005 48 10000 3.86 343 22:55 23.05.2022
1320 Clouds 9 1005 44 10000 3.97 316 21:55 23.05.2022
1321 Clouds 9 1004 43 10000 4.01 308 21:29 23.05.2022
1322 Clouds 12 1004 40 10000 3.72 301 20:29 23.05.2022
1323 Clouds 14 1004 41 10000 3.03 315 19:31 23.05.2022
1324 Clouds 14 1004 38 10000 3.77 320 18:57 23.05.2022
1325 Clouds 14 1004 33 10000 4.37 319 18:29 23.05.2022
1326 Clouds 15 1004 31 10000 5.68 322 17:20 23.05.2022
1327 Clouds 14 1004 31 10000 5.95 317 15:23 23.05.2022
1328 Clouds 13 1004 41 10000 5.54 320 13:21 23.05.2022
1329 Clouds 11 1005 45 10000 5.24 323 11:32 23.05.2022
1330 Clouds 10 1005 47 10000 5.39 323 10:31 23.05.2022
1331 Clouds 9 1005 47 10000 5.39 326 09:39 23.05.2022
1332 Clouds 8 1006 49 10000 5.1 331 08:32 23.05.2022
1333 Clouds 5 1007 51 10000 4.25 331 06:46 23.05.2022
1334 Clouds 3 1007 56 10000 3.93 329 05:39 23.05.2022
1335 Clouds 2 1007 67 10000 2.93 336 02:34 23.05.2022
1336 Clouds 2 1007 66 10000 2.76 334 01:39 23.05.2022
1337 Clouds 3 1007 66 10000 2.14 355 00:38 23.05.2022
1338 Clouds 6 1007 63 10000 2.77 34 22:42 22.05.2022
1339 Clouds 6 1007 63 10000 2.77 34 21:55 22.05.2022
1340 Clouds 7 1007 63 10000 2.77 34 21:36 22.05.2022
1341 Clouds 7 1006 59 10000 3.39 37 20:37 22.05.2022
1342 Clouds 8 1006 40 10000 4.24 21 20:18 22.05.2022
1343 Clouds 10 1006 52 10000 5.27 28 18:57 22.05.2022
1344 Clouds 10 1005 43 10000 6.08 13 18:28 22.05.2022
1345 Clouds 11 1005 43 10000 6.08 13 17:51 22.05.2022
1346 Clouds 12 1004 37 10000 5.29 7 16:51 22.05.2022
1347 Clear 12 1004 37 10000 5.1 22 14:55 22.05.2022
1348 Clear 12 1004 38 10000 5 28 13:57 22.05.2022
1349 Clear 11 1004 40 10000 4.96 36 12:53 22.05.2022
1350 Clear 11 1004 30 10000 4.97 37 11:53 22.05.2022
1351 Clear 10 1004 47 10000 5.13 40 10:29 22.05.2022
1352 Clear 9 1004 49 10000 5.18 45 09:19 22.05.2022
1353 Clouds 8 1005 51 10000 5.24 57 07:44 22.05.2022
1354 Clouds 7 1005 51 10000 5.24 57 06:41 22.05.2022
1355 Clouds 6 1006 52 10000 4.23 62 03:25 22.05.2022
1356 Clouds 8 1006 49 10000 4.1 66 00:49 22.05.2022
1357 Clouds 8 1006 49 10000 4.1 66 00:49 22.05.2022
1358 Clouds 9 1007 48 10000 4.04 72 23:56 21.05.2022
1359 Clouds 9 1006 63 10000 4.32 71 23:27 21.05.2022
1360 Clouds 10 1006 61 10000 4.33 77 21:59 21.05.2022
1361 Clouds 11 1006 59 10000 4.84 81 21:34 21.05.2022
1362 Clouds 13 1006 59 10000 4.84 81 20:41 21.05.2022
1363 Clouds 13 1006 54 10000 3.78 56 19:53 21.05.2022
1364 Clouds 14 1007 46 10000 1.85 147 18:54 21.05.2022
1365 Clouds 15 1008 36 10000 2.44 152 17:23 21.05.2022
1366 Clouds 16 1009 34 10000 2.5 160 14:51 21.05.2022
1367 Clouds 15 1010 34 10000 2.4 158 14:19 21.05.2022
1368 Clouds 15 1010 42 10000 2.26 134 13:25 21.05.2022
1369 Clouds 15 1010 43 10000 2.26 134 12:39 21.05.2022
1370 Clouds 14 1011 45 10000 2.03 134 11:38 21.05.2022
1371 Clouds 13 1012 46 10000 2.51 134 10:21 21.05.2022
1372 Clouds 12 1013 48 10000 2.88 126 08:59 21.05.2022
1373 Clouds 11 1013 49 10000 3.1 120 08:38 21.05.2022
1374 Clouds 7 1015 58 10000 2.63 116 06:21 21.05.2022
1375 Clouds 5 1016 55 10000 2.32 92 01:59 21.05.2022
1376 Clouds 7 1016 51 10000 2.25 89 23:36 20.05.2022
1377 Clouds 8 1016 49 10000 2.59 88 22:41 20.05.2022
1378 Clouds 8 1016 48 10000 2.96 69 22:18 20.05.2022
1379 Clouds 8 1016 54 10000 2.85 50 21:19 20.05.2022
1380 Clouds 9 1016 54 10000 2.85 50 20:51 20.05.2022
1381 Clouds 11 1017 47 10000 2.32 28 19:54 20.05.2022
1382 Clouds 12 1017 41 10000 2.21 7 18:58 20.05.2022
1383 Clouds 12 1017 36 10000 2.8 1 18:23 20.05.2022
1384 Clear 13 1017 30 10000 2.81 347 16:28 20.05.2022
1385 Clear 13 1017 30 10000 2.81 347 15:54 20.05.2022
1386 Clear 13 1017 44 10000 2.67 350 15:32 20.05.2022
1387 Clear 12 1018 45 10000 2.79 354 14:27 20.05.2022
1388 Clear 12 1018 46 10000 3 353 13:31 20.05.2022
1389 Clear 9 1018 51 10000 3.22 5 10:48 20.05.2022
1390 Clear 8 1019 56 10000 3.59 6 09:32 20.05.2022
1391 Clear 8 1019 59 10000 3.81 5 08:37 20.05.2022
1392 Clouds 7 1019 55 10000 4 15 06:44 20.05.2022
1393 Clouds 6 1019 62 10000 4.23 16 05:53 20.05.2022
1394 Clear 5 1017 73 10000 3.22 11 02:53 20.05.2022
1395 Clouds 7 1015 76 10000 2.21 22 23:47 19.05.2022
1396 Clouds 7 1015 75 10000 2.4 5 22:39 19.05.2022
1397 Clouds 8 1014 73 10000 2.97 332 21:52 19.05.2022
1398 Clouds 8 1014 74 10000 3.36 315 21:24 19.05.2022
1399 Clouds 8 1014 73 10000 3.36 315 20:53 19.05.2022
1400 Clouds 9 1014 72 10000 3.43 304 20:20 19.05.2022
1401 Clouds 10 1014 71 10000 3.52 307 19:25 19.05.2022
1402 Rain 10 1014 65 10000 4.14 307 17:47 19.05.2022
1403 Rain 10 1014 65 10000 4.14 307 17:47 19.05.2022
1404 Rain 13 1014 57 10000 5.75 315 16:22 19.05.2022
1405 Clouds 13 1014 50 10000 5.11 321 14:50 19.05.2022
1406 Clouds 14 1014 56 10000 5.32 321 14:21 19.05.2022
1407 Clouds 13 1014 59 10000 6.14 329 12:20 19.05.2022
1408 Rain 12 1013 58 10000 6.09 309 10:35 19.05.2022
1409 Rain 10 1014 62 10000 5.62 304 08:57 19.05.2022
1410 Rain 10 1014 61 10000 4.2 314 07:41 19.05.2022
1411 Clouds 8 1015 75 10000 3.53 293 04:38 19.05.2022
1412 Clouds 7 1015 61 10000 3.92 271 01:38 19.05.2022
1413 Clouds 8 1016 73 10000 3.39 294 23:49 18.05.2022
1414 Clouds 9 1016 70 10000 3.87 307 22:46 18.05.2022
1415 Clouds 10 1016 68 10000 4.16 316 21:47 18.05.2022
1416 Clouds 10 1016 65 10000 4.09 322 21:24 18.05.2022
1417 Clouds 11 1015 54 10000 4.68 332 20:24 18.05.2022
1418 Clouds 11 1016 59 10000 4.31 330 19:37 18.05.2022
1419 Clouds 12 1014 55 10000 5.23 333 18:21 18.05.2022
1420 Clouds 13 1014 55 10000 5.23 333 17:41 18.05.2022
1421 Clouds 13 1014 58 10000 6.4 332 17:23 18.05.2022
1422 Clouds 14 1014 58 10000 6.32 331 15:59 18.05.2022
1423 Clouds 14 1014 58 10000 6.32 331 15:59 18.05.2022
1424 Clouds 15 1014 58 10000 6.32 331 15:38 18.05.2022
1425 Clouds 15 1012 46 10000 6.98 334 14:34 18.05.2022
1426 Clouds 15 1012 37 10000 5.74 341 13:20 18.05.2022
1427 Clouds 14 1012 56 10000 5.74 341 12:39 18.05.2022
1428 Clouds 14 1012 58 10000 5.35 347 11:34 18.05.2022
1429 Clouds 13 1013 61 10000 5.47 354 10:52 18.05.2022
1430 Clouds 13 1013 61 10000 5.47 354 10:52 18.05.2022
1431 Clouds 12 1012 70 10000 5.63 357 08:29 18.05.2022
1432 Clouds 10 1012 65 10000 5.43 356 07:29 18.05.2022
1433 Clouds 8 1010 79 10000 4.32 349 05:21 18.05.2022
1434 Clouds 8 1008 81 10000 4.63 358 00:52 18.05.2022
1435 Clouds 8 1007 80 10000 4.15 355 00:20 18.05.2022
1436 Clouds 9 1006 79 10000 4.64 357 21:36 17.05.2022
1437 Rain 8 1006 78 10000 4.64 357 21:18 17.05.2022
1438 Clouds 10 1006 74 10000 4.12 356 19:52 17.05.2022
1439 Clouds 10 1005 74 10000 4.8 341 19:27 17.05.2022
1440 Rain 11 1004 74 10000 5.3 325 17:50 17.05.2022
1441 Rain 11 1004 76 10000 5.06 331 16:58 17.05.2022
1442 Rain 10 1004 76 10000 5.03 331 16:29 17.05.2022
1443 Rain 10 1004 78 10000 4.84 332 15:24 17.05.2022
1444 Clouds 9 1004 79 10000 5.05 337 14:30 17.05.2022
1445 Rain 10 1004 78 10000 4.84 332 14:30 17.05.2022
1446 Clouds 9 1004 79 10000 5.05 337 14:30 17.05.2022
1447 Clouds 9 1004 79 10000 4.83 330 13:32 17.05.2022
1448 Rain 9 1004 77 10000 5.15 326 11:37 17.05.2022
1449 Rain 8 1003 78 10000 6.01 306 09:23 17.05.2022
1450 Rain 8 1003 78 10000 5.71 311 08:23 17.05.2022
1451 Clouds 8 1003 77 10000 5.55 315 06:45 17.05.2022
1452 Rain 7 1003 74 10000 5.82 293 03:20 17.05.2022
1453 Clouds 8 1005 67 10000 5.01 290 00:36 17.05.2022
1454 Clouds 9 1005 61 10000 4.52 287 22:42 16.05.2022
1455 Clouds 9 1005 57 10000 4.47 293 21:37 16.05.2022
1456 Clouds 10 1005 56 10000 4.96 294 20:46 16.05.2022
1457 Clouds 10 1005 58 10000 5.13 287 19:43 16.05.2022
1458 Clouds 12 1005 53 10000 4.89 301 18:20 16.05.2022
1459 Rain 13 1005 46 10000 5.57 308 15:49 16.05.2022
1460 Rain 11 1005 54 10000 6.34 302 13:56 16.05.2022
1461 Rain 11 1005 49 10000 6.12 300 13:23 16.05.2022
1462 Clouds 13 1005 50 10000 6.24 306 11:20 16.05.2022
1463 Clouds 11 1005 44 10000 6.26 305 09:30 16.05.2022
1464 Clouds 10 1006 63 10000 5.84 308 06:56 16.05.2022
1465 Clouds 8 1005 67 10000 4.96 303 03:58 16.05.2022
1466 Clouds 10 1004 66 10000 4.39 302 23:30 15.05.2022
1467 Clouds 10 1004 65 10000 4.39 302 22:30 15.05.2022
1468 Clouds 10 1004 62 10000 4.2 305 21:46 15.05.2022
1469 Clouds 10 1004 62 10000 4.2 301 20:57 15.05.2022
1470 Clouds 10 1004 74 10000 3.95 296 19:52 15.05.2022
1471 Rain 13 1003 54 10000 4.6 304 17:52 15.05.2022
1472 Clouds 13 1003 55 10000 4.33 295 16:29 15.05.2022
1473 Clouds 15 1003 52 10000 5.21 301 13:59 15.05.2022
1474 Clouds 14 1003 52 10000 5.4 293 12:57 15.05.2022
1475 Rain 14 1003 59 10000 5.99 287 11:40 15.05.2022
1476 Rain 15 1003 49 10000 4.71 283 10:29 15.05.2022
1477 Rain 13 1003 57 10000 4.36 280 08:46 15.05.2022
1478 Clouds 11 1004 66 10000 3.54 284 06:58 15.05.2022
1479 Clouds 10 1004 71 10000 3.34 286 05:57 15.05.2022
1480 Clouds 9 1003 75 10000 3.38 278 00:57 15.05.2022
1481 Clouds 9 1004 74 10000 3.56 275 23:47 14.05.2022
1482 Clouds 9 1003 72 10000 3.8 270 23:29 14.05.2022
1483 Clouds 10 1003 70 10000 3.91 269 21:43 14.05.2022
1484 Clouds 10 1003 68 10000 3.92 268 21:18 14.05.2022
1485 Clouds 13 1003 62 10000 3.73 274 19:40 14.05.2022
1486 Clouds 13 1003 56 10000 4.18 285 19:20 14.05.2022
1487 Clouds 14 1003 46 10000 4.18 285 18:47 14.05.2022
1488 Clouds 15 1003 46 10000 5.76 285 17:28 14.05.2022
1489 Clouds 15 1003 43 10000 5.81 282 15:34 14.05.2022
1490 Clouds 16 1003 43 10000 5.81 282 14:36 14.05.2022
1491 Clouds 16 1003 47 10000 6.33 282 12:49 14.05.2022
1492 Clouds 15 1003 49 10000 6.57 279 11:37 14.05.2022
1493 Clouds 15 1003 49 10000 6.32 282 10:23 14.05.2022
1494 Clouds 15 1003 52 10000 6.32 282 09:54 14.05.2022
1495 Clouds 13 1004 56 10000 6.19 281 08:56 14.05.2022
1496 Clouds 11 1004 64 10000 5.81 277 07:20 14.05.2022
1497 Clouds 8 1005 62 10000 4.97 265 03:41 14.05.2022
1498 Clouds 10 1004 62 10000 5.32 257 23:48 13.05.2022
1499 Clouds 10 1004 62 10000 5.28 256 23:22 13.05.2022
1500 Clouds 10 1004 62 10000 5.28 256 22:52 13.05.2022
1501 Clouds 10 1004 62 10000 5.26 259 22:20 13.05.2022
1502 Clouds 11 1004 62 10000 5.05 254 20:56 13.05.2022
1503 Clouds 10 1004 61 10000 5.13 258 20:28 13.05.2022
1504 Clouds 12 1004 52 10000 5.13 258 19:43 13.05.2022
1505 Clouds 14 1004 51 10000 5.91 269 18:44 13.05.2022
1506 Rain 13 1003 60 10000 6.74 272 17:29 13.05.2022
1507 Rain 16 1003 48 10000 7.48 272 16:29 13.05.2022
1508 Rain 15 1003 54 10000 7.48 272 15:45 13.05.2022
1509 Clouds 16 1003 44 10000 8.05 280 14:24 13.05.2022
1510 Clouds 15 1003 41 10000 8.22 282 12:47 13.05.2022
1511 Clouds 15 1002 51 10000 8.3 281 11:36 13.05.2022
1512 Clouds 12 1002 52 10000 7.89 279 09:43 13.05.2022
1513 Clouds 13 1002 58 10000 7.28 274 08:51 13.05.2022
1514 Clouds 11 1002 58 10000 7.37 273 07:50 13.05.2022
1515 Clouds 10 1002 62 10000 7.05 282 06:49 13.05.2022
1516 Clouds 10 1001 66 10000 6.74 279 04:54 13.05.2022
1517 Clouds 11 997 71 10000 9.86 297 00:57 13.05.2022
1518 Clouds 13 993 70 10000 10.52 297 22:49 12.05.2022
1519 Clouds 13 993 70 10000 10.52 297 22:30 12.05.2022
1520 Rain 14 989 67 10000 8.37 204 20:49 12.05.2022
1521 Rain 15 992 58 6765 6.95 168 19:26 12.05.2022
1522 Rain 16 995 48 10000 4.89 161 18:25 12.05.2022
1523 Clouds 20 998 88 10000 4.31 206 16:39 12.05.2022
1524 Clouds 21 1000 56 10000 5.4 221 14:52 12.05.2022
1525 Clouds 21 1000 52 10000 5.31 231 13:48 12.05.2022
1526 Clouds 20 1002 46 10000 4.6 251 11:48 12.05.2022
1527 Clouds 19 1003 52 10000 4.93 249 10:32 12.05.2022
1528 Clouds 15 1004 62 10000 4.56 238 08:52 12.05.2022
1529 Clouds 14 1004 62 10000 4.56 238 08:52 12.05.2022
1530 Clouds 12 1005 60 10000 3.75 240 07:59 12.05.2022
1531 Clouds 11 1006 65 10000 3.31 252 07:22 12.05.2022
1532 Clouds 6 1007 73 10000 2.37 259 03:50 12.05.2022
1533 Clouds 6 1008 58 10000 2.24 274 01:29 12.05.2022
1534 Clouds 9 1008 58 10000 1.95 290 23:18 11.05.2022
1535 Clouds 11 1008 58 10000 1.76 313 22:18 11.05.2022
1536 Clouds 13 1008 57 10000 1.52 335 21:25 11.05.2022
1537 Clouds 14 1008 54 10000 2 339 20:20 11.05.2022
1538 Clouds 18 1008 37 10000 4.56 343 17:33 11.05.2022
1539 Clouds 18 1008 35 10000 5.3 348 16:19 11.05.2022
1540 Clouds 17 1009 33 10000 5.89 350 14:48 11.05.2022
1541 Clouds 17 1009 33 10000 6.43 348 14:25 11.05.2022
1542 Clouds 15 1009 36 10000 6.58 340 12:54 11.05.2022
1543 Clouds 15 1009 36 10000 6.4 340 11:48 11.05.2022
1544 Clouds 13 1010 42 10000 6.01 351 09:30 11.05.2022
1545 Clouds 8 1011 54 10000 5.49 353 06:36 11.05.2022
1546 Clouds 8 1012 58 10000 5.37 348 02:27 11.05.2022
1547 Clouds 10 1013 52 10000 5.77 351 22:58 10.05.2022
1548 Clouds 10 1013 52 10000 5.77 351 22:58 10.05.2022
1549 Clouds 10 1013 50 10000 6.04 355 22:30 10.05.2022
1550 Clouds 10 1013 50 10000 6.04 355 21:41 10.05.2022
1551 Clouds 10 1013 48 10000 6.19 354 20:47 10.05.2022
1552 Clouds 11 1014 45 10000 7.27 359 18:57 10.05.2022
1553 Clouds 11 1014 44 10000 7.39 357 17:38 10.05.2022
1554 Clouds 10 1015 43 10000 7.47 6 16:38 10.05.2022
1555 Clouds 9 1016 41 10000 7.86 358 13:37 10.05.2022
1556 Clouds 9 1017 35 10000 7.82 359 11:54 10.05.2022
1557 Clouds 9 1017 34 10000 8.59 357 11:34 10.05.2022
1558 Clouds 9 1017 34 10000 8.59 357 10:57 10.05.2022
1559 Clouds 8 1018 37 10000 8.35 350 09:52 10.05.2022
1560 Clouds 8 1019 52 10000 6.86 344 08:22 10.05.2022
1561 Clouds 5 1020 64 10000 5.69 333 06:21 10.05.2022
1562 Clouds 3 1021 70 10000 4.7 333 02:31 10.05.2022
1563 Clouds 4 1021 60 10000 4.82 336 23:55 09.05.2022
1564 Clouds 4 1022 60 10000 4.59 329 22:41 09.05.2022
1565 Clouds 5 1022 60 10000 4.76 335 21:48 09.05.2022
1566 Clouds 6 1022 55 10000 5.44 340 20:22 09.05.2022
1567 Clouds 8 1021 55 10000 5.68 336 18:29 09.05.2022
1568 Clouds 8 1021 55 10000 5.68 336 17:33 09.05.2022
1569 Clouds 7 1020 55 10000 6.78 349 16:21 09.05.2022
1570 Clouds 7 1020 55 10000 6.78 349 15:47 09.05.2022
1571 Clouds 6 1020 54 10000 7.25 345 14:41 09.05.2022
1572 Clouds 7 1020 36 10000 6.86 339 13:59 09.05.2022
1573 Clouds 8 1020 33 10000 6.13 342 13:32 09.05.2022
1574 Clouds 8 1020 35 10000 5.94 335 11:54 09.05.2022
1575 Clouds 8 1020 40 10000 6.09 328 10:50 09.05.2022
1576 Clouds 8 1020 46 10000 6.21 326 10:29 09.05.2022
1577 Clouds 7 1019 63 10000 6.45 333 07:57 09.05.2022
1578 Clouds 6 1019 71 10000 5.94 334 06:42 09.05.2022
1579 Clouds 6 1018 86 10000 3.32 322 02:44 09.05.2022
1580 Clouds 8 1018 87 10000 3.66 333 23:29 08.05.2022
1581 Clouds 9 1018 87 10000 3.66 333 22:47 08.05.2022
1582 Clouds 10 1017 85 10000 3.63 320 21:47 08.05.2022
1583 Rain 10 1017 83 10000 3.56 330 20:31 08.05.2022
1584 Rain 11 1017 85 10000 3.23 295 19:37 08.05.2022
1585 Clouds 13 1017 85 10000 3.23 295 18:49 08.05.2022
1586 Rain 13 1016 84 10000 2.84 270 17:52 08.05.2022
1587 Clouds 14 1016 70 10000 5.7 249 16:30 08.05.2022
1588 Clouds 16 1016 63 10000 6.29 227 15:25 08.05.2022
1589 Clouds 16 1016 57 10000 6.9 227 14:27 08.05.2022
1590 Clouds 18 1017 45 10000 6.1 214 11:53 08.05.2022
1591 Clouds 16 1019 54 10000 6.19 220 10:27 08.05.2022
1592 Clouds 16 1019 54 10000 6.19 220 09:55 08.05.2022
1593 Clouds 15 1019 62 10000 6.43 221 08:37 08.05.2022
1594 Clouds 13 1020 74 10000 5.48 203 06:51 08.05.2022
1595 Clouds 13 1021 75 10000 3.88 196 03:25 08.05.2022
1596 Clouds 13 1021 74 10000 3.8 197 02:23 08.05.2022
1597 Clouds 11 1022 74 10000 3.94 206 00:20 08.05.2022
1598 Clouds 13 1022 74 10000 3.94 206 23:46 07.05.2022
1599 Clouds 14 1022 71 10000 4.18 207 22:46 07.05.2022
1600 Clouds 14 1022 69 10000 4.39 201 21:57 07.05.2022
1601 Clouds 14 1023 68 10000 4.12 196 21:33 07.05.2022
1602 Clouds 15 1023 66 10000 4.22 193 20:27 07.05.2022
1603 Clouds 16 1023 59 10000 4.33 191 19:22 07.05.2022
1604 Clouds 18 1023 47 10000 5.13 209 17:33 07.05.2022
1605 Clouds 18 1023 45 10000 5.26 215 15:34 07.05.2022
1606 Clouds 17 1025 43 10000 5.6 198 12:50 07.05.2022
1607 Clouds 17 1026 35 10000 5.55 204 10:33 07.05.2022
1608 Clouds 15 1026 37 10000 4.79 202 08:52 07.05.2022
1609 Clouds 13 1027 38 10000 3.81 204 07:50 07.05.2022
1610 Clouds 11 1027 55 10000 3.18 209 06:43 07.05.2022
1611 Clouds 9 1027 67 10000 2.5 206 04:35 07.05.2022
1612 Clouds 9 1027 38 10000 4.06 212 00:56 07.05.2022
1613 Clouds 10 1027 56 10000 4.15 208 23:28 06.05.2022
1614 Clouds 11 1027 34 10000 4.08 208 22:26 06.05.2022
1615 Clouds 12 1027 56 10000 4.08 208 21:36 06.05.2022
1616 Clouds 12 1027 55 10000 3.49 202 20:24 06.05.2022
1617 Clouds 13 1027 51 10000 4.21 209 19:29 06.05.2022
1618 Clouds 15 1027 51 10000 4.21 209 18:56 06.05.2022
1619 Clouds 15 1026 43 10000 4.25 212 17:38 06.05.2022
1620 Clouds 16 1027 34 10000 4.65 224 15:56 06.05.2022
1621 Clouds 16 1027 32 10000 4.9 226 15:38 06.05.2022
1622 Clouds 16 1027 32 10000 4.9 226 14:33 06.05.2022
1623 Clouds 15 1028 31 10000 4.29 226 12:53 06.05.2022
1624 Clouds 15 1028 31 10000 4.18 227 12:31 06.05.2022
1625 Clouds 14 1028 32 10000 3.87 227 11:38 06.05.2022
1626 Clouds 13 1029 36 10000 3.48 225 09:49 06.05.2022
1627 Clouds 11 1029 41 10000 3.32 223 09:19 06.05.2022
1628 Clouds 8 1029 45 10000 3.41 222 07:57 06.05.2022
1629 Clouds 7 1029 48 10000 3.53 227 06:39 06.05.2022
1630 Clouds 5 1029 44 10000 2.65 215 04:37 06.05.2022
1631 Clouds 5 1028 45 10000 2.56 211 02:43 06.05.2022
1632 Clouds 6 1028 43 10000 2.1 195 23:34 05.05.2022
1633 Clouds 6 1028 43 10000 2.04 198 21:52 05.05.2022
1634 Clouds 7 1027 42 10000 1.39 200 20:53 05.05.2022
1635 Clouds 8 1027 40 10000 0.67 273 19:49 05.05.2022
1636 Clouds 11 1026 39 10000 3.45 303 16:54 05.05.2022
1637 Clouds 10 1026 26 10000 3.4 312 16:18 05.05.2022
1638 Clouds 10 1025 41 10000 3.4 317 14:43 05.05.2022
1639 Clouds 9 1025 25 10000 3.75 329 13:20 05.05.2022
1640 Clear 8 1025 45 10000 4.13 333 12:24 05.05.2022
1641 Clear 7 1025 30 10000 4.99 329 10:33 05.05.2022
1642 Clear 6 1025 52 10000 5.29 326 09:39 05.05.2022
1643 Clear 4 1025 41 10000 4.43 329 07:24 05.05.2022
1644 Clouds 0 1023 72 10000 3.51 316 02:59 05.05.2022
1645 Clouds 1 1021 73 10000 3.25 318 01:47 05.05.2022
1646 Clouds 2 1021 64 10000 3.34 324 01:22 05.05.2022
1647 Clouds 3 1019 62 10000 4.2 324 23:31 04.05.2022
1648 Clouds 3 1018 64 10000 4.32 321 22:25 04.05.2022
1649 Clouds 4 1018 56 10000 4.32 321 21:49 04.05.2022
1650 Clouds 4 1018 56 10000 4.28 324 21:26 04.05.2022
1651 Clouds 4 1017 54 10000 4.47 328 20:22 04.05.2022
1652 Clouds 4 1017 54 10000 4.47 328 19:51 04.05.2022
1653 Clouds 5 1016 48 10000 4.79 331 18:49 04.05.2022
1654 Clouds 6 1015 40 10000 5.67 330 18:21 04.05.2022
1655 Clouds 6 1014 37 10000 6.11 318 17:29 04.05.2022
1656 Rain 7 1013 30 10000 6.55 318 15:38 04.05.2022
1657 Clouds 7 1013 29 10000 6.55 318 15:20 04.05.2022
1658 Clouds 6 1012 61 10000 5.65 325 14:20 04.05.2022
1659 Clouds 7 1012 51 10000 6.2 330 13:20 04.05.2022
1660 Rain 8 1012 52 10000 5.34 334 12:29 04.05.2022
1661 Clouds 8 1012 58 10000 5.22 339 10:40 04.05.2022
1662 Clouds 7 1011 59 10000 5.98 330 09:40 04.05.2022
1663 Clouds 7 1010 58 10000 5.48 333 08:40 04.05.2022
1664 Clouds 6 1009 66 10000 4.22 322 06:31 04.05.2022
1665 Clouds 7 1008 58 10000 3.2 329 02:53 04.05.2022
1666 Clouds 8 1007 52 10000 3.5 280 23:58 03.05.2022
1667 Clouds 10 1007 50 10000 2.76 287 22:30 03.05.2022
1668 Clouds 11 1007 47 10000 2.48 309 21:43 03.05.2022
1669 Clouds 12 1006 60 10000 3.51 313 20:53 03.05.2022
1670 Clouds 13 1006 48 10000 4.22 274 19:49 03.05.2022
1671 Clouds 15 1005 47 10000 4.41 262 18:52 03.05.2022
1672 Clouds 15 1005 45 10000 4.78 260 18:20 03.05.2022
1673 Clouds 17 1005 42 10000 5.49 254 16:38 03.05.2022
1674 Clouds 17 1005 42 10000 5.97 253 15:35 03.05.2022
1675 Clouds 17 1006 43 10000 6.68 252 12:47 03.05.2022
1676 Clouds 17 1007 45 10000 6.21 240 12:27 03.05.2022
1677 Clouds 15 1007 51 10000 6.51 234 10:57 03.05.2022
1678 Clouds 13 1009 61 10000 5.49 223 09:34 03.05.2022
1679 Clouds 10 1009 65 10000 4.75 227 07:33 03.05.2022
1680 Clouds 9 1010 69 10000 4.02 218 06:44 03.05.2022
1681 Clouds 8 1011 54 10000 4.2 234 00:54 03.05.2022
1682 Clouds 10 1013 72 10000 2.78 180 22:38 02.05.2022
1683 Clouds 10 1013 72 10000 2.78 180 21:52 02.05.2022
1684 Clouds 11 1013 74 10000 2.19 190 20:51 02.05.2022
1685 Clouds 12 1014 41 10000 3.68 221 18:44 02.05.2022
1686 Clouds 12 1014 41 10000 4.81 226 18:25 02.05.2022
1687 Clouds 12 1014 39 10000 4.81 226 17:37 02.05.2022
1688 Clouds 14 1015 36 10000 4.01 239 16:22 02.05.2022
1689 Clouds 14 1015 34 10000 3.47 246 15:31 02.05.2022
1690 Clouds 15 1016 33 10000 3.61 254 13:51 02.05.2022
1691 Clouds 14 1017 38 10000 2.83 267 12:20 02.05.2022
1692 Clouds 13 1018 41 10000 2.58 267 10:51 02.05.2022
1693 Clouds 11 1019 46 10000 1.64 287 09:29 02.05.2022
1694 Clouds 9 1019 56 10000 1.6 275 07:51 02.05.2022
1695 Clouds 6 1019 85 10000 1.84 247 04:36 02.05.2022
1696 Clouds 7 1020 76 10000 1.88 261 00:25 02.05.2022
1697 Clouds 8 1020 46 10000 1.89 261 23:52 01.05.2022
1698 Clouds 8 1020 72 10000 2.27 251 22:33 01.05.2022
1699 Clouds 9 1020 43 10000 2.52 242 21:26 01.05.2022
1700 Clouds 10 1020 41 10000 2.73 256 20:19 01.05.2022
1701 Clouds 11 1020 40 10000 3.94 255 18:59 01.05.2022
1702 Clouds 11 1020 49 10000 3.94 255 18:39 01.05.2022
1703 Clouds 11 1020 40 10000 4.59 259 17:38 01.05.2022
1704 Clouds 12 1020 30 10000 3.84 241 16:24 01.05.2022
1705 Clouds 12 1020 30 10000 3.84 241 15:38 01.05.2022
1706 Clouds 12 1021 28 10000 4.2 247 13:52 01.05.2022
1707 Clouds 11 1023 46 10000 3.01 254 11:28 01.05.2022
1708 Clouds 10 1024 40 10000 2.59 231 09:32 01.05.2022
1709 Clouds 8 1024 51 10000 2.59 231 08:42 01.05.2022
1710 Clouds -1 1025 61 10000 1.83 229 04:31 01.05.2022
1711 Clouds 0 1025 57 10000 0.58 308 00:34 01.05.2022
1712 Clouds 4 1025 52 10000 1.17 338 21:51 30.04.2022
1713 Clouds 4 1025 52 10000 1.46 336 21:19 30.04.2022
1714 Clouds 5 1024 51 10000 1.72 325 19:45 30.04.2022
1715 Clouds 6 1024 49 10000 2.75 326 18:45 30.04.2022
1716 Clouds 8 1023 48 10000 4.54 310 16:54 30.04.2022
1717 Clouds 7 1023 48 10000 4.22 316 15:50 30.04.2022
1718 Clouds 6 1023 32 10000 4.6 316 14:54 30.04.2022
1719 Clouds 6 1023 30 10000 4.22 323 13:30 30.04.2022
1720 Clouds 6 1024 54 10000 4.36 320 11:34 30.04.2022
1721 Clouds 5 1024 39 10000 4.36 320 10:55 30.04.2022
1722 Clouds 5 1024 62 10000 4.16 317 09:50 30.04.2022
1723 Clouds 2 1025 47 10000 4.42 328 07:31 30.04.2022
1724 Clouds 1 1023 74 10000 3.98 303 03:45 30.04.2022
1725 Clouds 3 1022 68 10000 3.35 294 23:54 29.04.2022
1726 Clouds 3 1022 65 10000 3.26 296 22:35 29.04.2022
1727 Clouds 4 1022 64 10000 3.26 296 21:54 29.04.2022
1728 Rain 5 1022 54 10000 3.95 278 21:19 29.04.2022
1729 Clouds 7 1022 49 10000 4.56 267 19:48 29.04.2022
1730 Clouds 8 1022 60 10000 4.44 268 18:58 29.04.2022
1731 Clouds 10 1022 51 10000 5.35 268 17:33 29.04.2022
1732 Clouds 10 1022 36 10000 5.24 239 15:58 29.04.2022
1733 Clouds 10 1023 33 10000 4.31 235 14:34 29.04.2022
1734 Clouds 9 1023 33 10000 3.8 242 13:27 29.04.2022
1735 Clouds 8 1024 33 10000 3.31 248 12:26 29.04.2022
1736 Clouds 7 1025 38 10000 2.39 247 09:52 29.04.2022
1737 Clouds 4 1026 76 10000 1.68 245 07:52 29.04.2022
1738 Clouds 3 1026 77 10000 0.91 253 07:24 29.04.2022
1739 Clouds 1 1026 77 10000 0.76 292 05:57 29.04.2022
1740 Clouds 2 1025 69 10000 1.2 307 00:51 29.04.2022
1741 Clouds 2 1026 67 10000 1.43 284 23:52 28.04.2022
1742 Rain 3 1026 61 10000 1.17 254 22:47 28.04.2022
1743 Rain 4 1026 88 5280 1.19 240 21:59 28.04.2022
1744 Rain 4 1026 88 5269 1.19 240 21:37 28.04.2022
1745 Clouds 5 1026 91 524 2.14 247 20:41 28.04.2022
1746 Clouds 6 1025 74 10000 2.34 250 19:49 28.04.2022
1747 Clouds 6 1024 66 10000 3.55 216 19:23 28.04.2022
1748 Clouds 7 1024 66 10000 3.55 216 18:45 28.04.2022
1749 Clouds 7 1023 43 10000 2.62 215 17:32 28.04.2022
1750 Clouds 7 1023 43 10000 2.62 215 16:50 28.04.2022
1751 Clouds 7 1024 33 10000 2.08 224 16:20 28.04.2022
1752 Clouds 7 1024 33 10000 2.08 224 16:20 28.04.2022
1753 Clouds 7 1024 33 10000 2.08 224 15:41 28.04.2022
1754 Clouds 8 1024 27 10000 1.54 204 14:55 28.04.2022
1755 Clouds 7 1024 27 10000 1.16 249 13:23 28.04.2022
1756 Clouds 7 1025 49 10000 0.92 284 12:28 28.04.2022
1757 Clouds 6 1025 29 10000 1.47 316 10:59 28.04.2022
1758 Clouds 6 1025 52 10000 1.75 331 10:26 28.04.2022
1759 Clouds 5 1025 54 10000 1.75 331 09:43 28.04.2022
1760 Clouds 3 1025 42 10000 2.58 348 07:40 28.04.2022
1761 Clouds 2 1025 64 10000 2.65 354 06:42 28.04.2022
1762 Clouds 1 1024 54 10000 2.69 359 05:52 28.04.2022
1763 Clouds 1 1024 59 10000 2.65 358 04:42 28.04.2022
1764 Clouds 3 1022 65 10000 3.46 10 00:52 28.04.2022
1765 Clouds 4 1021 64 10000 4.2 8 23:18 27.04.2022
1766 Clear 5 1020 70 10000 4.49 354 21:58 27.04.2022
1767 Clear 6 1020 63 10000 4.49 354 21:32 27.04.2022
1768 Clear 6 1020 64 10000 4.25 346 20:44 27.04.2022
1769 Clouds 6 1019 63 10000 4.84 349 19:54 27.04.2022
1770 Clouds 7 1019 62 10000 5.87 353 19:30 27.04.2022
1771 Clouds 8 1019 61 10000 5.87 353 18:38 27.04.2022
1772 Clouds 9 1017 60 10000 6.1 340 17:41 27.04.2022
1773 Clouds 11 1016 62 10000 5.16 334 15:56 27.04.2022
1774 Clouds 12 1014 59 10000 5.67 341 12:59 27.04.2022
1775 Clouds 11 1013 53 10000 4.36 334 11:24 27.04.2022
1776 Clouds 12 1012 59 10000 3.42 345 10:28 27.04.2022
1777 Clouds 11 1013 65 10000 2.72 327 08:22 27.04.2022
1778 Clouds 8 1012 71 10000 2.6 334 06:41 27.04.2022
1779 Clouds 9 1011 63 10000 2.62 339 02:31 27.04.2022
1780 Clouds 9 1010 78 10000 2.88 345 01:21 27.04.2022
1781 Clouds 10 1010 75 10000 2.86 347 00:27 27.04.2022
1782 Clouds 11 1009 69 10000 2.88 340 23:24 26.04.2022
1783 Clouds 12 1009 69 10000 2.88 340 22:45 26.04.2022
1784 Clouds 13 1009 60 10000 2.95 335 21:59 26.04.2022
1785 Clouds 12 1009 60 10000 2.94 332 21:19 26.04.2022
1786 Clouds 12 1008 61 10000 3.32 333 20:37 26.04.2022
1787 Clouds 13 1008 61 10000 3.26 358 19:45 26.04.2022
1788 Clouds 14 1008 60 10000 3.59 355 19:26 26.04.2022
1789 Clouds 14 1008 59 10000 3.59 355 18:39 26.04.2022
1790 Clouds 14 1007 54 10000 2.91 324 17:39 26.04.2022
1791 Clouds 15 1006 49 10000 2.67 293 15:32 26.04.2022
1792 Clouds 16 1007 63 10000 3.08 293 13:51 26.04.2022
1793 Clouds 15 1006 47 10000 3.6 278 12:57 26.04.2022
1794 Clouds 14 1007 49 10000 2.64 266 11:23 26.04.2022
1795 Clouds 14 1007 55 10000 2.3 271 10:30 26.04.2022
1796 Clouds 12 1007 63 10000 1.86 277 08:34 26.04.2022
1797 Clouds 10 1007 95 10000 1.64 261 04:59 26.04.2022
1798 Clouds 10 1006 96 10000 1.72 278 04:22 26.04.2022
1799 Rain 11 1006 77 10000 2.7 235 00:51 26.04.2022
1800 Clouds 11 1007 76 10000 2.51 220 23:50 25.04.2022
1801 Rain 12 1007 71 10000 1.84 199 21:53 25.04.2022
1802 Rain 13 1007 69 10000 1.48 211 21:26 25.04.2022
1803 Rain 13 1007 67 10000 2.45 210 19:53 25.04.2022
1804 Rain 13 1007 65 10000 2.76 232 18:34 25.04.2022
1805 Clouds 13 1008 62 10000 4.31 211 17:40 25.04.2022
1806 Rain 14 1008 59 10000 4.31 211 16:42 25.04.2022
1807 Rain 16 1008 49 10000 5.36 205 15:22 25.04.2022
1808 Clouds 16 1008 49 10000 5.02 196 14:34 25.04.2022
1809 Clouds 17 1008 62 10000 4.87 193 12:49 25.04.2022
1810 Clouds 14 1009 70 10000 4.24 206 10:44 25.04.2022
1811 Clouds 12 1010 73 10000 3.37 185 09:42 25.04.2022
1812 Clouds 10 1010 70 10000 3.26 203 07:56 25.04.2022
1813 Clouds 9 1010 87 10000 2.33 216 05:55 25.04.2022
1814 Clouds 10 1010 81 10000 2.2 173 01:30 25.04.2022
1815 Clouds 10 1011 80 10000 2.32 172 23:56 24.04.2022
1816 Clouds 10 1011 80 10000 2.3 165 23:28 24.04.2022
1817 Clouds 10 1011 79 10000 2.3 165 22:39 24.04.2022
1818 Rain 10 1011 79 10000 2.31 161 21:56 24.04.2022
1819 Clouds 10 1011 78 10000 2.4 160 21:22 24.04.2022
1820 Rain 10 1011 78 10000 2.4 160 21:22 24.04.2022
1821 Rain 10 1011 78 10000 2.4 160 20:46 24.04.2022
1822 Rain 10 1011 78 10000 3.03 158 20:21 24.04.2022
1823 Rain 10 1012 76 10000 3.21 156 18:54 24.04.2022
1824 Rain 10 1011 88 10000 3.23 156 17:54 24.04.2022
1825 Rain 11 1012 73 10000 3.29 159 17:21 24.04.2022
1826 Rain 10 1012 71 10000 3.29 159 16:56 24.04.2022
1827 Rain 11 1012 72 10000 4.04 165 16:29 24.04.2022
1828 Rain 11 1012 72 10000 4.04 165 16:29 24.04.2022
1829 Rain 11 1012 71 10000 4.04 165 15:52 24.04.2022
1830 Clouds 12 1012 65 10000 4.53 172 14:40 24.04.2022
1831 Rain 14 1012 59 10000 3.96 190 13:45 24.04.2022
1832 Rain 14 1012 57 10000 3.76 174 13:23 24.04.2022
1833 Clouds 14 1012 59 10000 3.65 173 11:53 24.04.2022
1834 Clouds 12 1012 60 10000 4.28 167 10:59 24.04.2022
1835 Clouds 12 1012 62 10000 4.61 149 09:47 24.04.2022
1836 Clouds 10 1013 67 10000 3.75 128 08:23 24.04.2022
1837 Clouds 9 1014 67 10000 2.61 129 05:46 24.04.2022
1838 Clouds 8 1014 66 10000 2.02 138 02:49 24.04.2022
1839 Clouds 8 1014 64 10000 2.13 126 00:55 24.04.2022
1840 Clouds 8 1014 83 10000 2.08 127 23:55 23.04.2022
1841 Clouds 9 1015 77 10000 2.12 128 23:25 23.04.2022
1842 Clouds 9 1015 77 10000 2.12 128 22:40 23.04.2022
1843 Clouds 10 1015 72 10000 2.16 137 21:48 23.04.2022
1844 Clouds 10 1015 67 10000 2.15 132 21:29 23.04.2022
1845 Clouds 11 1015 63 10000 2.06 128 20:27 23.04.2022
1846 Clouds 13 1015 63 10000 2 128 19:21 23.04.2022
1847 Clouds 13 1015 63 10000 2 128 18:54 23.04.2022
1848 Clouds 14 1015 57 10000 2.01 137 18:32 23.04.2022
1849 Clouds 14 1015 57 10000 2 137 17:47 23.04.2022
1850 Clouds 15 1015 50 10000 2.17 148 16:46 23.04.2022
1851 Clouds 15 1015 50 10000 2.32 157 15:52 23.04.2022
1852 Clouds 15 1015 50 10000 2.32 157 15:52 23.04.2022
1853 Clouds 13 1016 53 10000 2.45 178 13:33 23.04.2022
1854 Clouds 12 1017 67 10000 1.95 186 11:30 23.04.2022
1855 Clouds 12 1017 74 10000 1.96 191 10:37 23.04.2022
1856 Clouds 9 1018 82 10000 1.04 204 08:27 23.04.2022
1857 Clouds 7 1018 87 10000 0.37 253 04:18 23.04.2022
1858 Clouds 6 1018 87 10000 0.69 304 03:27 23.04.2022
1859 Clouds 8 1019 85 10000 0.81 266 23:38 22.04.2022
1860 Clouds 8 1019 85 10000 0.96 281 23:20 22.04.2022
1861 Clouds 9 1019 85 10000 0.96 276 21:58 22.04.2022
1862 Clouds 9 1019 85 10000 0.96 276 21:39 22.04.2022
1863 Clouds 9 1019 84 10000 1.23 300 20:34 22.04.2022
1864 Clouds 9 1020 87 10000 0.59 167 19:27 22.04.2022
1865 Clouds 10 1020 87 10000 0.59 167 18:57 22.04.2022
1866 Clouds 10 1020 86 10000 0.53 135 18:28 22.04.2022
1867 Clouds 10 1020 84 10000 0.37 50 17:24 22.04.2022
1868 Clouds 10 1021 84 10000 0.57 37 15:59 22.04.2022
1869 Clouds 10 1021 84 10000 0.57 37 15:31 22.04.2022
1870 Clouds 10 1021 83 10000 0.29 113 14:38 22.04.2022
1871 Clouds 11 1021 83 10000 0.62 124 14:38 22.04.2022
1872 Clouds 10 1021 85 10000 1.01 126 13:42 22.04.2022
1873 Clouds 10 1022 87 10000 1.24 112 12:55 22.04.2022
1874 Clouds 9 1022 91 10000 1.61 89 11:24 22.04.2022
1875 Clouds 9 1022 91 10000 1.61 89 10:58 22.04.2022
1876 Clouds 8 1022 91 10000 1.61 89 10:40 22.04.2022
1877 Clouds 8 1022 93 10000 1.66 90 10:20 22.04.2022
1878 Clouds 8 1023 94 10000 1.76 92 09:30 22.04.2022
1879 Clouds 7 1023 94 10000 1.77 92 08:49 22.04.2022
1880 Clouds 7 1023 79 10000 1.67 62 06:54 22.04.2022
1881 Clouds 6 1023 96 10000 1.05 68 01:41 22.04.2022
1882 Clouds 6 1023 96 10000 1.63 79 23:39 21.04.2022
1883 Clouds 7 1023 76 10000 1.63 79 22:48 21.04.2022
1884 Clouds 7 1023 75 10000 1.76 74 21:49 21.04.2022
1885 Clouds 7 1023 74 10000 2.01 82 20:34 21.04.2022
1886 Clouds 7 1023 74 10000 2.8 94 19:36 21.04.2022
1887 Clouds 7 1023 75 10000 2.8 94 18:32 21.04.2022
1888 Clouds 7 1022 74 10000 2.99 93 17:46 21.04.2022
1889 Clouds 7 1021 74 10000 3.83 90 16:24 21.04.2022
1890 Clouds 7 1021 74 10000 4.4 87 15:19 21.04.2022
1891 Clouds 6 1020 73 10000 5.16 89 14:31 21.04.2022
1892 Clouds 6 1020 72 10000 5.8 87 13:23 21.04.2022
1893 Rain 6 1019 71 7231 6.27 89 12:36 21.04.2022
1894 Rain 6 1018 66 8316 6.87 83 10:20 21.04.2022
1895 Rain 7 1017 62 7742 7.19 80 08:53 21.04.2022
1896 Clouds 8 1017 81 10000 7.42 71 06:55 21.04.2022
1897 Clouds 8 1017 81 10000 7.42 71 06:55 21.04.2022
1898 Clouds 7 1016 75 10000 7.18 65 04:36 21.04.2022
1899 Clouds 9 1017 48 10000 7.22 65 03:26 21.04.2022
1900 Clouds 8 1017 73 10000 7.22 65 02:46 21.04.2022
1901 Clouds 8 1017 73 10000 7.22 65 02:46 21.04.2022
1902 Clouds 10 1016 47 10000 7.32 68 00:43 21.04.2022
1903 Clouds 10 1017 47 10000 7.32 70 23:49 20.04.2022
1904 Clouds 10 1017 46 10000 7.24 67 23:21 20.04.2022
1905 Clouds 10 1017 68 10000 7.24 67 22:45 20.04.2022
1906 Clouds 11 1017 45 10000 6.8 69 22:26 20.04.2022
1907 Clouds 11 1017 59 10000 6.7 72 21:27 20.04.2022
1908 Clouds 12 1017 59 10000 6.8 72 20:23 20.04.2022
1909 Clouds 12 1017 59 10000 6.8 72 19:51 20.04.2022
1910 Clouds 12 1017 55 10000 6.92 70 19:18 20.04.2022
1911 Clouds 14 1016 51 10000 7.1 72 17:55 20.04.2022
1912 Clouds 15 1016 47 10000 7.04 69 16:40 20.04.2022
1913 Clouds 15 1016 42 10000 6.97 70 16:18 20.04.2022
1914 Clear 14 1016 35 10000 7.71 69 13:50 20.04.2022
1915 Clear 13 1017 37 10000 7.7 66 11:47 20.04.2022
1916 Clear 13 1017 38 10000 7.07 70 10:56 20.04.2022
1917 Clear 11 1017 42 10000 7.34 66 09:58 20.04.2022
1918 Clear 11 1018 48 10000 6.69 68 09:24 20.04.2022
1919 Clear 9 1018 55 10000 6.03 70 08:22 20.04.2022
1920 Clear 9 1018 55 10000 6.03 70 08:22 20.04.2022
1921 Clear 8 1018 66 10000 5.7 65 07:32 20.04.2022
1922 Clear 5 1018 85 10000 4.77 58 03:34 20.04.2022
1923 Clouds 7 1018 82 10000 4.42 65 00:23 20.04.2022
1924 Clouds 7 1018 82 10000 4.42 65 23:41 19.04.2022
1925 Clouds 9 1019 85 10000 4.2 66 22:26 19.04.2022
1926 Clouds 9 1019 85 10000 4.2 66 21:56 19.04.2022
1927 Clouds 9 1019 84 10000 4.51 69 21:23 19.04.2022
1928 Clouds 10 1019 84 10000 4.51 69 20:45 19.04.2022
1929 Clouds 10 1019 80 10000 4.56 69 19:57 19.04.2022
1930 Clouds 12 1019 79 10000 4.76 68 18:49 19.04.2022
1931 Clouds 12 1018 77 10000 5.04 62 17:50 19.04.2022
1932 Clouds 12 1018 74 10000 4.79 63 16:43 19.04.2022
1933 Clouds 12 1018 72 10000 4.7 61 16:23 19.04.2022
1934 Clouds 13 1018 72 10000 4.89 63 14:50 19.04.2022
1935 Clouds 12 1019 72 10000 5.18 65 14:27 19.04.2022
1936 Clouds 11 1019 68 10000 5.31 69 12:51 19.04.2022
1937 Clouds 10 1019 72 10000 4.85 65 12:26 19.04.2022
1938 Clouds 8 1019 71 10000 4.65 66 10:47 19.04.2022
1939 Clouds 7 1019 68 10000 4.59 68 09:23 19.04.2022
1940 Clouds 4 1019 76 10000 3.96 62 05:59 19.04.2022
1941 Clouds 4 1019 78 10000 3.8 56 03:59 19.04.2022
1942 Clouds 4 1019 74 10000 3.29 63 00:56 19.04.2022
1943 Clouds 5 1019 68 10000 3.16 67 23:36 18.04.2022
1944 Clouds 6 1019 59 10000 3.27 72 21:37 18.04.2022
1945 Clouds 7 1019 59 10000 3.27 72 21:18 18.04.2022
1946 Clouds 6 1019 56 10000 3.32 74 20:36 18.04.2022
1947 Clouds 7 1019 54 10000 3.61 75 19:57 18.04.2022
1948 Clouds 8 1019 52 10000 3.68 77 18:58 18.04.2022
1949 Clouds 8 1019 48 10000 3.9 79 18:32 18.04.2022
1950 Clouds 9 1019 48 10000 3.9 79 17:36 18.04.2022
1951 Clouds 10 1018 45 10000 4.49 81 17:18 18.04.2022
1952 Clouds 11 1018 45 10000 4.49 81 16:34 18.04.2022
1953 Clouds 11 1018 39 10000 4.76 81 15:18 18.04.2022
1954 Clouds 10 1018 40 10000 4.82 76 13:42 18.04.2022
1955 Clouds 9 1019 40 10000 4.69 76 12:34 18.04.2022
1956 Clouds 8 1019 42 10000 4.57 76 11:42 18.04.2022
1957 Clouds 7 1019 43 10000 4.4 76 10:42 18.04.2022
1958 Clouds 6 1020 53 10000 4.35 73 09:31 18.04.2022
1959 Clouds 5 1021 60 10000 4.52 77 08:28 18.04.2022
1960 Clouds 1 1021 75 10000 3.36 65 05:51 18.04.2022
1961 Clouds 1 1021 73 10000 3.19 51 01:37 18.04.2022
1962 Clouds 3 1022 69 10000 3.35 51 22:44 17.04.2022
1963 Clouds 4 1022 67 10000 3.46 49 21:51 17.04.2022
1964 Clouds 4 1022 64 10000 3.76 44 21:32 17.04.2022
1965 Clouds 4 1022 64 10000 3.76 44 20:50 17.04.2022
1966 Clouds 5 1022 59 10000 3.94 40 19:53 17.04.2022
1967 Clouds 5 1023 55 10000 4.05 43 18:32 17.04.2022
1968 Clouds 5 1022 49 10000 5.63 46 16:33 17.04.2022
1969 Clouds 5 1022 49 10000 6.07 47 15:32 17.04.2022
1970 Clouds 5 1022 50 10000 5.92 49 14:28 17.04.2022
1971 Clouds 5 1022 45 10000 6.23 48 13:20 17.04.2022
1972 Clouds 4 1022 45 10000 6.57 48 12:30 17.04.2022
1973 Clouds 3 1022 45 10000 6.9 47 10:48 17.04.2022
1974 Clouds 3 1022 46 10000 7.12 45 10:29 17.04.2022
1975 Clouds 2 1022 46 10000 7.12 45 09:50 17.04.2022
1976 Snow 1 1022 49 10000 7.07 41 08:58 17.04.2022
1977 Snow 0 1022 55 10000 6.68 35 08:27 17.04.2022
1978 Clouds 0 1022 75 10000 5.5 29 05:20 17.04.2022
1979 Clouds 1 1020 74 10000 5.83 23 01:40 17.04.2022
1980 Clouds 2 1020 73 10000 5.65 24 23:59 16.04.2022
1981 Clouds 2 1020 72 10000 5.62 27 22:56 16.04.2022
1982 Clouds 2 1020 70 10000 5.54 28 21:44 16.04.2022
1983 Clouds 2 1019 69 10000 5.48 33 20:54 16.04.2022
1984 Clouds 3 1019 73 10000 5.79 41 19:21 16.04.2022
1985 Clouds 3 1018 76 10000 6.42 43 18:35 16.04.2022
1986 Clouds 3 1018 79 8852 6.79 44 16:44 16.04.2022
1987 Clouds 2 1017 84 5395 6.89 45 15:46 16.04.2022
1988 Clouds 2 1017 87 5000 6.85 46 14:57 16.04.2022
1989 Clouds 2 1016 89 4091 6.97 48 14:30 16.04.2022
1990 Clouds 2 1015 94 816 7.33 45 13:48 16.04.2022
1991 Clouds 2 1014 95 68 6.57 45 12:35 16.04.2022
1992 Clouds 2 1014 95 42 6.2 46 11:26 16.04.2022
1993 Clouds 2 1014 95 31 5.73 46 10:25 16.04.2022
1994 Clouds 2 1014 95 31 5.73 46 09:36 16.04.2022
1995 Rain 2 1013 96 26 5.17 41 08:42 16.04.2022
1996 Clouds 2 1010 94 2361 5.26 42 07:21 16.04.2022
1997 Rain 5 1010 97 5269 3.5 37 04:54 16.04.2022
1998 Rain 5 1010 98 10000 0.8 221 00:40 16.04.2022
1999 Rain 6 1011 97 10000 1.38 197 23:45 15.04.2022
2000 Rain 6 1011 96 10000 1.59 160 22:48 15.04.2022
2001 Rain 6 1011 94 10000 2.19 120 22:28 15.04.2022
2002 Rain 6 1012 92 10000 2.21 114 21:20 15.04.2022
2003 Rain 7 1013 91 10000 1.54 124 20:38 15.04.2022
2004 Rain 8 1012 93 10000 2.75 135 19:43 15.04.2022
2005 Rain 8 1013 91 10000 2.25 134 18:58 15.04.2022
2006 Rain 8 1013 89 10000 1.55 182 18:26 15.04.2022
2007 Rain 9 1013 89 10000 1.55 183 17:57 15.04.2022
2008 Clouds 9 1013 87 10000 2.26 214 17:24 15.04.2022
2009 Clouds 10 1014 84 8533 2.21 211 16:24 15.04.2022
2010 Clouds 10 1014 84 8534 2.21 211 15:42 15.04.2022
2011 Clouds 10 1014 84 8533 2.21 211 15:42 15.04.2022
2012 Clouds 10 1014 69 10000 2.38 224 13:55 15.04.2022
2013 Clouds 10 1015 51 10000 2.14 225 12:50 15.04.2022
2014 Clouds 11 1015 48 10000 1.78 218 12:24 15.04.2022
2015 Clouds 11 1015 48 10000 1.78 218 11:50 15.04.2022
2016 Clouds 10 1015 48 10000 1.29 218 10:46 15.04.2022
2017 Clouds 9 1016 53 10000 1.17 225 09:59 15.04.2022
2018 Clouds 9 1016 56 10000 0.76 241 09:22 15.04.2022
2019 Clouds 6 1016 56 10000 0.76 241 08:39 15.04.2022
2020 Clouds 4 1017 67 10000 1.11 291 06:48 15.04.2022
2021 Clouds 2 1017 76 10000 1.61 312 04:43 15.04.2022
2022 Clouds 3 1018 74 10000 1.82 333 00:46 15.04.2022
2023 Clouds 4 1019 72 10000 1.98 348 23:26 14.04.2022
2024 Clouds 4 1019 72 10000 1.98 348 22:46 14.04.2022
2025 Clouds 5 1019 70 10000 1.91 360 22:27 14.04.2022
2026 Clouds 5 1019 71 10000 1.84 356 21:50 14.04.2022
2027 Clouds 7 1020 66 10000 2.66 352 19:41 14.04.2022
2028 Clouds 8 1019 62 10000 3.02 348 19:20 14.04.2022
2029 Clouds 10 1019 55 10000 3.3 1 17:46 14.04.2022
2030 Clouds 10 1019 49 10000 4.11 3 16:51 14.04.2022
2031 Clouds 11 1019 46 10000 4.37 4 15:52 14.04.2022
2032 Clouds 10 1019 45 10000 4.87 8 13:54 14.04.2022
2033 Clouds 10 1019 45 10000 4.78 14 13:25 14.04.2022
2034 Clouds 10 1019 45 10000 4.78 14 12:33 14.04.2022
2035 Clouds 9 1020 46 10000 4.9 22 11:47 14.04.2022
2036 Clouds 9 1020 48 10000 5.25 18 11:18 14.04.2022
2037 Clouds 8 1020 53 10000 5.27 17 10:31 14.04.2022
2038 Clouds 7 1020 53 10000 5.27 17 09:50 14.04.2022
2039 Clouds 5 1021 60 10000 5.11 18 08:35 14.04.2022
2040 Clouds 1 1021 84 10000 4.93 16 05:58 14.04.2022
2041 Clouds 3 1020 80 10000 5.12 10 01:23 14.04.2022
2042 Clouds 4 1020 75 10000 5.76 7 22:38 13.04.2022
2043 Clouds 4 1020 80 10000 5.06 3 22:38 13.04.2022
2044 Clouds 5 1020 80 10000 5.06 3 21:43 13.04.2022
2045 Clouds 5 1020 85 10000 5.11 5 20:47 13.04.2022
2046 Clouds 5 1020 86 10000 5.26 6 19:54 13.04.2022
2047 Clouds 6 1020 89 10000 5.3 7 18:43 13.04.2022
2048 Clouds 6 1019 92 10000 5.29 5 17:52 13.04.2022
2049 Clouds 6 1019 93 10000 5.4 3 17:23 13.04.2022
2050 Clouds 6 1019 94 10000 5.53 359 16:18 13.04.2022
2051 Clouds 6 1018 92 10000 5.73 357 15:31 13.04.2022
2052 Clouds 5 1018 92 10000 5.73 357 14:46 13.04.2022
2053 Clouds 5 1018 90 10000 5.46 356 13:57 13.04.2022
2054 Clouds 5 1017 89 10000 5.31 356 12:58 13.04.2022
2055 Clouds 5 1017 90 10000 5.1 355 12:19 13.04.2022
2056 Clouds 4 1017 92 10000 4.86 355 10:44 13.04.2022
2057 Clouds 3 1016 96 1179 4.51 355 08:50 13.04.2022
2058 Clouds 3 1016 97 256 4.46 353 08:28 13.04.2022
2059 Clouds 3 1015 97 186 4.35 354 06:50 13.04.2022
2060 Clouds 3 1015 98 112 4.29 352 06:25 13.04.2022
2061 Clouds 3 1014 98 101 4.02 0 02:37 13.04.2022
2062 Clouds 4 1013 98 143 3.81 353 00:20 13.04.2022
2063 Clouds 4 1013 98 164 4.34 356 22:46 12.04.2022
2064 Clouds 4 1013 98 173 4.48 355 21:57 12.04.2022
2065 Clouds 4 1013 98 203 4.27 351 20:49 12.04.2022
2066 Clouds 4 1012 98 310 4.46 354 20:27 12.04.2022
2067 Clouds 4 1012 98 539 4.17 356 19:47 12.04.2022
2068 Clouds 4 1012 98 7652 4.12 356 19:28 12.04.2022
2069 Clouds 5 1012 96 10000 4.14 350 17:50 12.04.2022
2070 Clouds 6 1011 95 10000 4.22 355 16:53 12.04.2022
2071 Clouds 6 1011 95 10000 4.03 356 15:52 12.04.2022
2072 Clouds 6 1010 92 10000 4.13 355 15:25 12.04.2022
2073 Clouds 6 1010 91 10000 3.74 353 13:54 12.04.2022
2074 Clouds 6 1010 94 10000 3.46 358 13:27 12.04.2022
2075 Clouds 5 1010 94 10000 3.46 358 12:44 12.04.2022
2076 Clouds 4 1010 95 5362 2.79 1 11:42 12.04.2022
2077 Clouds 4 1010 97 1839 2.34 3 10:30 12.04.2022
2078 Clouds 3 1010 98 576 3.02 21 08:54 12.04.2022
2079 Clouds 3 1010 98 576 3.02 21 08:54 12.04.2022
2080 Clouds 3 1010 98 2866 3.14 18 07:50 12.04.2022
2081 Clouds 2 1010 98 5874 3.29 7 05:49 12.04.2022
2082 Clouds 2 1010 97 10000 4.71 18 03:28 12.04.2022
2083 Rain 2 1012 98 389 4.22 3 23:36 11.04.2022
2084 Rain 2 1012 98 138 3.88 352 22:44 11.04.2022
2085 Clouds 2 1012 98 65 2.62 354 21:36 11.04.2022
2086 Clouds 2 1012 98 58 3.81 350 20:54 11.04.2022
2087 Clouds 2 1012 97 64 3.74 350 20:28 11.04.2022
2088 Clouds 2 1012 98 54 3.94 352 19:36 11.04.2022
2089 Clouds 2 1012 97 67 3.7 352 19:18 11.04.2022
2090 Clouds 2 1012 97 67 3.7 352 18:40 11.04.2022
2091 Clouds 3 1011 97 87 3.84 353 17:56 11.04.2022
2092 Clouds 3 1011 97 195 3.92 353 16:54 11.04.2022
2093 Rain 3 1011 94 10000 3.35 351 15:24 11.04.2022
2094 Clouds 3 1010 94 10000 3.62 12 13:53 11.04.2022
2095 Clouds 3 1010 93 10000 4.15 19 12:44 11.04.2022
2096 Rain 3 1010 92 10000 4.36 18 12:25 11.04.2022
2097 Clouds 3 1010 96 5780 5.18 18 10:58 11.04.2022
2098 Clouds 3 1011 96 10000 3.87 8 09:58 11.04.2022
2099 Clouds 4 1011 96 7729 3.84 16 08:50 11.04.2022
2100 Clouds 4 1012 93 10000 2.37 44 05:38 11.04.2022
2101 Clouds 5 1012 91 10000 1.67 65 00:57 11.04.2022
2102 Clouds 5 1013 83 10000 1.14 21 22:33 10.04.2022
2103 Clouds 6 1012 82 10000 0.95 35 21:54 10.04.2022
2104 Clouds 6 1012 79 10000 0.65 41 21:26 10.04.2022
2105 Clouds 6 1011 77 10000 0.74 42 20:25 10.04.2022
2106 Clouds 6 1011 78 10000 0.54 69 19:37 10.04.2022
2107 Clouds 6 1011 75 10000 0.48 88 19:18 10.04.2022
2108 Clouds 7 1011 75 10000 0.48 88 18:38 10.04.2022
2109 Clouds 7 1010 71 10000 0.61 51 17:51 10.04.2022
2110 Clouds 7 1010 67 10000 0.36 72 17:31 10.04.2022
2111 Clouds 7 1009 61 10000 0.74 19 15:53 10.04.2022
2112 Clouds 7 1009 56 10000 1.44 1 14:49 10.04.2022
2113 Clouds 6 1008 63 10000 2.02 349 13:49 10.04.2022
2114 Clouds 6 1008 90 10000 3.09 321 12:33 10.04.2022
2115 Clouds 6 1008 90 10000 3.09 321 11:45 10.04.2022
2116 Clouds 5 1007 92 10000 3.51 322 11:24 10.04.2022
2117 Clouds 6 1006 91 10000 4.86 313 10:41 10.04.2022
2118 Clouds 5 1006 91 10000 4.86 313 09:49 10.04.2022
2119 Clouds 6 1004 96 10000 3.39 283 08:55 10.04.2022
2120 Clouds 7 1003 98 10000 2.37 199 08:20 10.04.2022
2121 Clouds 7 1002 97 10000 2.97 183 06:59 10.04.2022
2122 Clouds 7 1001 96 10000 3.96 166 04:42 10.04.2022
2123 Clouds 7 1002 91 10000 5.61 152 02:20 10.04.2022
2124 Clouds 7 1003 92 10000 5.23 139 23:54 09.04.2022
2125 Clouds 8 1004 92 10000 4.84 158 23:29 09.04.2022
2126 Clouds 7 1004 92 10000 4.84 158 22:39 09.04.2022
2127 Clouds 7 1004 84 10000 4.9 177 21:31 09.04.2022
2128 Clouds 8 1004 83 10000 4.9 177 20:35 09.04.2022
2129 Clouds 9 1005 86 10000 4.9 166 19:59 09.04.2022
2130 Clouds 9 1005 87 10000 4.82 170 19:41 09.04.2022
2131 Clouds 9 1004 81 10000 4.51 151 18:26 09.04.2022
2132 Clouds 9 1004 81 10000 4.51 151 17:52 09.04.2022
2133 Clouds 10 1005 74 10000 3.5 153 17:18 09.04.2022
2134 Clouds 10 1005 74 10000 3.5 153 16:42 09.04.2022
2135 Clouds 10 1005 70 10000 2.29 160 15:52 09.04.2022
2136 Clouds 10 1005 65 10000 2.95 177 15:26 09.04.2022
2137 Clouds 10 1006 70 10000 2.98 188 14:26 09.04.2022
2138 Clouds 8 1005 71 10000 2.77 191 13:38 09.04.2022
2139 Clouds 8 1005 78 10000 1.62 176 12:59 09.04.2022
2140 Clouds 7 1005 80 10000 2.03 211 11:52 09.04.2022
2141 Clouds 6 1005 80 10000 2.19 224 10:55 09.04.2022
2142 Clouds 6 1004 81 10000 2.36 230 10:19 09.04.2022
2143 Clouds 6 1004 81 10000 2.36 230 09:36 09.04.2022
2144 Clouds 5 1003 83 10000 2.93 238 08:45 09.04.2022
2145 Clouds 5 1001 92 10000 2.93 209 05:35 09.04.2022
2146 Clouds 8 996 94 10000 5.25 169 00:38 09.04.2022
2147 Clouds 8 996 91 10000 5.29 160 23:25 08.04.2022
2148 Clouds 10 996 86 10000 5.18 162 21:57 08.04.2022
2149 Clouds 10 996 81 10000 5.77 155 20:47 08.04.2022
2150 Clouds 11 996 80 10000 6.1 146 19:58 08.04.2022
2151 Clouds 11 997 79 10000 6.26 148 19:18 08.04.2022
2152 Clouds 12 997 79 10000 6.38 149 18:25 08.04.2022
2153 Clouds 12 997 79 10000 6.38 149 17:45 08.04.2022
2154 Clouds 12 998 79 10000 6.53 153 17:22 08.04.2022
2155 Clouds 12 998 79 10000 6.53 153 16:38 08.04.2022
2156 Clouds 13 999 81 10000 6.7 158 15:53 08.04.2022
2157 Clouds 13 999 80 10000 6.79 159 15:23 08.04.2022
2158 Clouds 13 999 77 10000 6.16 160 14:26 08.04.2022
2159 Clouds 13 999 77 10000 6.01 160 13:44 08.04.2022
2160 Clouds 13 1000 75 10000 5.29 161 13:25 08.04.2022
2161 Clouds 12 1000 73 10000 5.11 165 11:53 08.04.2022
2162 Clouds 11 1000 78 10000 5.1 168 10:33 08.04.2022
2163 Clouds 11 1000 84 10000 4.45 169 09:37 08.04.2022
2164 Clouds 9 1000 89 10000 3.96 172 08:34 08.04.2022
2165 Clouds 8 1001 89 10000 4.1 179 06:47 08.04.2022
2166 Clouds 7 1001 91 10000 4.04 186 04:58 08.04.2022
2167 Clouds 6 1001 97 6657 3.11 173 01:26 08.04.2022
2168 Clouds 7 1001 99 1311 2.49 168 00:22 08.04.2022
2169 Clouds 7 1001 100 185 2.5 168 22:59 07.04.2022
2170 Clouds 6 1002 100 133 2.42 179 22:39 07.04.2022
2171 Rain 6 1002 100 133 2.42 179 22:20 07.04.2022
2172 Clouds 8 1002 100 133 2.42 179 21:51 07.04.2022
2173 Clouds 8 1001 100 94 3.19 186 21:19 07.04.2022
2174 Clouds 7 1001 100 94 3.19 186 20:31 07.04.2022
2175 Clouds 7 1002 100 41 3.97 179 18:34 07.04.2022
2176 Clouds 8 1002 100 35 4.07 180 17:26 07.04.2022
2177 Clouds 8 1002 100 35 4.07 180 16:44 07.04.2022
2178 Clouds 7 1002 100 30 4.26 180 16:22 07.04.2022
2179 Clouds 7 1002 100 30 4.26 180 16:22 07.04.2022
2180 Clouds 5 1002 100 38 4.51 182 14:50 07.04.2022
2181 Clouds 4 1002 100 45 4.05 171 13:43 07.04.2022
2182 Clouds 3 1003 100 50 4.23 183 12:50 07.04.2022
2183 Rain 2 1003 100 105 4.19 173 11:34 07.04.2022
2184 Snow 1 1004 99 57 4.97 168 09:42 07.04.2022
2185 Snow 1 1005 99 44 5.78 167 08:38 07.04.2022
2186 Snow 1 1006 95 609 5.09 164 06:57 07.04.2022
2187 Clouds -2 1007 88 10000 3.28 198 02:58 07.04.2022
2188 Clouds -2 1007 89 10000 3.3 211 02:27 07.04.2022
2189 Clouds -2 1007 88 10000 3.53 214 00:42 07.04.2022
2190 Clouds -3 1006 87 10000 3.24 221 22:54 06.04.2022
2191 Clouds -3 1006 87 10000 3.24 221 22:30 06.04.2022
2192 Clouds -2 1006 87 10000 3.1 224 21:45 06.04.2022
2193 Clouds -2 1005 89 10000 2.62 220 20:40 06.04.2022
2194 Clouds -1 1004 88 10000 1.98 226 19:57 06.04.2022
2195 Snow 0 1004 73 10000 4.17 276 18:52 06.04.2022
2196 Snow 1 1004 73 10000 4.17 276 18:34 06.04.2022
2197 Clouds 4 1002 91 484 7.31 235 17:35 06.04.2022
2198 Clouds 4 1001 73 10000 5.3 203 16:39 06.04.2022
2199 Clouds 4 1001 73 10000 5.3 203 15:49 06.04.2022
2200 Clouds 5 1001 73 10000 5.3 203 15:30 06.04.2022
2201 Clouds 4 1001 75 10000 4.63 208 13:30 06.04.2022
2202 Clear 3 1002 81 10000 3.86 224 12:28 06.04.2022
2203 Clouds 3 1001 80 10000 3.93 239 10:57 06.04.2022
2204 Clouds 2 1001 80 10000 3.93 239 10:32 06.04.2022
2205 Clouds 1 1001 79 10000 4.08 249 09:43 06.04.2022
2206 Clouds 0 1001 80 10000 4.41 259 08:39 06.04.2022
2207 Clouds 0 1001 84 10000 4.25 261 07:57 06.04.2022
2208 Clouds 1 998 85 10000 4.51 262 05:23 06.04.2022
2209 Clouds 1 995 98 23 6.09 197 23:58 05.04.2022
2210 Snow 1 995 98 32 6.23 185 23:33 05.04.2022
2211 Snow 1 996 97 176 6.46 179 21:48 05.04.2022
2212 Snow 1 996 97 176 6.46 179 21:48 05.04.2022
2213 Snow 1 996 97 176 6.46 179 21:48 05.04.2022
2214 Clouds 1 996 92 10000 7.04 177 20:58 05.04.2022
2215 Snow 1 997 88 10000 7.24 175 20:23 05.04.2022
2216 Clouds 3 998 77 10000 7.43 182 18:28 05.04.2022
2217 Clouds 3 999 79 10000 7.23 183 17:21 05.04.2022
2218 Clouds 4 999 79 10000 7.23 183 16:42 05.04.2022
2219 Clouds 4 1000 83 10000 6.96 183 15:51 05.04.2022
2220 Clouds 4 1000 88 10000 6.77 183 15:30 05.04.2022
2221 Clouds 4 1001 91 10000 6.4 184 13:46 05.04.2022
2222 Clouds 5 1002 95 10000 6.02 191 12:29 05.04.2022
2223 Clouds 4 1002 95 10000 6.02 191 11:43 05.04.2022
2224 Clouds 4 1002 97 10000 5.78 189 11:24 05.04.2022
2225 Clouds 2 1003 94 10000 5.21 190 09:31 05.04.2022
2226 Clouds 1 1003 91 10000 4.77 194 08:33 05.04.2022
2227 Clouds 0 1005 93 10000 2.94 197 03:50 05.04.2022
2228 Clouds 1 1006 92 10000 2.7 224 23:45 04.04.2022
2229 Clouds 1 1006 92 10000 2.72 229 22:38 04.04.2022
2230 Clouds 1 1006 92 10000 2.87 232 21:51 04.04.2022
2231 Clouds 1 1006 93 10000 2.78 229 21:20 04.04.2022
2232 Clouds 1 1006 93 10000 2.78 229 20:47 04.04.2022
2233 Clouds 2 1007 93 10000 2.44 228 19:30 04.04.2022
2234 Clouds 3 1007 93 10000 2.44 228 18:44 04.04.2022
2235 Clouds 3 1006 89 10000 2.42 238 17:21 04.04.2022
2236 Clouds 4 1006 95 10000 1.93 247 16:34 04.04.2022
2237 Clouds 4 1006 95 10000 1.93 247 15:34 04.04.2022
2238 Clouds 4 1006 96 10000 1.87 259 14:49 04.04.2022
2239 Clouds 4 1006 97 6250 2.02 264 14:31 04.04.2022
2240 Clouds 3 1006 97 1422 1.82 275 13:18 04.04.2022
2241 Clouds 2 1006 90 10000 2.54 309 11:29 04.04.2022
2242 Clouds 1 1006 88 10000 2.52 319 10:29 04.04.2022
2243 Clouds -5 1006 89 10000 2.61 324 07:36 04.04.2022
2244 Clouds -7 1004 95 10000 1.99 324 03:18 04.04.2022
2245 Clouds -5 1004 93 10000 2.29 329 23:48 03.04.2022
2246 Clouds -3 1003 93 10000 2.17 322 22:31 03.04.2022
2247 Clouds -3 1003 93 10000 2.17 322 21:37 03.04.2022
2248 Clouds -2 1003 94 10000 2.11 316 20:40 03.04.2022
2249 Clouds 0 1002 93 10000 2.12 317 19:45 03.04.2022
2250 Clouds 1 1001 85 10000 4.12 342 18:31 03.04.2022
2251 Clouds 1 1001 85 10000 4.12 342 17:44 03.04.2022
2252 Clouds 2 1000 85 10000 5.02 343 16:50 03.04.2022
2253 Clouds 2 999 86 10000 5.39 343 16:31 03.04.2022
2254 Clouds 2 998 90 10000 5.64 341 14:32 03.04.2022
2255 Clouds 2 998 90 10000 5.64 341 13:45 03.04.2022
2256 Clouds 1 997 91 9681 5.73 339 12:38 03.04.2022
2257 Clouds -1 996 93 6800 5.77 342 10:58 03.04.2022
2258 Clouds -2 995 92 8139 5.97 344 09:36 03.04.2022
2259 Snow -2 994 91 10000 6.05 348 07:37 03.04.2022
2260 Snow -2 992 95 438 6.16 358 04:37 03.04.2022
2261 Snow -1 992 97 194 5.45 18 00:41 03.04.2022
2262 Snow -1 993 98 141 5.28 28 22:57 02.04.2022
2263 Snow -1 994 97 190 5.52 40 21:58 02.04.2022
2264 Snow -1 994 97 190 5.52 40 21:36 02.04.2022
2265 Snow -1 995 98 146 5.44 40 21:18 02.04.2022
2266 Snow -1 995 98 124 5.27 49 19:32 02.04.2022
2267 Snow -1 997 97 272 6.42 53 18:21 02.04.2022
2268 Snow 0 997 97 272 6.42 53 17:53 02.04.2022
2269 Snow 0 999 97 260 5.93 57 16:25 02.04.2022
2270 Snow -1 1000 99 128 6.02 56 15:21 02.04.2022
2271 Snow 0 1000 99 128 6.02 56 14:49 02.04.2022
2272 Snow 0 1000 99 128 6.02 56 14:49 02.04.2022
2273 Snow 1 1002 99 193 5.34 63 13:35 02.04.2022
2274 Snow 0 1002 99 193 5.34 63 12:47 02.04.2022
2275 Snow 0 1003 99 1201 5.41 67 11:31 02.04.2022
2276 Snow -1 1005 96 173 5.46 61 09:30 02.04.2022
2277 Snow -1 1006 95 205 5.33 52 06:51 02.04.2022
2278 Snow -1 1006 95 205 5.33 52 06:51 02.04.2022
2279 Snow 0 1007 92 4560 5.34 51 03:53 02.04.2022
2280 Clouds 1 1008 93 2912 5.39 56 23:58 01.04.2022
2281 Clouds 1 1008 93 2913 5.39 56 23:30 01.04.2022
2282 Clouds 1 1009 91 10000 5.24 62 21:52 01.04.2022
2283 Clouds 2 1010 90 10000 5.51 63 20:52 01.04.2022
2284 Clouds 2 1010 89 10000 5.6 64 20:30 01.04.2022
2285 Clouds 2 1010 91 10000 5.95 61 19:37 01.04.2022
2286 Clouds 2 1010 89 10000 6.05 62 18:51 01.04.2022
2287 Clouds 3 1011 88 10000 5.97 62 17:54 01.04.2022
2288 Clouds 3 1011 88 10000 5.97 62 17:34 01.04.2022
2289 Clouds 3 1011 87 10000 5.73 61 15:42 01.04.2022
2290 Clouds 3 1012 89 10000 5.24 62 14:26 01.04.2022
2291 Clouds 3 1011 90 10000 5.26 61 13:35 01.04.2022
2292 Clouds 1 1012 92 10000 4.72 63 12:33 01.04.2022
2293 Clouds 1 1012 94 10000 4.26 64 11:44 01.04.2022
2294 Clouds 0 1013 94 10000 3.93 58 10:19 01.04.2022
2295 Clouds 0 1013 92 10000 3.79 54 09:29 01.04.2022
2296 Clouds 0 1013 94 5771 3.32 57 06:55 01.04.2022
2297 Clouds -1 1012 97 6017 2.81 42 04:54 01.04.2022
2298 Clouds 0 1012 97 6015 2.81 42 04:36 01.04.2022
2299 Clouds 0 1012 96 10000 1.33 30 01:59 01.04.2022
2300 Clouds 0 1011 98 10000 1.34 26 00:44 01.04.2022
2301 Clouds 0 1011 95 5269 0.16 194 21:55 31.03.2022
2302 Clouds 0 1011 95 5269 0.16 194 21:37 31.03.2022
2303 Snow 0 1011 96 10000 0.94 163 20:43 31.03.2022
2304 Clouds 0 1011 99 1841 0.83 110 20:25 31.03.2022
2305 Snow 0 1009 99 35 1.33 88 18:57 31.03.2022
2306 Snow 0 1010 99 34 1.61 109 17:55 31.03.2022
2307 Snow 0 1010 99 39 2.23 111 16:45 31.03.2022
2308 Snow 0 1010 99 70 2.65 108 15:54 31.03.2022
2309 Snow 0 1010 99 129 2.96 114 15:22 31.03.2022
2310 Snow 0 1010 99 128 2.96 114 14:44 31.03.2022
2311 Snow 1 1011 98 179 2.99 114 13:27 31.03.2022
2312 Snow 1 1011 97 201 2.9 124 11:30 31.03.2022
2313 Clouds 1 1012 89 10000 2.68 147 10:19 31.03.2022
2314 Clouds -1 1012 88 10000 2.22 161 08:52 31.03.2022
2315 Clouds -3 1012 90 10000 2.07 141 07:31 31.03.2022
2316 Clouds -4 1011 96 10000 0.76 153 01:27 31.03.2022
2317 Clouds -3 1011 93 8125 0.93 143 23:23 30.03.2022
2318 Clouds -2 1010 89 10000 1.08 129 21:54 30.03.2022
2319 Clouds -2 1010 87 10000 0.96 130 21:27 30.03.2022
2320 Clouds -2 1010 87 10000 0.96 130 20:32 30.03.2022
2321 Clouds -2 1010 88 10000 0.82 211 19:43 30.03.2022
2322 Clouds -1 1010 89 10000 1.27 175 18:41 30.03.2022
2323 Clouds 1 1009 86 10000 1.08 181 17:50 30.03.2022
2324 Clouds 0 1008 79 10000 0.91 231 16:58 30.03.2022
2325 Clouds 0 1008 79 10000 0.92 230 16:39 30.03.2022
2326 Clouds 0 1008 65 10000 2.14 259 15:47 30.03.2022
2327 Clouds 0 1008 58 10000 3.25 265 14:22 30.03.2022
2328 Clouds -1 1008 58 10000 2.97 258 13:20 30.03.2022
2329 Clouds -2 1008 59 10000 3.17 266 11:55 30.03.2022
2330 Clouds -3 1008 62 10000 3.25 273 10:48 30.03.2022
2331 Clouds -3 1008 67 10000 3.28 275 09:30 30.03.2022
2332 Clouds -5 1007 81 10000 3.45 289 07:59 30.03.2022
2333 Clouds -5 1006 81 10000 3.57 303 06:32 30.03.2022
2334 Clouds -5 1005 89 5348 3.39 302 05:38 30.03.2022
2335 Snow -4 1002 94 277 1.47 329 01:45 30.03.2022
2336 Clouds -3 1000 92 9417 2.15 355 22:38 29.03.2022
2337 Clouds -2 1000 92 9408 2.15 355 21:47 29.03.2022
2338 Clouds -2 1000 91 5596 1.93 0 20:55 29.03.2022
2339 Clouds -2 1000 92 10000 1.29 5 20:25 29.03.2022
2340 Snow -2 999 94 3633 1.75 352 19:27 29.03.2022
2341 Snow -2 999 94 3633 1.75 352 18:53 29.03.2022
2342 Snow -1 999 96 499 1.67 1 17:40 29.03.2022
2343 Snow 0 998 93 486 1.9 0 16:59 29.03.2022
2344 Clouds 0 998 81 7305 2.26 352 16:25 29.03.2022
2345 Clouds 0 998 77 10000 1.97 328 14:58 29.03.2022
2346 Clouds 1 998 76 10000 1.97 328 14:39 29.03.2022
2347 Clouds 0 998 80 10000 3.28 314 13:33 29.03.2022
2348 Clouds 0 997 82 10000 4.15 308 11:58 29.03.2022
2349 Clouds 0 996 80 10000 4.68 307 10:59 29.03.2022
2350 Snow 0 996 83 10000 4.74 307 09:50 29.03.2022
2351 Snow 1 995 92 739 4.55 314 08:32 29.03.2022
2352 Clouds 1 993 83 10000 6.17 273 05:44 29.03.2022
2353 Clouds 1 991 82 10000 6.44 276 02:19 29.03.2022
2354 Clouds 1 990 78 10000 6.6 286 23:26 28.03.2022
2355 Clouds 1 990 78 10000 6.6 286 22:56 28.03.2022
2356 Snow 1 989 88 10000 6.31 290 22:31 28.03.2022
2357 Clouds 2 989 88 10000 6.31 290 21:38 28.03.2022
2358 Clouds 3 988 92 10000 8.89 272 20:32 28.03.2022
2359 Clouds 1 988 92 5315 8.33 248 19:47 28.03.2022
2360 Snow 0 989 88 10000 7.78 234 19:29 28.03.2022
2361 Snow 0 989 88 10000 7.78 234 18:44 28.03.2022
2362 Snow -1 991 91 10000 6.24 241 17:41 28.03.2022
2363 Snow -2 992 86 10000 7.14 244 16:47 28.03.2022
2364 Snow -3 996 96 174 6.1 210 14:53 28.03.2022
2365 Snow -4 998 94 186 6.39 200 14:23 28.03.2022
2366 Snow -5 1000 93 194 6.74 202 13:18 28.03.2022
2367 Snow -5 1002 92 185 6.77 197 11:43 28.03.2022
2368 Clouds -4 1007 76 8176 5.94 205 09:55 28.03.2022
2369 Clouds -5 1008 67 10000 5.34 213 09:20 28.03.2022
2370 Clouds -6 1010 72 10000 4.53 227 08:23 28.03.2022
2371 Clouds -6 1010 72 10000 4.53 226 07:59 28.03.2022
2372 Clouds -7 1012 84 10000 3.82 256 06:30 28.03.2022
2373 Clouds -6 1014 77 10000 5.82 315 00:19 28.03.2022
2374 Clouds -5 1014 75 10000 6.32 318 22:34 27.03.2022
2375 Clouds -5 1013 72 10000 6.78 321 21:43 27.03.2022
2376 Clouds -4 1012 70 10000 7.1 323 20:58 27.03.2022
2377 Clouds -4 1012 68 10000 7.39 326 20:21 27.03.2022
2378 Clouds -4 1012 68 10000 7.39 326 19:36 27.03.2022
2379 Clouds -3 1011 56 10000 7.41 329 18:42 27.03.2022
2380 Clouds -3 1010 56 10000 7.73 330 18:23 27.03.2022
2381 Clouds -3 1009 56 10000 8.01 331 17:35 27.03.2022
2382 Clouds -3 1008 67 10000 8.39 330 15:47 27.03.2022
2383 Snow -4 1005 74 5155 8.88 329 13:57 27.03.2022
2384 Snow -4 1004 76 4812 9.2 329 12:58 27.03.2022
2385 Snow -4 1003 75 4436 9.14 329 11:33 27.03.2022
2386 Clouds -4 1001 75 4527 9.07 329 09:37 27.03.2022
2387 Snow -3 998 71 5728 8.4 326 06:58 27.03.2022
2388 Snow -2 995 70 5381 7.79 308 03:39 27.03.2022
2389 Clouds -1 992 69 9832 7.08 294 00:26 27.03.2022
2390 Clouds 0 992 70 6689 6.81 293 22:49 26.03.2022
2391 Clouds 0 992 71 9282 6.83 293 21:54 26.03.2022
2392 Clouds 0 991 71 10000 6.24 286 21:29 26.03.2022
2393 Clouds 2 992 64 10000 6.42 270 19:32 26.03.2022
2394 Clouds 2 991 64 10000 6.26 269 18:40 26.03.2022
2395 Clouds 2 991 75 10000 5.85 263 17:34 26.03.2022
2396 Clouds 3 992 57 10000 5.71 266 16:34 26.03.2022
2397 Clouds 4 992 69 10000 5.77 269 15:39 26.03.2022
2398 Clouds 3 992 66 10000 6.22 283 13:56 26.03.2022
2399 Clouds 3 992 67 10000 7.14 278 13:20 26.03.2022
2400 Clouds 4 993 67 5697 7.18 263 11:50 26.03.2022
2401 Rain 4 993 64 223 7.23 248 10:48 26.03.2022
2402 Clouds 6 995 84 10000 7.76 233 08:48 26.03.2022
2403 Clouds 5 998 90 10000 6.16 214 06:39 26.03.2022
2404 Clouds 4 1002 62 10000 5.3 223 05:30 26.03.2022
2405 Clouds 4 1007 62 7347 5.05 218 01:47 26.03.2022
2406 Clouds 5 1013 98 1490 4.32 225 22:21 25.03.2022
2407 Clouds 4 1014 99 219 3.57 225 20:58 25.03.2022
2408 Clouds 5 1015 99 174 3.11 228 20:26 25.03.2022
2409 Clouds 5 1016 99 147 2.85 238 19:18 25.03.2022
2410 Clouds 5 1016 99 147 2.85 238 18:34 25.03.2022
2411 Rain 6 1017 100 117 2.65 234 17:29 25.03.2022
2412 Clouds 6 1018 100 57 2.06 223 16:27 25.03.2022
2413 Clouds 7 1018 100 57 2.06 223 15:33 25.03.2022
2414 Clouds 8 1020 100 640 1.04 242 13:28 25.03.2022
2415 Clouds 6 1020 99 420 1.12 258 10:50 25.03.2022
2416 Clouds 4 1020 99 747 0.79 276 09:28 25.03.2022
2417 Clouds 3 1020 99 745 0.79 276 08:49 25.03.2022
2418 Clouds 2 1020 99 1117 0.79 294 07:35 25.03.2022
2419 Clouds 1 1020 93 10000 1.39 299 06:29 25.03.2022
2420 Clouds -1 1020 98 10000 1.59 270 02:37 25.03.2022
2421 Clouds 0 1020 93 10000 1.7 269 22:56 24.03.2022
2422 Clouds 1 1020 92 10000 1.87 280 21:56 24.03.2022
2423 Clouds 2 1020 95 10000 1.71 264 20:52 24.03.2022
2424 Clouds 4 1020 95 10000 1.67 245 19:49 24.03.2022
2425 Clouds 6 1020 93 10000 1.5 250 18:44 24.03.2022
2426 Clouds 9 1020 90 10000 1.23 251 17:33 24.03.2022
2427 Clouds 11 1019 88 10000 0.75 279 16:24 24.03.2022
2428 Clouds 11 1019 89 10000 0.36 288 14:51 24.03.2022
2429 Clouds 11 1019 90 10000 0.33 195 14:22 24.03.2022
2430 Clouds 11 1019 91 10000 0.69 162 13:33 24.03.2022
2431 Clouds 10 1019 92 10000 0.91 156 12:24 24.03.2022
2432 Clouds 10 1019 93 10000 0.76 151 10:48 24.03.2022
2433 Clouds 8 1019 94 10000 0.84 166 09:27 24.03.2022
2434 Clouds 6 1019 94 10000 0.84 166 08:32 24.03.2022
2435 Clouds -2 1019 95 7150 1.56 183 05:30 24.03.2022
2436 Clouds -2 1019 95 7150 1.56 183 05:30 24.03.2022
2437 Clouds -1 1021 99 327 1.18 212 23:59 23.03.2022
2438 Clouds -1 1022 99 523 1.19 215 22:19 23.03.2022
2439 Clouds 0 1022 99 627 1.14 235 21:21 23.03.2022
2440 Clouds 3 1023 99 618 1.28 251 19:56 23.03.2022
2441 Clouds 5 1023 99 620 1.42 249 19:25 23.03.2022
2442 Clouds 7 1024 98 549 1.45 247 17:48 23.03.2022
2443 Clouds 9 1024 99 502 1.4 243 17:24 23.03.2022
2444 Clouds 10 1025 98 1222 1.19 200 15:25 23.03.2022
2445 Clouds 10 1025 98 1223 1.19 200 14:47 23.03.2022
2446 Clouds 10 1025 95 7225 1.34 231 13:31 23.03.2022
2447 Clouds 9 1027 96 1475 2.06 285 11:24 23.03.2022
2448 Clouds 4 1029 98 871 2.1 287 08:29 23.03.2022
2449 Clouds -1 1029 94 10000 2.21 295 05:50 23.03.2022
2450 Clouds -1 1029 94 10000 2.21 295 05:50 23.03.2022
2451 Clouds 0 1030 97 10000 1.77 289 02:28 23.03.2022
2452 Clear 1 1031 96 10000 1.86 299 00:26 23.03.2022
2453 Clear 1 1031 94 10000 2.22 302 21:52 22.03.2022
2454 Clear 2 1031 93 10000 2.42 297 21:23 22.03.2022
2455 Clear 4 1031 93 10000 2.5 297 20:23 22.03.2022
2456 Clear 7 1032 92 10000 2.47 297 19:27 22.03.2022
2457 Clear 7 1032 92 10000 2.47 297 18:48 22.03.2022
2458 Clear 8 1032 92 10000 2.49 298 17:44 22.03.2022
2459 Clear 9 1032 90 10000 2.5 299 16:58 22.03.2022
2460 Clear 11 1032 87 10000 2.52 305 15:42 22.03.2022
2461 Clear 11 1032 79 10000 3.48 312 15:20 22.03.2022
2462 Clear 11 1032 79 10000 3.48 312 14:44 22.03.2022
2463 Clear 11 1032 75 10000 4.03 310 13:42 22.03.2022
2464 Clouds 11 1032 82 10000 3.57 298 12:34 22.03.2022
2465 Clouds 11 1032 88 10000 3.39 297 11:24 22.03.2022
2466 Clouds 8 1033 92 10000 3.28 293 09:42 22.03.2022
2467 Clear 3 1034 86 10000 3.31 274 07:35 22.03.2022
2468 Clear -2 1035 96 10000 2.38 263 03:58 22.03.2022
2469 Clouds 0 1036 97 10000 1.83 260 01:27 22.03.2022
2470 Clouds 0 1036 97 10000 1.22 272 23:19 21.03.2022
2471 Clouds 2 1036 96 10000 1.07 296 21:39 21.03.2022
2472 Clouds 3 1036 96 10000 1 317 20:44 21.03.2022
2473 Clouds 5 1036 96 10000 1.26 315 20:24 21.03.2022
2474 Clouds 6 1036 96 10000 1.26 315 19:48 21.03.2022
2475 Clear 7 1036 95 10000 1.39 321 19:22 21.03.2022
2476 Clear 8 1036 94 10000 1.86 329 17:36 21.03.2022
2477 Clear 9 1036 93 10000 1.97 330 16:59 21.03.2022
2478 Clear 9 1036 93 10000 1.97 330 16:35 21.03.2022
2479 Clear 10 1035 90 10000 2.38 340 15:45 21.03.2022
2480 Clear 11 1035 83 10000 3.5 345 14:47 21.03.2022
2481 Clouds 11 1034 81 10000 4.14 343 13:27 21.03.2022
2482 Clouds 10 1034 87 10000 3.86 340 12:22 21.03.2022
2483 Clouds 9 1034 87 10000 3.86 340 11:34 21.03.2022
2484 Clouds 7 1034 95 10000 4.01 331 09:54 21.03.2022
2485 Clouds 4 1034 65 10000 4.1 322 07:54 21.03.2022
2486 Clouds 2 1034 67 10000 3.66 313 06:31 21.03.2022
2487 Clear 1 1034 94 10000 3.55 315 02:33 21.03.2022
2488 Clear 4 1035 93 10000 3.93 325 23:32 20.03.2022
2489 Clear 4 1035 93 10000 3.93 325 22:42 20.03.2022
2490 Clear 5 1035 93 10000 4.25 325 21:49 20.03.2022
2491 Clear 5 1035 92 10000 4.1 325 21:20 20.03.2022
2492 Clear 5 1035 92 10000 4.1 325 20:42 20.03.2022
2493 Clear 4 1035 92 10000 4.11 324 19:57 20.03.2022
2494 Clear 4 1035 91 10000 3.97 319 19:26 20.03.2022
2495 Clear 6 1035 90 10000 3.79 316 17:51 20.03.2022
2496 Clear 6 1035 88 10000 3.64 315 17:29 20.03.2022
2497 Clear 7 1035 88 10000 3.64 315 16:46 20.03.2022
2498 Clear 8 1035 81 10000 4.49 303 15:27 20.03.2022
2499 Clear 8 1035 81 10000 4.75 298 13:49 20.03.2022
2500 Clouds 8 1036 85 10000 4.49 289 12:22 20.03.2022
2501 Clouds 6 1037 91 10000 4.3 293 10:42 20.03.2022
2502 Clouds 3 1038 97 10000 3.82 291 08:42 20.03.2022
2503 Clouds 0 1039 54 10000 3.54 302 06:55 20.03.2022
2504 Clear -3 1041 96 10000 3.02 301 04:23 20.03.2022
2505 Clear -2 1042 95 10000 2.24 300 01:29 20.03.2022
2506 Clear -2 1043 94 10000 2 310 00:37 20.03.2022
2507 Clear -1 1043 93 10000 2.05 308 22:56 19.03.2022
2508 Clouds 1 1043 94 10000 1.83 309 21:27 19.03.2022
2509 Clouds 2 1043 94 10000 1.83 309 20:39 19.03.2022
2510 Clouds 3 1043 95 10000 1.82 308 18:58 19.03.2022
2511 Clouds 4 1044 96 10000 1.58 293 18:23 19.03.2022
2512 Clouds 6 1044 95 10000 1.55 306 17:35 19.03.2022
2513 Clouds 8 1043 94 10000 1.54 304 15:43 19.03.2022
2514 Clouds 7 1044 90 10000 2.11 332 14:34 19.03.2022
2515 Clouds 7 1044 90 10000 1.85 338 12:59 19.03.2022
2516 Clouds 7 1044 90 10000 1.85 339 12:39 19.03.2022
2517 Clouds 7 1044 90 10000 1.91 344 11:51 19.03.2022
2518 Clouds 6 1044 92 10000 1.66 343 10:45 19.03.2022
2519 Clouds -3 1043 90 10000 1.27 348 06:29 19.03.2022
2520 Clouds -2 1042 53 10000 0.97 1 03:24 19.03.2022
2521 Clouds -4 1042 93 10000 0.78 356 02:29 19.03.2022
2522 Clouds -2 1043 92 10000 1.02 345 23:44 18.03.2022
2523 Clouds -2 1043 93 10000 1.3 357 22:27 18.03.2022
2524 Clouds -1 1043 93 10000 1.3 357 21:37 18.03.2022
2525 Clouds -1 1043 94 10000 1.47 344 19:51 18.03.2022
2526 Clouds 0 1043 90 10000 1.51 16 19:21 18.03.2022
2527 Clouds 3 1043 84 10000 1.84 27 17:50 18.03.2022
2528 Clouds 4 1043 85 10000 1.83 19 16:48 18.03.2022
2529 Clouds 5 1042 82 10000 2.34 13 15:26 18.03.2022
2530 Clouds 4 1043 82 10000 2.72 2 14:22 18.03.2022
2531 Clouds 3 1043 46 10000 3.19 343 12:27 18.03.2022
2532 Clouds 2 1043 82 10000 3.35 337 10:52 18.03.2022
2533 Clouds 0 1044 79 10000 3.35 323 09:29 18.03.2022
2534 Clouds -2 1044 82 10000 3.44 320 08:30 18.03.2022
2535 Clouds -7 1044 90 10000 2.6 300 06:35 18.03.2022
2536 Clouds -9 1045 95 10000 1.82 285 02:51 18.03.2022
2537 Clouds -8 1046 96 10000 1.48 300 00:23 18.03.2022
2538 Clouds -7 1045 95 10000 1.32 301 23:24 17.03.2022
2539 Clouds -5 1045 95 10000 1.22 306 22:24 17.03.2022
2540 Clouds -5 1045 95 10000 1.22 306 21:48 17.03.2022
2541 Clouds -4 1045 94 10000 0.91 315 21:23 17.03.2022
2542 Clouds -4 1045 94 10000 0.91 315 20:44 17.03.2022
2543 Clouds -3 1045 94 10000 0.88 339 19:48 17.03.2022
2544 Clouds -3 1044 93 10000 1.06 1 19:28 17.03.2022
2545 Clouds -2 1044 93 10000 1.05 1 18:46 17.03.2022
2546 Clouds -1 1044 90 10000 1.31 28 16:58 17.03.2022
2547 Clouds 1 1044 86 10000 1.32 27 15:44 17.03.2022
2548 Clouds 0 1043 77 10000 1.83 31 15:25 17.03.2022
2549 Clouds 0 1043 77 10000 1.83 31 14:38 17.03.2022
2550 Clouds 0 1043 47 10000 2.49 45 12:55 17.03.2022
2551 Clouds 0 1043 48 10000 2.62 56 12:25 17.03.2022
2552 Clouds -1 1044 48 10000 2.94 60 11:29 17.03.2022
2553 Clouds -2 1044 51 10000 3.18 62 10:30 17.03.2022
2554 Clouds -3 1044 55 10000 3.32 60 08:40 17.03.2022
2555 Clouds -5 1044 57 10000 2.99 56 07:36 17.03.2022
2556 Clouds -8 1043 92 10000 2.12 43 05:47 17.03.2022
2557 Clouds -7 1042 94 10000 1.92 27 01:37 17.03.2022
2558 Clouds -6 1042 93 10000 1.91 29 23:56 16.03.2022
2559 Clouds -5 1041 93 10000 2.06 37 22:50 16.03.2022
2560 Clouds -5 1041 92 10000 2.12 37 22:32 16.03.2022
2561 Clouds -4 1041 92 10000 2.12 37 21:46 16.03.2022
2562 Clouds -4 1041 90 10000 2.13 34 20:26 16.03.2022
2563 Clouds -3 1040 89 10000 2.03 40 19:21 16.03.2022
2564 Clouds -3 1041 89 10000 2.27 36 18:40 16.03.2022
2565 Clouds -2 1040 89 10000 2.15 33 17:43 16.03.2022
2566 Clouds -2 1040 87 10000 1.79 43 17:25 16.03.2022
2567 Clouds -1 1039 78 10000 3.03 60 15:56 16.03.2022
2568 Clouds -1 1039 74 10000 3.62 61 14:31 16.03.2022
2569 Clouds -1 1039 66 10000 3.36 58 13:32 16.03.2022
2570 Clouds 0 1039 57 10000 2.75 64 11:58 16.03.2022
2571 Clouds -2 1039 66 10000 2.63 73 11:21 16.03.2022
2572 Clouds -2 1039 70 10000 2.5 78 10:27 16.03.2022
2573 Clouds -2 1039 60 10000 2.5 78 09:55 16.03.2022
2574 Clouds -6 1039 68 10000 2.32 80 06:33 16.03.2022
2575 Clear -7 1037 97 10000 1.46 73 02:29 16.03.2022
2576 Clear -4 1037 94 10000 1.81 68 22:51 15.03.2022
2577 Clear -5 1037 93 10000 1.89 57 22:32 15.03.2022
2578 Clear -4 1036 91 10000 1.88 51 20:36 15.03.2022
2579 Clouds -3 1036 88 10000 2.38 60 19:27 15.03.2022
2580 Clouds 0 1036 86 10000 2.47 61 17:35 15.03.2022
2581 Clouds 0 1035 80 10000 2.03 46 16:34 15.03.2022
2582 Clouds 1 1035 70 10000 2.58 35 15:21 15.03.2022
2583 Clouds 1 1035 70 10000 2.58 35 14:46 15.03.2022
2584 Clouds 1 1035 65 10000 2.93 29 13:55 15.03.2022
2585 Clouds 1 1035 56 10000 3.22 24 12:46 15.03.2022
2586 Clear 0 1035 57 10000 3.13 25 11:32 15.03.2022
2587 Clear -1 1035 61 10000 3.2 30 09:54 15.03.2022
2588 Clear -2 1035 66 10000 3.18 35 08:49 15.03.2022
2589 Clear -3 1035 66 10000 3.18 36 07:53 15.03.2022
2590 Clear -3 1035 67 10000 3.15 35 07:35 15.03.2022
2591 Clear -4 1035 63 10000 3.05 23 05:42 15.03.2022
2592 Clouds -2 1032 88 10000 3.63 16 23:58 14.03.2022
2593 Clouds -2 1031 86 10000 4.05 16 23:25 14.03.2022
2594 Clouds -2 1030 66 10000 4.02 10 22:37 14.03.2022
2595 Clouds -1 1030 65 10000 4.02 10 21:49 14.03.2022
2596 Clouds -1 1030 80 10000 4.1 8 20:54 14.03.2022
2597 Clouds 0 1029 64 10000 4.8 13 20:23 14.03.2022
2598 Clouds 1 1028 64 10000 4.91 13 19:21 14.03.2022
2599 Clouds 2 1028 79 10000 4.68 7 17:55 14.03.2022
2600 Clouds 2 1028 83 10000 4.28 4 17:25 14.03.2022
2601 Clouds 3 1027 86 10000 3.82 359 16:26 14.03.2022
2602 Clouds 4 1027 83 10000 3.39 346 14:41 14.03.2022
2603 Clouds 3 1026 77 10000 4.35 338 12:54 14.03.2022
2604 Clouds 3 1026 84 10000 3.78 347 10:54 14.03.2022
2605 Clouds 2 1026 90 10000 3.74 4 09:56 14.03.2022
2606 Snow 1 1025 98 1470 3.34 345 09:22 14.03.2022
2607 Snow 1 1025 98 1470 3.34 345 08:57 14.03.2022
2608 Clouds 2 1025 78 673 2.65 319 07:43 14.03.2022
2609 Clouds 1 1025 90 10000 3.25 350 05:46 14.03.2022
2610 Snow 1 1025 98 49 3.51 330 02:51 14.03.2022
2611 Clouds 1 1024 76 35 3.69 320 01:29 14.03.2022
2612 Snow 1 1025 74 33 4.12 310 22:56 13.03.2022
2613 Snow 2 1025 72 39 4.23 307 21:40 13.03.2022
2614 Snow 2 1025 70 88 4.38 304 21:19 13.03.2022
2615 Clouds 1 1025 97 88 4.38 304 20:43 13.03.2022
2616 Snow 1 1025 97 597 4.64 298 20:20 13.03.2022
2617 Clouds 1 1025 97 597 4.64 298 19:40 13.03.2022
2618 Clouds 1 1025 96 659 4.91 290 19:19 13.03.2022
2619 Clouds 1 1025 95 1287 4.89 288 18:39 13.03.2022
2620 Clouds 1 1025 93 2726 5 283 17:47 13.03.2022
2621 Clouds 2 1026 67 4801 4.84 281 17:22 13.03.2022
2622 Clouds 2 1026 66 4800 4.84 281 16:43 13.03.2022
2623 Clouds 1 1026 89 10000 4.86 283 16:20 13.03.2022
2624 Clouds 2 1026 64 10000 4.78 279 15:33 13.03.2022
2625 Clouds 2 1026 64 10000 4.57 278 13:53 13.03.2022
2626 Clouds 2 1027 65 10000 4.13 282 13:26 13.03.2022
2627 Clouds 1 1027 91 10000 3.6 283 12:20 13.03.2022
2628 Clouds 0 1027 91 10000 3.43 286 11:36 13.03.2022
2629 Clouds 0 1027 91 10000 3.43 286 10:48 13.03.2022
2630 Clouds 0 1027 87 10000 3.38 280 10:25 13.03.2022
2631 Clouds -1 1027 87 10000 3.38 280 09:41 13.03.2022
2632 Clouds -2 1028 87 10000 2.82 284 08:48 13.03.2022
2633 Clouds -3 1028 89 10000 2.44 292 07:57 13.03.2022
2634 Clouds -3 1028 70 10000 1.54 296 05:55 13.03.2022
2635 Clouds -3 1028 95 10000 0.84 337 03:26 13.03.2022
2636 Clouds -3 1028 96 10000 1.3 7 00:48 13.03.2022
2637 Clouds -3 1027 96 10000 1.86 24 22:47 12.03.2022
2638 Clouds -2 1027 94 10000 2.02 19 20:59 12.03.2022
2639 Clouds -2 1026 71 10000 2.25 25 19:57 12.03.2022
2640 Clouds -2 1026 70 10000 2.25 25 19:39 12.03.2022
2641 Clouds -2 1026 93 10000 2.66 30 18:31 12.03.2022
2642 Clouds -1 1026 68 10000 2.66 30 17:43 12.03.2022
2643 Clouds -1 1025 66 10000 2.83 26 16:25 12.03.2022
2644 Clouds -2 1024 90 8298 2.94 22 15:24 12.03.2022
2645 Clouds -2 1024 90 8300 2.94 22 14:52 12.03.2022
2646 Clouds -2 1024 88 7155 3.13 20 13:53 12.03.2022
2647 Clouds -2 1023 84 10000 3.16 20 12:25 12.03.2022
2648 Clouds -2 1023 84 10000 3.16 20 11:51 12.03.2022
2649 Clouds -2 1023 83 10000 3.15 17 11:20 12.03.2022
2650 Clouds -3 1022 86 10000 2.9 10 09:58 12.03.2022
2651 Clouds -3 1022 86 10000 2.9 10 09:39 12.03.2022
2652 Clouds -4 1023 92 1530 2.27 346 07:51 12.03.2022
2653 Clouds -5 1023 97 2691 1.55 299 05:44 12.03.2022
2654 Clouds -6 1025 96 10000 1.67 273 00:24 12.03.2022
2655 Clouds -6 1026 95 10000 1.84 272 23:37 11.03.2022
2656 Clouds -5 1026 94 10000 1.92 262 21:48 11.03.2022
2657 Clouds -5 1027 93 10000 1.9 254 20:59 11.03.2022
2658 Clouds -5 1027 93 10000 1.9 254 20:40 11.03.2022
2659 Clouds -5 1027 93 10000 1.87 250 20:19 11.03.2022
2660 Clouds -4 1027 93 10000 1.88 248 19:28 11.03.2022
2661 Clouds -2 1028 93 10000 1.69 248 17:38 11.03.2022
2662 Clouds -2 1028 92 10000 1.62 258 17:19 11.03.2022
2663 Clear 0 1029 90 10000 1.55 264 15:57 11.03.2022
2664 Clear 0 1029 81 10000 2.13 274 15:29 11.03.2022
2665 Clouds 0 1030 48 10000 2.58 274 13:27 11.03.2022
2666 Clouds -1 1030 49 10000 2.58 270 12:30 11.03.2022
2667 Clouds -1 1031 50 10000 2.57 278 11:57 11.03.2022
2668 Clouds -3 1033 78 10000 1.96 282 10:24 11.03.2022
2669 Clouds -4 1033 83 10000 1.95 292 09:33 11.03.2022
2670 Clouds -7 1034 87 10000 1.57 295 08:27 11.03.2022
2671 Clouds -7 1034 58 10000 1.57 295 07:46 11.03.2022
2672 Clouds -12 1035 95 10000 1.32 319 06:25 11.03.2022
2673 Clouds -12 1036 97 7164 1.22 314 04:24 11.03.2022
2674 Clouds -10 1037 97 8431 1.75 343 00:39 11.03.2022
2675 Clouds -8 1037 96 10000 1.75 346 22:32 10.03.2022
2676 Clouds -7 1037 96 10000 1.8 351 21:53 10.03.2022
2677 Clouds -7 1037 96 10000 1.94 355 21:24 10.03.2022
2678 Clouds -7 1037 94 10000 2.22 6 20:18 10.03.2022
2679 Clouds -7 1037 93 10000 2.56 8 18:56 10.03.2022
2680 Clouds -6 1037 91 10000 2.75 7 17:37 10.03.2022
2681 Clouds -6 1037 88 10000 2.88 6 16:52 10.03.2022
2682 Clouds -5 1036 76 10000 3.91 25 15:27 10.03.2022
2683 Clouds -4 1036 53 10000 4.35 29 13:41 10.03.2022
2684 Clouds -5 1036 54 10000 4.58 28 12:35 10.03.2022
2685 Clouds -6 1037 56 10000 4.63 37 11:28 10.03.2022
2686 Clouds -8 1038 59 10000 4.78 34 09:28 10.03.2022
2687 Clear -11 1038 80 10000 4.73 30 07:47 10.03.2022
2688 Clear -14 1037 90 10000 3.98 27 05:30 10.03.2022
2689 Clouds -13 1035 92 10000 3.7 23 01:59 10.03.2022
2690 Clouds -11 1034 91 10000 3.7 30 23:32 09.03.2022
2691 Clouds -11 1033 90 10000 3.82 36 22:20 09.03.2022
2692 Clouds -10 1033 90 10000 3.82 36 21:36 09.03.2022
2693 Clear -10 1033 89 10000 4.14 35 20:31 09.03.2022
2694 Clouds -8 1032 85 10000 4.32 37 18:41 09.03.2022
2695 Clouds -8 1030 83 10000 4.39 44 17:28 09.03.2022
2696 Clouds -7 1030 79 10000 4.33 50 16:36 09.03.2022
2697 Clouds -6 1029 75 10000 4.48 51 15:32 09.03.2022
2698 Clouds -6 1028 73 10000 4.62 48 13:58 09.03.2022
2699 Clouds -6 1027 69 10000 4.7 47 12:59 09.03.2022
2700 Clouds -6 1027 68 10000 4.73 47 12:19 09.03.2022
2701 Clouds -6 1027 68 10000 4.73 47 11:36 09.03.2022
2702 Clouds -6 1027 70 10000 4.44 52 10:39 09.03.2022
2703 Clouds -8 1026 78 10000 4.27 52 09:22 09.03.2022
2704 Clouds -8 1026 78 10000 4.27 52 08:42 09.03.2022
2705 Clouds -10 1025 67 1022 3.49 46 04:47 09.03.2022
2706 Clouds -8 1023 70 1077 3.07 43 00:52 09.03.2022
2707 Clouds -7 1023 71 1398 3.33 53 23:18 08.03.2022
2708 Clouds -7 1023 71 1398 3.33 53 22:44 08.03.2022
2709 Snow -6 1022 71 398 3.61 46 21:26 08.03.2022
2710 Snow -6 1022 94 398 3.61 46 20:54 08.03.2022
2711 Clouds -6 1022 94 263 3.74 34 19:55 08.03.2022
2712 Clouds -5 1022 74 826 3.64 42 18:45 08.03.2022
2713 Clouds -6 1021 93 1059 3.77 41 17:50 08.03.2022
2714 Clouds -6 1021 91 1921 3.96 37 16:33 08.03.2022
2715 Clouds -5 1019 85 10000 4.26 38 14:22 08.03.2022
2716 Clouds -5 1018 83 10000 4.42 41 12:44 08.03.2022
2717 Clouds -5 1018 80 10000 4.54 39 11:53 08.03.2022
2718 Clouds -4 1018 72 10000 4.54 39 11:34 08.03.2022
2719 Clouds -5 1018 83 10000 4.84 40 10:22 08.03.2022
2720 Snow -5 1017 90 674 4.99 36 08:28 08.03.2022
2721 Clouds -4 1015 80 670 4.29 26 05:47 08.03.2022
2722 Snow -3 1013 79 409 4.12 17 00:43 08.03.2022
2723 Snow -2 1011 97 2513 2.09 358 22:23 07.03.2022
2724 Snow -2 1011 97 10000 1.52 343 21:35 07.03.2022
2725 Snow -2 1011 97 10000 1.52 343 20:53 07.03.2022
2726 Clouds -1 1010 96 10000 1.49 327 20:22 07.03.2022
2727 Clouds -1 1010 96 10000 1.49 327 19:38 07.03.2022
2728 Clouds -1 1010 94 10000 1.6 279 18:47 07.03.2022
2729 Clouds -1 1010 93 10000 1.53 260 17:58 07.03.2022
2730 Clouds 0 1010 94 10000 1.49 257 16:56 07.03.2022
2731 Clouds 1 1010 65 10000 1.49 257 16:30 07.03.2022
2732 Clouds 1 1010 85 10000 2.68 306 14:31 07.03.2022
2733 Clouds 1 1009 83 10000 2.92 295 12:33 07.03.2022
2734 Clouds 0 1009 82 10000 3.06 296 10:45 07.03.2022
2735 Clouds 0 1010 82 9071 3.33 295 10:24 07.03.2022
2736 Clouds -2 1010 88 10000 2.93 292 06:35 07.03.2022
2737 Clouds -1 1009 66 3573 3.39 299 00:24 07.03.2022
2738 Clouds -1 1009 65 3574 3.39 299 23:58 06.03.2022
2739 Clouds -2 1009 93 2522 3.77 285 22:58 06.03.2022
2740 Clouds -2 1010 92 5695 4.13 280 22:24 06.03.2022
2741 Clouds -2 1010 91 10000 4.51 275 20:56 06.03.2022
2742 Clouds -2 1010 59 10000 4.81 273 20:28 06.03.2022
2743 Clouds -1 1010 59 10000 5.03 271 19:29 06.03.2022
2744 Clouds -2 1011 85 10000 5.36 270 18:25 06.03.2022
2745 Clouds -2 1011 84 10000 5.46 267 17:22 06.03.2022
2746 Clouds -1 1011 57 10000 5.46 267 16:52 06.03.2022
2747 Clouds -2 1011 83 10000 5.6 263 16:20 06.03.2022
2748 Clouds 0 1012 81 10000 5.42 259 15:19 06.03.2022
2749 Clouds 0 1012 81 10000 5.42 259 14:41 06.03.2022
2750 Clouds 0 1012 79 10000 5.33 259 13:47 06.03.2022
2751 Clouds -1 1013 78 10000 5.18 257 12:36 06.03.2022
2752 Clouds -1 1014 65 10000 4.77 266 11:27 06.03.2022
2753 Clouds -2 1014 67 10000 4.77 266 10:30 06.03.2022
2754 Clouds -3 1016 70 10000 4.46 278 08:51 06.03.2022
2755 Clouds -4 1017 71 10000 4.18 279 08:27 06.03.2022
2756 Clouds -8 1018 74 10000 3.11 277 06:33 06.03.2022
2757 Clouds -6 1019 70 10000 2.93 312 01:36 06.03.2022
2758 Clouds -5 1019 91 10000 2.36 314 00:33 06.03.2022
2759 Clouds -4 1019 91 10000 2.39 327 23:46 05.03.2022
2760 Clouds -4 1019 90 10000 2.56 334 23:18 05.03.2022
2761 Clouds -3 1019 89 10000 2.54 339 22:31 05.03.2022
2762 Clouds -3 1019 68 10000 2.85 351 21:24 05.03.2022
2763 Clouds -2 1019 68 10000 3.34 354 19:56 05.03.2022
2764 Clouds -2 1019 68 10000 3.82 4 18:56 05.03.2022
2765 Clouds -2 1019 68 10000 3.82 4 18:36 05.03.2022
2766 Clouds -2 1019 67 10000 4.64 1 16:58 05.03.2022
2767 Clouds -1 1018 67 10000 4.91 356 15:49 05.03.2022
2768 Clouds -1 1018 66 10000 5.1 355 14:53 05.03.2022
2769 Clouds -1 1017 66 10000 5.09 356 14:34 05.03.2022
2770 Clouds -1 1017 66 10000 5.18 357 13:35 05.03.2022
2771 Clouds -1 1017 66 10000 5.34 0 12:33 05.03.2022
2772 Clouds -1 1017 66 10000 5.23 2 11:20 05.03.2022
2773 Clouds -1 1017 81 10000 5.23 2 10:48 05.03.2022
2774 Clouds -1 1016 81 10000 5.62 5 09:28 05.03.2022
2775 Clouds -2 1016 83 10000 5.69 5 08:24 05.03.2022
2776 Clouds -2 1016 91 5188 5.43 356 06:29 05.03.2022
2777 Clouds -1 1015 90 10000 5.22 356 04:54 05.03.2022
2778 Clouds -1 1014 94 10000 4.07 359 23:59 04.03.2022
2779 Clouds -1 1014 94 7359 3.92 4 22:45 04.03.2022
2780 Clouds -1 1014 92 10000 3.9 5 22:24 04.03.2022
2781 Clouds 0 1014 68 10000 3.9 5 21:42 04.03.2022
2782 Clouds 0 1014 68 10000 4.18 8 20:36 04.03.2022
2783 Clouds 0 1014 68 10000 4.51 13 19:36 04.03.2022
2784 Clouds 0 1013 68 10000 4.15 13 18:47 04.03.2022
2785 Clouds -1 1013 68 10000 4 15 18:27 04.03.2022
2786 Clouds -1 1013 68 10000 4.63 18 17:29 04.03.2022
2787 Clouds -1 1013 67 10000 4.6 16 15:48 04.03.2022
2788 Clouds -1 1013 78 10000 4.82 19 14:45 04.03.2022
2789 Clouds -1 1012 79 10000 4.75 13 13:34 04.03.2022
2790 Clouds -2 1012 81 10000 4.7 17 11:59 04.03.2022
2791 Clouds -2 1012 81 10000 4.69 17 11:37 04.03.2022
2792 Clouds -3 1013 85 10000 4.94 13 10:24 04.03.2022
2793 Clouds -4 1013 87 10000 4.25 14 09:27 04.03.2022
2794 Clouds -4 1013 71 10000 4.32 14 07:47 04.03.2022
2795 Clouds -5 1012 94 6769 3.56 4 05:49 04.03.2022
2796 Clouds -5 1012 88 10000 1.01 24 01:23 04.03.2022
2797 Clouds -2 1012 58 10000 1.15 346 23:31 03.03.2022
2798 Clouds -3 1012 83 10000 1.5 356 22:18 03.03.2022
2799 Clouds -1 1012 57 10000 1.5 356 21:36 03.03.2022
2800 Clouds -1 1012 56 10000 1.62 341 20:44 03.03.2022
2801 Clouds 0 1012 55 10000 0.61 344 19:22 03.03.2022
2802 Clouds 0 1012 90 10000 0.61 324 18:25 03.03.2022
2803 Clouds 2 1012 86 10000 1.16 302 17:31 03.03.2022
2804 Clouds 3 1012 86 10000 1.16 302 16:41 03.03.2022
2805 Clouds 3 1012 86 10000 1.16 302 16:41 03.03.2022
2806 Clouds 4 1012 85 10000 1.5 285 15:44 03.03.2022
2807 Clouds 5 1012 86 10000 1.6 268 14:44 03.03.2022
2808 Clouds 5 1012 86 10000 1.64 261 14:26 03.03.2022
2809 Clouds 5 1012 86 10000 1.92 245 12:35 03.03.2022
2810 Clouds 3 1013 90 10000 2.08 244 11:26 03.03.2022
2811 Clouds 1 1013 90 10000 2.08 244 10:38 03.03.2022
2812 Clouds -2 1013 93 10000 2.07 236 08:42 03.03.2022
2813 Clouds -5 1014 95 10000 1.97 235 06:57 03.03.2022
2814 Clouds -5 1015 96 10000 1.71 234 05:44 03.03.2022
2815 Clouds -3 1018 96 10000 1.56 229 00:30 03.03.2022
2816 Clouds -2 1018 96 10000 1.29 238 23:18 02.03.2022
2817 Clouds -2 1018 96 10000 1.29 238 22:42 02.03.2022
2818 Clouds -2 1019 95 10000 1.67 227 21:22 02.03.2022
2819 Clouds -1 1020 96 10000 1.48 224 20:30 02.03.2022
2820 Clouds 0 1020 96 10000 1.48 224 19:45 02.03.2022
2821 Clouds 0 1020 96 10000 1.42 234 19:26 02.03.2022
2822 Clouds 1 1020 96 10000 1.42 234 18:39 02.03.2022
2823 Clouds 1 1020 96 10000 1.36 219 18:39 02.03.2022
2824 Clouds 1 1021 96 10000 1.33 204 17:45 02.03.2022
2825 Clouds 3 1021 96 10000 1.43 188 16:54 02.03.2022
2826 Clouds 3 1021 96 10000 1.43 188 16:36 02.03.2022
2827 Clouds 6 1022 95 10000 0.99 171 14:42 02.03.2022
2828 Clouds 6 1024 92 10000 1.28 202 13:23 02.03.2022
2829 Clouds 6 1024 91 10000 1.34 206 12:40 02.03.2022
2830 Clouds 3 1024 91 10000 1.27 223 11:39 02.03.2022
2831 Clouds 3 1025 91 10000 1.25 238 11:18 02.03.2022
2832 Clouds 0 1026 91 10000 1.26 262 09:41 02.03.2022
2833 Clouds -3 1027 91 10000 1.3 271 08:51 02.03.2022
2834 Clouds -6 1028 96 10000 1.06 266 07:25 02.03.2022
2835 Clouds -9 1028 98 8111 1.22 266 05:44 02.03.2022
2836 Clouds -9 1028 98 8111 1.22 266 05:44 02.03.2022
2837 Clouds -7 1031 96 10000 1.67 250 00:58 02.03.2022
2838 Clouds -7 1031 97 10000 1.44 254 23:46 01.03.2022
2839 Clouds -5 1031 97 10000 1.38 263 22:45 01.03.2022
2840 Clouds -5 1031 97 10000 1.42 275 21:56 01.03.2022
2841 Clouds -4 1032 97 10000 1.25 287 21:23 01.03.2022
2842 Clouds -5 1032 96 10000 1.23 299 20:29 01.03.2022
2843 Clouds -2 1032 95 10000 1.35 280 19:24 01.03.2022
2844 Clouds -1 1032 95 10000 1.26 273 18:37 01.03.2022
2845 Clouds -1 1032 94 10000 1.19 255 18:18 01.03.2022
2846 Clouds 0 1032 93 10000 1.07 245 17:19 01.03.2022
2847 Clouds 3 1032 92 10000 1 247 16:31 01.03.2022
2848 Clouds 4 1032 91 10000 0.78 257 15:32 01.03.2022
2849 Clouds 4 1032 84 10000 1.11 266 14:34 01.03.2022
2850 Clouds 4 1032 84 10000 1.11 266 13:52 01.03.2022
2851 Clouds 3 1033 79 10000 1.15 280 13:24 01.03.2022
2852 Clouds 3 1033 79 10000 1.22 287 12:30 01.03.2022
2853 Clouds 1 1034 79 10000 1.21 284 10:34 01.03.2022
2854 Clouds -3 1034 67 10000 1.14 289 08:41 01.03.2022
2855 Clouds -6 1035 87 10000 0.88 280 07:44 01.03.2022
2856 Clouds -10 1035 97 10000 1.28 289 05:49 01.03.2022
2857 Clouds -9 1035 97 6987 1.3 307 02:33 01.03.2022
2858 Clouds -8 1035 97 7381 1.17 286 00:34 01.03.2022
2859 Clouds -7 1036 96 10000 1.57 322 23:29 28.02.2022
2860 Clouds -5 1036 96 10000 1.46 315 22:18 28.02.2022
2861 Clouds -4 1036 96 10000 1.6 331 21:25 28.02.2022
2862 Clear -2 1035 96 10000 1.33 313 19:55 28.02.2022
2863 Clear -2 1035 96 10000 1.33 313 19:36 28.02.2022
2864 Clear -2 1036 94 10000 1.76 347 18:43 28.02.2022
2865 Clear -1 1035 94 10000 1.82 340 17:33 28.02.2022
2866 Clear 0 1035 93 10000 1.59 342 16:34 28.02.2022
2867 Clear 0 1035 89 10000 1.43 345 15:24 28.02.2022
2868 Clouds 1 1035 81 10000 2.21 9 14:32 28.02.2022
2869 Clouds 1 1035 81 10000 2.21 9 13:48 28.02.2022
2870 Clouds 1 1035 69 10000 2.91 10 12:48 28.02.2022
2871 Clouds 0 1035 76 10000 3.63 5 11:58 28.02.2022
2872 Clouds 0 1035 78 10000 3.63 6 10:49 28.02.2022
2873 Clouds -1 1036 81 10000 3.31 11 10:21 28.02.2022
2874 Clouds -1 1036 77 10000 3.31 11 09:36 28.02.2022
2875 Clouds -4 1036 86 10000 3.12 18 08:44 28.02.2022
2876 Clouds -6 1036 91 10000 2.93 21 07:43 28.02.2022
2877 Clouds -7 1036 96 10000 2.51 8 05:25 28.02.2022
2878 Clouds -7 1036 95 10000 2.64 6 04:27 28.02.2022
2879 Clouds -5 1036 94 10000 2.78 8 23:45 27.02.2022
2880 Clouds -4 1036 95 10000 2.45 6 22:36 27.02.2022
2881 Clouds -4 1036 93 10000 2.87 11 21:55 27.02.2022
2882 Clouds -4 1036 94 10000 2.63 5 21:35 27.02.2022
2883 Clouds -3 1036 94 10000 2.63 5 20:40 27.02.2022
2884 Clouds -3 1036 93 10000 2.88 14 19:59 27.02.2022
2885 Clouds -3 1036 92 10000 3.33 11 19:28 27.02.2022
2886 Clouds -3 1036 92 10000 3.33 11 18:56 27.02.2022
2887 Clouds -2 1036 91 10000 4 8 17:57 27.02.2022
2888 Clouds -2 1036 69 10000 3.73 3 17:34 27.02.2022
2889 Clouds -2 1035 87 10000 3.3 1 16:22 27.02.2022
2890 Clouds 0 1034 66 10000 3.94 8 14:28 27.02.2022
2891 Clouds 0 1034 67 10000 3.85 8 12:35 27.02.2022
2892 Clouds 0 1034 68 10000 4.01 12 11:36 27.02.2022
2893 Clouds -2 1034 77 10000 4.01 12 10:36 27.02.2022
2894 Clouds -2 1034 80 10000 4.17 16 09:58 27.02.2022
2895 Clouds -2 1034 84 10000 4.17 16 09:23 27.02.2022
2896 Clouds -2 1034 84 10000 4.17 16 08:44 27.02.2022
2897 Clouds -1 1033 94 10000 3.99 359 05:45 27.02.2022
2898 Clouds 0 1030 94 10000 3.63 0 03:26 27.02.2022
2899 Clouds 1 1027 94 10000 2.95 355 23:52 26.02.2022
2900 Clouds 1 1027 94 10000 3.01 351 22:42 26.02.2022
2901 Clouds 1 1026 94 10000 2.65 324 21:29 26.02.2022
2902 Clouds 2 1026 94 10000 2.65 324 20:43 26.02.2022
2903 Clouds 1 1025 94 10000 2.51 309 19:56 26.02.2022
2904 Clouds 1 1025 94 10000 2.51 309 19:33 26.02.2022
2905 Clouds 2 1024 93 10000 2.11 275 18:33 26.02.2022
2906 Clouds 2 1024 93 10000 2.11 275 17:36 26.02.2022
2907 Clouds 3 1023 88 10000 2.37 282 16:39 26.02.2022
2908 Clouds 3 1023 85 10000 2.54 287 15:38 26.02.2022
2909 Clouds 3 1023 83 10000 3.07 290 15:19 26.02.2022
2910 Clouds 2 1023 83 10000 3.07 290 14:42 26.02.2022
2911 Clouds 2 1022 85 10000 3.47 290 13:53 26.02.2022
2912 Clouds 2 1022 77 10000 3.6 286 12:53 26.02.2022
2913 Clouds 1 1021 92 10000 3.43 280 11:53 26.02.2022
2914 Clouds 1 1021 92 10000 3.04 278 11:26 26.02.2022
2915 Clouds 1 1021 93 10000 3.22 276 10:19 26.02.2022
2916 Clouds 0 1020 80 10000 2.99 267 08:35 26.02.2022
2917 Clouds -1 1019 81 10000 2.33 235 06:40 26.02.2022
2918 Clouds -3 1017 79 10000 3.44 191 00:26 26.02.2022
2919 Clouds -2 1017 93 10000 3.59 189 22:44 25.02.2022
2920 Clouds -1 1018 77 10000 4.03 189 21:33 25.02.2022
2921 Clouds -1 1018 91 10000 4.35 189 20:57 25.02.2022
2922 Clouds -1 1018 90 10000 4.51 188 20:28 25.02.2022
2923 Clouds 0 1018 91 10000 4.58 181 18:35 25.02.2022
2924 Clouds 1 1018 90 10000 4.77 172 17:21 25.02.2022
2925 Clouds 1 1018 88 10000 4.99 172 16:20 25.02.2022
2926 Clouds 3 1018 88 10000 4.99 172 15:42 25.02.2022
2927 Clouds 3 1018 87 10000 5.14 176 15:20 25.02.2022
2928 Clouds 4 1018 87 10000 5.14 176 14:41 25.02.2022
2929 Clouds 3 1019 89 10000 5.21 176 13:36 25.02.2022
2930 Clouds 4 1019 89 10000 5.24 175 12:55 25.02.2022
2931 Clouds 3 1020 76 10000 5.09 182 11:28 25.02.2022
2932 Clouds 2 1021 79 10000 5.16 187 10:29 25.02.2022
2933 Clouds 1 1021 79 10000 5.16 187 09:57 25.02.2022
2934 Clouds 1 1021 81 10000 4.97 186 09:18 25.02.2022
2935 Clouds -2 1021 82 10000 4.94 192 07:41 25.02.2022
2936 Clouds -4 1021 85 10000 3.96 197 05:48 25.02.2022
2937 Clouds -3 1022 76 10000 5.16 215 04:32 25.02.2022
2938 Clouds -2 1023 78 10000 4.09 212 23:47 24.02.2022
2939 Clouds -2 1024 77 10000 4.69 220 21:56 24.02.2022
2940 Clouds -2 1024 77 10000 4.69 220 21:38 24.02.2022
2941 Clouds -2 1024 77 10000 4.16 217 21:19 24.02.2022
2942 Clouds -2 1024 77 10000 2.73 201 19:42 24.02.2022
2943 Clouds -1 1024 76 10000 2.51 197 18:44 24.02.2022
2944 Clouds -2 1024 90 10000 2.36 199 18:19 24.02.2022
2945 Clouds -1 1024 89 10000 2.08 212 17:34 24.02.2022
2946 Clouds -1 1024 89 10000 2.08 212 16:50 24.02.2022
2947 Clouds -1 1024 86 10000 2.05 229 16:24 24.02.2022
2948 Clouds 1 1024 83 10000 2.04 235 14:56 24.02.2022
2949 Clouds 1 1024 83 10000 2.04 235 14:36 24.02.2022
2950 Clouds 0 1024 82 10000 2.12 254 13:40 24.02.2022
2951 Clouds 0 1024 79 10000 2.46 249 12:54 24.02.2022
2952 Clouds 0 1024 81 10000 1.96 246 10:41 24.02.2022
2953 Clouds -1 1024 88 10000 1.88 290 09:24 24.02.2022
2954 Clouds -1 1024 88 10000 1.88 290 08:41 24.02.2022
2955 Clouds -1 1023 96 10000 1.53 285 05:59 24.02.2022
2956 Clouds -1 1020 96 10000 1.49 281 02:59 24.02.2022
2957 Clouds -1 1019 96 10000 1.4 279 23:45 23.02.2022
2958 Clouds -1 1017 95 10000 1.65 307 21:53 23.02.2022
2959 Clouds -1 1016 95 10000 1.81 305 20:32 23.02.2022
2960 Clouds -1 1015 93 10000 2.5 311 19:55 23.02.2022
2961 Clouds 0 1015 91 10000 3.17 295 18:57 23.02.2022
2962 Clouds 0 1014 93 7833 3.5 276 17:46 23.02.2022
2963 Clouds 0 1011 89 9406 4.36 280 15:28 23.02.2022
2964 Clouds 1 1008 85 10000 4.6 278 13:34 23.02.2022
2965 Clouds 1 1007 79 10000 5.02 282 12:28 23.02.2022
2966 Clouds 1 1007 89 10000 4.73 278 10:55 23.02.2022
2967 Clouds 1 1005 90 10000 4.89 266 09:31 23.02.2022
2968 Clouds 1 1004 91 10000 4.82 257 08:28 23.02.2022
2969 Snow 0 1004 92 10000 4.68 249 07:19 23.02.2022
2970 Snow 1 1004 85 10000 4.74 248 07:19 23.02.2022
2971 Clouds 1 1001 83 10000 6.11 248 02:22 23.02.2022
2972 Clouds 2 1000 81 10000 5.95 239 23:46 22.02.2022
2973 Clouds 2 999 82 10000 6.52 233 23:28 22.02.2022
2974 Clouds 2 999 82 10000 6.77 238 22:28 22.02.2022
2975 Clouds 2 999 82 10000 6.77 238 21:40 22.02.2022
2976 Clouds 2 998 83 10000 6.47 242 21:19 22.02.2022
2977 Clouds 2 997 83 6461 7.34 232 20:31 22.02.2022
2978 Clouds 2 997 82 6356 7.33 231 19:54 22.02.2022
2979 Clouds 2 997 82 6461 7.34 232 19:33 22.02.2022
2980 Rain 2 997 81 10000 6.67 219 18:35 22.02.2022
2981 Rain 4 997 77 10000 7.02 210 17:27 22.02.2022
2982 Clouds 4 997 77 10000 7.02 210 16:55 22.02.2022
2983 Clouds 4 997 77 10000 6.54 212 16:20 22.02.2022
2984 Clouds 4 997 88 10000 6.18 212 15:21 22.02.2022
2985 Clouds 5 997 90 10000 6.04 210 14:19 22.02.2022
2986 Clouds 3 997 97 10000 5.07 213 11:38 22.02.2022
2987 Clouds 3 997 88 489 5.89 236 09:44 22.02.2022
2988 Snow 2 995 99 33 5.16 235 07:30 22.02.2022
2989 Rain 2 995 89 33 5.16 235 06:54 22.02.2022
2990 Clouds 2 994 88 24 5.36 209 02:50 22.02.2022
2991 Snow 1 996 86 23 5.44 189 23:18 21.02.2022
2992 Snow 1 996 85 23 5.45 185 22:36 21.02.2022
2993 Snow 1 997 85 43 5.5 177 20:52 21.02.2022
2994 Snow 1 999 81 165 4.97 163 18:56 21.02.2022
2995 Snow 1 999 81 165 4.97 163 18:37 21.02.2022
2996 Clouds 2 1001 89 10000 2.77 167 16:23 21.02.2022
2997 Clouds 2 1001 86 10000 4 221 14:23 21.02.2022
2998 Clouds 2 1001 86 10000 4 221 13:31 21.02.2022
2999 Clouds 2 1001 87 10000 3.94 222 13:31 21.02.2022
3000 Clouds 2 1001 87 10000 4.02 224 12:46 21.02.2022
3001 Clouds 2 1001 89 10000 3.66 226 12:21 21.02.2022
3002 Clouds 1 1001 88 10000 4.09 232 10:29 21.02.2022
3003 Clouds 0 1001 90 10000 4.89 235 07:48 21.02.2022
3004 Clouds 1 1002 80 9009 3.64 228 00:35 21.02.2022
3005 Clouds 0 1003 78 4053 4.56 219 22:32 20.02.2022
3006 Clouds 0 1003 92 4053 4.56 219 21:44 20.02.2022
3007 Clouds 0 1003 89 10000 4.06 215 21:24 20.02.2022
3008 Clouds 0 1003 89 10000 4.06 215 20:43 20.02.2022
3009 Snow 0 1003 80 10000 3.86 219 19:51 20.02.2022
3010 Clouds 0 1003 80 10000 4.17 239 18:56 20.02.2022
3011 Clouds 0 1004 79 10000 5.29 253 18:36 20.02.2022
3012 Clouds 0 1004 88 10000 5.29 253 17:55 20.02.2022
3013 Clouds 1 1004 78 10000 4.59 248 16:59 20.02.2022
3014 Clouds 1 1003 85 10000 4.54 262 15:27 20.02.2022
3015 Clouds 2 1002 78 10000 5.21 274 13:59 20.02.2022
3016 Clouds 1 1002 83 10000 5.83 281 12:45 20.02.2022
3017 Clouds 1 1001 83 10000 6.17 283 11:50 20.02.2022
3018 Clouds 2 998 85 10000 6.84 291 10:21 20.02.2022
3019 Clouds 2 997 87 10000 7.18 298 09:24 20.02.2022
3020 Snow 1 993 89 10000 5.2 252 06:28 20.02.2022
3021 Snow 2 991 88 54 7.17 224 00:32 20.02.2022
3022 Rain 2 991 88 47 7.3 211 23:33 19.02.2022
3023 Clouds 2 991 88 239 6.72 204 22:24 19.02.2022
3024 Clouds 2 991 88 239 6.72 204 21:45 19.02.2022
3025 Clouds 2 993 89 10000 7.46 212 20:28 19.02.2022
3026 Clouds 2 993 89 10000 6.87 213 19:34 19.02.2022
3027 Snow 2 992 88 10000 6.79 210 18:40 19.02.2022
3028 Snow 2 992 88 10000 6.79 210 18:40 19.02.2022
3029 Clouds 1 992 88 10000 7.3 216 17:57 19.02.2022
3030 Snow 1 992 87 10000 7.9 223 17:21 19.02.2022
3031 Snow 1 992 87 100 7.94 215 15:59 19.02.2022
3032 Snow 1 993 85 101 8.36 202 14:54 19.02.2022
3033 Snow 1 993 84 115 8.57 192 13:57 19.02.2022
3034 Rain 2 995 79 1014 8.03 175 11:47 19.02.2022
3035 Clouds 2 997 88 10000 7.45 185 10:54 19.02.2022
3036 Clouds 2 1000 83 10000 6.08 190 08:57 19.02.2022
3037 Clouds 1 1001 85 10000 5.34 198 06:48 19.02.2022
3038 Clouds 0 1002 84 10000 4.54 230 00:38 19.02.2022
3039 Clouds 0 1001 82 10000 4.43 234 22:28 18.02.2022
3040 Clouds 0 1001 82 10000 4.14 229 21:22 18.02.2022
3041 Clouds 0 1000 81 10000 4 221 20:18 18.02.2022
3042 Clouds 0 1000 81 10000 4.23 219 19:25 18.02.2022
3043 Clouds 1 999 80 10000 4.5 226 18:29 18.02.2022
3044 Clouds 1 999 79 10000 4.5 226 17:56 18.02.2022
3045 Clouds 2 997 78 10000 3.89 234 16:19 18.02.2022
3046 Clouds 2 995 87 10000 3.7 245 14:19 18.02.2022
3047 Clouds 2 995 87 10000 3.7 245 13:45 18.02.2022
3048 Clouds 2 994 89 10000 3.94 256 12:48 18.02.2022
3049 Clouds 2 993 84 10000 4.04 257 11:56 18.02.2022
3050 Rain 2 992 85 10000 3.75 250 10:42 18.02.2022
3051 Rain 2 989 88 28 4.41 206 07:21 18.02.2022
3052 Rain 2 988 88 31 4.56 206 05:52 18.02.2022
3053 Clouds 2 987 88 53 5.82 204 05:34 18.02.2022
3054 Rain 2 986 84 77 8.49 175 21:59 17.02.2022
3055 Rain 2 986 83 77 8.49 175 21:38 17.02.2022
3056 Rain 2 987 83 36 8.45 173 20:43 17.02.2022
3057 Rain 2 988 98 46 8.53 172 19:55 17.02.2022
3058 Clouds 2 989 83 42 8.78 172 19:22 17.02.2022
3059 Rain 2 989 98 55 8.97 173 18:29 17.02.2022
3060 Clouds 2 989 82 55 8.97 173 17:30 17.02.2022
3061 Clouds 3 991 80 219 8.55 173 15:57 17.02.2022
3062 Clouds 3 993 78 81 7.77 171 14:30 17.02.2022
3063 Clouds 3 995 76 10000 7.74 176 13:31 17.02.2022
3064 Clouds 3 996 97 10000 7.32 171 11:48 17.02.2022
3065 Clouds 2 999 79 10000 7.18 173 10:20 17.02.2022
3066 Clouds 0 1002 92 10000 6.08 171 07:45 17.02.2022
3067 Clouds -1 1011 87 10000 5.33 203 23:23 16.02.2022
3068 Clouds -1 1012 78 10000 5.28 198 22:28 16.02.2022
3069 Clouds -2 1013 91 9953 5.19 207 20:22 16.02.2022
3070 Clouds -1 1014 95 9408 4.22 194 18:56 16.02.2022
3071 Clouds -1 1015 94 10000 4.06 184 18:27 16.02.2022
3072 Clouds 0 1015 93 10000 3.86 183 17:22 16.02.2022
3073 Clouds 0 1016 90 10000 4.35 187 15:22 16.02.2022
3074 Clouds 1 1016 88 10000 4.4 191 13:40 16.02.2022
3075 Clouds 1 1017 88 10000 4.45 201 12:26 16.02.2022
3076 Clouds 1 1017 73 10000 4.45 201 11:46 16.02.2022
3077 Clouds -1 1019 74 10000 4.62 207 10:34 16.02.2022
3078 Clouds -2 1019 74 10000 4.62 207 09:38 16.02.2022
3079 Clouds -5 1020 88 10000 4.3 208 06:43 16.02.2022
3080 Clear -3 1022 72 10000 4.71 216 00:37 16.02.2022
3081 Clear -3 1022 72 10000 4.5 223 22:34 15.02.2022
3082 Clear -3 1022 72 10000 4.21 222 21:50 15.02.2022
3083 Clear -3 1022 88 10000 3.7 217 21:30 15.02.2022
3084 Clear -3 1022 88 10000 3.7 217 20:58 15.02.2022
3085 Clear -2 1022 88 10000 3.48 219 20:26 15.02.2022
3086 Clear -3 1022 88 10000 3.48 219 19:45 15.02.2022
3087 Clouds -2 1022 86 10000 3.98 226 18:26 15.02.2022
3088 Clouds -1 1022 86 10000 3.98 226 17:53 15.02.2022
3089 Clouds -1 1022 72 10000 4.18 225 17:32 15.02.2022
3090 Clouds 2 1022 87 10000 3.9 220 15:43 15.02.2022
3091 Clouds 2 1021 86 10000 3.99 222 14:31 15.02.2022
3092 Clouds 2 1021 85 10000 4.17 231 13:25 15.02.2022
3093 Clouds 1 1021 73 10000 4.26 235 11:41 15.02.2022
3094 Clouds 0 1020 77 10000 4.46 240 10:27 15.02.2022
3095 Clouds -2 1020 80 10000 4.44 238 08:48 15.02.2022
3096 Clouds -3 1020 82 10000 4.47 234 06:46 15.02.2022
3097 Clouds -2 1018 76 10000 5.21 244 23:35 14.02.2022
3098 Clouds -2 1018 75 10000 5.08 243 21:58 14.02.2022
3099 Clouds -2 1017 75 10000 4.83 240 20:54 14.02.2022
3100 Clouds -1 1017 75 10000 4.78 238 19:49 14.02.2022
3101 Clouds -1 1017 75 10000 4.6 236 19:29 14.02.2022
3102 Clouds -1 1017 89 10000 4.59 233 18:24 14.02.2022
3103 Clouds -1 1017 89 10000 4.59 233 18:24 14.02.2022
3104 Clouds 0 1017 73 10000 4.59 233 17:31 14.02.2022
3105 Clouds 0 1017 72 10000 4.34 233 16:49 14.02.2022
3106 Clouds 0 1017 87 10000 4.44 236 15:42 14.02.2022
3107 Clouds 1 1017 87 10000 4.72 239 13:36 14.02.2022
3108 Clouds 0 1016 87 10000 4.91 242 12:59 14.02.2022
3109 Clouds 0 1016 87 10000 5.01 243 12:32 14.02.2022
3110 Clouds 0 1016 71 10000 5.01 243 11:39 14.02.2022
3111 Clouds -1 1017 71 10000 5 243 10:22 14.02.2022
3112 Clouds -3 1017 87 10000 5.18 236 08:26 14.02.2022
3113 Clouds -3 1017 87 10000 5.07 236 07:26 14.02.2022
3114 Snow -2 1020 85 10000 4.57 234 23:19 13.02.2022
3115 Snow -2 1020 85 10000 4.57 234 22:41 13.02.2022
3116 Clouds -2 1020 85 10000 4.52 231 22:22 13.02.2022
3117 Snow -2 1020 86 10000 4.38 235 21:24 13.02.2022
3118 Snow -2 1021 88 10000 4.55 236 20:28 13.02.2022
3119 Clouds -2 1021 75 10000 4.55 237 19:23 13.02.2022
3120 Clouds -2 1022 89 10000 4.33 238 18:41 13.02.2022
3121 Snow -2 1022 91 10000 4.1 236 17:41 13.02.2022
3122 Clouds 0 1022 89 10000 4.01 252 15:53 13.02.2022
3123 Clouds 0 1022 89 10000 4.45 254 14:52 13.02.2022
3124 Clouds 0 1022 89 10000 4.68 257 13:39 13.02.2022
3125 Clouds 1 1022 89 10000 4.84 261 12:44 13.02.2022
3126 Clouds 1 1021 85 10000 5.63 276 10:50 13.02.2022
3127 Clouds 1 1021 86 10000 6.15 279 10:27 13.02.2022
3128 Clouds 1 1021 74 10000 5.98 274 08:59 13.02.2022
3129 Clouds 0 1019 77 10000 6.9 274 05:27 13.02.2022
3130 Clouds -3 1019 91 10000 5.19 256 00:34 13.02.2022
3131 Snow -3 1019 91 8532 5.13 259 22:58 12.02.2022
3132 Clouds -3 1019 91 10000 5.38 255 22:33 12.02.2022
3133 Clouds -3 1019 91 10000 4.85 257 21:19 12.02.2022
3134 Clouds -4 1019 91 10000 4.36 255 20:25 12.02.2022
3135 Clouds -5 1020 91 10000 4.5 264 19:18 12.02.2022
3136 Clouds -5 1020 92 10000 4.36 259 18:41 12.02.2022
3137 Clouds -6 1020 92 10000 4.19 261 18:23 12.02.2022
3138 Clouds -4 1019 90 10000 4.1 270 16:55 12.02.2022
3139 Clouds -2 1019 88 10000 4.74 280 16:25 12.02.2022
3140 Clouds -2 1019 87 10000 4.94 284 15:32 12.02.2022
3141 Snow -1 1019 87 10000 4.94 284 14:30 12.02.2022
3142 Clouds 0 1017 86 10000 4.86 292 12:55 12.02.2022
3143 Clouds -1 1016 92 2011 4.71 296 10:35 12.02.2022
3144 Clouds 0 1016 77 2009 4.71 296 09:38 12.02.2022
3145 Clouds -1 1015 94 1070 3.95 274 08:48 12.02.2022
3146 Clouds -1 1014 94 10000 3.56 261 07:50 12.02.2022
3147 Clouds -1 1013 93 10000 2.76 249 05:33 12.02.2022
3148 Clouds -1 1013 96 6559 3.51 269 02:20 12.02.2022
3149 Snow 0 1013 96 6560 3.51 269 01:44 12.02.2022
3150 Snow 0 1012 95 10000 3.18 252 22:28 11.02.2022
3151 Snow 0 1012 95 10000 3.18 252 21:45 11.02.2022
3152 Clouds 0 1011 94 10000 3.46 263 20:39 11.02.2022
3153 Clouds 0 1011 94 10000 3.81 264 19:35 11.02.2022
3154 Snow 0 1010 93 10000 3.7 264 18:59 11.02.2022
3155 Clouds 0 1010 95 10000 3.61 259 17:41 11.02.2022
3156 Snow 0 1010 95 10000 3.09 254 17:22 11.02.2022
3157 Snow 1 1010 94 10000 2.84 255 15:55 11.02.2022
3158 Snow 1 1008 90 10000 3.77 263 14:38 11.02.2022
3159 Clouds 1 1008 90 10000 3.77 263 14:20 11.02.2022
3160 Clouds 1 1008 90 10000 3.77 263 13:52 11.02.2022
3161 Snow 2 1008 90 10000 3.86 260 13:34 11.02.2022
3162 Clouds 1 1008 91 10000 3.55 255 11:32 11.02.2022
3163 Snow 0 1008 92 10000 3.21 252 09:45 11.02.2022
3164 Snow 0 1008 93 10000 3.16 249 08:42 11.02.2022
3165 Snow 0 1008 93 10000 3.16 249 08:42 11.02.2022
3166 Snow 0 1008 93 8701 3.12 253 08:22 11.02.2022
3167 Snow 0 1008 91 10000 3.91 260 06:33 11.02.2022
3168 Snow 0 1009 83 10000 4.55 240 02:26 11.02.2022
3169 Snow 0 1009 93 5019 4.38 241 00:51 11.02.2022
3170 Snow 1 1009 83 10000 4.37 256 22:49 10.02.2022
3171 Clouds 1 1009 83 5012 4.58 263 21:45 10.02.2022
3172 Clouds 1 1009 83 10000 4.32 263 20:57 10.02.2022
3173 Clouds 1 1008 84 10000 3.85 264 20:30 10.02.2022
3174 Clouds 1 1008 93 10000 3.4 258 19:25 10.02.2022
3175 Clouds 0 1008 91 10000 3.57 263 18:45 10.02.2022
3176 Clouds 0 1008 84 10000 3.96 269 17:26 10.02.2022
3177 Snow 1 1008 85 10000 3.96 269 16:50 10.02.2022
3178 Clouds 1 1007 84 10000 4.52 274 15:49 10.02.2022
3179 Clouds 2 1007 83 10000 4.81 279 15:29 10.02.2022
3180 Clouds 2 1007 93 10000 4.81 279 14:48 10.02.2022
3181 Clouds 2 1006 92 10000 5.11 283 14:24 10.02.2022
3182 Clouds 2 1006 95 10000 4.59 280 13:29 10.02.2022
3183 Clouds 1 1006 93 10000 4.44 280 12:45 10.02.2022
3184 Snow 0 1005 99 10000 4.15 263 11:33 10.02.2022
3185 Snow 0 1005 100 306 3.92 238 10:44 10.02.2022
3186 Snow 0 1005 83 266 4.09 222 09:59 10.02.2022
3187 Snow 0 1006 96 369 4.1 210 09:24 10.02.2022
3188 Clouds -1 1006 95 10000 3.43 194 07:28 10.02.2022
3189 Clouds -1 1007 94 3194 3.59 220 04:55 10.02.2022
3190 Clouds -1 1009 97 10000 2.81 227 01:48 10.02.2022
3191 Clouds -1 1009 96 10000 3.08 237 00:47 10.02.2022
3192 Clouds -1 1009 85 10000 3.11 240 00:28 10.02.2022
3193 Clouds 0 1009 85 10000 2.4 241 23:23 09.02.2022
3194 Clouds 0 1009 84 10000 2.35 249 22:35 09.02.2022
3195 Clouds -1 1009 96 10000 2.35 249 21:51 09.02.2022
3196 Clouds -1 1009 97 5627 2.3 250 21:29 09.02.2022
3197 Clouds -1 1009 97 5628 2.3 250 20:47 09.02.2022
3198 Clouds -1 1009 97 4117 2.52 251 20:27 09.02.2022
3199 Clouds -1 1009 97 4121 2.52 251 19:46 09.02.2022
3200 Clouds -1 1009 97 1382 2.67 244 19:27 09.02.2022
3201 Snow -1 1010 98 767 1.98 198 17:37 09.02.2022
3202 Snow -1 1010 98 767 1.98 198 16:48 09.02.2022
3203 Snow 0 1010 98 385 1.74 196 15:50 09.02.2022
3204 Snow 0 1009 93 10000 2.07 204 14:35 09.02.2022
3205 Clouds 0 1008 90 10000 2.47 217 12:28 09.02.2022
3206 Clouds 0 1009 91 10000 2.51 229 10:51 09.02.2022
3207 Clouds -1 1009 92 10000 2.82 238 10:26 09.02.2022
3208 Clouds -2 1009 92 10000 2.82 238 09:40 09.02.2022
3209 Clouds -2 1008 92 10000 2.94 235 09:19 09.02.2022
3210 Clouds -2 1008 92 10000 2.92 233 07:53 09.02.2022
3211 Clouds -2 1008 98 8890 1.98 230 05:30 09.02.2022
3212 Clouds -2 1008 98 9065 2.03 224 03:50 09.02.2022
3213 Clouds -2 1008 98 9065 2.03 224 03:50 09.02.2022
3214 Clouds -2 1008 96 10000 1.87 220 00:44 09.02.2022
3215 Clouds -1 1008 96 10000 1.93 232 23:32 08.02.2022
3216 Clouds -1 1008 96 10000 1.93 232 23:32 08.02.2022
3217 Clouds -1 1008 97 10000 2.23 238 23:32 08.02.2022
3218 Clouds -1 1008 96 10000 1.93 232 23:32 08.02.2022
3219 Clouds -1 1008 97 10000 2.22 238 22:46 08.02.2022
3220 Clouds -1 1007 97 10000 2.36 236 22:21 08.02.2022
3221 Clouds -1 1007 97 10000 2.36 236 21:39 08.02.2022
3222 Clouds -1 1007 95 10000 2.93 237 21:20 08.02.2022
3223 Clouds -1 1007 95 10000 2.93 237 20:43 08.02.2022
3224 Snow 0 1007 86 10000 3.32 238 19:46 08.02.2022
3225 Snow 0 1007 87 10000 3.68 242 18:38 08.02.2022
3226 Snow 0 1007 86 10000 3.64 242 17:42 08.02.2022
3227 Snow 1 1007 85 10000 3.54 246 16:30 08.02.2022
3228 Snow 1 1007 93 10000 2.93 216 15:30 08.02.2022
3229 Snow 1 1007 93 10000 2.93 216 15:30 08.02.2022
3230 Clouds 1 1007 93 10000 2.93 216 14:36 08.02.2022
3231 Clouds 1 1007 92 10000 3.36 228 13:20 08.02.2022
3232 Clouds 1 1007 94 10000 3.6 222 11:33 08.02.2022
3233 Clouds 1 1007 92 10000 3.5 199 10:23 08.02.2022
3234 Clouds 1 1007 92 10000 3.5 199 09:44 08.02.2022
3235 Clouds 1 1006 90 10000 2.89 208 07:51 08.02.2022
3236 Clouds 1 1005 90 5769 3.05 220 05:41 08.02.2022
3237 Clouds 1 1005 90 5479 3.2 220 04:39 08.02.2022
3238 Clouds 1 1004 90 790 3.37 211 04:21 08.02.2022
3239 Clouds 0 1004 98 789 3.37 211 03:36 08.02.2022
3240 Clouds 0 1004 98 3394 3.09 199 03:18 08.02.2022
3241 Clouds 0 1004 98 3394 3.09 199 02:58 08.02.2022
3242 Clouds 0 1003 97 4512 3.08 189 02:36 08.02.2022
3243 Clouds 0 1003 97 4513 3.08 189 02:18 08.02.2022
3244 Clouds 0 1003 97 4512 3.08 189 01:44 08.02.2022
3245 Clouds 0 1003 97 9189 2.99 182 01:24 08.02.2022
3246 Clouds 0 1003 96 8280 3.03 184 00:54 08.02.2022
3247 Clouds 0 1002 89 4430 3.43 184 23:55 07.02.2022
3248 Clouds 0 1002 89 4430 3.43 184 23:37 07.02.2022
3249 Snow 0 1002 89 397 3.66 179 23:18 07.02.2022
3250 Snow 0 1002 89 217 3.92 177 22:19 07.02.2022
3251 Snow 0 1002 89 217 3.92 177 21:55 07.02.2022
3252 Snow -1 1002 97 282 4.15 171 21:29 07.02.2022
3253 Snow -1 1002 97 282 4.15 171 20:59 07.02.2022
3254 Snow -1 1002 97 282 4.15 171 20:40 07.02.2022
3255 Snow 0 1002 86 195 4.48 175 19:51 07.02.2022
3256 Snow 0 1002 86 195 4.48 175 19:32 07.02.2022
3257 Snow 0 1001 86 184 4.99 164 18:18 07.02.2022
3258 Snow 0 1001 85 264 5.14 160 16:53 07.02.2022
3259 Snow 0 1001 97 284 4.89 160 15:49 07.02.2022
3260 Snow 0 1001 97 199 4.85 159 14:56 07.02.2022
3261 Snow 0 1002 94 1250 4.8 165 13:28 07.02.2022
3262 Snow 0 1002 94 1251 4.8 165 12:52 07.02.2022
3263 Snow 0 1002 96 851 4.74 168 11:58 07.02.2022
3264 Snow 0 1002 96 851 4.74 168 11:35 07.02.2022
3265 Snow -1 1002 96 354 4.6 173 10:50 07.02.2022
3266 Snow 0 1002 87 354 4.6 173 10:30 07.02.2022
3267 Snow -1 1002 95 369 4.82 179 09:53 07.02.2022
3268 Snow -1 1002 88 3594 4.62 173 09:18 07.02.2022
3269 Snow -1 1003 88 1583 4.3 173 08:38 07.02.2022
3270 Clouds -2 1003 88 607 4.38 173 06:58 07.02.2022
3271 Snow -2 1003 88 755 4.06 176 06:34 07.02.2022
3272 Clouds -4 1004 94 10000 3.52 173 02:59 07.02.2022
3273 Clouds -4 1004 86 10000 2.32 179 00:45 07.02.2022
3274 Clouds -4 1004 86 10000 2.32 179 00:45 07.02.2022
3275 Snow -4 1005 86 10000 2.22 193 23:48 06.02.2022
3276 Snow -6 1005 86 8035 2.41 212 22:48 06.02.2022
3277 Snow -6 1004 86 1239 2.64 216 21:55 06.02.2022
3278 Snow -6 1004 86 1239 2.64 216 21:35 06.02.2022
3279 Clouds -6 1004 86 10000 2.35 211 20:55 06.02.2022
3280 Clouds -6 1004 86 10000 2.35 211 20:31 06.02.2022
3281 Clouds -6 1004 85 2147 1.6 184 19:38 06.02.2022
3282 Snow -6 1004 85 2147 1.6 184 18:40 06.02.2022
3283 Snow -7 1005 98 2864 1.52 191 17:56 06.02.2022
3284 Snow -7 1005 85 1557 1.37 184 17:21 06.02.2022
3285 Snow -7 1005 84 1557 1.37 184 16:47 06.02.2022
3286 Snow -7 1005 84 1863 1.36 184 15:49 06.02.2022
3287 Snow -6 1004 83 1736 1.23 173 15:27 06.02.2022
3288 Snow -6 1004 82 1736 1.23 173 14:45 06.02.2022
3289 Snow -6 1004 84 418 1.76 187 13:27 06.02.2022
3290 Snow -6 1004 84 498 1.86 192 12:58 06.02.2022
3291 Snow -7 1004 92 782 2.05 191 11:35 06.02.2022
3292 Snow -8 1004 91 933 2.3 187 10:31 06.02.2022
3293 Snow -9 1004 93 963 2.77 168 09:25 06.02.2022
3294 Snow -10 1004 95 388 2.67 152 08:30 06.02.2022
3295 Snow -10 1005 96 252 2.74 141 05:33 06.02.2022
3296 Snow -11 1006 96 221 2.67 137 03:18 06.02.2022
3297 Snow -12 1007 97 2986 2.54 139 02:24 06.02.2022
3298 Clouds -13 1008 100 6398 2.26 145 00:29 06.02.2022
3299 Clouds -12 1009 100 5778 2.19 150 22:36 05.02.2022
3300 Clouds -11 1010 100 4240 2.14 152 21:32 05.02.2022
3301 Clouds -10 1010 100 3330 1.76 155 20:25 05.02.2022
3302 Clouds -10 1010 100 3330 1.76 155 19:48 05.02.2022
3303 Clouds -10 1011 100 3230 1.78 165 18:59 05.02.2022
3304 Clouds -9 1011 100 3574 1.73 160 17:45 05.02.2022
3305 Clouds -9 1012 100 5114 1.61 166 17:27 05.02.2022
3306 Clouds -7 1012 98 6663 1.21 175 15:42 05.02.2022
3307 Clouds -7 1012 98 6663 1.21 175 15:21 05.02.2022
3308 Clouds -7 1013 92 10000 1.03 206 12:54 05.02.2022
3309 Clouds -7 1013 92 10000 1.28 198 12:31 05.02.2022
3310 Snow -8 1014 93 10000 0.65 211 10:52 05.02.2022
3311 Clouds -9 1015 95 8404 0.15 186 10:25 05.02.2022
3312 Clouds -9 1015 95 8405 0.15 186 09:46 05.02.2022
3313 Clouds -9 1016 100 2240 0.36 335 08:20 05.02.2022
3314 Clouds -9 1017 100 4897 0.73 342 06:57 05.02.2022
3315 Clouds -10 1017 100 5509 1.21 312 04:55 05.02.2022
3316 Clouds -11 1017 100 6126 1.36 330 01:19 05.02.2022
3317 Clouds -11 1017 100 6081 1.36 328 00:53 05.02.2022
3318 Clouds -9 1017 100 6428 1.19 350 23:58 04.02.2022
3319 Clouds -10 1017 100 6428 1.19 350 23:30 04.02.2022
3320 Clouds -8 1017 100 6544 1.46 356 22:18 04.02.2022
3321 Clouds -7 1017 100 6546 1.6 11 21:36 04.02.2022
3322 Clouds -7 1017 100 6546 1.6 11 21:18 04.02.2022
3323 Clouds -6 1017 100 6548 1.52 11 20:20 04.02.2022
3324 Clouds -4 1016 99 6550 1.46 16 17:45 04.02.2022
3325 Clouds -4 1016 97 6587 1.66 360 15:55 04.02.2022
3326 Clouds -4 1016 97 6587 1.66 360 15:55 04.02.2022
3327 Clouds -4 1015 96 10000 1.41 14 14:56 04.02.2022
3328 Clouds -4 1015 95 10000 1.22 14 13:55 04.02.2022
3329 Clouds -3 1014 82 10000 1.97 18 12:43 04.02.2022
3330 Clouds -4 1014 89 10000 1.83 24 11:43 04.02.2022
3331 Snow -4 1014 92 10000 1.62 44 10:37 04.02.2022
3332 Snow -5 1014 94 10000 1.5 51 08:49 04.02.2022
3333 Snow -7 1014 97 2336 1.28 61 06:57 04.02.2022
3334 Snow -7 1013 98 4429 1.24 60 02:48 04.02.2022
3335 Snow -7 1013 97 2438 1.4 73 01:56 04.02.2022
3336 Snow -6 1013 98 3716 1.34 97 23:31 03.02.2022
3337 Snow -6 1013 98 3716 1.34 97 22:46 03.02.2022
3338 Snow -5 1013 97 5621 1.26 101 21:49 03.02.2022
3339 Snow -5 1013 98 4605 1.32 103 20:41 03.02.2022
3340 Snow -5 1013 98 5795 1.36 112 20:20 03.02.2022
3341 Snow -5 1013 98 5656 1.54 122 19:32 03.02.2022
3342 Snow -5 1013 98 7489 1.46 121 18:40 03.02.2022
3343 Snow -5 1013 97 8027 1.46 116 17:35 03.02.2022
3344 Snow -5 1013 97 9637 1.61 118 16:35 03.02.2022
3345 Snow -4 1013 96 10000 1.53 111 14:52 03.02.2022
3346 Snow -3 1012 82 10000 1.96 146 12:59 03.02.2022
3347 Clouds -4 1012 83 10000 2.03 154 11:23 03.02.2022
3348 Snow -8 1012 94 10000 1.65 162 08:37 03.02.2022
3349 Snow -6 1012 97 7473 1.38 154 05:26 03.02.2022
3350 Snow -5 1011 98 7347 1.58 158 00:32 03.02.2022
3351 Snow -5 1011 98 6552 1.51 163 23:44 02.02.2022
3352 Snow -5 1010 98 6568 1.78 176 22:32 02.02.2022
3353 Snow -5 1010 97 8659 1.95 172 21:34 02.02.2022
3354 Snow -4 1010 97 8663 1.95 172 20:51 02.02.2022
3355 Clouds -4 1009 95 10000 2.17 175 19:59 02.02.2022
3356 Clouds -4 1009 89 10000 2.23 203 19:27 02.02.2022
3357 Clouds -4 1009 85 10000 2.23 203 18:46 02.02.2022
3358 Clouds -4 1008 84 10000 3.66 221 17:57 02.02.2022
3359 Clouds -3 1008 83 10000 3.69 222 17:19 02.02.2022
3360 Clouds -3 1008 87 10000 3.69 222 16:42 02.02.2022
3361 Clouds -3 1006 91 10000 3.69 213 13:35 02.02.2022
3362 Clouds -3 1006 92 10000 3.88 214 12:25 02.02.2022
3363 Clouds -4 1006 92 10000 3.88 214 11:34 02.02.2022
3364 Snow -4 1005 92 8692 4.08 215 10:31 02.02.2022
3365 Snow -5 1004 94 4962 3.42 211 07:37 02.02.2022
3366 Clouds -3 1001 96 9209 3.36 211 22:52 01.02.2022
3367 Clouds -3 1001 96 9521 3.03 209 21:51 01.02.2022
3368 Clouds -3 1000 92 10000 4.06 227 20:36 01.02.2022
3369 Clouds -2 998 93 3765 4.54 219 17:50 01.02.2022
3370 Snow -1 998 95 890 3.87 216 16:40 01.02.2022
3371 Clouds -1 997 94 877 4.04 222 14:47 01.02.2022
3372 Clouds -1 996 89 10000 4.08 232 12:47 01.02.2022
3373 Snow -1 996 94 4269 3.16 225 11:34 01.02.2022
3374 Clouds -3 994 96 10000 3.4 252 05:43 01.02.2022
3375 Snow -1 991 98 126 1.09 24 23:51 31.01.2022
3376 Snow -1 991 98 129 1.73 49 23:28 31.01.2022
3377 Snow -1 991 98 126 2.26 61 21:59 31.01.2022
3378 Snow -2 992 98 122 2.55 68 21:32 31.01.2022
3379 Snow -1 992 89 130 2.83 72 20:33 31.01.2022
3380 Snow -1 992 89 130 2.83 72 19:46 31.01.2022
3381 Snow -1 992 89 262 2.95 98 18:26 31.01.2022
3382 Snow -1 992 89 262 2.95 98 17:43 31.01.2022
3383 Snow -1 992 89 332 3.31 115 16:48 31.01.2022
3384 Snow -1 993 97 212 3.7 123 15:43 31.01.2022
3385 Snow -1 993 96 852 3.68 130 14:24 31.01.2022
3386 Snow -2 993 88 240 3.58 131 12:51 31.01.2022
3387 Clouds -2 993 88 840 3.55 137 11:59 31.01.2022
3388 Snow -2 993 95 522 3.52 137 10:52 31.01.2022
3389 Snow -2 993 87 195 3.43 134 10:34 31.01.2022
3390 Snow -3 994 96 317 3.44 130 09:27 31.01.2022
3391 Snow -3 994 96 317 3.44 130 08:52 31.01.2022
3392 Snow -3 994 96 317 3.44 130 08:52 31.01.2022
3393 Snow -3 994 96 316 3.22 128 08:20 31.01.2022
3394 Snow -3 994 97 897 2.9 127 06:36 31.01.2022
3395 Snow -3 994 96 2263 3.49 140 05:20 31.01.2022
3396 Snow -4 994 96 151 4.58 139 23:20 30.01.2022
3397 Snow -4 994 96 173 4.75 138 22:30 30.01.2022
3398 Snow -4 994 96 173 4.75 138 22:30 30.01.2022
3399 Snow -3 994 87 173 4.75 138 21:43 30.01.2022
3400 Snow -4 994 95 151 5.05 139 21:20 30.01.2022
3401 Snow -4 994 95 151 5.05 139 20:50 30.01.2022
3402 Snow -4 995 95 149 5.26 140 20:29 30.01.2022
3403 Snow -4 995 95 149 5.26 140 19:54 30.01.2022
3404 Snow -3 995 85 166 5.28 141 18:45 30.01.2022
3405 Snow -3 994 85 282 5.23 143 18:21 30.01.2022
3406 Snow -3 994 84 211 5.19 146 17:29 30.01.2022
3407 Snow -3 994 84 211 5.19 146 16:41 30.01.2022
3408 Snow -3 995 82 264 5.32 148 16:22 30.01.2022
3409 Snow -3 995 95 264 5.32 148 15:52 30.01.2022
3410 Snow -3 995 82 726 5.42 149 15:32 30.01.2022
3411 Snow -3 995 82 727 5.42 149 14:47 30.01.2022
3412 Snow -3 995 91 3048 5.49 152 13:36 30.01.2022
3413 Snow -3 995 91 10000 5.26 154 12:40 30.01.2022
3414 Clouds -3 996 84 10000 5.13 158 10:38 30.01.2022
3415 Snow -4 996 93 8182 4.78 157 09:57 30.01.2022
3416 Clouds -4 997 94 10000 4.05 153 09:21 30.01.2022
3417 Clouds -5 998 95 9269 3.58 156 07:57 30.01.2022
3418 Clouds -5 1001 99 4999 1.89 194 02:43 30.01.2022
3419 Clouds -5 1002 99 2019 1.66 207 01:52 30.01.2022
3420 Clouds -4 1004 99 1597 1.38 248 23:45 29.01.2022
3421 Clouds -5 1004 99 2149 1.53 255 22:48 29.01.2022
3422 Clouds -4 1005 98 1346 1.55 276 21:28 29.01.2022
3423 Clouds -5 1005 98 1346 1.55 276 20:50 29.01.2022
3424 Clouds -5 1005 99 1202 1.64 283 19:47 29.01.2022
3425 Clouds -5 1006 100 3567 1.12 269 19:29 29.01.2022
3426 Clouds -5 1006 100 3564 1.12 269 18:43 29.01.2022
3427 Snow -4 1006 98 916 0.9 244 17:46 29.01.2022
3428 Snow -4 1006 99 4576 0.99 268 16:43 29.01.2022
3429 Snow -4 1006 97 2667 0.58 320 15:25 29.01.2022
3430 Snow -4 1006 97 3219 0.71 348 13:48 29.01.2022
3431 Snow -4 1005 94 3991 1.01 346 13:26 29.01.2022
3432 Snow -4 1005 94 3988 1.01 346 12:52 29.01.2022
3433 Clouds -4 1005 93 3749 1 339 11:39 29.01.2022
3434 Clouds -5 1005 94 4224 0.33 358 10:31 29.01.2022
3435 Clouds -6 1005 87 1700 0.79 119 07:57 29.01.2022
3436 Snow -6 1004 96 154 2.37 127 01:38 29.01.2022
3437 Snow -6 1004 96 300 3.08 134 00:31 29.01.2022
3438 Snow -6 1004 96 259 2.76 129 00:31 29.01.2022
3439 Snow -6 1004 96 173 3.26 135 23:29 28.01.2022
3440 Snow -6 1004 96 173 3.27 135 22:46 28.01.2022
3441 Snow -6 1004 87 175 3.44 136 22:18 28.01.2022
3442 Snow -6 1004 87 199 3.55 138 20:41 28.01.2022
3443 Snow -6 1004 87 240 3.73 142 19:53 28.01.2022
3444 Snow -6 1004 86 360 4.06 146 18:51 28.01.2022
3445 Snow -6 1004 86 297 4.36 148 17:52 28.01.2022
3446 Snow -6 1004 95 151 4.79 152 15:50 28.01.2022
3447 Snow -6 1004 95 166 4.97 153 14:46 28.01.2022
3448 Snow -6 1004 95 221 5.27 153 12:40 28.01.2022
3449 Snow -6 1004 95 202 5.34 154 11:38 28.01.2022
3450 Snow -6 1005 94 290 5.36 155 10:26 28.01.2022
3451 Snow -6 1005 94 290 5.36 155 09:45 28.01.2022
3452 Snow -7 1006 85 215 5.2 155 07:40 28.01.2022
3453 Clouds -7 1007 95 1427 4.34 158 05:31 28.01.2022
3454 Clouds -7 1007 94 2749 4.32 162 03:50 28.01.2022
3455 Clouds -8 1008 94 2325 4.33 171 02:24 28.01.2022
3456 Snow -8 1009 93 3183 4.23 173 01:35 28.01.2022
3457 Snow -8 1009 94 3508 4.24 171 00:33 28.01.2022
3458 Clouds -8 1010 94 2412 4.03 176 22:18 27.01.2022
3459 Clouds -9 1011 94 5641 4.06 175 21:34 27.01.2022
3460 Clouds -9 1011 94 5641 4.06 175 21:34 27.01.2022
3461 Clouds -9 1011 94 5641 4.06 175 20:58 27.01.2022
3462 Clouds -8 1012 95 9954 3.73 175 19:35 27.01.2022
3463 Clouds -8 1013 96 7797 3.72 177 17:58 27.01.2022
3464 Clouds -7 1013 94 8077 3.52 177 15:43 27.01.2022
3465 Snow -6 1014 92 10000 3.75 183 13:48 27.01.2022
3466 Snow -6 1014 92 10000 3.54 181 12:47 27.01.2022
3467 Snow -6 1015 92 10000 3.56 205 10:59 27.01.2022
3468 Snow -7 1016 95 10000 2.69 203 09:28 27.01.2022
3469 Snow -7 1016 95 10000 2.69 203 08:39 27.01.2022
3470 Snow -8 1016 97 6471 1.95 202 07:23 27.01.2022
3471 Snow -8 1017 88 3719 1.93 244 02:59 27.01.2022
3472 Snow -8 1017 89 8919 1.23 292 23:52 26.01.2022
3473 Snow -7 1017 90 8155 1.55 338 22:27 26.01.2022
3474 Snow -7 1017 90 8155 1.55 338 21:42 26.01.2022
3475 Snow -6 1017 91 5607 1.6 341 20:42 26.01.2022
3476 Snow -6 1017 93 4521 1.57 336 20:24 26.01.2022
3477 Snow -6 1017 92 3084 2.09 341 19:28 26.01.2022
3478 Snow -6 1017 92 3084 2.09 341 18:46 26.01.2022
3479 Snow -5 1017 88 4142 2.92 347 17:52 26.01.2022
3480 Snow -5 1017 89 3153 3.21 351 17:24 26.01.2022
3481 Snow -5 1017 89 3152 3.21 351 16:46 26.01.2022
3482 Snow -5 1017 89 2530 3.37 344 15:50 26.01.2022
3483 Snow -4 1016 92 2668 2.98 333 14:30 26.01.2022
3484 Snow -4 1015 91 4084 3.37 348 11:59 26.01.2022
3485 Snow -4 1015 87 2617 3.8 345 10:49 26.01.2022
3486 Snow -5 1015 88 929 3.75 346 09:50 26.01.2022
3487 Snow -6 1015 88 400 3.33 340 08:32 26.01.2022
3488 Snow -7 1014 88 1092 2.52 331 06:20 26.01.2022
3489 Snow -7 1014 88 1092 2.52 331 06:20 26.01.2022
3490 Snow -9 1014 96 134 1.37 240 00:21 26.01.2022
3491 Snow -9 1014 96 134 1.37 240 23:34 25.01.2022
3492 Snow -9 1014 96 130 1.42 222 22:48 25.01.2022
3493 Snow -9 1014 96 137 1.64 225 22:18 25.01.2022
3494 Snow -9 1015 96 145 2.1 223 21:22 25.01.2022
3495 Snow -9 1015 96 145 2.1 223 20:44 25.01.2022
3496 Snow -8 1015 96 171 2.46 215 19:53 25.01.2022
3497 Snow -8 1017 96 130 2.69 207 18:50 25.01.2022
3498 Clouds -8 1017 95 483 2.81 202 17:47 25.01.2022
3499 Snow -8 1018 96 10000 2.67 196 17:18 25.01.2022
3500 Clouds -8 1018 96 10000 2.56 189 16:34 25.01.2022
3501 Clouds -8 1018 96 10000 2.56 189 15:39 25.01.2022
3502 Clouds -8 1019 96 10000 2 207 15:18 25.01.2022
3503 Clouds -7 1019 87 10000 2 207 14:43 25.01.2022
3504 Clouds -8 1021 91 10000 3.05 206 11:52 25.01.2022
3505 Clouds -9 1024 95 10000 2.37 215 09:21 25.01.2022
3506 Clouds -9 1025 99 6545 1.99 210 07:52 25.01.2022
3507 Clouds -10 1026 100 5903 1.91 195 06:54 25.01.2022
3508 Clouds -11 1028 100 5666 1.47 217 05:23 25.01.2022
3509 Clouds -10 1031 100 5092 1.35 230 00:31 25.01.2022
3510 Clouds -10 1032 100 5873 1.41 224 23:36 24.01.2022
3511 Clouds -10 1032 100 5873 1.41 224 23:18 24.01.2022
3512 Clouds -10 1032 100 5874 1.41 224 22:42 24.01.2022
3513 Clouds -10 1032 100 5938 1.6 199 22:19 24.01.2022
3514 Clouds -9 1032 100 5938 1.6 199 21:40 24.01.2022
3515 Clouds -9 1033 100 5612 1.38 198 21:19 24.01.2022
3516 Clouds -9 1033 100 5831 1.18 219 20:26 24.01.2022
3517 Clouds -9 1033 100 5830 1.18 219 20:26 24.01.2022
3518 Clouds -9 1033 100 5831 1.18 219 19:38 24.01.2022
3519 Clouds -9 1034 100 6477 1.27 217 18:50 24.01.2022
3520 Clouds -9 1035 100 6544 1.09 202 17:25 24.01.2022
3521 Clouds -9 1035 100 6544 1.09 202 16:59 24.01.2022
3522 Clouds -8 1035 99 6545 0.74 239 16:30 24.01.2022
3523 Clouds -8 1035 99 6546 0.88 229 14:56 24.01.2022
3524 Clouds -8 1035 97 6841 1.21 181 13:58 24.01.2022
3525 Clouds -8 1036 94 10000 0.59 199 12:34 24.01.2022
3526 Clouds -8 1036 94 10000 0.59 199 11:41 24.01.2022
3527 Clouds -7 1037 96 6949 0.4 268 10:19 24.01.2022
3528 Clouds -6 1037 96 6948 0.4 268 09:44 24.01.2022
3529 Clouds -7 1037 100 3766 0.69 308 07:45 24.01.2022
3530 Clouds -11 1037 100 2659 1.31 320 01:38 24.01.2022
3531 Clouds -10 1037 100 2932 0.65 310 00:55 24.01.2022
3532 Clouds -18 1036 100 4601 0.73 354 00:30 24.01.2022
3533 Clouds -18 1036 100 4600 0.73 354 23:39 23.01.2022
3534 Clouds -17 1036 100 4077 1.29 5 21:53 23.01.2022
3535 Clouds -17 1035 100 3461 0.52 53 21:29 23.01.2022
3536 Clouds -17 1035 100 3461 0.52 53 20:57 23.01.2022
3537 Clouds -16 1035 100 4288 0.9 27 20:21 23.01.2022
3538 Clouds -15 1034 100 4815 1.01 21 18:53 23.01.2022
3539 Clouds -15 1034 100 4448 1.01 19 18:24 23.01.2022
3540 Clouds -5 1033 100 5764 1.2 16 16:56 23.01.2022
3541 Clouds -4 1032 99 6519 1.1 44 15:56 23.01.2022
3542 Clouds -4 1031 98 6546 1.15 54 14:50 23.01.2022
3543 Clouds -4 1030 97 8368 1.2 44 14:18 23.01.2022
3544 Snow -5 1029 96 10000 1.31 34 12:46 23.01.2022
3545 Snow -5 1028 94 10000 1.33 30 12:20 23.01.2022
3546 Snow -4 1027 94 10000 1.19 39 11:26 23.01.2022
3547 Snow -4 1027 94 10000 1.19 39 10:57 23.01.2022
3548 Snow -4 1027 95 8378 1.01 57 10:25 23.01.2022
3549 Clouds -5 1027 95 8320 1 57 09:32 23.01.2022
3550 Snow -5 1026 97 6405 1.3 82 08:49 23.01.2022
3551 Clouds -5 1022 98 1498 1.52 71 03:59 23.01.2022
3552 Clouds -4 1020 100 2684 1.64 78 01:38 23.01.2022
3553 Clouds -4 1019 99 3242 1.65 100 00:47 23.01.2022
3554 Clouds -4 1018 98 2342 1.98 96 00:18 23.01.2022
3555 Snow -4 1017 97 1395 2.47 95 22:55 22.01.2022
3556 Snow -4 1016 97 847 2.53 95 22:33 22.01.2022
3557 Snow -4 1015 97 879 2.65 95 20:47 22.01.2022
3558 Snow -4 1014 96 2240 2.79 102 19:46 22.01.2022
3559 Snow -4 1013 96 1190 2.99 109 18:43 22.01.2022
3560 Snow -4 1013 96 2124 2.75 107 17:49 22.01.2022
3561 Snow -4 1013 96 2122 2.75 107 17:31 22.01.2022
3562 Snow -4 1012 96 433 3.04 107 16:55 22.01.2022
3563 Snow -4 1011 96 665 3.11 105 15:49 22.01.2022
3564 Snow -4 1010 96 558 3.16 105 14:57 22.01.2022
3565 Snow -4 1009 96 326 3.5 106 13:36 22.01.2022
3566 Snow -4 1007 95 295 3.7 111 12:40 22.01.2022
3567 Snow -4 1007 95 213 3.89 116 12:22 22.01.2022
3568 Snow -4 1006 95 177 3.92 118 10:55 22.01.2022
3569 Clouds -5 1005 95 369 3.94 121 10:28 22.01.2022
3570 Clouds -5 1005 95 369 3.94 121 09:46 22.01.2022
3571 Snow -5 1005 95 537 4.08 123 08:51 22.01.2022
3572 Snow -6 1003 95 242 4.24 116 07:28 22.01.2022
3573 Snow -6 1001 95 191 4.07 121 04:52 22.01.2022
3574 Snow -6 1000 96 129 3.72 111 01:32 22.01.2022
3575 Clouds -7 1000 97 10000 2.19 141 23:30 21.01.2022
3576 Snow -7 999 96 10000 2.4 153 22:19 21.01.2022
3577 Snow -6 998 97 462 2.17 132 19:56 21.01.2022
3578 Snow -6 998 97 4904 2.63 139 18:36 21.01.2022
3579 Snow -6 998 95 1538 3.23 150 17:25 21.01.2022
3580 Snow -6 997 96 193 3.89 140 15:28 21.01.2022
3581 Snow -6 998 96 136 4.18 142 13:28 21.01.2022
3582 Snow -5 998 96 140 3.83 150 12:37 21.01.2022
3583 Snow -5 998 96 139 4.61 147 11:27 21.01.2022
3584 Snow -5 999 96 137 4.73 144 10:18 21.01.2022
3585 Snow -4 999 95 279 4.51 147 08:23 21.01.2022
3586 Snow -4 1000 94 2004 4.39 165 04:49 21.01.2022
3587 Snow -4 1000 94 2004 4.39 165 04:49 21.01.2022
3588 Snow -3 1001 95 220 5.28 175 23:31 20.01.2022
3589 Snow -3 1001 95 169 5.41 178 22:24 20.01.2022
3590 Snow -3 1001 95 169 5.41 178 21:43 20.01.2022
3591 Snow -3 1001 94 232 5.55 181 20:43 20.01.2022
3592 Snow -3 1001 91 3312 6 187 19:20 20.01.2022
3593 Snow -3 1001 92 1591 6.01 182 18:44 20.01.2022
3594 Clouds -3 1001 88 2183 6.12 183 16:58 20.01.2022
3595 Snow -3 1002 88 3503 6.14 180 15:43 20.01.2022
3596 Clouds -3 1002 88 3690 6.04 181 15:19 20.01.2022
3597 Clouds -3 1003 92 6432 5.88 190 13:41 20.01.2022
3598 Clouds -3 1003 93 6483 5.8 191 12:35 20.01.2022
3599 Clouds -3 1003 88 6481 5.8 191 11:50 20.01.2022
3600 Clouds -3 1004 88 6328 5.68 192 10:40 20.01.2022
3601 Clouds -3 1005 88 5968 5.3 193 09:37 20.01.2022
3602 Clouds -4 1005 93 5060 5.01 196 08:32 20.01.2022
3603 Clouds -4 1006 94 5423 4.95 204 05:32 20.01.2022
3604 Snow -5 1009 87 7799 4.72 203 23:35 19.01.2022
3605 Snow -6 1010 94 4927 4.6 202 22:32 19.01.2022
3606 Clouds -6 1011 94 8436 4.19 211 21:24 19.01.2022
3607 Clouds -6 1011 94 8437 4.19 211 20:50 19.01.2022
3608 Clouds -6 1012 94 8773 4.25 215 19:54 19.01.2022
3609 Snow -6 1013 94 10000 4 209 18:43 19.01.2022
3610 Clouds -6 1013 93 10000 4.01 213 17:49 19.01.2022
3611 Snow -6 1014 92 9300 3.76 210 16:57 19.01.2022
3612 Snow -6 1015 92 10000 3.19 201 14:42 19.01.2022
3613 Snow -6 1016 91 10000 2.72 200 12:53 19.01.2022
3614 Snow -7 1016 90 10000 2.43 216 11:42 19.01.2022
3615 Clouds -8 1016 88 10000 2.34 240 10:37 19.01.2022
3616 Clouds -10 1017 90 10000 2.18 252 09:34 19.01.2022
3617 Clouds -10 1018 98 10000 1.83 269 07:18 19.01.2022
3618 Clouds -9 1018 97 10000 2.05 278 05:18 19.01.2022
3619 Clouds -8 1017 96 10000 2.67 310 23:41 18.01.2022
3620 Clouds -8 1017 95 10000 3.16 320 23:18 18.01.2022
3621 Clouds -7 1016 93 10000 4.17 326 21:20 18.01.2022
3622 Clouds -6 1015 92 10000 4.36 331 19:55 18.01.2022
3623 Clouds -6 1015 92 10000 4.36 331 19:37 18.01.2022
3624 Clouds -6 1014 91 10000 4.67 337 18:57 18.01.2022
3625 Clouds -7 1013 91 10000 4.88 340 17:59 18.01.2022
3626 Clouds -6 1012 91 10000 4.74 343 17:27 18.01.2022
3627 Snow -6 1011 90 10000 5.12 347 15:50 18.01.2022
3628 Snow -6 1009 90 10000 5.51 348 15:23 18.01.2022
3629 Snow -6 1007 89 10000 5.7 351 13:26 18.01.2022
3630 Snow -5 1003 89 10000 6.43 353 10:49 18.01.2022
3631 Snow -5 1002 89 10000 6.78 353 09:39 18.01.2022
3632 Snow -4 999 89 10000 6.84 354 07:58 18.01.2022
3633 Snow -4 998 92 575 6.89 359 07:21 18.01.2022
3634 Snow -2 988 98 147 1.54 182 00:21 18.01.2022
3635 Snow -2 987 88 137 2.13 188 22:30 17.01.2022
3636 Snow -2 987 88 174 2.66 196 21:36 17.01.2022
3637 Snow -2 986 87 277 3.33 201 20:33 17.01.2022
3638 Snow -3 985 96 387 4 198 18:42 17.01.2022
3639 Snow -3 985 87 720 4.28 201 17:55 17.01.2022
3640 Snow -3 985 86 377 4.48 203 16:53 17.01.2022
3641 Snow -3 986 96 233 4.61 204 15:31 17.01.2022
3642 Snow -3 986 96 265 4.74 206 14:58 17.01.2022
3643 Snow -3 986 85 198 5.23 206 13:42 17.01.2022
3644 Snow -3 986 85 429 5.45 207 12:57 17.01.2022
3645 Snow -4 987 94 548 5.74 209 11:51 17.01.2022
3646 Snow -4 987 92 1020 5.98 212 10:43 17.01.2022
3647 Snow -4 989 93 455 6.36 214 09:35 17.01.2022
3648 Snow -5 990 93 676 6.58 214 08:18 17.01.2022
3649 Snow -4 991 84 194 6.48 215 07:19 17.01.2022
3650 Clouds -5 1000 85 10000 5.6 221 00:57 17.01.2022
3651 Clouds -6 1003 84 10000 5.32 231 22:53 16.01.2022
3652 Clouds -6 1005 92 10000 4.85 231 20:40 16.01.2022
3653 Clouds -6 1006 93 10000 4.58 232 19:44 16.01.2022
3654 Clouds -6 1007 94 10000 4 238 18:42 16.01.2022
3655 Clouds -6 1008 94 10000 3.93 244 17:45 16.01.2022
3656 Clouds -6 1009 95 10000 3.69 250 16:50 16.01.2022
3657 Clouds -5 1009 93 10000 3.72 264 15:34 16.01.2022
3658 Clouds -3 1009 92 10000 4.26 270 14:29 16.01.2022
3659 Clouds -3 1009 90 10000 4.13 280 12:51 16.01.2022
3660 Clouds -3 1009 91 6199 3.62 287 11:48 16.01.2022
3661 Clouds -3 1009 90 5236 3.63 306 10:58 16.01.2022
3662 Clouds -3 1009 83 9670 4.19 316 10:26 16.01.2022
3663 Clouds -3 1009 83 9670 4.19 316 09:56 16.01.2022
3664 Clouds -4 1009 87 10000 4.52 319 09:22 16.01.2022
3665 Clouds -4 1009 87 10000 4.52 319 08:47 16.01.2022
3666 Clouds -3 1006 83 7614 5.49 324 03:58 16.01.2022
3667 Snow -3 1004 82 10000 5.99 321 23:50 15.01.2022
3668 Snow -3 1003 82 5725 6.1 318 22:35 15.01.2022
3669 Snow -3 1002 81 4881 6.08 322 21:20 15.01.2022
3670 Snow -3 1002 80 4881 6.08 322 20:40 15.01.2022
3671 Snow -3 1001 81 10000 6.39 324 19:52 15.01.2022
3672 Snow -2 1002 82 3102 6.07 326 19:19 15.01.2022
3673 Snow -2 999 82 4022 6.66 331 17:35 15.01.2022
3674 Snow -2 998 83 6325 6.91 333 16:37 15.01.2022
3675 Snow -2 996 84 10000 7.24 331 13:57 15.01.2022
3676 Snow -2 993 88 4009 7.38 334 12:20 15.01.2022
3677 Snow -1 991 84 2526 7.28 323 10:43 15.01.2022
3678 Snow -2 990 86 10000 6.69 319 08:36 15.01.2022
3679 Clouds -2 984 83 6283 6.08 329 00:49 15.01.2022
3680 Clouds -1 981 85 2728 7.81 330 21:56 14.01.2022
3681 Snow -1 980 85 5928 8.53 328 20:42 14.01.2022
3682 Snow -1 978 85 10000 8.64 321 20:23 14.01.2022
3683 Clouds -1 978 86 10000 8.64 321 19:40 14.01.2022
3684 Clouds 0 976 88 10000 7.9 317 18:27 14.01.2022
3685 Snow 0 976 88 7065 7.14 323 16:50 14.01.2022
3686 Clouds 0 975 89 10000 6.66 325 15:48 14.01.2022
3687 Clouds 1 974 90 10000 5.89 324 14:46 14.01.2022
3688 Snow 1 975 89 1244 4.33 302 13:37 14.01.2022
3689 Snow 2 975 88 64 5.12 283 12:29 14.01.2022
3690 Snow 1 977 98 35 5.89 273 10:57 14.01.2022
3691 Snow 1 978 98 65 6.56 256 09:50 14.01.2022
3692 Snow 1 980 98 54 6.39 260 08:51 14.01.2022
3693 Snow 2 982 98 565 7.04 267 06:57 14.01.2022
3694 Snow -1 990 89 29 5.64 257 01:33 14.01.2022
3695 Snow -2 992 98 239 6.22 256 23:19 13.01.2022
3696 Snow -4 994 98 277 5.79 265 21:40 13.01.2022
3697 Snow -4 994 98 277 5.79 265 21:22 13.01.2022
3698 Snow -7 995 97 297 6.27 248 19:40 13.01.2022
3699 Snow -7 997 95 406 6.36 241 19:22 13.01.2022
3700 Snow -7 997 95 406 6.36 241 19:22 13.01.2022
3701 Clouds -8 998 87 657 5.85 237 17:53 13.01.2022
3702 Clouds -10 1001 86 520 6.57 236 16:21 13.01.2022
3703 Snow -10 1002 85 531 6.55 229 15:37 13.01.2022
3704 Snow -10 1002 88 531 6.55 229 14:47 13.01.2022
3705 Snow -14 1006 95 144 5.9 208 12:45 13.01.2022
3706 Clouds -17 1013 89 10000 4.08 217 10:25 13.01.2022
3707 Clouds -18 1015 90 10000 3.45 220 09:20 13.01.2022
3708 Clouds -18 1015 90 10000 3.45 220 09:20 13.01.2022
3709 Clouds -19 1016 88 10000 2.64 224 08:27 13.01.2022
3710 Clouds -20 1018 99 10000 2.43 240 07:24 13.01.2022
3711 Clouds -20 1019 100 10000 2.07 257 05:59 13.01.2022
3712 Clouds -20 1019 100 10000 2.07 257 05:59 13.01.2022
3713 Clouds -20 1019 100 10000 2.07 257 05:59 13.01.2022
3714 Clouds -17 1020 88 10000 1.72 273 05:19 13.01.2022
3715 Snow -17 1021 87 1065 1.51 309 02:33 13.01.2022
3716 Snow -17 1023 88 438 2.31 325 00:55 13.01.2022
3717 Clouds -17 1024 99 10000 1.88 329 23:49 12.01.2022
3718 Clouds -17 1024 99 10000 1.88 329 23:49 12.01.2022
3719 Clouds -17 1024 100 10000 2.01 328 23:20 12.01.2022
3720 Clouds -17 1025 99 6658 2 335 21:57 12.01.2022
3721 Clouds -17 1026 99 8132 2.22 338 21:23 12.01.2022
3722 Clouds -17 1026 99 8132 2.22 338 20:57 12.01.2022
3723 Snow -16 1026 99 10000 2.07 345 19:55 12.01.2022
3724 Snow -15 1026 88 10000 2.45 5 18:43 12.01.2022
3725 Clouds -15 1027 97 3167 2.99 355 17:38 12.01.2022
3726 Clouds -15 1028 97 4700 2.81 359 16:38 12.01.2022
3727 Clouds -14 1028 96 8991 2.82 357 14:49 12.01.2022
3728 Clouds -13 1028 95 7637 3.14 1 13:32 12.01.2022
3729 Clouds -13 1028 94 8060 3.36 8 12:34 12.01.2022
3730 Snow -13 1030 94 3604 3.66 18 08:45 12.01.2022
3731 Snow -14 1030 95 1486 3.64 14 07:52 12.01.2022
3732 Snow -13 1030 95 1486 3.64 14 07:32 12.01.2022
3733 Clouds -12 1031 95 1829 3.98 5 23:53 11.01.2022
3734 Snow -11 1031 96 2107 3.79 3 22:57 11.01.2022
3735 Clouds -11 1031 95 4312 3.74 3 22:23 11.01.2022
3736 Clouds -11 1031 95 9500 3.87 5 21:25 11.01.2022
3737 Snow -11 1030 94 10000 4.11 4 20:33 11.01.2022
3738 Clouds -11 1030 93 10000 4.55 4 18:48 11.01.2022
3739 Snow -11 1030 93 10000 4.5 2 17:42 11.01.2022
3740 Clouds -12 1030 92 10000 4.77 1 16:38 11.01.2022
3741 Clouds -12 1030 87 10000 4.77 1 15:59 11.01.2022
3742 Clouds -13 1029 87 10000 4.63 360 14:43 11.01.2022
3743 Clouds -12 1029 86 10000 4.56 2 13:58 11.01.2022
3744 Clouds -12 1029 86 10000 4.78 3 13:39 11.01.2022
3745 Clouds -12 1028 86 10000 4.84 2 13:21 11.01.2022
3746 Clouds -12 1028 86 10000 4.97 3 12:22 11.01.2022
3747 Snow -11 1027 87 10000 4.89 4 10:25 11.01.2022
3748 Clouds -10 1026 92 10000 4.92 4 07:35 11.01.2022
3749 Snow -7 1024 93 7000 4.81 356 02:57 11.01.2022
3750 Snow -5 1022 93 4792 5.03 357 00:24 11.01.2022
3751 Snow -6 1022 87 1449 4.72 358 23:38 10.01.2022
3752 Clouds -6 1021 87 875 4.52 0 22:19 10.01.2022
3753 Snow -6 1021 87 875 4.52 0 21:55 10.01.2022
3754 Snow -6 1021 87 7395 4.27 3 21:32 10.01.2022
3755 Snow -6 1021 88 7380 4.27 3 20:58 10.01.2022
3756 Snow -7 1020 88 8906 4.57 5 20:29 10.01.2022
3757 Snow -7 1020 87 8897 4.57 5 19:48 10.01.2022
3758 Snow -7 1020 87 8548 4.75 10 19:23 10.01.2022
3759 Snow -7 1019 87 6781 4.6 5 18:55 10.01.2022
3760 Snow -6 1019 87 6784 4.6 5 18:37 10.01.2022
3761 Snow -6 1018 86 587 4.67 14 16:48 10.01.2022
3762 Snow -6 1018 86 261 4.64 15 16:18 10.01.2022
3763 Snow -6 1017 86 153 4.28 17 14:41 10.01.2022
3764 Snow -5 1016 85 142 3.83 36 12:43 10.01.2022
3765 Snow -5 1015 96 158 3.86 43 11:55 10.01.2022
3766 Snow -6 1015 96 147 3.77 41 10:46 10.01.2022
3767 Snow -6 1015 87 149 3.27 45 08:59 10.01.2022
3768 Snow -7 1015 86 143 2.44 47 05:51 10.01.2022
3769 Snow -7 1015 85 152 1.87 88 01:35 10.01.2022
3770 Snow -7 1015 85 175 1.8 82 00:44 10.01.2022
3771 Snow -7 1015 85 134 2.02 91 00:19 10.01.2022
3772 Snow -7 1015 85 135 2.15 105 22:44 09.01.2022
3773 Snow -7 1015 84 132 2.51 117 21:57 09.01.2022
3774 Snow -7 1015 84 137 2.96 122 21:37 09.01.2022
3775 Snow -7 1015 84 137 2.96 122 21:18 09.01.2022
3776 Snow -7 1015 84 137 2.96 122 20:45 09.01.2022
3777 Snow -7 1016 84 133 3.18 125 20:26 09.01.2022
3778 Snow -7 1016 83 133 3.23 124 19:38 09.01.2022
3779 Snow -7 1016 83 133 3.23 124 19:20 09.01.2022
3780 Snow -7 1016 96 141 3.19 126 18:37 09.01.2022
3781 Snow -7 1017 96 137 3.15 134 18:18 09.01.2022
3782 Snow -7 1017 96 137 3.15 134 17:30 09.01.2022
3783 Snow -6 1017 85 157 3.42 138 16:49 09.01.2022
3784 Snow -5 1017 82 448 3.44 144 15:46 09.01.2022
3785 Snow -5 1018 81 2763 3.35 152 15:25 09.01.2022
3786 Snow -5 1018 80 2763 3.35 152 14:39 09.01.2022
3787 Snow -4 1018 80 10000 3.51 159 13:49 09.01.2022
3788 Snow -5 1019 87 10000 3.72 179 12:19 09.01.2022
3789 Snow -5 1019 87 10000 3.72 179 11:38 09.01.2022
3790 Snow -5 1020 84 10000 4.18 183 09:55 09.01.2022
3791 Snow -5 1020 83 10000 4.42 187 09:29 09.01.2022
3792 Snow -5 1019 84 10000 4.69 188 08:18 09.01.2022
3793 Clouds -5 1021 91 10000 3.35 187 01:31 09.01.2022
3794 Clouds -5 1021 91 10000 3.26 186 00:53 09.01.2022
3795 Clouds -5 1022 93 10000 3.1 199 23:37 08.01.2022
3796 Clouds -5 1022 93 10000 3.1 199 22:58 08.01.2022
3797 Clouds -4 1022 95 10000 2.93 199 21:32 08.01.2022
3798 Clouds -4 1022 95 10000 2.93 199 20:44 08.01.2022
3799 Clouds -4 1022 95 10000 2.93 202 20:23 08.01.2022
3800 Clouds -4 1022 95 10000 2.93 202 19:55 08.01.2022
3801 Clouds -4 1022 96 10000 2.58 198 17:49 08.01.2022
3802 Clouds -5 1022 95 10000 2.63 208 16:57 08.01.2022
3803 Clouds -5 1022 96 10000 2.64 208 15:37 08.01.2022
3804 Clouds -5 1022 98 6823 1.93 191 14:38 08.01.2022
3805 Clouds -5 1021 93 10000 3.01 248 12:36 08.01.2022
3806 Clouds -6 1021 92 10000 3.51 251 10:49 08.01.2022
3807 Clouds -6 1021 93 10000 3.83 253 10:24 08.01.2022
3808 Snow -6 1020 93 10000 4.15 252 09:34 08.01.2022
3809 Snow -6 1019 92 5747 4.09 259 07:18 08.01.2022
3810 Snow -6 1015 85 10000 4.47 281 02:33 08.01.2022
3811 Snow -6 1013 85 10000 5.51 288 00:40 08.01.2022
3812 Clouds -6 1011 80 10000 6.34 289 22:40 07.01.2022
3813 Snow -6 1008 84 140 3.26 311 20:56 07.01.2022
3814 Snow -6 1007 86 145 3.57 294 19:56 07.01.2022
3815 Snow -6 1007 86 145 3.57 294 19:56 07.01.2022
3816 Snow -5 1006 85 252 5.38 273 18:54 07.01.2022
3817 Snow -6 1006 93 252 5.38 273 18:34 07.01.2022
3818 Clouds -5 1005 83 9113 6.58 247 17:25 07.01.2022
3819 Snow -6 1005 88 10000 6.35 246 16:23 07.01.2022
3820 Clear -6 1005 88 10000 5.33 250 13:53 07.01.2022
3821 Clouds -6 1004 88 10000 4.81 251 13:21 07.01.2022
3822 Clouds -6 1004 88 10000 4.91 249 12:48 07.01.2022
3823 Snow -5 1004 90 10000 3.67 273 09:37 07.01.2022
3824 Clouds -1 1000 94 10000 3.38 266 02:55 07.01.2022
3825 Clouds -2 999 93 10000 3.69 268 01:54 07.01.2022
3826 Clouds -1 999 89 10000 4.09 270 01:27 07.01.2022
3827 Clouds -1 998 89 10000 4.07 264 00:57 07.01.2022
3828 Clouds 0 997 91 4349 5.17 241 22:53 06.01.2022
3829 Clouds 0 997 89 10000 4.68 229 21:28 06.01.2022
3830 Clouds 0 997 87 10000 4.91 231 20:21 06.01.2022
3831 Clouds 0 997 87 10000 4.91 231 19:44 06.01.2022
3832 Clouds -1 997 91 10000 3.85 237 18:29 06.01.2022
3833 Clouds -1 997 94 10000 3.86 233 17:34 06.01.2022
3834 Clouds -1 997 94 10000 3.86 233 16:44 06.01.2022
3835 Clouds -1 997 96 10000 3.3 225 15:47 06.01.2022
3836 Clouds 0 996 97 10000 2.53 228 15:26 06.01.2022
3837 Clouds 0 996 97 10000 2.53 228 14:45 06.01.2022
3838 Clouds 0 996 96 10000 2.35 236 14:18 06.01.2022
3839 Snow 0 994 98 4853 1.46 259 12:50 06.01.2022
3840 Snow 0 994 99 993 0.89 272 11:43 06.01.2022
3841 Snow 0 994 99 772 0.49 286 11:22 06.01.2022
3842 Snow 0 995 89 796 0.75 236 08:52 06.01.2022
3843 Clouds -1 995 89 10000 4.11 250 01:37 06.01.2022
3844 Clouds -2 995 88 736 3.62 237 23:38 05.01.2022
3845 Snow -3 994 88 10000 2.68 246 22:59 05.01.2022
3846 Clouds -3 994 88 2195 3.35 260 22:33 05.01.2022
3847 Clouds -3 994 88 2195 3.35 260 21:49 05.01.2022
3848 Clouds -3 994 88 2443 1.97 237 21:21 05.01.2022
3849 Clouds -5 993 98 1235 1.08 179 20:19 05.01.2022
3850 Clouds -6 994 96 773 2.17 130 18:50 05.01.2022
3851 Snow -6 993 96 738 3.39 117 17:44 05.01.2022
3852 Snow -6 994 95 303 3.65 124 16:51 05.01.2022
3853 Snow -6 994 94 349 4.5 130 15:43 05.01.2022
3854 Snow -6 995 95 138 5.78 126 14:24 05.01.2022
3855 Snow -6 995 96 117 5.76 120 13:32 05.01.2022
3856 Snow -6 996 86 137 5.56 119 11:45 05.01.2022
3857 Snow -6 1000 86 3345 4.43 137 08:20 05.01.2022
3858 Clouds -6 1001 86 3893 4.15 141 06:25 05.01.2022
3859 Clouds -7 1004 97 1512 2.98 151 00:59 05.01.2022
3860 Clouds -6 1005 96 861 2.85 159 23:38 04.01.2022
3861 Clouds -6 1005 96 3072 2.95 162 23:18 04.01.2022
3862 Clouds -7 1005 96 2556 2.93 165 21:31 04.01.2022
3863 Clouds -7 1005 96 872 2.81 174 19:55 04.01.2022
3864 Clouds -7 1006 97 3092 2.29 164 18:19 04.01.2022
3865 Clouds -7 1006 98 5420 2.2 161 17:18 04.01.2022
3866 Clouds -7 1006 98 3522 2.08 148 16:31 04.01.2022
3867 Clouds -7 1006 97 1433 2.11 141 14:58 04.01.2022
3868 Clouds -7 1006 97 1432 2.11 141 14:36 04.01.2022
3869 Snow -7 1005 96 509 1.94 142 13:48 04.01.2022
3870 Clouds -8 1005 93 9807 1.86 153 11:44 04.01.2022
3871 Clouds -9 1005 93 10000 1.67 151 10:18 04.01.2022
3872 Snow -9 1005 94 10000 1.62 139 08:36 04.01.2022
3873 Clouds -9 1003 97 10000 1.31 99 06:28 04.01.2022
3874 Clouds -9 1002 100 9433 1.4 79 00:42 04.01.2022
3875 Clouds -9 1002 100 8398 1.35 65 23:49 03.01.2022
3876 Clouds -9 1002 99 8152 1.79 73 22:21 03.01.2022
3877 Snow -9 1002 99 8152 1.79 73 21:38 03.01.2022
3878 Clouds -8 1001 99 8045 1.98 71 20:40 03.01.2022
3879 Clouds -8 1000 97 10000 2.22 76 18:55 03.01.2022
3880 Clouds -8 1000 97 10000 2.39 83 18:30 03.01.2022
3881 Clouds -8 1000 97 10000 2.39 83 18:30 03.01.2022
3882 Clouds -8 1000 96 10000 2.72 91 17:20 03.01.2022
3883 Clouds -9 1000 96 10000 2.87 95 16:31 03.01.2022
3884 Clouds -8 1001 94 10000 3 93 14:31 03.01.2022
3885 Clouds -8 1001 93 10000 3.44 105 12:52 03.01.2022
3886 Snow -8 1001 93 10000 3.05 105 11:50 03.01.2022
3887 Snow -8 1002 92 10000 2.85 121 10:38 03.01.2022
3888 Snow -9 1004 95 10000 2.19 126 09:28 03.01.2022
3889 Clouds -9 1004 95 10000 2.19 126 09:28 03.01.2022
3890 Snow -8 1005 97 10000 2 139 07:53 03.01.2022
3891 Clouds -8 1009 98 9215 1.06 199 03:22 03.01.2022
3892 Clouds -8 1013 99 6547 1.85 248 23:24 02.01.2022
3893 Clouds -8 1013 99 6547 1.85 248 22:56 02.01.2022
3894 Clouds -8 1013 98 6618 1.81 270 22:20 02.01.2022
3895 Clouds -8 1013 97 7344 2.38 268 20:52 02.01.2022
3896 Clouds -8 1013 97 7471 2.57 266 20:30 02.01.2022
3897 Clouds -8 1013 96 10000 2.32 277 19:32 02.01.2022
3898 Snow -8 1013 95 10000 2.58 279 18:56 02.01.2022
3899 Clouds -8 1013 94 10000 3.36 284 18:23 02.01.2022
3900 Clouds -8 1013 94 10000 3.36 284 17:42 02.01.2022
3901 Clouds -8 1013 93 10000 3.58 286 17:21 02.01.2022
3902 Clouds -8 1013 93 10000 4 292 16:28 02.01.2022
3903 Clouds -7 1013 93 10000 4 292 15:39 02.01.2022
3904 Snow -7 1014 92 10000 4.26 296 13:57 02.01.2022
3905 Clouds -7 1013 91 10000 4.58 301 12:32 02.01.2022
3906 Snow -7 1013 91 10000 4.58 301 11:55 02.01.2022
3907 Snow -7 1013 91 10000 4.84 306 10:55 02.01.2022
3908 Snow -8 1013 92 4890 5.26 302 10:18 02.01.2022
3909 Snow -7 1013 92 5438 4.82 306 07:44 02.01.2022
3910 Snow -5 1010 91 6187 5.26 318 02:57 02.01.2022
3911 Clouds -4 1008 91 6018 4.81 328 23:54 01.01.2022
3912 Clouds -4 1008 91 6018 4.81 328 23:35 01.01.2022
3913 Snow -4 1007 91 5780 5.17 330 22:39 01.01.2022
3914 Snow -4 1006 91 3861 5.19 337 22:18 01.01.2022
3915 Clouds -4 1006 91 3861 5.19 337 22:18 01.01.2022
3916 Clouds -3 1006 91 3861 5.19 337 21:42 01.01.2022
3917 Clouds -3 1005 91 5877 4.86 340 20:36 01.01.2022
3918 Snow -3 1004 93 835 4.71 342 19:47 01.01.2022
3919 Clouds -3 1004 90 10000 4.56 339 18:53 01.01.2022
3920 Snow -2 1003 94 6799 3.5 328 17:45 01.01.2022
3921 Clouds -1 1002 86 10000 2.61 311 16:35 01.01.2022
3922 Clouds -2 1002 95 10000 2.61 311 15:45 01.01.2022
3923 Clouds -1 1002 94 10000 2.66 316 14:40 01.01.2022
3924 Clouds -1 1001 92 10000 2.96 317 13:42 01.01.2022
3925 Clouds -1 1001 92 10000 2.96 317 13:42 01.01.2022
3926 Clouds -1 1001 92 10000 2.79 329 12:26 01.01.2022
3927 Clouds -1 1001 92 10000 2.79 329 11:46 01.01.2022
3928 Clouds -1 1001 93 10000 3.03 330 11:18 01.01.2022
3929 Clouds -1 1001 94 10000 2.63 314 09:48 01.01.2022
3930 Clouds -1 1001 96 10000 2.14 291 08:49 01.01.2022
3931 Clouds -1 1001 97 10000 1.96 276 08:21 01.01.2022
3932 Clouds -1 1001 97 10000 1.95 276 07:40 01.01.2022
3933 Clouds -1 1000 98 10000 1.9 279 06:44 01.01.2022
3934 Clouds -2 1000 98 10000 1.71 257 05:25 01.01.2022
3935 Clouds -2 1000 98 10000 1.71 257 04:37 01.01.2022
3936 Snow -3 1001 97 2420 3.07 238 00:37 01.01.2022
3937 Snow -3 1002 89 138 3.66 225 22:40 31.12.2021
3938 Snow -3 1002 89 135 4.04 218 21:51 31.12.2021
3939 Snow -4 1004 96 212 4.23 199 20:28 31.12.2021
3940 Snow -4 1004 96 276 4.17 195 19:28 31.12.2021
3941 Snow -4 1004 96 194 4.27 194 18:30 31.12.2021
3942 Snow -4 1005 96 831 4.03 191 17:37 31.12.2021
3943 Clouds -5 1006 96 10000 3.63 189 17:18 31.12.2021
3944 Clouds -5 1007 96 10000 3.52 186 16:19 31.12.2021
3945 Clouds -5 1007 96 10000 3.52 186 15:53 31.12.2021
3946 Clouds -5 1008 96 7001 3.33 181 15:28 31.12.2021
3947 Clouds -5 1008 96 6996 3.33 181 14:41 31.12.2021
3948 Clouds -5 1009 96 1259 3.05 177 14:18 31.12.2021
3949 Clouds -5 1009 96 1259 3.05 177 13:35 31.12.2021
3950 Clouds -5 1010 96 2175 2.96 182 12:44 31.12.2021
3951 Snow -5 1010 95 3384 3.06 191 11:43 31.12.2021
3952 Clouds -5 1011 96 7265 3.19 190 11:20 31.12.2021
3953 Clouds -5 1011 95 4541 3.14 191 10:32 31.12.2021
3954 Clouds -6 1012 96 1729 2.68 193 09:35 31.12.2021
3955 Clouds -6 1012 96 1729 2.68 193 08:56 31.12.2021
3956 Clouds -6 1012 96 7985 2.52 191 08:25 31.12.2021
3957 Clouds -6 1012 96 7988 2.52 191 07:30 31.12.2021
3958 Clouds -7 1016 97 1919 2.04 182 23:23 30.12.2021
3959 Snow -7 1017 97 1330 1.68 174 22:33 30.12.2021
3960 Clouds -8 1017 97 1330 1.68 174 21:54 30.12.2021
3961 Snow -8 1017 97 1330 1.68 174 21:36 30.12.2021
3962 Clouds -8 1018 97 748 1.67 182 20:45 30.12.2021
3963 Clouds -7 1018 98 752 1.48 191 20:24 30.12.2021
3964 Clouds -7 1018 98 752 1.48 191 19:45 30.12.2021
3965 Clouds -8 1019 98 5545 1.83 172 18:29 30.12.2021
3966 Snow -8 1019 98 5546 1.83 172 17:52 30.12.2021
3967 Snow -8 1019 98 835 1.39 177 16:19 30.12.2021
3968 Snow -8 1019 98 835 1.39 177 15:51 30.12.2021
3969 Snow -9 1020 98 815 1.31 169 14:39 30.12.2021
3970 Clouds -9 1020 98 925 1.26 166 13:55 30.12.2021
3971 Snow -9 1019 96 2104 1.37 170 12:40 30.12.2021
3972 Clouds -10 1020 93 950 1.87 179 10:58 30.12.2021
3973 Clouds -11 1021 94 2018 1.96 178 09:59 30.12.2021
3974 Clouds -11 1021 94 2018 1.96 178 09:59 30.12.2021
3975 Clouds -11 1021 96 2862 1.96 164 09:21 30.12.2021
3976 Clouds -12 1021 98 3569 1.46 129 06:54 30.12.2021
3977 Clouds -13 1022 99 1548 1.21 112 04:20 30.12.2021
3978 Clouds -13 1022 99 1548 1.21 112 03:38 30.12.2021
3979 Clouds -14 1023 99 1344 1.46 106 23:57 29.12.2021
3980 Clouds -15 1022 99 2741 1.87 110 23:23 29.12.2021
3981 Clouds -15 1023 98 3246 1.99 108 22:22 29.12.2021
3982 Clouds -15 1023 98 3245 1.99 108 21:45 29.12.2021
3983 Clouds -16 1023 99 3352 1.98 107 20:39 29.12.2021
3984 Clouds -16 1023 98 4141 2.21 102 19:51 29.12.2021
3985 Clouds -15 1024 98 4421 2.07 85 18:57 29.12.2021
3986 Clouds -15 1024 97 10000 2.17 91 18:19 29.12.2021
3987 Clouds -15 1024 97 10000 2.58 99 17:28 29.12.2021
3988 Clouds -15 1024 97 10000 2.58 99 16:49 29.12.2021
3989 Clouds -15 1025 98 10000 2.55 89 16:19 29.12.2021
3990 Clouds -15 1025 98 10000 2.43 81 14:46 29.12.2021
3991 Clouds -11 1025 86 10000 2.94 111 12:49 29.12.2021
3992 Clouds -11 1025 86 10000 2.95 115 12:27 29.12.2021
3993 Clouds -13 1027 96 10000 2.73 120 10:36 29.12.2021
3994 Snow -13 1028 98 6056 2.04 116 08:37 29.12.2021
3995 Clouds -12 1028 100 5000 1.65 120 06:48 29.12.2021
3996 Clouds -12 1028 100 5158 1.52 120 06:27 29.12.2021
3997 Clouds -13 1028 100 5158 1.52 120 05:44 29.12.2021
3998 Clouds -13 1028 100 3837 1.55 130 03:20 29.12.2021
3999 Clouds -11 1028 100 2782 1.24 130 00:25 29.12.2021
4000 Clouds -10 1028 100 2783 1.24 130 23:56 28.12.2021
4001 Clouds -11 1028 100 3160 1.04 148 22:50 28.12.2021
4002 Clouds -12 1028 100 3293 1.2 177 22:24 28.12.2021
4003 Clouds -10 1028 100 3293 1.2 177 21:54 28.12.2021
4004 Clouds -11 1028 100 4440 1.1 178 20:54 28.12.2021
4005 Clouds -10 1027 100 5482 0.98 191 19:50 28.12.2021
4006 Clouds -10 1028 100 6000 1.29 191 18:53 28.12.2021
4007 Clouds -9 1028 100 6452 1.28 194 18:24 28.12.2021
4008 Snow -8 1027 100 6519 1.2 198 17:25 28.12.2021
4009 Snow -9 1027 100 6544 1.1 205 15:53 28.12.2021
4010 Snow -8 1027 100 6539 1.34 200 15:29 28.12.2021
4011 Clouds -8 1027 100 6539 1.34 200 14:54 28.12.2021
4012 Snow -8 1027 98 6627 1.22 205 14:22 28.12.2021
4013 Clouds -8 1027 98 6627 1.22 205 13:58 28.12.2021
4014 Clouds -8 1026 97 6746 1.07 217 13:34 28.12.2021
4015 Clouds -8 1026 97 6745 1.07 217 12:55 28.12.2021
4016 Clouds -8 1025 96 9288 1.08 236 12:19 28.12.2021
4017 Clouds -8 1025 97 6597 1.6 255 10:19 28.12.2021
4018 Clouds -10 1025 100 4773 1.73 250 07:33 28.12.2021
4019 Snow -9 1024 100 6346 1.97 256 03:35 28.12.2021
4020 Snow -9 1022 98 6451 2.29 256 23:39 27.12.2021
4021 Clouds -8 1021 97 7095 2.48 254 22:21 27.12.2021
4022 Clouds -8 1021 97 7095 2.48 254 21:30 27.12.2021
4023 Clouds -8 1021 97 10000 2.59 256 20:39 27.12.2021
4024 Clouds -9 1020 95 9400 3.06 261 19:48 27.12.2021
4025 Clouds -9 1019 94 6724 3.25 261 19:27 27.12.2021
4026 Snow -9 1018 94 5468 3.53 260 17:54 27.12.2021
4027 Snow -9 1018 94 5468 3.53 260 17:54 27.12.2021
4028 Clouds -9 1018 94 2476 3.44 255 17:28 27.12.2021
4029 Clouds -9 1017 88 4358 3.57 250 16:23 27.12.2021
4030 Clouds -9 1017 88 4358 3.57 250 15:44 27.12.2021
4031 Clouds -10 1017 86 1769 3.77 245 14:24 27.12.2021
4032 Clouds -10 1016 86 2801 3.57 243 12:56 27.12.2021
4033 Clouds -10 1015 86 10000 4.22 251 11:20 27.12.2021
4034 Clouds -12 1015 86 10000 4.28 253 10:27 27.12.2021
4035 Clouds -13 1015 92 10000 4.32 256 09:27 27.12.2021
4036 Clouds -12 1014 92 10000 4.46 256 07:34 27.12.2021
4037 Clouds -12 1013 92 10000 4.38 255 06:29 27.12.2021
4038 Clouds -12 1011 86 10000 4.89 265 01:58 27.12.2021
4039 Clouds -13 1009 89 10000 5.13 267 23:50 26.12.2021
4040 Clouds -12 1008 85 10000 5.32 268 23:20 26.12.2021
4041 Clouds -12 1007 87 10000 5.31 271 21:48 26.12.2021
4042 Clouds -10 1005 86 10000 6.69 283 20:25 26.12.2021
4043 Clouds -9 1004 86 10000 7.48 285 18:53 26.12.2021
4044 Clouds -9 1002 84 9494 7.89 287 18:22 26.12.2021
4045 Snow -6 997 87 530 8.25 273 15:55 26.12.2021
4046 Snow -7 997 85 7537 7.52 221 13:52 26.12.2021
4047 Snow -7 997 85 1490 7.33 219 13:32 26.12.2021
4048 Snow -7 998 85 2907 7.21 219 12:37 26.12.2021
4049 Clouds -7 998 85 5165 7 217 11:57 26.12.2021
4050 Clouds -8 999 88 10000 6.71 218 09:44 26.12.2021
4051 Clouds -8 1000 89 5747 6.74 220 09:18 26.12.2021
4052 Snow -8 1000 87 5746 6.74 220 08:39 26.12.2021
4053 Snow -8 1000 87 10000 6.49 217 06:47 26.12.2021
4054 Clouds -12 1002 88 9416 4.46 210 00:58 26.12.2021
4055 Clouds -12 1002 87 10000 4.14 224 23:50 25.12.2021
4056 Clouds -12 1002 87 10000 4.45 239 23:26 25.12.2021
4057 Clouds -12 1002 90 10000 4.74 243 22:23 25.12.2021
4058 Clouds -11 1001 89 10000 4.92 248 20:48 25.12.2021
4059 Clouds -10 999 86 10000 5.72 261 19:22 25.12.2021
4060 Clouds -10 999 86 10000 5.75 259 18:54 25.12.2021
4061 Clouds -10 998 86 6534 5.47 258 17:29 25.12.2021
4062 Clouds -9 998 87 6541 5.47 258 16:35 25.12.2021
4063 Snow -9 996 84 10000 6.25 267 14:46 25.12.2021
4064 Clouds -8 992 85 10000 7.24 274 12:49 25.12.2021
4065 Snow -8 989 85 826 5.85 264 11:46 25.12.2021
4066 Snow -9 988 95 148 3.72 207 09:51 25.12.2021
4067 Snow -10 989 95 134 3.88 181 08:38 25.12.2021
4068 Snow -12 994 90 148 6.51 161 02:59 25.12.2021
4069 Snow -13 997 89 154 6.66 163 00:33 25.12.2021
4070 Snow -12 998 88 186 6.74 163 23:40 24.12.2021
4071 Clouds -12 1003 87 5322 6.47 176 19:45 24.12.2021
4072 Clouds -11 1004 87 10000 6.48 177 19:23 24.12.2021
4073 Snow -9 1005 87 10000 6.12 176 16:53 24.12.2021
4074 Clouds -9 1006 88 10000 5.87 182 16:21 24.12.2021
4075 Clouds -10 1006 87 10000 5.86 182 15:48 24.12.2021
4076 Snow -9 1006 88 10000 5.73 183 14:47 24.12.2021
4077 Clouds -9 1007 88 10000 5.71 189 14:26 24.12.2021
4078 Snow -9 1007 87 10000 5.71 189 13:41 24.12.2021
4079 Clouds -9 1007 87 10000 5.83 194 12:48 24.12.2021
4080 Clouds -9 1007 87 10000 5.85 201 12:20 24.12.2021
4081 Clouds -9 1007 87 10000 6.01 206 11:29 24.12.2021
4082 Clouds -9 1007 87 10000 6.01 206 10:59 24.12.2021
4083 Clouds -9 1008 88 10000 6.1 212 10:31 24.12.2021
4084 Snow -10 1008 86 10000 6.13 216 08:28 24.12.2021
4085 Clouds -10 1008 86 10000 6.13 216 07:57 24.12.2021
4086 Snow -12 1009 88 4701 5.96 213 06:18 24.12.2021
4087 Clouds -12 1011 90 10000 5.35 220 00:19 24.12.2021
4088 Clouds -12 1012 90 10000 5.29 222 23:33 23.12.2021
4089 Clouds -12 1012 90 10000 5.29 222 22:44 23.12.2021
4090 Clouds -12 1012 90 10000 5.11 225 22:21 23.12.2021
4091 Clouds -12 1012 89 10000 5.04 226 21:34 23.12.2021
4092 Clouds -12 1013 89 10000 4.93 230 20:21 23.12.2021
4093 Clouds -12 1013 89 10000 4.97 230 19:27 23.12.2021
4094 Clouds -12 1014 88 10000 4.75 233 17:58 23.12.2021
4095 Clouds -12 1014 87 10000 4.72 239 17:18 23.12.2021
4096 Clouds -12 1014 87 10000 4.73 242 16:26 23.12.2021
4097 Clouds -11 1014 87 10000 4.53 248 15:32 23.12.2021
4098 Clouds -11 1014 85 10000 4.53 248 14:56 23.12.2021
4099 Clouds -11 1014 85 10000 4.53 248 14:38 23.12.2021
4100 Clouds -11 1015 91 10000 4.19 258 13:23 23.12.2021
4101 Clouds -12 1015 92 10000 4.37 269 11:19 23.12.2021
4102 Clouds -12 1015 93 10000 4.19 271 09:53 23.12.2021
4103 Clouds -12 1016 93 10000 4.23 274 09:33 23.12.2021
4104 Clouds -12 1016 93 10000 4.45 277 08:25 23.12.2021
4105 Clouds -15 1016 89 6863 4.15 280 05:23 23.12.2021
4106 Clouds -20 1017 84 6708 2.86 275 00:34 23.12.2021
4107 Clouds -21 1017 84 8190 3.08 286 22:50 22.12.2021
4108 Clouds -21 1017 84 4490 3.14 293 21:59 22.12.2021
4109 Clouds -21 1017 84 4071 3.15 298 21:30 22.12.2021
4110 Clouds -21 1017 84 4071 3.15 298 20:59 22.12.2021
4111 Clouds -21 1017 84 4071 3.15 298 20:40 22.12.2021
4112 Clouds -21 1016 84 2865 3.24 302 19:50 22.12.2021
4113 Clouds -22 1017 95 3079 2.94 298 18:55 22.12.2021
4114 Clouds -22 1017 96 1577 2.98 305 17:38 22.12.2021
4115 Clouds -22 1017 96 3127 2.76 307 15:56 22.12.2021
4116 Clouds -21 1016 95 2298 2.87 314 14:23 22.12.2021
4117 Clouds -21 1016 94 3794 3 315 12:53 22.12.2021
4118 Snow -20 1016 93 6390 2.98 312 11:39 22.12.2021
4119 Clouds -21 1016 95 8125 2.97 316 09:52 22.12.2021
4120 Clouds -22 1016 99 5247 2.16 288 07:57 22.12.2021
4121 Clouds -22 1016 100 2838 1.73 276 05:54 22.12.2021
4122 Clouds -22 1016 100 2838 1.73 276 05:34 22.12.2021
4123 Clouds -22 1015 99 4983 1.77 284 04:57 22.12.2021
4124 Clouds -22 1015 99 4983 1.77 284 04:37 22.12.2021
4125 Clouds -22 1015 98 10000 2.14 299 03:49 22.12.2021
4126 Clouds -22 1015 98 10000 2.06 297 03:31 22.12.2021
4127 Clouds -21 1014 96 2962 2.75 329 23:48 21.12.2021
4128 Clouds -20 1013 95 2321 2.93 332 22:41 21.12.2021
4129 Clouds -19 1013 87 1219 2.87 334 21:56 21.12.2021
4130 Clouds -19 1013 87 652 2.79 337 21:32 21.12.2021
4131 Clouds -19 1013 87 652 2.79 337 20:39 21.12.2021
4132 Snow -19 1013 87 465 2.71 338 20:18 21.12.2021
4133 Clouds -18 1012 87 541 2.65 335 19:33 21.12.2021
4134 Clouds -18 1013 95 863 2.59 334 18:23 21.12.2021
4135 Clouds -17 1013 86 863 2.59 334 17:58 21.12.2021
4136 Clouds -17 1012 86 1052 2.71 332 17:29 21.12.2021
4137 Snow -17 1012 94 1818 2.66 326 15:34 21.12.2021
4138 Snow -17 1011 94 1831 2.76 327 14:21 21.12.2021
4139 Snow -16 1011 94 1831 2.76 327 13:42 21.12.2021
4140 Snow -16 1010 91 815 3.24 333 12:26 21.12.2021
4141 Clouds -16 1010 92 515 3.21 334 10:38 21.12.2021
4142 Snow -16 1010 91 806 3.29 334 09:56 21.12.2021
4143 Clouds -17 1009 93 2414 3.31 327 08:57 21.12.2021
4144 Clouds -16 1009 87 1870 3.29 324 07:44 21.12.2021
4145 Snow -16 1009 95 1133 3.36 323 07:22 21.12.2021
4146 Snow -16 1007 88 846 3.59 329 03:26 21.12.2021
4147 Snow -15 1006 89 1231 3.71 329 01:25 21.12.2021
4148 Snow -15 1006 89 909 3.8 326 23:54 20.12.2021
4149 Clouds -14 1005 94 829 3.97 327 22:35 20.12.2021
4150 Clouds -14 1005 94 905 4.1 330 21:59 20.12.2021
4151 Clouds -13 1004 93 1091 4.27 331 21:27 20.12.2021
4152 Clouds -13 1004 93 1092 4.27 331 20:54 20.12.2021
4153 Clouds -13 1004 93 1104 4.47 333 20:23 20.12.2021
4154 Clouds -13 1004 93 1104 4.47 333 19:38 20.12.2021
4155 Clouds -13 1003 93 658 4.68 334 19:19 20.12.2021
4156 Snow -12 1003 93 684 4.75 332 18:33 20.12.2021
4157 Snow -12 1003 93 684 4.75 332 17:51 20.12.2021
4158 Snow -12 1002 93 591 4.7 333 16:47 20.12.2021
4159 Snow -11 1001 91 1530 4.89 336 16:18 20.12.2021
4160 Clouds -11 1001 91 1530 4.89 336 15:40 20.12.2021
4161 Snow -10 1000 90 2763 5.39 340 13:49 20.12.2021
4162 Snow -9 999 91 1551 5.48 340 12:40 20.12.2021
4163 Clouds -9 997 91 1895 5.62 343 10:50 20.12.2021
4164 Snow -8 996 88 1341 5.76 344 09:40 20.12.2021
4165 Snow -9 995 92 528 5.83 345 08:50 20.12.2021
4166 Snow -8 994 88 472 5.89 346 08:32 20.12.2021
4167 Clouds -8 994 88 472 5.89 346 07:38 20.12.2021
4168 Snow -8 993 89 563 5.89 346 06:39 20.12.2021
4169 Snow -5 987 88 143 5.81 336 01:33 20.12.2021
4170 Snow -4 986 92 1004 5.2 306 23:28 19.12.2021
4171 Snow -4 986 92 1003 5.2 306 22:44 19.12.2021
4172 Snow -3 985 88 1667 4.98 307 21:32 19.12.2021
4173 Clouds -3 985 88 1667 4.98 307 20:44 19.12.2021
4174 Snow -3 984 88 7345 4.54 306 20:24 19.12.2021
4175 Clouds -2 984 89 7354 4.54 306 19:42 19.12.2021
4176 Clouds -2 983 96 737 3.76 287 18:50 19.12.2021
4177 Snow -1 983 89 4481 4.04 276 17:54 19.12.2021
4178 Snow -1 983 89 4484 4.04 276 17:35 19.12.2021
4179 Snow 0 983 89 480 4.11 279 16:45 19.12.2021
4180 Snow -1 983 95 840 4.08 277 15:56 19.12.2021
4181 Clouds 0 983 93 8923 4 280 15:25 19.12.2021
4182 Clouds 0 983 93 8923 4 280 15:25 19.12.2021
4183 Clouds 0 983 93 8912 4 280 14:45 19.12.2021
4184 Clouds 0 983 89 10000 3.78 288 13:35 19.12.2021
4185 Clouds 0 983 93 10000 3.66 292 12:59 19.12.2021
4186 Snow 0 983 97 2983 3.88 293 12:32 19.12.2021
4187 Snow 0 983 90 2977 3.88 293 11:38 19.12.2021
4188 Snow -1 983 99 34 3.44 285 10:50 19.12.2021
4189 Snow -1 984 99 150 2.94 264 10:22 19.12.2021
4190 Snow -1 985 91 550 3.06 238 08:51 19.12.2021
4191 Snow -2 986 91 176 3.91 221 06:51 19.12.2021
4192 Snow -3 995 96 141 5.52 197 02:30 19.12.2021
4193 Snow -3 998 96 141 5.09 196 00:55 19.12.2021
4194 Snow -3 1002 96 1243 3.99 201 23:21 18.12.2021
4195 Snow -3 1004 96 7338 3.24 206 22:28 18.12.2021
4196 Clouds -3 1004 96 7341 3.24 206 21:44 18.12.2021
4197 Clouds -3 1006 97 7940 2.62 202 21:26 18.12.2021
4198 Clouds -3 1006 97 7940 2.62 202 20:43 18.12.2021
4199 Clouds -3 1008 98 6783 1.87 218 19:40 18.12.2021
4200 Clouds -3 1010 98 7791 2.07 235 18:26 18.12.2021
4201 Snow -3 1010 98 7791 2.07 235 17:49 18.12.2021
4202 Clouds -3 1012 98 4061 1.98 252 16:50 18.12.2021
4203 Clouds -3 1013 98 6230 1.93 268 16:21 18.12.2021
4204 Clouds -2 1014 97 8421 2.23 270 15:24 18.12.2021
4205 Clouds -2 1014 96 10000 2.46 283 13:58 18.12.2021
4206 Clouds -1 1015 85 3748 2.75 301 11:59 18.12.2021
4207 Clouds -1 1016 85 6453 2.6 307 10:42 18.12.2021
4208 Clouds -1 1016 94 4851 2.67 316 09:32 18.12.2021
4209 Clouds -1 1017 86 10000 2.47 317 08:36 18.12.2021
4210 Clouds -1 1017 86 10000 2.47 317 07:41 18.12.2021
4211 Clouds 0 1016 90 9102 3.16 324 01:47 18.12.2021
4212 Clouds 0 1016 90 10000 2.49 321 23:56 17.12.2021
4213 Snow 0 1016 93 10000 2.47 331 23:35 17.12.2021
4214 Snow 0 1016 94 4455 2.74 335 21:50 17.12.2021
4215 Clouds 0 1015 96 4240 2.73 329 20:49 17.12.2021
4216 Clouds 0 1015 96 4156 3.02 327 19:58 17.12.2021
4217 Clouds 0 1015 97 2258 2.68 322 18:40 17.12.2021
4218 Clouds 0 1014 97 2633 2.65 316 18:19 17.12.2021
4219 Clouds 0 1013 97 1718 2.44 311 17:20 17.12.2021
4220 Clouds 0 1013 95 4971 2.3 316 16:28 17.12.2021
4221 Clouds 0 1013 95 4971 2.3 316 15:51 17.12.2021
4222 Clouds 0 1012 92 10000 2.18 319 14:43 17.12.2021
4223 Clouds 1 1012 94 10000 2.1 322 13:56 17.12.2021
4224 Clouds 1 1011 98 7202 2.5 310 12:38 17.12.2021
4225 Clouds 1 1010 100 3509 2.14 297 10:49 17.12.2021
4226 Clouds 1 1010 99 1925 2.2 291 09:51 17.12.2021
4227 Clouds 0 1010 99 853 2.05 288 08:58 17.12.2021
4228 Clouds 0 1010 99 397 1.75 292 08:19 17.12.2021
4229 Clouds 0 1008 99 170 2.19 323 04:58 17.12.2021
4230 Rain 1 1007 99 24 3.66 294 00:58 17.12.2021
4231 Rain 1 1006 98 131 4.67 290 22:50 16.12.2021
4232 Rain 1 1005 99 25 4.49 273 22:22 16.12.2021
4233 Rain 1 1005 99 25 4.49 273 21:44 16.12.2021
4234 Rain 1 1005 100 40 4.07 270 20:48 16.12.2021
4235 Rain 1 1005 99 89 4.15 270 20:21 16.12.2021
4236 Snow 0 1005 99 89 4.15 270 19:31 16.12.2021
4237 Snow 1 1005 99 29 4.66 255 18:33 16.12.2021
4238 Snow 1 1005 99 23 4.23 241 17:47 16.12.2021
4239 Snow 1 1006 99 23 3.49 225 16:37 16.12.2021
4240 Snow 1 1006 99 22 3.35 223 16:18 16.12.2021
4241 Snow 0 1008 99 34 3.47 228 13:47 16.12.2021
4242 Snow 1 1008 98 124 3.84 244 12:30 16.12.2021
4243 Clouds 0 1009 98 1546 4.38 246 11:19 16.12.2021
4244 Snow 0 1009 98 1546 4.38 246 10:44 16.12.2021
4245 Clouds 0 1010 97 10000 4.5 246 09:50 16.12.2021
4246 Snow -1 1011 92 530 5.71 238 07:18 16.12.2021
4247 Snow -1 1012 92 205 5.88 232 06:18 16.12.2021
4248 Clouds -1 1018 92 10000 4.23 219 23:59 15.12.2021
4249 Clouds -1 1018 92 10000 3.82 227 23:20 15.12.2021
4250 Clouds -2 1020 92 10000 3.81 240 22:21 15.12.2021
4251 Clouds -2 1020 92 10000 3.81 240 22:21 15.12.2021
4252 Clouds -2 1020 92 10000 3.81 240 21:45 15.12.2021
4253 Clouds -1 1020 97 10000 2.92 240 21:24 15.12.2021
4254 Clouds -2 1021 98 10000 2.58 249 19:54 15.12.2021
4255 Clouds -2 1021 91 10000 2.95 240 19:19 15.12.2021
4256 Clouds -2 1021 91 10000 2.76 235 18:24 15.12.2021
4257 Clouds -2 1021 91 10000 2.76 235 17:46 15.12.2021
4258 Clouds -2 1021 91 10000 2.49 236 17:21 15.12.2021
4259 Clouds -2 1021 91 10000 2.65 241 15:59 15.12.2021
4260 Clouds -2 1022 96 5021 2.8 248 15:41 15.12.2021
4261 Clouds -2 1022 96 5020 2.8 248 15:23 15.12.2021
4262 Clouds -2 1021 90 2473 2.91 249 13:48 15.12.2021
4263 Snow -2 1021 90 438 3.22 220 11:52 15.12.2021
4264 Clouds -2 1022 91 10000 3.03 231 10:23 15.12.2021
4265 Clouds -3 1022 91 7878 2.7 232 08:34 15.12.2021
4266 Clouds -3 1023 99 2626 1.72 229 05:59 15.12.2021
4267 Clouds -4 1024 99 6531 1.1 199 00:45 15.12.2021
4268 Clouds -4 1024 98 7355 1.23 187 23:41 14.12.2021
4269 Clouds -4 1024 97 10000 0.99 192 22:47 14.12.2021
4270 Clouds -4 1025 97 992 0.82 192 21:48 14.12.2021
4271 Clouds -4 1025 99 1741 1.08 162 20:24 14.12.2021
4272 Clouds -4 1025 99 1747 1.09 162 19:40 14.12.2021
4273 Clouds -4 1026 98 3190 1.13 149 18:42 14.12.2021
4274 Clouds -3 1026 98 3192 1.13 149 17:58 14.12.2021
4275 Clouds -3 1026 98 4017 1.35 135 16:58 14.12.2021
4276 Clouds -3 1026 98 4018 1.35 135 16:35 14.12.2021
4277 Clouds -3 1026 98 2016 1.34 106 14:39 14.12.2021
4278 Clouds -3 1026 98 4034 0.73 83 13:24 14.12.2021
4279 Clouds -3 1026 96 6626 0.86 93 11:57 14.12.2021
4280 Clouds -3 1026 96 4920 0.89 84 11:23 14.12.2021
4281 Clouds -3 1026 97 2181 1.01 98 09:56 14.12.2021
4282 Clouds -3 1027 97 4780 0.8 86 09:34 14.12.2021
4283 Clouds -3 1027 98 1077 0.69 72 08:23 14.12.2021
4284 Clouds -3 1027 98 1077 0.69 72 07:43 14.12.2021
4285 Snow -3 1026 92 166 0.37 109 02:25 14.12.2021
4286 Snow -2 1026 92 161 1.08 132 22:50 13.12.2021
4287 Snow -2 1026 92 119 0.63 142 21:52 13.12.2021
4288 Snow -2 1026 92 130 0.32 170 20:59 13.12.2021
4289 Snow -2 1026 92 130 0.32 170 20:34 13.12.2021
4290 Snow -2 1026 92 133 0.88 181 19:52 13.12.2021
4291 Snow -2 1026 98 139 1.81 175 17:56 13.12.2021
4292 Snow -2 1026 92 143 2.01 177 17:24 13.12.2021
4293 Snow -2 1026 92 162 2.35 175 15:51 13.12.2021
4294 Snow -2 1026 98 142 2.53 178 15:19 13.12.2021
4295 Snow -2 1026 91 165 2.4 177 13:39 13.12.2021
4296 Snow -3 1026 97 242 2.71 179 12:46 13.12.2021
4297 Snow -3 1026 97 253 2.77 178 12:46 13.12.2021
4298 Snow -3 1026 98 152 2.92 177 11:54 13.12.2021
4299 Snow -3 1026 98 132 2.99 175 11:35 13.12.2021
4300 Snow -3 1026 98 132 2.99 175 10:44 13.12.2021
4301 Snow -3 1027 93 1975 3.73 170 09:29 13.12.2021
4302 Clouds -3 1027 93 10000 3.55 166 07:48 13.12.2021
4303 Clouds -4 1027 93 10000 3.41 158 05:35 13.12.2021
4304 Snow -4 1028 91 10000 3.56 151 03:26 13.12.2021
4305 Clouds -4 1031 95 10000 2.94 145 22:23 12.12.2021
4306 Clouds -3 1031 95 10000 2.94 145 21:40 12.12.2021
4307 Clouds -3 1031 97 10000 2.77 144 19:57 12.12.2021
4308 Clouds -4 1032 96 10000 2.76 141 18:36 12.12.2021
4309 Clouds -4 1032 96 10000 2.76 141 18:36 12.12.2021
4310 Clouds -5 1032 96 10000 2.92 145 17:38 12.12.2021
4311 Clouds -5 1033 97 10000 2.95 143 16:28 12.12.2021
4312 Clouds -6 1033 97 10000 2.95 143 15:46 12.12.2021
4313 Clouds -6 1033 96 10000 3.23 148 15:25 12.12.2021
4314 Clouds -6 1033 96 10000 3.23 148 14:34 12.12.2021
4315 Clouds -7 1032 95 10000 3.4 138 13:26 12.12.2021
4316 Clouds -7 1032 90 10000 3.5 143 12:30 12.12.2021
4317 Clouds -8 1032 95 10000 3.5 143 11:44 12.12.2021
4318 Clouds -8 1032 95 10000 3.6 145 11:22 12.12.2021
4319 Clouds -8 1033 90 10000 3.48 148 10:28 12.12.2021
4320 Clouds -9 1033 90 10000 3.48 148 09:38 12.12.2021
4321 Clouds -10 1033 90 10000 3.69 138 08:33 12.12.2021
4322 Clouds -10 1033 93 10000 3.48 133 06:19 12.12.2021
4323 Clouds -10 1033 93 10000 3.64 125 04:56 12.12.2021
4324 Clouds -11 1034 90 10000 3.63 120 03:57 12.12.2021
4325 Clouds -12 1035 89 10000 3.58 112 23:47 11.12.2021
4326 Clouds -13 1035 92 10000 3.34 122 22:23 11.12.2021
4327 Clouds -13 1035 92 10000 3.34 122 21:52 11.12.2021
4328 Clouds -13 1035 92 10000 3.72 115 21:18 11.12.2021
4329 Clouds -14 1035 93 10000 3.45 115 19:31 11.12.2021
4330 Clouds -15 1035 93 10000 3.13 112 18:53 11.12.2021
4331 Clouds -15 1035 93 10000 3.31 111 18:26 11.12.2021
4332 Clouds -15 1035 91 10000 3.26 108 17:24 11.12.2021
4333 Clouds -15 1035 94 10000 2.88 101 15:55 11.12.2021
4334 Clouds -15 1035 94 10000 2.88 101 15:35 11.12.2021
4335 Clouds -13 1034 89 10000 3.18 108 13:21 11.12.2021
4336 Clouds -14 1034 90 10000 3.2 113 11:46 11.12.2021
4337 Clouds -15 1035 90 10000 3.44 113 09:57 11.12.2021
4338 Clouds -16 1035 89 10000 3.44 113 09:34 11.12.2021
4339 Clouds -17 1035 91 10000 3.42 104 02:41 11.12.2021
4340 Clouds -15 1035 92 10000 3.35 104 00:42 11.12.2021
4341 Clouds -15 1035 92 10000 3.6 105 23:24 10.12.2021
4342 Clear -15 1035 92 10000 3.63 103 22:26 10.12.2021
4343 Clear -15 1035 91 10000 3.63 103 21:37 10.12.2021
4344 Clear -14 1034 87 10000 3.52 106 19:23 10.12.2021
4345 Clear -13 1034 87 10000 3.49 107 18:57 10.12.2021
4346 Clear -14 1034 87 10000 3.19 99 17:23 10.12.2021
4347 Clear -13 1034 87 10000 3.19 99 16:32 10.12.2021
4348 Clear -13 1034 96 10000 2.14 93 15:42 10.12.2021
4349 Clear -13 1034 96 10000 2.14 93 15:23 10.12.2021
4350 Clear -12 1034 94 10000 2.22 88 13:53 10.12.2021
4351 Clear -12 1033 86 10000 2.84 96 13:31 10.12.2021
4352 Clear -11 1033 87 10000 2.8 96 12:51 10.12.2021
4353 Clear -12 1033 90 10000 2.97 99 11:34 10.12.2021
4354 Clear -12 1033 90 10000 3.13 100 10:55 10.12.2021
4355 Clear -13 1034 88 10000 2.95 97 09:33 10.12.2021
4356 Clear -15 1033 96 10000 2.02 80 07:24 10.12.2021
4357 Clouds -16 1032 96 10000 1.99 93 04:32 10.12.2021
4358 Clouds -15 1032 97 10000 1.58 78 02:29 10.12.2021
4359 Clear -15 1032 97 10000 1.46 63 23:39 09.12.2021
4360 Clear -14 1031 96 10000 1.84 50 22:41 09.12.2021
4361 Clear -14 1031 96 10000 1.85 43 22:21 09.12.2021
4362 Clear -14 1031 97 10000 1.7 21 21:38 09.12.2021
4363 Clear -13 1031 97 10000 1.7 21 20:34 09.12.2021
4364 Clear -13 1030 96 10000 2.04 28 19:38 09.12.2021
4365 Clear -12 1030 96 10000 2.04 28 19:19 09.12.2021
4366 Clear -13 1030 96 10000 2.23 23 18:18 09.12.2021
4367 Clear -13 1030 96 10000 2.23 23 17:47 09.12.2021
4368 Clear -12 1029 96 10000 1.97 21 17:24 09.12.2021
4369 Clear -11 1029 95 10000 2.1 16 16:25 09.12.2021
4370 Clear -10 1028 95 10000 1.83 13 14:59 09.12.2021
4371 Clear -9 1027 92 10000 2.56 12 13:52 09.12.2021
4372 Clear -8 1026 89 10000 3.12 15 12:48 09.12.2021
4373 Clear -8 1026 86 10000 3.28 16 11:33 09.12.2021
4374 Clear -9 1026 89 10000 3.35 18 10:20 09.12.2021
4375 Clouds -10 1025 92 10000 2.75 17 06:59 09.12.2021
4376 Clouds -9 1023 90 10000 3.95 18 03:56 09.12.2021
4377 Clouds -9 1023 90 10000 3.59 21 00:25 09.12.2021
4378 Snow -9 1023 90 10000 3.59 21 23:37 08.12.2021
4379 Clouds -9 1023 90 10000 3.81 13 22:57 08.12.2021
4380 Snow -9 1023 91 10000 3.9 14 22:25 08.12.2021
4381 Snow -9 1023 91 10000 3.9 14 21:33 08.12.2021
4382 Snow -8 1023 91 10000 3.93 11 20:48 08.12.2021
4383 Clouds -9 1023 92 10000 3.67 12 19:56 08.12.2021
4384 Clouds -9 1023 92 10000 3.43 16 19:20 08.12.2021
4385 Snow -10 1023 93 10000 3.31 10 18:22 08.12.2021
4386 Clouds -9 1023 93 10000 3.43 9 16:53 08.12.2021
4387 Clouds -9 1023 93 10000 3.48 6 15:42 08.12.2021
4388 Snow -7 1022 93 10000 3.51 4 15:22 08.12.2021
4389 Clouds -7 1022 92 10000 3.22 357 13:26 08.12.2021
4390 Clouds -7 1021 92 10000 3.41 358 10:45 08.12.2021
4391 Clouds -7 1021 92 10000 3.41 358 10:45 08.12.2021
4392 Clouds -7 1021 93 10000 3.49 356 09:58 08.12.2021
4393 Clouds -5 1021 94 10000 3.18 352 08:54 08.12.2021
4394 Clouds -5 1020 95 10000 3.06 342 06:36 08.12.2021
4395 Snow -2 1016 92 10000 3.07 328 01:20 08.12.2021
4396 Clouds -1 1015 92 10000 2.88 325 23:23 07.12.2021
4397 Snow 0 1014 92 2241 2.43 317 21:26 07.12.2021
4398 Clouds -1 1013 99 55 1.63 289 20:26 07.12.2021
4399 Clouds -1 1013 99 55 1.63 289 20:26 07.12.2021
4400 Snow 1 1012 92 23 1.48 206 19:23 07.12.2021
4401 Snow 1 1012 92 23 1.48 206 18:32 07.12.2021
4402 Snow 0 1012 92 22 1.99 175 17:27 07.12.2021
4403 Snow 0 1012 91 22 1.99 175 16:56 07.12.2021
4404 Snow 0 1012 91 23 2.31 171 16:26 07.12.2021
4405 Snow 0 1012 91 23 2.92 168 14:38 07.12.2021
4406 Snow -1 1012 91 36 3.48 158 13:45 07.12.2021
4407 Snow -1 1011 90 147 4.17 148 12:27 07.12.2021
4408 Snow -2 1012 90 137 4.59 148 11:23 07.12.2021
4409 Snow -2 1012 97 145 5.08 149 09:40 07.12.2021
4410 Snow -2 1013 91 139 5.99 140 07:52 07.12.2021
4411 Snow -3 1015 90 137 6.17 129 05:54 07.12.2021
4412 Snow -3 1015 90 134 5.95 127 05:26 07.12.2021
4413 Snow -3 1015 90 134 5.95 127 05:26 07.12.2021
4414 Snow -4 1020 88 10000 4.72 128 23:38 06.12.2021
4415 Clouds -4 1020 87 10000 4.19 126 22:41 06.12.2021
4416 Clouds -4 1021 87 10000 4 128 22:18 06.12.2021
4417 Clouds -4 1021 87 10000 4 128 21:36 06.12.2021
4418 Snow -4 1021 87 10000 4.28 129 20:33 06.12.2021
4419 Clouds -4 1021 88 10000 4.3 128 20:33 06.12.2021
4420 Clouds -3 1022 89 10000 3.94 125 19:25 06.12.2021
4421 Clouds -3 1022 89 10000 3.85 122 18:55 06.12.2021
4422 Clouds -4 1022 89 10000 3.67 124 17:55 06.12.2021
4423 Clouds -4 1022 90 10000 3.41 124 17:34 06.12.2021
4424 Clouds -4 1022 90 10000 3.41 124 17:34 06.12.2021
4425 Snow -4 1022 92 10000 3.26 118 15:52 06.12.2021
4426 Clouds -4 1022 89 10000 3.33 116 14:51 06.12.2021
4427 Snow -4 1022 89 10000 3.01 110 13:36 06.12.2021
4428 Clouds -4 1022 89 10000 2.87 108 12:39 06.12.2021
4429 Clouds -4 1022 88 10000 2.5 128 10:30 06.12.2021
4430 Clouds -3 1022 97 10000 2.13 127 07:41 06.12.2021
4431 Clouds -4 1020 97 1019 1.62 144 03:52 06.12.2021
4432 Snow -4 1018 98 6492 1.15 190 22:28 05.12.2021
4433 Clouds -4 1018 98 10000 1.4 185 21:26 05.12.2021
4434 Snow -4 1018 98 10000 1.4 185 20:59 05.12.2021
4435 Clouds -3 1017 98 10000 1.24 183 20:18 05.12.2021
4436 Clouds -3 1017 98 10000 1.24 183 19:33 05.12.2021
4437 Clouds -2 1016 88 10000 2.06 203 18:39 05.12.2021
4438 Snow -2 1016 88 10000 2.28 198 18:18 05.12.2021
4439 Snow -2 1016 88 10000 2.28 198 17:45 05.12.2021
4440 Clouds -2 1015 88 10000 1.98 192 16:41 05.12.2021
4441 Snow -2 1015 88 1441 2.36 198 16:22 05.12.2021
4442 Snow -2 1015 98 246 1.77 176 14:48 05.12.2021
4443 Snow -2 1015 98 246 1.77 176 14:30 05.12.2021
4444 Clouds -2 1015 87 2242 1.39 165 13:38 05.12.2021
4445 Snow -2 1014 98 431 1.66 195 12:55 05.12.2021
4446 Clouds -2 1014 96 534 2.1 206 12:29 05.12.2021
4447 Snow -2 1014 96 534 2.1 206 11:49 05.12.2021
4448 Snow -2 1014 95 711 2.35 205 10:52 05.12.2021
4449 Snow -2 1014 87 506 2.42 204 09:58 05.12.2021
4450 Snow -3 1013 96 2720 2.08 192 07:33 05.12.2021
4451 Snow -5 1013 97 266 1.23 132 02:25 05.12.2021
4452 Snow -5 1012 97 372 0.77 204 23:31 04.12.2021
4453 Snow -6 1012 98 10000 1.3 227 21:54 04.12.2021
4454 Clouds -6 1012 84 10000 2.13 244 20:50 04.12.2021
4455 Snow -6 1011 83 10000 2.79 248 19:55 04.12.2021
4456 Clouds -6 1011 82 10000 2.79 248 19:31 04.12.2021
4457 Snow -6 1010 81 9518 3.59 257 17:59 04.12.2021
4458 Clouds -6 1010 93 9520 3.59 257 17:38 04.12.2021
4459 Snow -5 1010 92 10000 3.97 258 16:48 04.12.2021
4460 Snow -5 1010 92 10000 3.97 258 16:48 04.12.2021
4461 Snow -4 1009 89 10000 4.44 258 16:30 04.12.2021
4462 Snow -4 1008 83 10000 4.84 257 15:18 04.12.2021
4463 Snow -3 1006 83 10000 5.87 260 11:50 04.12.2021
4464 Snow -3 1006 83 10000 5.87 260 11:32 04.12.2021
4465 Clouds -3 1006 85 10000 6.17 261 10:43 04.12.2021
4466 Clouds -3 1004 85 10000 6.76 256 08:46 04.12.2021
4467 Clouds -3 1002 87 10000 6.29 237 06:26 04.12.2021
4468 Clouds -3 1002 91 8505 5.77 240 04:42 04.12.2021
4469 Clouds 0 1000 91 10000 5.13 243 00:18 04.12.2021
4470 Clouds 0 1000 91 10000 4.6 243 23:20 03.12.2021
4471 Snow 0 1000 91 10000 4.6 243 22:41 03.12.2021
4472 Clouds 0 1000 91 10000 3.93 234 21:25 03.12.2021
4473 Snow 0 1000 93 10000 3.93 234 20:52 03.12.2021
4474 Snow 0 999 97 5620 3.31 227 19:50 03.12.2021
4475 Snow 0 999 99 129 2.78 219 18:34 03.12.2021
4476 Snow 1 1000 90 90 2.85 206 17:59 03.12.2021
4477 Snow 0 1000 99 230 2.78 181 15:47 03.12.2021
4478 Rain 2 1001 87 10000 3.8 200 12:54 03.12.2021
4479 Clouds 2 1000 90 10000 3.63 202 11:49 03.12.2021
4480 Clouds 2 1001 87 10000 4.22 208 10:55 03.12.2021
4481 Clouds 1 1000 91 10000 4.49 227 08:27 03.12.2021
4482 Clouds 1 1000 90 10000 4.49 227 07:43 03.12.2021
4483 Snow 1 998 91 10000 4.47 224 04:44 03.12.2021
4484 Clouds 0 997 90 10000 5.5 224 00:48 03.12.2021
4485 Snow 0 997 90 10000 6.5 231 23:47 02.12.2021
4486 Clouds 0 997 89 10000 4.83 209 22:36 02.12.2021
4487 Clouds -1 997 89 10000 4.83 209 21:41 02.12.2021
4488 Snow -1 997 88 241 4.42 205 20:44 02.12.2021
4489 Clouds -2 997 88 1324 4.27 191 20:20 02.12.2021
4490 Snow -2 998 87 945 4.76 182 18:36 02.12.2021
4491 Clouds -3 998 87 1365 5.25 175 16:33 02.12.2021
4492 Snow -4 999 96 144 4.5 163 15:37 02.12.2021
4493 Snow -4 999 96 144 4.5 163 14:51 02.12.2021
4494 Snow -4 1000 88 10000 3.52 176 13:26 02.12.2021
4495 Snow -4 1000 89 10000 3.29 183 12:23 02.12.2021
4496 Snow -4 1001 89 10000 3.45 205 10:42 02.12.2021
4497 Snow -5 1002 84 10000 3.42 226 09:26 02.12.2021
4498 Clouds -6 1001 86 10000 3.41 237 06:59 02.12.2021
4499 Snow -6 998 91 10000 4.4 263 00:59 02.12.2021
4500 Snow -5 998 86 10000 4.42 265 23:34 01.12.2021
4501 Snow -5 996 86 10000 4.4 262 22:25 01.12.2021
4502 Snow -6 996 86 10000 4.4 262 21:43 01.12.2021
4503 Clouds -5 994 86 10000 4.49 266 20:23 01.12.2021
4504 Clouds -5 994 86 10000 4.49 266 19:40 01.12.2021
4505 Clouds -4 994 86 10000 4.82 273 18:42 01.12.2021
4506 Clouds -4 992 86 9981 5.14 268 17:24 01.12.2021
4507 Clouds -4 991 85 10000 5.16 265 16:21 01.12.2021
4508 Snow -4 991 84 10000 5.09 263 14:30 01.12.2021
4509 Snow -4 990 84 10000 4.98 262 13:37 01.12.2021
4510 Snow -3 989 83 10000 5.56 251 10:44 01.12.2021
4511 Snow -3 988 90 6784 5.81 247 10:22 01.12.2021
4512 Clouds -3 988 90 982 5.72 244 08:52 01.12.2021
4513 Snow -3 987 91 245 5.52 240 07:58 01.12.2021
4514 Snow -3 987 91 245 5.52 240 07:31 01.12.2021
4515 Snow -3 985 91 1736 6.94 250 03:55 01.12.2021
4516 Snow -3 985 91 1480 7.29 242 03:27 01.12.2021
4517 Snow -2 985 91 279 7.3 233 00:34 01.12.2021
4518 Snow -2 983 91 10000 7.31 249 23:29 30.11.2021
4519 Snow -3 981 91 10000 8.63 257 22:32 30.11.2021
4520 Snow -3 981 91 2372 8.52 251 20:47 30.11.2021
4521 Snow -3 980 91 1156 8.98 247 20:25 30.11.2021
4522 Snow -2 980 92 1156 8.98 247 19:39 30.11.2021
4523 Snow -2 979 92 662 9.29 246 18:54 30.11.2021
4524 Snow -2 976 91 875 9.78 243 17:46 30.11.2021
4525 Snow -2 973 92 653 9.21 233 16:25 30.11.2021
4526 Snow -1 972 91 823 8.82 211 14:35 30.11.2021
4527 Snow 0 972 91 823 8.82 211 13:41 30.11.2021
4528 Snow 0 972 91 3602 8.82 207 12:54 30.11.2021
4529 Snow 1 973 90 8634 9.23 207 12:21 30.11.2021
4530 Snow 1 973 89 9500 9.3 205 11:26 30.11.2021
4531 Rain 2 973 89 10000 9.82 210 10:36 30.11.2021
4532 Rain 4 973 91 10000 10.36 214 08:59 30.11.2021
4533 Rain 4 973 91 10000 10.36 214 08:40 30.11.2021
4534 Rain 5 973 92 10000 10.82 215 08:19 30.11.2021
4535 Rain 6 973 86 10000 11.08 215 06:39 30.11.2021
4536 Rain 5 973 95 9679 6.66 107 01:52 30.11.2021
4537 Rain 4 976 96 5919 6.99 94 01:31 30.11.2021
4538 Rain 4 980 97 6384 6.17 98 23:54 29.11.2021
4539 Rain 4 983 97 333 6.02 96 23:20 29.11.2021
4540 Rain 4 983 97 334 6.02 96 22:44 29.11.2021
4541 Rain 4 985 98 118 5.58 96 22:25 29.11.2021
4542 Clouds 4 988 98 115 5.38 98 21:21 29.11.2021
4543 Clouds 4 988 98 115 5.38 98 20:56 29.11.2021
4544 Rain 4 990 98 166 5.1 104 20:22 29.11.2021
4545 Clouds 4 990 98 166 5.1 104 19:44 29.11.2021
4546 Clouds 4 992 98 159 5.16 114 19:25 29.11.2021
4547 Clouds 5 992 98 149 4.71 112 18:45 29.11.2021
4548 Clouds 4 996 98 324 4.62 122 17:22 29.11.2021
4549 Clouds 4 996 98 324 4.62 122 16:56 29.11.2021
4550 Rain 4 997 98 384 4.89 110 16:25 29.11.2021
4551 Clouds 4 998 98 1014 4.18 103 15:24 29.11.2021
4552 Clouds 4 998 98 1014 4.18 103 14:41 29.11.2021
4553 Clouds 4 1000 98 8859 3.56 110 13:25 29.11.2021
4554 Clouds 4 1001 96 10000 4.11 122 12:22 29.11.2021
4555 Clouds 3 1002 95 10000 4.29 123 11:31 29.11.2021
4556 Clouds 3 1003 94 10000 3.91 120 10:27 29.11.2021
4557 Rain 4 1005 94 10000 3.58 123 08:30 29.11.2021
4558 Rain 3 1006 96 10000 3.92 130 05:58 29.11.2021
4559 Rain 2 1009 89 10000 2.65 126 01:35 29.11.2021
4560 Rain 2 1009 91 10000 1.77 141 00:36 29.11.2021
4561 Rain 2 1009 91 10000 1.77 141 23:42 28.11.2021
4562 Clouds 3 1010 93 10000 1.5 187 22:30 28.11.2021
4563 Rain 3 1010 93 10000 1.5 187 21:41 28.11.2021
4564 Clouds 2 1010 94 10000 1.64 208 20:51 28.11.2021
4565 Clouds 2 1009 94 10000 1.98 204 19:55 28.11.2021
4566 Clouds 3 1009 92 10000 2.5 210 18:45 28.11.2021
4567 Clouds 3 1008 91 10000 2.85 208 18:26 28.11.2021
4568 Clouds 3 1008 91 10000 2.85 208 17:49 28.11.2021
4569 Clouds 3 1008 90 10000 2.83 205 17:27 28.11.2021
4570 Clouds 3 1007 88 10000 3.07 212 16:28 28.11.2021
4571 Clouds 3 1007 88 10000 3.07 212 15:52 28.11.2021
4572 Clouds 3 1007 86 10000 3.34 211 14:56 28.11.2021
4573 Clouds 3 1006 85 10000 3.51 218 14:30 28.11.2021
4574 Rain 4 1006 84 10000 4.14 223 12:55 28.11.2021
4575 Rain 4 1005 83 10000 4.02 222 11:57 28.11.2021
4576 Clouds 4 1004 84 10000 4.2 222 10:37 28.11.2021
4577 Clouds 5 1003 84 10000 4.38 226 10:19 28.11.2021
4578 Clouds 5 1003 82 10000 5.19 227 09:36 28.11.2021
4579 Clouds 5 1000 87 10000 4.94 224 05:50 28.11.2021
4580 Rain 3 999 98 332 4.68 183 23:23 27.11.2021
4581 Clouds 3 1000 97 24 5.59 170 20:33 27.11.2021
4582 Rain 2 1000 97 25 5.82 165 18:49 27.11.2021
4583 Snow 2 1001 97 38 6.46 145 16:31 27.11.2021
4584 Snow 1 1002 90 10000 6.64 146 15:32 27.11.2021
4585 Snow 2 1003 89 10000 6.51 148 13:47 27.11.2021
4586 Clouds 2 1005 89 10000 5.83 145 12:29 27.11.2021
4587 Clouds 2 1005 89 10000 5.18 147 10:32 27.11.2021
4588 Clouds 3 1007 88 10000 5.34 151 09:43 27.11.2021
4589 Rain 3 1008 87 10000 5.18 152 08:40 27.11.2021
4590 Clouds 3 1009 94 10000 4.26 173 04:58 27.11.2021
4591 Clouds 2 1009 98 42 3.35 176 01:53 27.11.2021
4592 Rain 3 1010 98 544 3.48 190 23:35 26.11.2021
4593 Rain 3 1010 94 10000 4.23 214 22:25 26.11.2021
4594 Clouds 3 1010 94 10000 4.23 214 21:36 26.11.2021
4595 Clouds 3 1009 93 10000 4.6 216 20:53 26.11.2021
4596 Clouds 3 1009 92 10000 4.72 216 20:19 26.11.2021
4597 Clouds 3 1009 92 10000 4.72 216 19:47 26.11.2021
4598 Clouds 2 1008 90 10000 5.25 216 18:33 26.11.2021
4599 Rain 2 1007 91 10000 5.37 214 17:23 26.11.2021
4600 Clouds 3 1007 89 10000 5.88 215 15:57 26.11.2021
4601 Clouds 3 1006 88 10000 6.56 216 13:36 26.11.2021
4602 Clouds 3 1006 82 10000 6.72 213 12:34 26.11.2021
4603 Clouds 3 1006 81 10000 6.9 213 10:38 26.11.2021
4604 Clouds 2 1006 82 10000 7.09 209 08:59 26.11.2021
4605 Clouds 2 1007 82 10000 8.07 215 08:21 26.11.2021
4606 Clouds 2 1007 82 10000 7.08 210 07:33 26.11.2021
4607 Clouds 2 1007 83 10000 6.67 208 06:28 26.11.2021
4608 Clouds 2 1007 84 10000 6.66 207 04:51 26.11.2021
4609 Clouds 2 1008 85 10000 6.62 211 03:25 26.11.2021
4610 Clouds 2 1010 88 10000 6 215 23:27 25.11.2021
4611 Clouds 2 1011 89 10000 6.01 215 21:50 25.11.2021
4612 Rain 2 1011 89 10000 5.93 216 20:37 25.11.2021
4613 Rain 2 1012 89 10000 5.71 218 18:48 25.11.2021
4614 Rain 2 1012 89 10000 5.38 220 17:58 25.11.2021
4615 Clouds 2 1012 89 10000 5.15 220 17:26 25.11.2021
4616 Clouds 2 1012 89 10000 5.15 220 16:34 25.11.2021
4617 Rain 3 1012 89 10000 4.96 221 15:58 25.11.2021
4618 Clouds 3 1013 88 10000 4.64 225 14:19 25.11.2021
4619 Clouds 3 1013 88 10000 4.31 224 12:47 25.11.2021
4620 Clouds 3 1013 88 10000 3.75 226 11:52 25.11.2021
4621 Clouds 3 1013 87 10000 3.63 242 10:25 25.11.2021
4622 Clouds 1 1012 87 10000 4.01 263 06:24 25.11.2021
4623 Clouds 2 1011 88 10000 4.98 280 02:53 25.11.2021
4624 Clouds 1 1009 88 10000 5.81 278 23:39 24.11.2021
4625 Snow 1 1007 88 10000 6.56 270 22:28 24.11.2021
4626 Snow 1 1007 88 10000 6.56 270 21:45 24.11.2021
4627 Clouds 0 1007 96 8337 6.46 265 20:58 24.11.2021
4628 Clouds 0 1007 96 2073 6.42 258 20:26 24.11.2021
4629 Snow -1 1007 94 10000 6.54 256 18:58 24.11.2021
4630 Snow -1 1007 96 225 6.72 251 18:18 24.11.2021
4631 Snow -2 1008 94 245 7.59 238 16:20 24.11.2021
4632 Snow -2 1008 94 194 7.87 229 14:56 24.11.2021
4633 Snow -3 1009 93 259 7.91 217 14:21 24.11.2021
4634 Snow -3 1010 82 6605 7.49 218 12:51 24.11.2021
4635 Snow -4 1013 74 10000 6.71 222 11:22 24.11.2021
4636 Snow -4 1013 74 10000 6.71 222 10:50 24.11.2021
4637 Clouds -4 1014 73 10000 6.38 223 10:27 24.11.2021
4638 Clouds -6 1015 87 10000 6.04 221 08:35 24.11.2021
4639 Clouds -7 1016 87 10000 5.44 220 07:31 24.11.2021
4640 Clouds -8 1017 85 10000 4.13 233 03:59 24.11.2021
4641 Clouds -7 1017 84 10000 3.9 237 02:44 24.11.2021
4642 Clouds -6 1018 83 10000 3.47 249 23:33 23.11.2021
4643 Clouds -7 1018 83 10000 3.47 249 22:38 23.11.2021
4644 Clouds -6 1018 83 10000 3.18 247 21:45 23.11.2021
4645 Clouds -6 1018 83 10000 2.88 247 20:22 23.11.2021
4646 Clouds -6 1018 83 10000 2.76 242 19:29 23.11.2021
4647 Clouds -5 1018 82 10000 2.82 240 18:33 23.11.2021
4648 Clouds -5 1018 81 10000 2.35 250 17:30 23.11.2021
4649 Clouds -4 1018 84 10000 2.35 250 16:35 23.11.2021
4650 Clouds -4 1018 82 10000 2.07 239 15:27 23.11.2021
4651 Clouds -3 1018 82 10000 2.07 239 14:45 23.11.2021
4652 Clouds -2 1017 81 10000 1.78 251 13:20 23.11.2021
4653 Clouds -3 1018 77 10000 2.29 281 10:28 23.11.2021
4654 Clouds -4 1018 77 10000 2.29 281 09:47 23.11.2021
4655 Clouds -5 1017 81 10000 2.41 271 07:58 23.11.2021
4656 Clouds -7 1017 84 10000 2.91 276 04:53 23.11.2021
4657 Clouds -6 1017 82 10000 2.88 277 03:32 23.11.2021
4658 Clouds -5 1017 79 10000 3.41 290 23:41 22.11.2021
4659 Clouds -5 1017 79 10000 3.52 293 23:19 22.11.2021
4660 Clouds -4 1017 78 10000 3.52 293 22:30 22.11.2021
4661 Clouds -4 1016 77 10000 3.69 295 21:45 22.11.2021
4662 Clouds -4 1015 76 10000 3.86 296 21:19 22.11.2021
4663 Clouds -3 1015 76 10000 3.86 296 20:42 22.11.2021
4664 Clouds -3 1014 76 10000 4.46 299 19:21 22.11.2021
4665 Clouds -2 1015 76 10000 4.19 297 18:41 22.11.2021
4666 Clouds -2 1014 76 10000 4.37 298 18:21 22.11.2021
4667 Clouds -2 1014 76 10000 4.49 296 16:45 22.11.2021
4668 Clouds -2 1013 76 10000 4.55 300 15:32 22.11.2021
4669 Clouds -2 1010 77 10000 5.78 301 12:51 22.11.2021
4670 Clouds -1 1009 80 10000 5.69 302 11:39 22.11.2021
4671 Snow -1 1008 80 10000 5.92 304 10:27 22.11.2021
4672 Clouds -1 1006 81 10000 6.05 307 08:44 22.11.2021
4673 Clear -1 1005 82 10000 5.57 307 08:24 22.11.2021
4674 Clouds 0 999 88 10000 4.71 295 01:43 22.11.2021
4675 Clouds 1 997 89 10000 2.42 307 23:21 21.11.2021
4676 Clouds 1 997 89 10000 2.42 307 22:45 21.11.2021
4677 Clouds 1 995 89 10000 1.93 281 21:33 21.11.2021
4678 Clouds 1 995 88 10000 1.81 277 20:38 21.11.2021
4679 Clouds 1 995 87 10000 1.81 277 19:43 21.11.2021
4680 Clouds 1 995 87 10000 1.81 277 19:43 21.11.2021
4681 Clouds 1 995 85 10000 2.35 249 17:59 21.11.2021
4682 Snow 1 995 92 10000 2.75 251 17:36 21.11.2021
4683 Clouds 2 996 81 10000 3.66 269 15:21 21.11.2021
4684 Clouds 2 996 80 10000 3.66 269 14:42 21.11.2021
4685 Clouds 3 995 78 10000 4.89 270 13:23 21.11.2021
4686 Clouds 3 995 80 10000 4.94 273 12:27 21.11.2021
4687 Clouds 3 995 80 10000 4.94 273 11:39 21.11.2021
4688 Clouds 2 995 87 10000 5.26 270 10:20 21.11.2021
4689 Clouds 2 995 87 10000 5.26 270 09:47 21.11.2021
4690 Clouds 2 996 87 10000 5.02 268 08:34 21.11.2021
4691 Clouds 2 995 87 10000 5.38 271 07:57 21.11.2021
4692 Rain 2 995 88 10000 5.38 271 07:39 21.11.2021
4693 Snow 1 994 90 10000 5.24 285 05:47 21.11.2021
4694 Rain 1 994 84 10000 6.19 292 04:35 21.11.2021
4695 Rain 2 993 89 7771 6.33 286 03:18 21.11.2021
4696 Rain 2 993 89 7771 6.33 286 02:42 21.11.2021
4697 Rain 2 993 89 7937 6.99 283 00:53 21.11.2021
4698 Clouds 1 992 91 10000 6.53 275 23:22 20.11.2021
4699 Rain 1 992 85 10000 7 281 21:39 20.11.2021
4700 Clouds 1 992 87 10000 6.31 282 20:50 20.11.2021
4701 Clouds 1 992 88 5726 6.06 301 18:46 20.11.2021
4702 Clouds 1 991 88 10000 7.6 310 18:26 20.11.2021
4703 Clouds 1 990 91 10000 7.91 318 17:22 20.11.2021
4704 Clouds 1 990 91 10000 7.91 318 17:22 20.11.2021
4705 Clouds 1 990 91 10000 7.91 318 16:42 20.11.2021
4706 Rain 1 988 91 45 7.84 322 14:43 20.11.2021
4707 Rain 2 986 91 28 7.62 323 14:23 20.11.2021
4708 Rain 2 982 90 24 6.2 324 11:57 20.11.2021
4709 Rain 3 980 90 24 4.73 320 10:35 20.11.2021
4710 Clouds 3 979 91 32 3.47 308 09:29 20.11.2021
4711 Snow 1 980 92 31 2.49 179 07:28 20.11.2021
4712 Snow 1 983 91 29 4.33 176 05:27 20.11.2021
4713 Snow 1 983 99 29 4.33 176 04:50 20.11.2021
4714 Snow 2 989 91 23 4.8 196 01:55 20.11.2021
4715 Snow 2 992 90 23 5.22 195 00:40 20.11.2021
4716 Snow 1 996 90 25 4.86 202 22:58 19.11.2021
4717 Clouds 1 998 97 25 4.75 196 22:21 19.11.2021
4718 Snow 2 1000 89 23 4.53 202 20:58 19.11.2021
4719 Clouds 2 1000 89 23 4.53 202 20:36 19.11.2021
4720 Snow 2 1001 88 56 4.03 197 19:55 19.11.2021
4721 Snow 2 1002 87 3606 4.13 204 18:54 19.11.2021
4722 Rain 2 1003 87 181 3.85 213 18:24 19.11.2021
4723 Rain 2 1004 86 72 3.6 230 17:36 19.11.2021
4724 Clouds 2 1005 86 2255 3.6 229 15:58 19.11.2021
4725 Clouds 3 1006 85 10000 3.21 231 13:55 19.11.2021
4726 Clouds 2 1008 86 10000 3.88 231 10:30 19.11.2021
4727 Clouds 2 1008 87 10000 3.88 231 09:38 19.11.2021
4728 Clouds 2 1008 87 10000 4 229 08:26 19.11.2021
4729 Clouds 1 1008 86 10000 4.69 225 04:54 19.11.2021
4730 Clouds 1 1008 83 10000 5.25 241 02:40 19.11.2021
4731 Snow 0 1010 89 10000 4.91 229 23:52 18.11.2021
4732 Snow 0 1010 87 10000 4.96 228 22:35 18.11.2021
4733 Clouds -1 1011 85 10000 5.08 221 20:56 18.11.2021
4734 Clouds -1 1011 85 10000 5.08 221 20:32 18.11.2021
4735 Snow -1 1011 85 10000 5.2 222 19:58 18.11.2021
4736 Snow -1 1011 85 10000 5.2 222 19:35 18.11.2021
4737 Snow -1 1012 62 10000 5.28 222 18:34 18.11.2021
4738 Snow -1 1013 59 10000 5.2 214 17:51 18.11.2021
4739 Clouds -1 1013 58 10000 5.13 208 16:45 18.11.2021
4740 Clouds -1 1014 80 10000 4.95 206 15:52 18.11.2021
4741 Clouds -1 1015 79 10000 4.71 201 14:18 18.11.2021
4742 Clouds -1 1016 81 10000 4.68 201 12:53 18.11.2021
4743 Snow -1 1016 46 10000 4.76 202 11:44 18.11.2021
4744 Snow -1 1017 45 10000 4.62 200 11:25 18.11.2021
4745 Clouds -1 1019 45 10000 4.51 202 10:21 18.11.2021
4746 Clouds -2 1020 83 10000 4.26 205 07:42 18.11.2021
4747 Clouds -2 1021 83 10000 3.77 201 06:39 18.11.2021
4748 Clouds -1 1021 83 10000 3.77 201 05:43 18.11.2021
4749 Clouds 0 1023 85 10000 2.96 219 01:25 18.11.2021
4750 Clouds 0 1023 89 10000 2.81 219 23:30 17.11.2021
4751 Clouds 0 1024 90 10000 2.57 220 22:39 17.11.2021
4752 Snow 0 1024 91 10000 2.4 221 22:18 17.11.2021
4753 Clouds 0 1024 91 10000 2.33 223 21:35 17.11.2021
4754 Clouds 0 1024 83 10000 2.13 230 19:31 17.11.2021
4755 Clouds 0 1024 82 10000 2.08 232 17:35 17.11.2021
4756 Clouds 0 1024 81 10000 1.87 234 15:54 17.11.2021
4757 Clouds 0 1024 81 10000 2.47 240 13:18 17.11.2021
4758 Clouds 0 1024 82 10000 2.5 239 12:36 17.11.2021
4759 Clouds 0 1025 83 10000 1.94 256 10:52 17.11.2021
4760 Clouds -1 1025 84 10000 2.36 275 09:38 17.11.2021
4761 Clouds -2 1025 85 10000 3.88 284 07:46 17.11.2021
4762 Clouds -2 1025 85 10000 4.14 285 07:23 17.11.2021
4763 Clouds -3 1025 85 10000 3.83 274 02:48 17.11.2021
4764 Clear -3 1025 83 10000 4.26 274 23:58 16.11.2021
4765 Clear -3 1025 82 10000 4.61 269 22:30 16.11.2021
4766 Clear -2 1026 80 10000 4.84 273 20:19 16.11.2021
4767 Clear -2 1026 82 10000 4.84 273 19:39 16.11.2021
4768 Clear -2 1027 82 10000 5.01 272 18:49 16.11.2021
4769 Clear -2 1027 81 10000 5.19 271 18:28 16.11.2021
4770 Clear -2 1027 80 10000 5.43 270 17:18 16.11.2021
4771 Clear -1 1028 79 10000 5.44 266 16:20 16.11.2021
4772 Clear -1 1028 78 10000 5.44 266 15:44 16.11.2021
4773 Clear 1 1028 78 10000 5.89 262 13:47 16.11.2021
4774 Clouds -1 1031 80 10000 5.46 256 10:27 16.11.2021
4775 Clouds -1 1031 81 10000 5.46 256 09:42 16.11.2021
4776 Clouds -3 1032 82 10000 5.45 257 07:53 16.11.2021
4777 Clouds -3 1032 82 10000 5.58 253 07:29 16.11.2021
4778 Clouds -2 1037 82 10000 3.66 236 23:54 15.11.2021
4779 Clouds -2 1038 82 10000 3.3 232 22:41 15.11.2021
4780 Clouds -2 1038 81 10000 2.7 231 22:20 15.11.2021
4781 Clouds -2 1038 81 10000 2.7 231 21:46 15.11.2021
4782 Clouds -2 1038 81 10000 2.2 228 21:21 15.11.2021
4783 Clouds -2 1038 79 10000 1.61 235 19:39 15.11.2021
4784 Clouds -1 1038 86 10000 0.64 260 17:50 15.11.2021
4785 Clouds 0 1038 85 10000 1.23 10 16:19 15.11.2021
4786 Clouds 0 1038 85 10000 1.23 10 15:39 15.11.2021
4787 Clouds 0 1038 78 10000 1.86 22 15:19 15.11.2021
4788 Clouds 1 1036 79 10000 3.18 15 12:43 15.11.2021
4789 Clouds 1 1035 78 10000 4.33 10 10:53 15.11.2021
4790 Clouds 0 1033 79 10000 5.14 2 09:24 15.11.2021
4791 Clouds 0 1032 82 10000 5.25 359 07:45 15.11.2021
4792 Snow 0 1029 83 10000 4.96 354 04:45 15.11.2021
4793 Clouds 1 1026 81 10000 5.5 323 22:47 14.11.2021
4794 Clouds 1 1026 88 10000 4.92 317 22:28 14.11.2021
4795 Rain 1 1026 89 585 4.25 294 19:51 14.11.2021
4796 Clouds 1 1026 88 10000 4.68 295 19:18 14.11.2021
4797 Clouds 1 1026 88 10000 4.68 295 18:54 14.11.2021
4798 Clouds 1 1026 87 10000 4.68 295 18:36 14.11.2021
4799 Snow 1 1026 87 7844 4.25 287 18:18 14.11.2021
4800 Snow 1 1026 87 7826 4.25 287 17:55 14.11.2021
4801 Snow 1 1026 87 7826 4.25 287 17:37 14.11.2021
4802 Rain 1 1026 87 28 3.53 270 17:19 14.11.2021
4803 Snow 1 1026 87 28 3.53 270 16:45 14.11.2021
4804 Clouds 1 1027 86 22 2.94 268 16:19 14.11.2021
4805 Rain 1 1027 86 23 2.64 264 15:22 14.11.2021
4806 Snow 1 1027 85 23 2.64 264 14:45 14.11.2021
4807 Snow 1 1028 84 43 2.49 264 14:26 14.11.2021
4808 Snow 1 1028 84 43 2.49 264 13:53 14.11.2021
4809 Snow 2 1028 84 43 2.49 264 13:35 14.11.2021
4810 Clouds 2 1028 82 10000 2.62 256 12:27 14.11.2021
4811 Rain 2 1028 80 10000 2.62 256 11:40 14.11.2021
4812 Clouds 2 1029 81 10000 2.31 250 10:41 14.11.2021
4813 Clouds 2 1029 83 10000 2.24 240 09:47 14.11.2021
4814 Rain 2 1030 83 10000 2.01 233 08:53 14.11.2021
4815 Clouds 2 1030 84 10000 1.12 235 06:54 14.11.2021
4816 Clouds 2 1028 84 10000 2.08 315 23:47 13.11.2021
4817 Clouds 2 1028 84 10000 2.49 295 22:25 13.11.2021
4818 Clouds 2 1028 84 10000 2.49 295 21:50 13.11.2021
4819 Clouds 2 1027 84 10000 2.37 296 21:20 13.11.2021
4820 Rain 2 1027 84 10000 2.45 308 19:38 13.11.2021
4821 Clouds 3 1027 84 10000 2.47 323 18:33 13.11.2021
4822 Clouds 3 1027 84 10000 2.91 329 18:33 13.11.2021
4823 Clouds 3 1027 84 10000 2.91 329 17:55 13.11.2021
4824 Clouds 3 1026 83 10000 3.07 319 16:37 13.11.2021
4825 Clouds 3 1025 83 10000 3.49 309 15:29 13.11.2021
4826 Clouds 4 1024 82 10000 3.65 308 14:20 13.11.2021
4827 Rain 4 1023 82 10000 4 309 13:18 13.11.2021
4828 Rain 4 1022 83 10000 3.6 309 12:22 13.11.2021
4829 Clouds 5 1022 83 10000 3.6 309 11:34 13.11.2021
4830 Rain 5 1022 84 10000 3.13 317 10:45 13.11.2021
4831 Clouds 4 1021 84 10000 3.92 326 10:20 13.11.2021
4832 Clouds 4 1021 85 10000 3.92 326 09:37 13.11.2021
4833 Clouds 4 1020 86 10000 4.53 319 08:56 13.11.2021
4834 Clouds 4 1020 86 10000 4.53 319 08:30 13.11.2021
4835 Clouds 3 1016 87 10000 5.76 306 04:48 13.11.2021
4836 Clouds 4 1016 87 10000 5.76 306 04:30 13.11.2021
4837 Clouds 4 1013 87 10000 5.88 302 01:36 13.11.2021
4838 Clouds 4 1011 87 897 5.72 293 22:58 12.11.2021
4839 Clouds 4 1010 87 10000 6.98 298 21:46 12.11.2021
4840 Clouds 4 1008 87 10000 7.25 298 19:54 12.11.2021
4841 Clouds 4 1008 87 10000 6.78 290 19:27 12.11.2021
4842 Clouds 4 1007 86 105 6.76 282 18:29 12.11.2021
4843 Rain 4 1007 85 10000 6.79 283 16:35 12.11.2021
4844 Clouds 4 1006 86 10000 6.8 283 15:33 12.11.2021
4845 Clouds 3 1004 88 10000 6.14 276 11:58 12.11.2021
4846 Clouds 2 1004 88 67 5.92 267 10:51 12.11.2021
4847 Clouds 0 1004 98 31 5.51 259 09:45 12.11.2021
4848 Snow 0 1005 88 81 5.38 248 08:39 12.11.2021
4849 Snow 1 1011 83 10000 3.59 202 03:18 12.11.2021
4850 Clouds 2 1015 86 10000 2.76 212 23:42 11.11.2021
4851 Clouds 1 1016 89 10000 2.93 222 22:36 11.11.2021
4852 Clouds 1 1017 90 10000 3.02 233 21:28 11.11.2021
4853 Clouds 2 1017 86 10000 3.02 233 20:42 11.11.2021
4854 Clouds 1 1018 91 10000 3.29 246 19:24 11.11.2021
4855 Clouds 2 1019 84 10000 3.49 243 17:58 11.11.2021
4856 Clouds 2 1019 84 10000 3.71 246 17:36 11.11.2021
4857 Clouds 2 1019 84 10000 4.5 249 15:18 11.11.2021
4858 Clouds 2 1019 83 10000 5.22 251 14:30 11.11.2021
4859 Clouds 2 1019 82 10000 5.22 251 13:40 11.11.2021
4860 Rain 2 1019 82 10000 5.5 251 12:51 11.11.2021
4861 Rain 2 1019 80 7517 6.13 246 11:30 11.11.2021
4862 Rain 2 1019 81 10000 6.15 247 09:49 11.11.2021
4863 Rain 2 1020 79 10000 6.43 244 08:19 11.11.2021
4864 Clouds 1 1021 79 10000 6.34 240 05:55 11.11.2021
4865 Snow -1 1024 83 10000 6.77 229 00:36 11.11.2021
4866 Snow 0 1026 80 204 6.6 224 22:32 10.11.2021
4867 Clouds 0 1027 80 371 6.46 225 21:33 10.11.2021
4868 Snow -1 1028 81 10000 6.64 228 20:51 10.11.2021
4869 Clouds -1 1028 81 10000 5.67 218 19:47 10.11.2021
4870 Clouds -1 1029 81 10000 5.45 218 19:28 10.11.2021
4871 Clouds -1 1030 81 10000 5.03 218 16:40 10.11.2021
4872 Clouds -1 1031 80 10000 4.69 216 15:46 10.11.2021
4873 Clouds 0 1032 78 10000 4.05 221 14:22 10.11.2021
4874 Clouds 1 1032 79 10000 3.86 225 13:26 10.11.2021
4875 Clouds 0 1033 68 10000 3.74 232 11:38 10.11.2021
4876 Clouds -1 1034 81 10000 3.13 246 09:18 10.11.2021
4877 Clouds -2 1034 81 10000 2.63 251 08:40 10.11.2021
4878 Clouds -2 1034 82 10000 2.43 269 06:43 10.11.2021
4879 Clouds -2 1034 82 10000 2.45 285 05:53 10.11.2021
4880 Clouds -2 1032 81 10000 3.54 324 01:31 10.11.2021
4881 Clouds -2 1030 79 10000 4.25 338 21:59 09.11.2021
4882 Clouds -2 1029 79 10000 4.62 337 20:34 09.11.2021
4883 Clear -1 1028 80 10000 5.27 343 19:28 09.11.2021
4884 Clear -1 1028 80 10000 5.27 343 18:47 09.11.2021
4885 Clear -1 1025 80 10000 6.26 346 16:29 09.11.2021
4886 Clear -1 1024 61 10000 6.17 345 15:20 09.11.2021
4887 Clear -1 1022 80 10000 6.31 347 13:31 09.11.2021
4888 Clouds -1 1019 58 10000 6.75 345 12:24 09.11.2021
4889 Clouds -1 1018 58 10000 6.93 347 10:53 09.11.2021
4890 Clouds 0 1017 86 10000 7 348 09:44 09.11.2021
4891 Clouds 0 1016 87 10000 6.96 349 08:53 09.11.2021
4892 Clouds 1 1013 90 10000 7.12 349 06:59 09.11.2021
4893 Rain 3 1005 87 32 4.21 320 02:35 09.11.2021
4894 Rain 3 1005 87 3391 4.11 282 01:50 09.11.2021
4895 Clouds 4 1004 86 10000 4.31 270 00:30 09.11.2021
4896 Clouds 4 1004 86 10000 4.31 270 00:30 09.11.2021
4897 Clouds 4 1004 86 10000 4.31 270 00:30 09.11.2021
4898 Clouds 4 1004 86 10000 4.31 270 00:30 09.11.2021
4899 Clouds 4 1003 85 10000 4.89 252 23:29 08.11.2021
4900 Clouds 4 1003 87 10000 4.89 252 22:36 08.11.2021
4901 Clouds 5 1003 88 10000 5.15 260 21:31 08.11.2021
4902 Clouds 6 1002 89 10000 5.15 252 20:33 08.11.2021
4903 Clouds 6 1002 89 10000 4.95 239 19:20 08.11.2021
4904 Rain 6 1002 88 10000 5.78 246 17:39 08.11.2021
4905 Rain 6 1002 88 10000 5.78 246 17:39 08.11.2021
4906 Rain 6 1000 88 10000 5.96 242 15:49 08.11.2021
4907 Clouds 6 1000 87 10000 5.68 240 14:56 08.11.2021
4908 Clouds 6 1000 86 10000 5.91 236 14:24 08.11.2021
4909 Clouds 6 1001 86 10000 5.53 232 12:59 08.11.2021
4910 Clouds 6 1001 94 10000 5.15 227 11:54 08.11.2021
4911 Clouds 6 1001 95 321 5.22 227 10:42 08.11.2021
4912 Rain 6 1002 86 164 5.61 219 08:57 08.11.2021
4913 Rain 5 1002 86 177 5.92 216 08:18 08.11.2021
4914 Rain 6 1003 84 10000 5.95 212 06:56 08.11.2021
4915 Rain 6 1005 84 10000 5.79 220 03:35 08.11.2021
4916 Clouds 7 1006 86 10000 6.24 214 00:20 08.11.2021
4917 Clouds 6 1007 87 10000 5.93 213 22:58 07.11.2021
4918 Rain 7 1007 87 10000 5.96 216 21:25 07.11.2021
4919 Rain 7 1008 87 10000 5.57 214 20:25 07.11.2021
4920 Clouds 6 1009 85 10000 5.37 208 18:35 07.11.2021
4921 Rain 5 1009 84 10000 5.37 208 17:42 07.11.2021
4922 Rain 5 1011 80 10000 3.99 197 16:26 07.11.2021
4923 Clouds 6 1012 77 10000 3.84 205 15:25 07.11.2021
4924 Clouds 6 1012 75 10000 3.61 213 14:27 07.11.2021
4925 Clouds 7 1012 76 10000 3.68 224 12:50 07.11.2021
4926 Clouds 6 1013 78 10000 4.36 257 11:41 07.11.2021
4927 Clouds 5 1013 82 10000 4.77 276 08:59 07.11.2021
4928 Clouds 5 1008 84 10000 8.53 271 02:58 07.11.2021
4929 Rain 5 1007 85 10000 8.22 268 02:25 07.11.2021
4930 Rain 7 1007 81 10000 6.71 231 22:56 06.11.2021
4931 Clouds 7 1008 82 10000 6.54 230 21:59 06.11.2021
4932 Rain 7 1008 81 10000 6.44 230 21:22 06.11.2021
4933 Clouds 7 1009 81 10000 6.35 237 20:29 06.11.2021
4934 Clouds 7 1010 81 10000 5.83 240 17:50 06.11.2021
4935 Clouds 7 1011 81 10000 6.93 245 16:35 06.11.2021
4936 Clouds 8 1011 79 10000 6.16 240 14:31 06.11.2021
4937 Clouds 8 1011 78 10000 6.11 244 13:37 06.11.2021
4938 Clouds 9 1011 80 10000 5.94 243 11:24 06.11.2021
4939 Clouds 8 1011 82 10000 5.21 235 09:20 06.11.2021
4940 Clouds 9 1012 85 10000 5.82 231 04:52 06.11.2021
4941 Rain 12 1012 89 10000 5.41 232 00:58 06.11.2021
4942 Rain 12 1012 90 10000 5.62 224 23:33 05.11.2021
4943 Clouds 12 1012 91 10000 5.62 224 22:33 05.11.2021
4944 Clouds 12 1013 91 10000 5.87 226 20:41 05.11.2021
4945 Clouds 12 1013 91 10000 6.13 222 20:18 05.11.2021
4946 Clouds 12 1013 91 10000 5.92 209 18:59 05.11.2021
4947 Clouds 12 1013 91 10000 5.92 209 18:38 05.11.2021
4948 Rain 11 1013 91 10000 6.09 203 16:50 05.11.2021
4949 Rain 11 1015 89 10000 6.17 196 14:41 05.11.2021
4950 Rain 10 1015 87 10000 6.31 191 12:50 05.11.2021
4951 Clouds 10 1018 88 10000 6.05 178 09:59 05.11.2021
4952 Rain 10 1019 90 10000 5.8 173 08:38 05.11.2021
4953 Clouds 9 1019 92 10000 5.42 162 06:50 05.11.2021
4954 Clouds 8 1020 92 10000 4.44 156 04:43 05.11.2021
4955 Clouds 7 1022 91 10000 3.36 156 02:24 05.11.2021
4956 Clouds 6 1023 89 10000 2.81 158 00:30 05.11.2021
4957 Clouds 5 1024 89 10000 2.65 165 22:59 04.11.2021
4958 Clouds 5 1024 89 10000 2.62 167 22:18 04.11.2021
4959 Clouds 6 1025 88 10000 2.6 180 21:30 04.11.2021
4960 Clouds 6 1025 88 10000 2.69 180 20:30 04.11.2021
4961 Clouds 6 1025 88 10000 2.69 180 20:30 04.11.2021
4962 Clouds 6 1025 88 10000 2.69 180 19:50 04.11.2021
4963 Clouds 6 1025 88 10000 2.69 186 19:28 04.11.2021
4964 Clouds 7 1025 87 10000 2.69 186 18:43 04.11.2021
4965 Clouds 7 1024 87 10000 3.12 199 17:36 04.11.2021
4966 Clouds 7 1024 87 10000 3.4 199 16:23 04.11.2021
4967 Clouds 9 1023 84 10000 4.03 219 14:19 04.11.2021
4968 Clouds 10 1022 86 10000 4.75 233 11:42 04.11.2021
4969 Clouds 9 1021 90 10000 5.3 224 09:29 04.11.2021
4970 Clouds 8 1021 92 10000 5.64 219 08:29 04.11.2021
4971 Clouds 8 1021 92 10000 5.64 219 07:34 04.11.2021
4972 Rain 7 1018 93 8691 5.61 158 23:52 03.11.2021
4973 Rain 7 1018 92 10000 5.46 149 22:49 03.11.2021
4974 Clouds 7 1018 92 10000 5.46 147 21:45 03.11.2021
4975 Rain 7 1018 92 10000 5.67 145 21:19 03.11.2021
4976 Clouds 7 1019 92 10000 5.73 147 20:33 03.11.2021
4977 Clouds 7 1019 92 10000 5.74 147 19:40 03.11.2021
4978 Rain 7 1018 92 10000 5.7 146 18:51 03.11.2021
4979 Rain 7 1019 92 10000 5.58 145 18:18 03.11.2021
4980 Clouds 7 1019 91 10000 6 143 17:20 03.11.2021
4981 Rain 6 1019 91 10000 5.83 135 15:56 03.11.2021
4982 Rain 6 1019 91 10000 5.83 135 15:38 03.11.2021
4983 Clouds 6 1019 90 10000 5.85 133 13:49 03.11.2021
4984 Rain 6 1019 89 10000 6.04 129 11:39 03.11.2021
4985 Clouds 6 1019 90 10000 6.08 130 10:53 03.11.2021
4986 Rain 6 1020 90 10000 5.74 126 10:18 03.11.2021
4987 Clouds 5 1020 91 10000 5.39 123 09:28 03.11.2021
4988 Rain 5 1020 92 10000 5.43 124 08:22 03.11.2021
4989 Clouds 5 1020 92 10000 5.54 125 07:38 03.11.2021
4990 Rain 3 1020 92 10000 5.05 106 04:24 03.11.2021
4991 Clouds 3 1021 92 10000 4.58 108 01:45 03.11.2021
4992 Clouds 3 1021 79 10000 4.61 114 23:33 02.11.2021
4993 Clouds 2 1021 77 10000 4.54 115 22:29 02.11.2021
4994 Clouds 2 1021 77 10000 4.52 118 20:54 02.11.2021
4995 Clouds 3 1021 76 10000 4.37 117 20:30 02.11.2021
4996 Clouds 2 1021 76 10000 4.37 117 19:47 02.11.2021
4997 Clear 3 1021 90 10000 3.91 119 18:43 02.11.2021
4998 Clear 3 1021 90 10000 4.04 120 17:58 02.11.2021
4999 Clear 3 1021 90 10000 4.06 119 17:32 02.11.2021
5000 Rain 3 1022 90 10000 3.87 117 16:29 02.11.2021
5001 Clear 3 1022 65 10000 3.59 112 14:59 02.11.2021
5002 Clear 3 1022 61 10000 3.4 109 14:18 02.11.2021
5003 Clear 3 1022 56 10000 3.14 111 13:27 02.11.2021
5004 Clear 3 1021 56 10000 3.09 116 12:33 02.11.2021
5005 Clear 3 1022 55 10000 2.83 124 11:32 02.11.2021
5006 Clear 3 1022 55 10000 2.83 124 10:51 02.11.2021
5007 Clear 3 1022 57 10000 2.79 133 10:25 02.11.2021
5008 Clear 1 1022 89 10000 2.56 134 08:43 02.11.2021
5009 Clear 0 1022 90 10000 1.87 142 06:43 02.11.2021
5010 Clear 0 1022 88 10000 1.23 132 03:34 02.11.2021
5011 Clear 0 1022 88 10000 1.53 135 03:34 02.11.2021
5012 Clear 1 1022 88 10000 1.01 208 01:24 02.11.2021
5013 Clear 2 1023 87 10000 1.69 218 22:39 01.11.2021
5014 Clear 3 1023 87 10000 1.35 224 20:52 01.11.2021
5015 Clear 3 1023 87 10000 1.35 224 20:33 01.11.2021
5016 Clear 3 1023 86 10000 1.44 227 19:48 01.11.2021
5017 Clear 3 1022 86 10000 1.59 233 18:58 01.11.2021
5018 Clear 4 1022 85 10000 1.63 236 18:20 01.11.2021
5019 Clear 5 1022 84 10000 1.93 231 17:19 01.11.2021
5020 Clear 5 1022 84 10000 1.93 231 16:43 01.11.2021
5021 Clear 7 1022 82 10000 2.11 226 15:46 01.11.2021
5022 Clear 7 1022 82 10000 2.34 218 15:20 01.11.2021
5023 Clear 7 1022 82 10000 2.34 218 15:20 01.11.2021
5024 Clear 7 1022 81 10000 2.34 218 14:41 01.11.2021
5025 Clear 8 1022 81 10000 2.43 221 14:20 01.11.2021
5026 Clear 8 1022 83 10000 2.34 230 13:19 01.11.2021
5027 Clear 9 1022 84 10000 2.72 242 12:24 01.11.2021
5028 Clear 6 1023 58 10000 3.2 247 10:23 01.11.2021
5029 Clear 4 1023 62 10000 3.24 249 08:53 01.11.2021
5030 Clear 3 1023 89 10000 3 247 07:47 01.11.2021
5031 Clear 3 1023 89 10000 3.28 235 05:56 01.11.2021
5032 Clear 3 1023 88 10000 3.52 239 03:42 01.11.2021
5033 Clouds 4 1023 87 10000 3.96 232 00:23 01.11.2021
5034 Clouds 5 1023 86 10000 3.97 234 21:37 31.10.2021
5035 Clouds 5 1023 85 10000 4.11 233 20:26 31.10.2021
5036 Clouds 5 1024 83 10000 4.22 236 18:54 31.10.2021
5037 Clouds 5 1023 83 10000 4.6 232 18:32 31.10.2021
5038 Clouds 5 1023 81 10000 4.93 225 16:49 31.10.2021
5039 Clouds 6 1023 80 10000 4.59 225 15:29 31.10.2021
5040 Clouds 8 1023 78 10000 4.75 227 13:27 31.10.2021
5041 Clouds 7 1024 58 10000 4.86 232 12:37 31.10.2021
5042 Clouds 7 1024 81 10000 4.93 233 10:53 31.10.2021
5043 Clear 6 1025 83 10000 4.97 234 09:54 31.10.2021
5044 Clear 5 1025 65 10000 4.77 233 08:48 31.10.2021
5045 Clouds 4 1025 87 10000 4.33 230 04:55 31.10.2021
5046 Clouds 6 1027 85 10000 4.26 242 00:48 31.10.2021
5047 Clouds 7 1027 84 10000 4.24 243 22:31 30.10.2021
5048 Clouds 7 1026 83 10000 4.24 239 21:33 30.10.2021
5049 Clouds 8 1026 82 10000 4.26 241 20:19 30.10.2021
5050 Clouds 8 1026 80 10000 4.6 239 18:33 30.10.2021
5051 Clouds 11 1025 76 10000 4.61 237 16:20 30.10.2021
5052 Clouds 13 1025 74 10000 4.78 239 14:36 30.10.2021
5053 Clouds 13 1025 75 10000 4.91 242 13:39 30.10.2021
5054 Clouds 14 1025 75 10000 4.91 242 13:20 30.10.2021
5055 Clouds 12 1025 74 10000 4.92 242 11:51 30.10.2021
5056 Clouds 12 1025 78 10000 4.93 240 11:31 30.10.2021
5057 Clouds 12 1025 78 10000 4.86 240 10:24 30.10.2021
5058 Clouds 10 1025 79 10000 4.76 237 08:48 30.10.2021
5059 Clouds 10 1025 79 10000 4.55 240 06:26 30.10.2021
5060 Clouds 10 1025 79 10000 4.55 240 05:38 30.10.2021
5061 Clouds 10 1025 81 10000 4.05 246 23:52 29.10.2021
5062 Clouds 10 1025 82 10000 4.13 248 22:36 29.10.2021
5063 Clouds 10 1024 82 10000 4.4 251 21:23 29.10.2021
5064 Clouds 10 1024 83 10000 4.4 251 20:42 29.10.2021
5065 Clouds 9 1024 82 10000 4.6 248 19:49 29.10.2021
5066 Clouds 9 1024 82 10000 4.8 242 18:27 29.10.2021
5067 Clouds 9 1023 81 10000 4.91 235 16:51 29.10.2021
5068 Clouds 9 1023 77 10000 4.87 241 14:32 29.10.2021
5069 Clouds 8 1024 75 10000 5.28 211 11:43 29.10.2021
5070 Rain 8 1024 76 10000 4.95 209 10:35 29.10.2021
5071 Rain 7 1025 78 10000 4.03 209 08:19 29.10.2021
5072 Clouds 7 1023 77 10000 1.39 297 00:36 29.10.2021
5073 Clouds 7 1022 78 10000 1.42 336 22:59 28.10.2021
5074 Clouds 7 1022 79 10000 2.05 357 21:55 28.10.2021
5075 Clouds 7 1020 80 10000 3.26 359 20:29 28.10.2021
5076 Clouds 7 1020 80 10000 3.62 357 19:48 28.10.2021
5077 Clouds 8 1018 83 10000 4.84 353 18:20 28.10.2021
5078 Rain 8 1016 82 10000 5.63 352 16:58 28.10.2021
5079 Clouds 9 1013 79 10000 5.88 310 15:24 28.10.2021
5080 Clouds 11 1011 81 10000 5.68 307 13:46 28.10.2021
5081 Clouds 11 1010 81 10000 5.81 297 13:22 28.10.2021
5082 Clouds 10 1010 82 10000 4.88 280 12:41 28.10.2021
5083 Clouds 9 1009 84 10000 4.54 262 10:57 28.10.2021
5084 Clouds 7 1009 84 10000 4.63 249 09:39 28.10.2021
5085 Clouds 7 1009 84 10000 4.89 237 08:59 28.10.2021
5086 Clouds 6 1009 84 10000 4.89 237 08:34 28.10.2021
5087 Rain 6 1009 83 10000 5.34 229 07:20 28.10.2021
5088 Clouds 6 1013 78 10000 4.02 235 23:59 27.10.2021
5089 Clouds 6 1014 77 10000 4.87 246 22:31 27.10.2021
5090 Rain 6 1014 77 10000 5.12 254 21:33 27.10.2021
5091 Rain 6 1014 76 10000 5.12 254 20:53 27.10.2021
5092 Clouds 6 1014 76 10000 5.08 253 20:33 27.10.2021
5093 Clouds 6 1014 75 10000 4.93 252 19:41 27.10.2021
5094 Rain 6 1014 76 10000 5.03 252 18:53 27.10.2021
5095 Clouds 6 1014 72 10000 5.16 266 16:32 27.10.2021
5096 Clouds 7 1014 71 10000 5.72 263 15:34 27.10.2021
5097 Clouds 7 1013 70 10000 5.66 254 14:42 27.10.2021
5098 Clouds 6 1013 65 10000 5.2 239 12:51 27.10.2021
5099 Clouds 6 1013 69 10000 5.48 234 10:58 27.10.2021
5100 Rain 5 1014 71 10000 5.46 231 09:51 27.10.2021
5101 Rain 4 1014 72 10000 5.23 227 08:58 27.10.2021
5102 Rain 2 1015 73 10000 5.06 223 07:32 27.10.2021
5103 Clouds 3 1016 72 10000 5.04 221 05:34 27.10.2021
5104 Clouds 4 1018 68 10000 4.94 231 00:58 27.10.2021
5105 Clouds 4 1018 68 10000 5.06 232 00:33 27.10.2021
5106 Clouds 4 1018 67 10000 5.06 232 23:50 26.10.2021
5107 Clouds 5 1019 67 10000 5.17 232 22:42 26.10.2021
5108 Clouds 5 1019 67 10000 5.24 235 22:19 26.10.2021
5109 Clouds 5 1019 67 10000 5.3 234 20:51 26.10.2021
5110 Clouds 5 1020 67 10000 5.53 233 19:33 26.10.2021
5111 Clouds 5 1020 68 10000 5.53 233 18:53 26.10.2021
5112 Clouds 6 1020 67 10000 5.28 232 16:58 26.10.2021
5113 Clouds 7 1020 66 10000 5.52 235 15:34 26.10.2021
5114 Clouds 6 1021 74 10000 5.44 235 11:49 26.10.2021
5115 Clouds 4 1022 76 10000 5.37 234 10:46 26.10.2021
5116 Clouds 1 1023 81 10000 4.73 236 08:24 26.10.2021
5117 Clouds 0 1023 82 10000 4.72 237 07:21 26.10.2021
5118 Clear 0 1026 78 10000 5.05 236 23:53 25.10.2021
5119 Clear 0 1026 78 10000 5 236 23:20 25.10.2021
5120 Clear 0 1026 78 10000 4.92 236 22:21 25.10.2021
5121 Clear 0 1026 77 10000 4.92 236 21:40 25.10.2021
5122 Clouds 0 1026 76 10000 5.15 236 20:26 25.10.2021
5123 Clouds 1 1027 76 10000 4.96 235 19:43 25.10.2021
5124 Clouds 1 1027 76 10000 4.96 235 19:21 25.10.2021
5125 Snow 1 1027 76 10000 4.96 235 18:33 25.10.2021
5126 Rain 2 1028 73 10000 4.34 228 16:43 25.10.2021
5127 Clouds 3 1028 73 10000 3.76 238 14:47 25.10.2021
5128 Clouds 2 1028 49 10000 3.92 250 12:31 25.10.2021
5129 Clouds 0 1030 52 10000 3.06 261 10:46 25.10.2021
5130 Clouds 0 1030 52 10000 3.06 261 10:46 25.10.2021
5131 Clouds -1 1029 82 10000 2.52 294 08:58 25.10.2021
5132 Clouds -2 1028 83 10000 3.02 317 06:28 25.10.2021
5133 Clear -2 1027 81 10000 3.71 320 03:18 25.10.2021
5134 Clouds -1 1026 81 10000 4.17 323 00:51 25.10.2021
5135 Clouds -1 1026 81 10000 4.17 323 00:33 25.10.2021
5136 Clouds -1 1025 80 10000 4.47 324 23:33 24.10.2021
5137 Clouds 0 1024 80 10000 4.67 324 22:38 24.10.2021
5138 Clouds 0 1024 80 10000 4.89 325 22:19 24.10.2021
5139 Clouds 1 1023 80 10000 5.21 328 20:57 24.10.2021
5140 Clouds 1 1023 80 10000 5.21 328 20:32 24.10.2021
5141 Clouds 1 1022 79 10000 6.02 325 19:36 24.10.2021
5142 Clouds 2 1021 77 10000 6.34 325 18:29 24.10.2021
5143 Rain 2 1021 78 10000 6.34 325 17:44 24.10.2021
5144 Clouds 2 1018 79 10000 6.43 326 15:56 24.10.2021
5145 Clouds 3 1017 80 10000 6.27 322 14:41 24.10.2021
5146 Clouds 4 1015 78 10000 6.66 317 12:58 24.10.2021
5147 Rain 4 1014 78 6846 5.68 309 11:45 24.10.2021
5148 Rain 4 1014 79 119 5.84 308 11:25 24.10.2021
5149 Rain 4 1013 79 206 4.71 294 10:27 24.10.2021
5150 Clouds 4 1012 81 274 4.88 285 07:51 24.10.2021
5151 Rain 4 1009 77 6148 4.26 236 01:22 24.10.2021
5152 Clouds 4 1009 76 10000 4.38 241 23:49 23.10.2021
5153 Clear 4 1009 77 10000 4.96 244 22:29 23.10.2021
5154 Clouds 5 1008 73 10000 4.43 246 20:37 23.10.2021
5155 Clouds 5 1007 69 10000 4.45 239 18:59 23.10.2021
5156 Clouds 5 1007 69 10000 4.45 239 18:30 23.10.2021
5157 Clouds 7 1007 66 10000 4.55 240 17:43 23.10.2021
5158 Clouds 7 1006 66 10000 4.88 240 16:35 23.10.2021
5159 Rain 8 1005 65 10000 5.62 242 14:35 23.10.2021
5160 Rain 7 1003 69 10000 6.03 222 09:45 23.10.2021
5161 Clouds 6 1002 70 10000 6.18 239 00:25 23.10.2021
5162 Clouds 7 1002 69 10000 6.49 242 23:22 22.10.2021
5163 Clouds 7 1002 68 10000 7.08 245 20:50 22.10.2021
5164 Clouds 8 1001 71 10000 6.91 247 18:45 22.10.2021
5165 Clear 8 1000 74 10000 6.95 251 17:44 22.10.2021
5166 Clear 8 998 73 10000 7.43 249 15:50 22.10.2021
5167 Clouds 9 997 73 10000 8.4 254 14:23 22.10.2021
5168 Clouds 13 995 64 10000 8.76 243 11:33 22.10.2021
5169 Clouds 13 995 66 10000 7.32 240 10:48 22.10.2021
5170 Clouds 12 995 66 10000 6.64 240 09:56 22.10.2021
5171 Clouds 12 995 70 10000 6.64 240 09:30 22.10.2021
5172 Rain 12 993 73 10000 7.48 244 07:26 22.10.2021
5173 Clouds 12 993 73 10000 6.69 227 04:59 22.10.2021
5174 Rain 12 993 75 10000 7.01 212 00:24 22.10.2021
5175 Clouds 12 993 75 10000 7.01 212 23:40 21.10.2021
5176 Clouds 12 995 75 10000 6.71 217 22:21 21.10.2021
5177 Clouds 13 996 76 10000 6.23 222 20:55 21.10.2021
5178 Clouds 13 997 76 10000 6.32 222 20:20 21.10.2021
5179 Clouds 12 997 77 10000 5.91 220 19:30 21.10.2021
5180 Rain 13 997 78 10000 5.91 220 18:52 21.10.2021
5181 Rain 12 998 78 10000 5.67 225 18:27 21.10.2021
5182 Clouds 12 998 78 10000 5.67 225 17:42 21.10.2021
5183 Rain 13 998 79 10000 5.7 229 16:26 21.10.2021
5184 Rain 13 998 79 10000 6.03 236 15:21 21.10.2021
5185 Rain 14 998 80 10000 6.03 236 14:50 21.10.2021
5186 Rain 14 998 82 10000 6.56 238 13:27 21.10.2021
5187 Clouds 12 998 85 10000 7.03 241 11:35 21.10.2021
5188 Clouds 10 998 87 10000 7.36 230 09:24 21.10.2021
5189 Rain 10 998 87 10000 7.2 232 07:32 21.10.2021
5190 Clouds 9 999 87 10000 6.89 236 05:33 21.10.2021
5191 Rain 5 1003 85 10000 7.3 210 00:22 21.10.2021
5192 Rain 3 1007 83 10000 7.19 198 22:22 20.10.2021
5193 Rain 2 1007 82 10000 7.19 198 21:46 20.10.2021
5194 Rain 2 1008 82 5479 7.37 190 20:57 20.10.2021
5195 Rain 2 1008 81 5479 7.37 190 20:37 20.10.2021
5196 Rain 2 1009 78 3712 7.46 185 19:59 20.10.2021
5197 Rain 2 1011 76 3994 6.93 182 18:59 20.10.2021
5198 Rain 2 1013 75 7667 6.84 182 18:29 20.10.2021
5199 Rain 4 1016 72 10000 5.58 195 15:57 20.10.2021
5200 Clouds 4 1018 73 10000 5 211 13:46 20.10.2021
5201 Clouds 1 1021 78 10000 3.48 239 09:50 20.10.2021
5202 Clouds -1 1022 82 10000 3.65 316 05:28 20.10.2021
5203 Clouds 2 1020 82 6934 3.45 309 00:53 20.10.2021
5204 Clouds 2 1019 82 10000 3.92 308 00:28 20.10.2021
5205 Clouds 2 1018 83 10000 4.51 311 22:21 19.10.2021
5206 Rain 2 1018 82 10000 4.72 314 21:28 19.10.2021
5207 Rain 3 1017 81 83 4.78 313 20:26 19.10.2021
5208 Rain 3 1017 78 5717 5.03 314 19:50 19.10.2021
5209 Rain 3 1017 78 276 4.98 301 19:29 19.10.2021
5210 Rain 3 1016 77 48 3.5 279 18:23 19.10.2021
5211 Rain 4 1016 76 10000 3.9 296 17:20 19.10.2021
5212 Clouds 5 1016 74 10000 4.64 292 15:26 19.10.2021
5213 Clouds 5 1016 73 10000 4.64 292 14:31 19.10.2021
5214 Clouds 5 1015 72 10000 5.05 301 13:49 19.10.2021
5215 Rain 4 1015 76 10000 4.96 305 11:58 19.10.2021
5216 Clouds 4 1015 77 6726 5.16 304 11:23 19.10.2021
5217 Clouds 4 1015 79 5216 5.39 304 09:42 19.10.2021
5218 Clouds 4 1014 80 10000 4.92 306 08:56 19.10.2021
5219 Clouds 2 1011 82 10000 4.87 270 00:36 19.10.2021
5220 Clouds 2 1011 81 10000 4.93 271 23:56 18.10.2021
5221 Clouds 2 1011 81 10000 4.95 277 23:22 18.10.2021
5222 Clouds 2 1011 81 10000 4.95 277 22:55 18.10.2021
5223 Clouds 2 1011 80 10000 4.75 272 22:18 18.10.2021
5224 Clouds 3 1011 79 10000 4.52 270 20:46 18.10.2021
5225 Clouds 3 1011 79 10000 4.61 276 20:21 18.10.2021
5226 Clouds 4 1011 79 10000 4.53 272 19:31 18.10.2021
5227 Clouds 4 1010 78 10000 4.62 275 18:58 18.10.2021
5228 Clouds 4 1010 78 10000 4.62 275 18:58 18.10.2021
5229 Clear 6 1010 73 10000 5.11 268 16:33 18.10.2021
5230 Clear 7 1009 74 10000 5.27 269 14:42 18.10.2021
5231 Clouds 6 1009 60 10000 5.82 279 11:53 18.10.2021
5232 Rain 5 1009 83 10000 5.18 298 09:48 18.10.2021
5233 Rain 6 1008 83 10000 5.65 236 07:46 18.10.2021
5234 Clouds 6 1011 79 10000 4.28 247 00:29 18.10.2021
5235 Clouds 7 1011 78 10000 3.89 242 22:30 17.10.2021
5236 Clouds 7 1011 78 10000 3.89 242 21:44 17.10.2021
5237 Clouds 7 1012 78 10000 4.22 242 20:57 17.10.2021
5238 Clouds 7 1012 77 10000 4.59 237 20:21 17.10.2021
5239 Clouds 7 1011 77 10000 4.52 233 19:38 17.10.2021
5240 Clouds 8 1012 77 10000 4.59 228 18:34 17.10.2021
5241 Clouds 7 1012 76 10000 4.69 238 16:47 17.10.2021
5242 Clouds 8 1012 75 10000 5.3 243 14:40 17.10.2021
5243 Clouds 8 1012 76 10000 5.14 242 14:21 17.10.2021
5244 Clouds 8 1012 77 10000 5.14 242 13:33 17.10.2021
5245 Clouds 7 1012 78 10000 5.67 255 11:49 17.10.2021
5246 Clouds 6 1012 79 10000 5.43 242 10:19 17.10.2021
5247 Clouds 6 1012 79 10000 5.43 242 10:19 17.10.2021
5248 Clouds 5 1012 81 10000 5.21 233 09:21 17.10.2021
5249 Clouds 3 1012 83 10000 4.7 229 06:52 17.10.2021
5250 Clouds 5 1013 80 10000 4.36 227 00:49 17.10.2021
5251 Clouds 5 1013 79 10000 4.23 232 23:31 16.10.2021
5252 Clouds 6 1013 75 10000 4.41 245 21:28 16.10.2021
5253 Clouds 8 1013 73 10000 4.41 245 20:30 16.10.2021
5254 Rain 8 1013 73 10000 5.07 250 19:42 16.10.2021
5255 Rain 8 1013 72 10000 4.92 250 19:20 16.10.2021
5256 Clouds 8 1013 71 10000 4.92 250 18:45 16.10.2021
5257 Clouds 8 1012 68 10000 5.16 246 18:26 16.10.2021
5258 Rain 9 1012 64 10000 5.16 246 17:52 16.10.2021
5259 Rain 10 1012 80 10000 5.84 247 17:21 16.10.2021
5260 Rain 12 1010 62 10000 7.14 221 13:54 16.10.2021
5261 Clouds 11 1011 54 10000 7.34 208 11:26 16.10.2021
5262 Clouds 10 1012 57 10000 6.92 206 09:48 16.10.2021
5263 Clouds 8 1012 74 10000 6.38 203 06:50 16.10.2021
5264 Clouds 8 1014 73 10000 5.83 215 01:24 16.10.2021
5265 Clouds 8 1014 74 10000 5.87 215 23:40 15.10.2021
5266 Clouds 7 1015 74 10000 5.68 215 22:22 15.10.2021
5267 Clouds 7 1015 74 10000 5.68 215 21:51 15.10.2021
5268 Clouds 7 1016 75 10000 5.59 217 21:21 15.10.2021
5269 Clouds 7 1016 75 10000 5.55 217 20:45 15.10.2021
5270 Clouds 7 1016 74 10000 5 217 19:23 15.10.2021
5271 Clouds 7 1016 74 10000 5 217 18:38 15.10.2021
5272 Clouds 8 1016 74 10000 5.1 233 16:28 15.10.2021
5273 Clouds 8 1016 60 10000 5.27 236 15:22 15.10.2021
5274 Clouds 8 1016 77 10000 5.54 250 12:31 15.10.2021
5275 Clouds 7 1015 57 10000 5.84 264 11:26 15.10.2021
5276 Rain 7 1015 80 10000 5.84 264 10:42 15.10.2021
5277 Rain 5 1014 84 10000 5.92 274 08:58 15.10.2021
5278 Rain 5 1012 85 126 6.91 281 05:31 15.10.2021
5279 Rain 7 1008 84 10000 5.32 286 00:44 15.10.2021
5280 Rain 7 1008 83 10000 4.63 294 23:49 14.10.2021
5281 Rain 7 1007 83 10000 3.84 303 22:50 14.10.2021
5282 Rain 7 1007 83 10000 2.63 317 21:43 14.10.2021
5283 Rain 7 1008 82 10000 1.61 345 20:36 14.10.2021
5284 Rain 7 1008 82 10000 2.63 13 20:18 14.10.2021
5285 Rain 7 1008 82 10000 2.62 33 19:32 14.10.2021
5286 Rain 7 1009 80 10000 2.45 73 17:26 14.10.2021
5287 Rain 7 1009 79 10000 2.45 73 16:48 14.10.2021
5288 Rain 7 1009 84 10000 2.67 94 15:33 14.10.2021
5289 Rain 8 1009 82 10000 3.17 100 14:41 14.10.2021
5290 Rain 8 1010 76 10000 3.23 111 13:35 14.10.2021
5291 Rain 9 1011 73 10000 3.32 121 11:43 14.10.2021
5292 Rain 8 1011 55 10000 3.7 126 09:55 14.10.2021
5293 Rain 9 1012 79 10000 2.43 98 06:54 14.10.2021
5294 Clouds 9 1013 77 10000 1.89 41 00:57 14.10.2021
5295 Rain 9 1014 76 10000 1.3 47 00:22 14.10.2021
5296 Rain 9 1014 83 10000 0.68 115 21:53 13.10.2021
5297 Rain 9 1014 81 10000 1.58 142 21:32 13.10.2021
5298 Rain 10 1014 75 10000 1.19 120 19:58 13.10.2021
5299 Rain 11 1015 62 10000 1.34 149 18:49 13.10.2021
5300 Rain 11 1015 61 10000 1.75 155 17:55 13.10.2021
5301 Clouds 13 1013 59 10000 1.89 179 15:32 13.10.2021
5302 Clouds 15 1013 59 10000 1.89 179 14:45 13.10.2021
5303 Clouds 13 1013 57 10000 3.31 190 12:58 13.10.2021
5304 Clouds 13 1013 59 10000 3.05 178 12:22 13.10.2021
5305 Rain 10 1013 62 10000 3.22 163 10:47 13.10.2021
5306 Rain 8 1014 67 10000 3.71 148 08:41 13.10.2021
5307 Rain 8 1014 63 10000 3.42 145 06:42 13.10.2021
5308 Rain 8 1015 61 10000 2.87 137 02:27 13.10.2021
5309 Clouds 8 1015 61 10000 2.87 137 01:37 13.10.2021
5310 Rain 8 1016 60 10000 2.62 152 23:29 12.10.2021
5311 Clouds 7 1016 60 10000 2.62 152 22:45 12.10.2021
5312 Clouds 8 1016 59 10000 2.8 156 21:50 12.10.2021
5313 Clouds 9 1016 58 10000 3.14 162 20:34 12.10.2021
5314 Rain 9 1017 57 10000 3.43 159 19:57 12.10.2021
5315 Rain 10 1017 56 10000 3.38 151 18:36 12.10.2021
5316 Rain 11 1017 53 10000 3.38 151 17:51 12.10.2021
5317 Rain 12 1017 52 10000 3.13 153 16:39 12.10.2021
5318 Clouds 12 1017 51 10000 3.26 164 15:58 12.10.2021
5319 Clouds 13 1017 51 10000 3.66 170 14:45 12.10.2021
5320 Clouds 13 1017 45 10000 4.05 171 13:43 12.10.2021
5321 Clouds 13 1018 44 10000 4.45 171 12:35 12.10.2021
5322 Clouds 9 1019 54 10000 3.46 169 09:46 12.10.2021
5323 Clouds 7 1020 64 10000 3.15 170 08:43 12.10.2021
5324 Clouds 5 1020 65 10000 2.28 170 07:36 12.10.2021
5325 Clouds 5 1020 64 10000 2.21 167 05:31 12.10.2021
5326 Clouds 6 1021 64 10000 2.21 178 04:32 12.10.2021
5327 Rain 7 1022 60 10000 2.06 180 00:28 12.10.2021
5328 Rain 7 1022 59 10000 2.06 180 23:40 11.10.2021
5329 Rain 8 1022 58 10000 2.12 190 22:57 11.10.2021
5330 Rain 8 1023 57 10000 2.21 184 21:46 11.10.2021
5331 Rain 7 1023 60 10000 2.19 185 20:47 11.10.2021
5332 Rain 8 1023 61 10000 2.3 186 19:45 11.10.2021
5333 Rain 8 1024 53 10000 2.23 185 18:42 11.10.2021
5334 Clouds 9 1024 52 10000 2.17 187 17:49 11.10.2021
5335 Clouds 11 1025 54 10000 2.1 195 16:39 11.10.2021
5336 Clouds 12 1025 49 10000 2.4 209 15:51 11.10.2021
5337 Clouds 13 1025 49 10000 2.98 222 14:55 11.10.2021
5338 Clouds 13 1025 43 10000 3.12 219 14:33 11.10.2021
5339 Clouds 13 1025 43 10000 3.12 219 13:36 11.10.2021
5340 Clear 12 1027 47 10000 2.51 220 11:51 11.10.2021
5341 Clear 10 1027 52 10000 2.29 223 10:34 11.10.2021
5342 Clear 7 1028 61 10000 2.18 231 09:37 11.10.2021
5343 Clouds 3 1029 66 10000 1.82 245 07:27 11.10.2021
5344 Clouds 3 1031 61 10000 1.9 249 01:40 11.10.2021
5345 Clouds 4 1031 61 10000 1.97 253 00:48 11.10.2021
5346 Clouds 4 1031 60 10000 1.99 257 00:23 11.10.2021
5347 Clouds 5 1031 59 10000 2.23 261 21:54 10.10.2021
5348 Clouds 5 1032 59 10000 2.36 260 21:32 10.10.2021
5349 Clouds 6 1032 58 10000 2.36 260 20:47 10.10.2021
5350 Clouds 6 1032 58 10000 2.26 257 20:21 10.10.2021
5351 Clouds 7 1032 55 10000 2.26 257 19:59 10.10.2021
5352 Clouds 6 1032 56 10000 2.26 257 19:35 10.10.2021
5353 Clouds 9 1032 53 10000 2.08 252 18:35 10.10.2021
5354 Clouds 12 1032 49 10000 1.83 251 16:46 10.10.2021
5355 Clouds 13 1032 44 10000 1.51 268 15:46 10.10.2021
5356 Clouds 14 1033 41 10000 2.16 275 13:57 10.10.2021
5357 Clouds 14 1033 42 10000 2.18 276 13:33 10.10.2021
5358 Clouds 13 1033 42 10000 2.18 276 12:35 10.10.2021
5359 Clouds 10 1034 46 10000 2.2 276 10:44 10.10.2021
5360 Clouds 6 1034 50 10000 2.25 277 09:30 10.10.2021
5361 Clouds 6 1034 64 10000 2.3 278 08:53 10.10.2021
5362 Clouds 1 1034 66 10000 2.04 279 07:28 10.10.2021
5363 Clouds 0 1035 66 10000 2.04 276 02:45 10.10.2021
5364 Clouds 4 1035 62 10000 2.06 285 00:57 10.10.2021
5365 Clouds 2 1035 63 10000 2.04 285 00:29 10.10.2021
5366 Clouds 5 1035 61 10000 1.99 291 22:53 09.10.2021
5367 Clouds 3 1035 61 10000 2.01 283 21:47 09.10.2021
5368 Clouds 4 1035 59 10000 1.98 280 21:28 09.10.2021
5369 Clouds 5 1035 57 10000 2.01 287 19:44 09.10.2021
5370 Clouds 6 1035 55 10000 2.1 291 19:19 09.10.2021
5371 Clouds 8 1035 54 10000 2.07 292 18:33 09.10.2021
5372 Clouds 9 1035 49 10000 2.16 292 17:20 09.10.2021
5373 Clouds 12 1035 44 10000 2.49 292 16:19 09.10.2021
5374 Clouds 13 1036 38 10000 2.62 282 13:45 09.10.2021
5375 Clouds 12 1036 38 10000 2.49 276 12:40 09.10.2021
5376 Clouds 12 1037 40 10000 2.44 282 11:48 09.10.2021
5377 Clouds 10 1037 43 10000 2.47 285 10:42 09.10.2021
5378 Clear 8 1038 47 10000 2.34 276 09:52 09.10.2021
5379 Clear 5 1038 66 10000 2.1 281 08:30 09.10.2021
5380 Clear 4 1038 66 10000 2.1 281 07:49 09.10.2021
5381 Clear -1 1038 66 10000 1.71 281 05:29 09.10.2021
5382 Clear -1 1039 65 10000 1.67 276 02:59 09.10.2021
5383 Clear -1 1039 64 10000 1.78 276 02:40 09.10.2021
5384 Clear 1 1039 60 10000 1.86 286 23:52 08.10.2021
5385 Clear 4 1039 62 10000 1.75 275 22:59 08.10.2021
5386 Clear 4 1040 62 10000 1.64 279 22:24 08.10.2021
5387 Clear 5 1040 61 10000 1.56 289 21:18 08.10.2021
5388 Clear 6 1040 60 10000 1.48 297 19:39 08.10.2021
5389 Clear 8 1040 57 10000 1.3 280 17:36 08.10.2021
5390 Clear 10 1040 45 10000 1.2 287 16:53 08.10.2021
5391 Clear 11 1040 56 10000 1.38 285 16:24 08.10.2021
5392 Clear 12 1040 38 10000 1.54 254 13:58 08.10.2021
5393 Clear 12 1041 59 10000 1.46 256 13:35 08.10.2021
5394 Clear 10 1042 45 10000 1.47 253 11:33 08.10.2021
5395 Clear 9 1042 45 10000 1.47 253 10:41 08.10.2021
5396 Clear 7 1042 70 10000 1.27 246 09:44 08.10.2021
5397 Clear 2 1042 68 10000 1.46 218 00:34 08.10.2021
5398 Clear 3 1042 67 10000 1.6 201 23:21 07.10.2021
5399 Clear 2 1042 62 10000 1.69 182 21:46 07.10.2021
5400 Clear 2 1042 60 10000 1.6 181 21:27 07.10.2021
5401 Clear 5 1041 65 10000 1.62 173 20:28 07.10.2021
5402 Clear 6 1041 63 10000 1.69 167 19:30 07.10.2021
5403 Clear 7 1042 61 10000 1.79 159 18:24 07.10.2021
5404 Clear 8 1042 47 10000 1.77 156 17:27 07.10.2021
5405 Clear 11 1041 42 10000 1.84 158 15:55 07.10.2021
5406 Clouds 12 1042 37 10000 2.35 161 14:24 07.10.2021
5407 Clouds 11 1042 37 10000 2.35 161 13:43 07.10.2021
5408 Clouds 11 1042 36 10000 2.24 156 12:48 07.10.2021
5409 Clouds 10 1043 39 10000 2.17 154 10:57 07.10.2021
5410 Clouds 10 1044 42 10000 1.97 151 10:20 07.10.2021
5411 Clouds 8 1044 42 10000 1.97 151 09:34 07.10.2021
5412 Clear 6 1044 47 10000 1.79 154 08:52 07.10.2021
5413 Clouds 3 1044 50 10000 1.43 154 07:56 07.10.2021
5414 Clouds 1 1044 50 10000 1.43 154 07:36 07.10.2021
5415 Clouds 1 1044 63 10000 1.58 177 03:54 07.10.2021
5416 Clouds 4 1043 68 10000 1.79 165 00:29 07.10.2021
5417 Clouds 4 1043 68 10000 1.86 166 22:55 06.10.2021
5418 Clouds 5 1043 67 10000 2.08 159 22:23 06.10.2021
5419 Clouds 6 1043 66 10000 2.27 156 20:43 06.10.2021
5420 Clouds 6 1043 63 10000 2.29 152 20:20 06.10.2021
5421 Clouds 8 1042 61 10000 2.36 150 18:42 06.10.2021
5422 Clouds 11 1042 54 10000 2.6 152 16:58 06.10.2021
5423 Clouds 11 1042 54 10000 2.6 152 16:58 06.10.2021
5424 Clouds 12 1042 45 10000 3.45 166 15:32 06.10.2021
5425 Clear 12 1043 44 10000 3.65 165 14:30 06.10.2021
5426 Clear 12 1042 45 10000 3.65 166 13:23 06.10.2021
5427 Clear 12 1042 45 10000 3.65 166 12:44 06.10.2021
5428 Clear 12 1043 47 10000 3.69 162 12:22 06.10.2021
5429 Clear 10 1043 54 10000 3.43 159 10:23 06.10.2021
5430 Clear 8 1043 54 10000 3.43 159 09:39 06.10.2021
5431 Clear 7 1043 59 10000 3.25 158 08:57 06.10.2021
5432 Clear 7 1043 65 10000 3.13 154 07:53 06.10.2021
5433 Clear 6 1042 73 10000 2.6 148 05:27 06.10.2021
5434 Clouds 7 1042 73 10000 2.78 147 01:23 06.10.2021
5435 Clouds 8 1041 73 10000 3.09 148 00:20 06.10.2021
5436 Clouds 8 1041 73 10000 3.09 148 00:20 06.10.2021
5437 Clouds 9 1041 73 10000 3.09 148 23:48 05.10.2021
5438 Clouds 8 1041 72 10000 2.91 141 23:29 05.10.2021
5439 Clouds 8 1041 69 10000 3.22 145 22:30 05.10.2021
5440 Clouds 8 1041 69 10000 3.22 145 21:50 05.10.2021
5441 Clouds 8 1041 68 10000 3.17 145 20:51 05.10.2021
5442 Clouds 9 1041 75 10000 2.78 147 20:25 05.10.2021
5443 Clouds 9 1041 75 10000 2.78 147 19:50 05.10.2021
5444 Clouds 9 1041 75 10000 2.85 151 19:21 05.10.2021
5445 Clouds 9 1041 74 10000 3.11 152 17:40 05.10.2021
5446 Clouds 10 1040 61 10000 3.9 154 15:27 05.10.2021
5447 Clouds 10 1040 61 10000 4.05 153 13:44 05.10.2021
5448 Clouds 10 1040 64 10000 4.03 152 13:18 05.10.2021
5449 Clouds 10 1040 64 10000 4.03 152 12:33 05.10.2021
5450 Clouds 9 1040 71 10000 3.89 142 11:22 05.10.2021
5451 Clouds 8 1040 71 10000 3.89 142 10:34 05.10.2021
5452 Clouds 4 1039 82 10000 2.89 111 06:59 05.10.2021
5453 Clouds 5 1039 83 10000 1.86 98 00:58 05.10.2021
5454 Clouds 5 1038 77 10000 2.09 111 22:51 04.10.2021
5455 Clear 5 1038 69 10000 2.29 119 20:51 04.10.2021
5456 Clouds 8 1037 63 10000 2.92 116 18:48 04.10.2021
5457 Clouds 9 1036 56 10000 2.94 109 16:55 04.10.2021
5458 Clouds 10 1036 53 10000 3.16 104 15:32 04.10.2021
5459 Clouds 11 1037 52 10000 3.2 105 14:45 04.10.2021
5460 Clouds 11 1037 51 10000 3.08 110 13:59 04.10.2021
5461 Clouds 11 1037 51 10000 3.08 110 13:31 04.10.2021
5462 Clouds 10 1037 51 10000 3.08 116 12:38 04.10.2021
5463 Clouds 10 1037 56 10000 3.05 125 11:33 04.10.2021
5464 Clouds 10 1037 56 10000 3.45 132 10:44 04.10.2021
5465 Clouds 8 1037 67 10000 3.03 129 09:33 04.10.2021
5466 Clouds 5 1037 72 10000 2.82 131 07:53 04.10.2021
5467 Clouds 4 1036 78 10000 2.44 128 06:42 04.10.2021
5468 Clouds 4 1035 68 10000 2.11 132 22:48 03.10.2021
5469 Clouds 4 1035 66 10000 2.03 125 21:54 03.10.2021
5470 Clouds 5 1035 63 10000 1.84 125 21:29 03.10.2021
5471 Clouds 5 1035 63 10000 1.84 125 20:44 03.10.2021
5472 Rain 6 1035 60 10000 1.97 132 19:42 03.10.2021
5473 Clouds 6 1034 56 10000 2 119 18:29 03.10.2021
5474 Clouds 7 1034 56 10000 2 119 17:37 03.10.2021
5475 Clouds 10 1034 46 10000 1.86 142 15:29 03.10.2021
5476 Clouds 10 1034 45 10000 2.11 146 14:30 03.10.2021
5477 Clouds 10 1034 44 10000 2.24 149 13:35 03.10.2021
5478 Clouds 10 1034 44 10000 2.07 148 12:45 03.10.2021
5479 Clouds 8 1035 48 10000 1.97 147 11:19 03.10.2021
5480 Clouds 6 1035 52 10000 2.03 148 09:58 03.10.2021
5481 Clouds 0 1035 70 10000 1.36 143 05:38 03.10.2021
5482 Clouds 3 1035 66 10000 1.49 153 22:52 02.10.2021
5483 Clouds 4 1035 65 10000 1.59 158 21:51 02.10.2021
5484 Clouds 6 1034 59 10000 1.53 145 20:30 02.10.2021
5485 Clouds 7 1034 56 10000 1.43 133 18:56 02.10.2021
5486 Clouds 7 1034 53 10000 1.23 121 18:20 02.10.2021
5487 Clouds 8 1034 54 10000 1.23 121 17:37 02.10.2021
5488 Clouds 8 1033 51 10000 0.83 121 16:39 02.10.2021
5489 Clear 3 1035 69 10000 0.13 142 07:51 02.10.2021
5490 Clouds 6 1034 52 10000 0.91 266 15:37 30.09.2021
5491 Clouds 6 1035 49 10000 0.49 232 14:22 30.09.2021
5492 Clouds 6 1035 52 10000 0.55 96 11:58 30.09.2021
5493 Clouds 6 1035 56 10000 0.82 78 10:55 30.09.2021
5494 Clouds 6 1035 63 10000 1.22 51 10:25 30.09.2021
5495 Clouds 5 1036 63 10000 1.35 52 08:31 30.09.2021
5496 Clouds 5 1036 67 10000 1.33 46 07:45 30.09.2021
5497 Clouds 5 1035 75 10000 1.59 26 05:25 30.09.2021
5498 Clouds 5 1035 75 10000 1.57 36 02:33 30.09.2021
5499 Clouds 6 1035 74 10000 1.81 36 00:31 30.09.2021
5500 Clouds 6 1035 71 10000 1.91 31 22:41 29.09.2021
5501 Clouds 6 1035 70 10000 2.19 30 21:42 29.09.2021
5502 Clouds 6 1034 68 10000 1.59 17 20:31 29.09.2021
5503 Clouds 6 1034 70 10000 1.8 11 19:58 29.09.2021
5504 Clouds 6 1034 71 10000 1.86 3 19:18 29.09.2021
5505 Clouds 6 1034 68 10000 1.98 359 18:18 29.09.2021
5506 Clouds 8 1034 63 10000 2.47 5 16:55 29.09.2021
5507 Clouds 8 1034 58 10000 2.93 6 16:25 29.09.2021
5508 Clouds 11 1034 54 10000 3.04 6 15:24 29.09.2021
5509 Clouds 11 1034 54 10000 3.04 6 14:36 29.09.2021
5510 Clouds 11 1035 53 10000 2.73 357 13:33 29.09.2021
5511 Clouds 11 1035 53 10000 2.73 357 12:38 29.09.2021
5512 Clouds 10 1035 57 10000 2.54 6 11:20 29.09.2021
5513 Clouds 9 1035 62 10000 2.53 5 10:28 29.09.2021
5514 Clouds 8 1035 62 10000 2.53 5 09:41 29.09.2021
5515 Clouds 4 1036 70 10000 2.48 6 07:51 29.09.2021
5516 Clouds 2 1036 80 10000 2 355 06:27 29.09.2021
5517 Clouds 3 1035 75 10000 1.53 39 23:59 28.09.2021
5518 Clouds 3 1034 73 10000 1.77 45 22:25 28.09.2021
5519 Clouds 3 1034 73 10000 1.77 45 21:54 28.09.2021
5520 Clouds 4 1034 71 10000 1.45 40 21:19 28.09.2021
5521 Clouds 5 1034 70 10000 1.12 68 19:49 28.09.2021
5522 Clouds 6 1033 67 10000 1.39 68 19:27 28.09.2021
5523 Clouds 7 1033 67 10000 1.39 68 18:41 28.09.2021
5524 Clouds 9 1033 58 10000 2.45 63 16:54 28.09.2021
5525 Clouds 10 1032 51 10000 3.79 65 15:21 28.09.2021
5526 Clouds 9 1031 55 10000 3.23 69 13:27 28.09.2021
5527 Clouds 8 1031 60 10000 3.79 65 12:24 28.09.2021
5528 Clouds 8 1031 60 10000 3.79 65 11:48 28.09.2021
5529 Clouds 7 1031 68 10000 4.32 62 11:27 28.09.2021
5530 Clouds 7 1030 73 10000 4.64 58 10:27 28.09.2021
5531 Clouds 7 1030 76 10000 4.86 62 09:29 28.09.2021
5532 Clouds 6 1030 76 10000 4.86 62 08:44 28.09.2021
5533 Clouds 6 1029 84 10000 4.41 52 08:20 28.09.2021
5534 Clouds 6 1029 83 10000 3.92 54 06:46 28.09.2021
5535 Rain 9 1026 84 10000 4.12 53 01:38 28.09.2021
5536 Clouds 9 1025 86 10000 4.13 47 00:32 28.09.2021
5537 Rain 9 1025 85 10000 4.26 33 23:49 27.09.2021
5538 Clouds 9 1024 84 10000 4.48 29 23:25 27.09.2021
5539 Rain 9 1024 84 10000 4.48 29 22:31 27.09.2021
5540 Rain 9 1024 85 10000 4.63 29 21:38 27.09.2021
5541 Rain 9 1024 86 10000 4.54 15 20:29 27.09.2021
5542 Rain 9 1024 86 10000 4.86 12 19:40 27.09.2021
5543 Clouds 10 1024 86 10000 4.86 12 18:54 27.09.2021
5544 Clouds 10 1023 85 10000 5.17 9 17:41 27.09.2021
5545 Clouds 10 1023 85 10000 5.17 9 17:41 27.09.2021
5546 Clouds 10 1023 82 10000 5.17 1 17:21 27.09.2021
5547 Clouds 10 1023 82 10000 5.17 1 16:35 27.09.2021
5548 Clouds 10 1023 81 10000 4.83 0 15:39 27.09.2021
5549 Clouds 11 1022 79 10000 4.6 1 13:57 27.09.2021
5550 Clouds 10 1022 81 10000 4.67 6 12:26 27.09.2021
5551 Clouds 10 1022 85 10000 4.54 358 10:51 27.09.2021
5552 Clouds 10 1022 88 10000 4.61 0 09:42 27.09.2021
5553 Clouds 10 1021 90 10000 4.73 353 08:26 27.09.2021
5554 Rain 9 1019 91 10000 4.41 350 04:51 27.09.2021
5555 Clouds 10 1016 90 10000 4.57 10 00:21 27.09.2021
5556 Clouds 10 1014 92 10000 4.7 357 22:18 26.09.2021
5557 Rain 10 1014 92 10000 4.7 357 21:31 26.09.2021
5558 Clouds 10 1014 90 10000 4.9 7 20:38 26.09.2021
5559 Clouds 10 1013 92 10000 4.85 354 20:18 26.09.2021
5560 Clouds 9 1012 89 10000 5.07 357 19:36 26.09.2021
5561 Rain 10 1012 89 10000 5.07 357 18:45 26.09.2021
5562 Clouds 10 1011 91 10000 5.07 343 17:49 26.09.2021
5563 Rain 11 1010 87 10000 5.04 343 17:20 26.09.2021
5564 Rain 11 1009 88 10000 5.82 341 16:28 26.09.2021
5565 Rain 11 1009 88 10000 5.82 341 15:56 26.09.2021
5566 Clouds 10 1008 82 10000 6.31 330 14:26 26.09.2021
5567 Rain 11 1008 82 10000 6.31 330 13:45 26.09.2021
5568 Clouds 10 1007 87 10000 5.81 325 12:33 26.09.2021
5569 Clouds 10 1007 87 10000 5.81 325 11:59 26.09.2021
5570 Rain 10 1006 88 10000 5.99 324 11:37 26.09.2021
5571 Rain 9 1005 88 10000 6.43 322 10:22 26.09.2021
5572 Rain 9 1004 88 10000 6.03 315 08:55 26.09.2021
5573 Clouds 10 1002 90 10000 4.01 296 03:26 26.09.2021
5574 Rain 9 1001 96 7905 2.77 241 00:20 26.09.2021
5575 Rain 9 1002 96 10000 2.61 221 23:23 25.09.2021
5576 Rain 9 1002 96 10000 2.61 221 22:37 25.09.2021
5577 Rain 9 1002 96 6733 2.96 215 21:55 25.09.2021
5578 Rain 9 1002 96 6733 2.96 215 21:30 25.09.2021
5579 Rain 9 1002 95 10000 3.62 210 20:45 25.09.2021
5580 Rain 9 1003 93 10000 3.54 192 18:47 25.09.2021
5581 Rain 9 1004 92 10000 3.5 198 17:47 25.09.2021
5582 Rain 10 1005 83 10000 3.35 204 15:41 25.09.2021
5583 Rain 11 1005 76 10000 3.63 186 13:57 25.09.2021
5584 Rain 10 1005 77 10000 3.92 185 13:27 25.09.2021
5585 Clouds 9 1005 82 10000 3.68 183 11:54 25.09.2021
5586 Clouds 9 1006 83 10000 3.84 177 10:34 25.09.2021
5587 Clouds 9 1006 84 10000 3.33 176 09:26 25.09.2021
5588 Clouds 9 1006 82 10000 3.24 176 07:55 25.09.2021
5589 Clouds 8 1006 84 10000 3.03 147 05:19 25.09.2021
5590 Clouds 9 1005 80 10000 2.98 142 23:50 24.09.2021
5591 Clouds 9 1005 81 10000 2.84 136 21:42 24.09.2021
5592 Clouds 9 1005 78 10000 3.76 144 20:33 24.09.2021
5593 Rain 9 1005 78 10000 3.76 144 19:47 24.09.2021
5594 Rain 10 1005 71 10000 4.61 147 18:32 24.09.2021
5595 Clouds 10 1005 71 10000 4.61 147 17:54 24.09.2021
5596 Clouds 10 1005 71 10000 4.61 147 17:36 24.09.2021
5597 Clouds 10 1004 67 10000 4.99 152 17:18 24.09.2021
5598 Rain 10 1004 66 10000 5.75 156 13:57 24.09.2021
5599 Clouds 10 1004 66 10000 5.59 164 12:58 24.09.2021
5600 Clouds 10 1004 64 10000 5.8 169 12:39 24.09.2021
5601 Clouds 10 1004 64 10000 5.8 169 12:20 24.09.2021
5602 Clouds 9 1005 67 10000 6.01 161 10:25 24.09.2021
5603 Clouds 8 1005 81 10000 3.62 156 08:29 24.09.2021
5604 Clouds 6 1005 81 10000 3.62 156 07:33 24.09.2021
5605 Clouds 7 1006 86 10000 3.01 168 06:45 24.09.2021
5606 Clouds 7 1006 93 10000 2.75 189 04:54 24.09.2021
5607 Clouds 8 1008 93 10000 2.16 162 23:57 23.09.2021
5608 Clouds 9 1009 93 10000 1.74 156 22:22 23.09.2021
5609 Rain 9 1009 93 10000 1.74 156 21:52 23.09.2021
5610 Clouds 9 1010 95 10000 0.97 184 20:34 23.09.2021
5611 Clouds 10 1010 94 10000 1.38 154 19:31 23.09.2021
5612 Rain 11 1011 95 10000 1.55 139 17:46 23.09.2021
5613 Clouds 11 1012 94 10000 1.43 111 15:30 23.09.2021
5614 Clouds 11 1012 94 10000 1.43 111 14:59 23.09.2021
5615 Clouds 11 1011 95 10000 1.47 110 13:45 23.09.2021
5616 Clouds 11 1012 96 10000 1.64 105 13:20 23.09.2021
5617 Clouds 11 1012 96 10000 1.64 105 12:52 23.09.2021
5618 Rain 10 1012 96 10000 1.94 97 12:22 23.09.2021
5619 Rain 10 1012 96 10000 1.94 97 11:32 23.09.2021
5620 Rain 10 1012 98 3155 1.59 72 10:25 23.09.2021
5621 Rain 10 1012 98 3159 1.59 72 09:51 23.09.2021
5622 Rain 9 1013 97 5506 2.27 82 08:21 23.09.2021
5623 Rain 8 1014 95 10000 2.26 47 03:50 23.09.2021
5624 Clouds 7 1014 95 10000 1.66 79 23:24 22.09.2021
5625 Clouds 8 1014 94 10000 1.54 89 22:29 22.09.2021
5626 Clouds 7 1014 94 10000 1.54 89 21:55 22.09.2021
5627 Clouds 7 1014 94 10000 1.54 89 21:33 22.09.2021
5628 Clouds 7 1014 94 10000 1.61 106 20:54 22.09.2021
5629 Rain 7 1013 94 10000 1.5 121 19:32 22.09.2021
5630 Clouds 7 1013 94 10000 1.3 97 18:39 22.09.2021
5631 Clouds 6 1013 94 10000 1.3 97 17:47 22.09.2021
5632 Rain 6 1013 94 10000 1.4 86 16:37 22.09.2021
5633 Rain 8 1012 93 10000 1.84 67 15:19 22.09.2021
5634 Clouds 8 1012 94 10000 2.23 67 13:48 22.09.2021
5635 Clouds 7 1012 94 10000 2.73 62 11:59 22.09.2021
5636 Clouds 7 1012 94 10000 3.02 57 10:52 22.09.2021
5637 Clouds 6 1011 94 10000 3.17 47 09:25 22.09.2021
5638 Clouds 6 1011 94 10000 3.08 44 08:29 22.09.2021
5639 Rain 6 1011 94 10000 3.12 51 07:21 22.09.2021
5640 Clouds 6 1011 94 10000 3.24 46 05:56 22.09.2021
5641 Rain 6 1011 94 10000 3.24 46 05:34 22.09.2021
5642 Rain 6 1011 94 10000 3.29 45 03:52 22.09.2021
5643 Rain 6 1012 94 10000 3.42 58 00:22 22.09.2021
5644 Rain 6 1012 94 10000 3.55 58 22:56 21.09.2021
5645 Rain 6 1012 94 10000 3.77 58 21:37 21.09.2021
5646 Rain 5 1012 94 8802 4.49 65 20:27 21.09.2021
5647 Rain 7 1013 94 9938 4.75 67 19:22 21.09.2021
5648 Rain 6 1013 94 10000 4.85 70 17:39 21.09.2021
5649 Rain 7 1013 94 10000 4.77 71 16:38 21.09.2021
5650 Rain 7 1013 94 10000 4.68 73 15:52 21.09.2021
5651 Rain 7 1013 95 9924 4.63 77 14:58 21.09.2021
5652 Rain 7 1013 93 10000 4.52 77 13:57 21.09.2021
5653 Clouds 7 1013 93 10000 4.52 77 13:36 21.09.2021
5654 Clouds 7 1014 93 10000 4.67 82 12:36 21.09.2021
5655 Clouds 7 1014 93 10000 4.99 91 10:33 21.09.2021
5656 Rain 7 1014 93 10000 5.24 92 08:40 21.09.2021
5657 Rain 7 1014 93 10000 5.57 88 07:18 21.09.2021
5658 Rain 6 1015 92 9885 6.43 86 00:48 21.09.2021
5659 Rain 6 1016 91 10000 6.71 89 22:37 20.09.2021
5660 Rain 6 1016 92 10000 6.92 89 21:41 20.09.2021
5661 Rain 7 1016 91 10000 6.95 89 20:55 20.09.2021
5662 Rain 7 1017 92 10000 6.93 88 19:40 20.09.2021
5663 Rain 7 1017 91 10000 7.4 86 17:52 20.09.2021
5664 Rain 7 1017 92 10000 7.37 88 16:50 20.09.2021
5665 Rain 7 1017 91 10000 7.17 87 15:57 20.09.2021
5666 Rain 7 1017 91 10000 7.17 87 15:33 20.09.2021
5667 Rain 7 1017 92 10000 6.77 88 14:25 20.09.2021
5668 Rain 6 1017 91 10000 7 87 12:39 20.09.2021
5669 Rain 6 1017 91 10000 7.12 87 12:20 20.09.2021
5670 Rain 6 1017 91 10000 7.09 88 10:36 20.09.2021
5671 Rain 6 1017 91 10000 7.16 89 09:44 20.09.2021
5672 Rain 6 1017 91 10000 7.24 89 09:25 20.09.2021
5673 Rain 6 1017 91 10000 7.24 89 08:31 20.09.2021
5674 Rain 6 1017 89 7501 7.75 78 02:27 20.09.2021
5675 Rain 5 1018 82 6815 7.4 80 22:47 19.09.2021
5676 Rain 6 1019 77 9887 7.16 81 21:47 19.09.2021
5677 Rain 6 1019 73 10000 6.89 86 20:58 19.09.2021
5678 Clouds 6 1020 68 10000 6.84 90 19:41 19.09.2021
5679 Clouds 7 1020 62 10000 6.81 91 18:42 19.09.2021
5680 Clouds 7 1020 52 10000 6.74 86 17:23 19.09.2021
5681 Clouds 8 1020 51 10000 6.52 84 16:32 19.09.2021
5682 Clouds 8 1021 52 10000 6.33 87 15:31 19.09.2021
5683 Clouds 8 1021 52 10000 6.33 87 14:48 19.09.2021
5684 Clouds 8 1021 57 10000 6.24 89 13:49 19.09.2021
5685 Clouds 8 1022 54 10000 6.53 94 12:52 19.09.2021
5686 Clouds 8 1022 54 10000 6.71 93 11:46 19.09.2021
5687 Clouds 8 1022 54 10000 6.94 91 11:22 19.09.2021
5688 Clouds 6 1022 57 10000 6.59 90 09:51 19.09.2021
5689 Clouds 6 1022 61 10000 6.44 90 09:21 19.09.2021
5690 Clouds 5 1023 67 10000 5.49 87 06:48 19.09.2021
5691 Rain 6 1023 68 10000 4.99 92 00:40 19.09.2021
5692 Rain 6 1024 66 10000 4.89 85 22:54 18.09.2021
5693 Clouds 7 1024 64 10000 4.76 87 21:56 18.09.2021
5694 Clouds 7 1024 63 10000 4.56 84 20:46 18.09.2021
5695 Clouds 7 1023 59 10000 4.62 82 19:42 18.09.2021
5696 Clouds 7 1023 56 10000 4.36 80 19:22 18.09.2021
5697 Clouds 7 1023 56 10000 4.36 80 18:52 18.09.2021
5698 Clouds 7 1023 53 10000 4.18 82 18:29 18.09.2021
5699 Clouds 10 1022 46 10000 4.58 85 16:34 18.09.2021
5700 Clouds 10 1022 43 10000 4.41 89 13:51 18.09.2021
5701 Clouds 10 1022 43 10000 4.41 89 13:31 18.09.2021
5702 Clouds 10 1023 43 10000 4.18 88 12:52 18.09.2021
5703 Clouds 9 1023 44 10000 3.99 92 11:59 18.09.2021
5704 Clouds 9 1024 45 10000 4.05 92 11:29 18.09.2021
5705 Clouds 9 1024 47 10000 4.14 89 10:22 18.09.2021
5706 Clouds 8 1024 52 10000 3.87 83 09:23 18.09.2021
5707 Clouds 7 1024 58 10000 3.51 77 08:24 18.09.2021
5708 Clouds 5 1023 67 10000 1.88 53 00:52 18.09.2021
5709 Clouds 5 1023 65 10000 1.77 54 23:53 17.09.2021
5710 Clouds 5 1023 63 10000 1.9 60 22:45 17.09.2021
5711 Clouds 4 1022 61 10000 2.06 69 22:22 17.09.2021
5712 Clouds 3 1022 61 10000 2.06 69 21:32 17.09.2021
5713 Clouds 5 1021 54 10000 3.21 61 19:31 17.09.2021
5714 Clouds 7 1020 45 10000 2.55 58 18:30 17.09.2021
5715 Clouds 8 1020 43 10000 3.58 49 16:35 17.09.2021
5716 Clouds 8 1020 43 10000 3.3 44 14:48 17.09.2021
5717 Clouds 8 1020 46 10000 2.82 47 11:48 17.09.2021
5718 Clouds 8 1020 51 10000 2.49 45 09:57 17.09.2021
5719 Clouds 7 1020 56 10000 2.72 34 07:46 17.09.2021
5720 Clouds 6 1020 62 10000 2.64 17 05:27 17.09.2021
5721 Clouds 7 1020 69 10000 2.25 350 00:31 17.09.2021
5722 Clouds 7 1020 68 10000 2.3 352 22:42 16.09.2021
5723 Rain 7 1020 67 10000 2.37 352 22:23 16.09.2021
5724 Rain 7 1020 67 10000 2.37 352 21:35 16.09.2021
5725 Clouds 7 1020 66 10000 3.06 346 20:29 16.09.2021
5726 Clouds 8 1020 67 10000 3.09 340 18:46 16.09.2021
5727 Clouds 8 1020 68 10000 3.29 335 18:18 16.09.2021
5728 Clouds 9 1020 66 10000 3.34 331 16:37 16.09.2021
5729 Clouds 9 1020 65 10000 3.27 323 14:49 16.09.2021
5730 Rain 9 1019 69 10000 3.33 319 13:34 16.09.2021
5731 Clouds 10 1020 70 10000 3.17 325 12:45 16.09.2021
5732 Clouds 9 1020 73 10000 3.04 340 11:50 16.09.2021
5733 Clouds 9 1019 76 10000 3.4 345 10:56 16.09.2021
5734 Clouds 9 1019 78 10000 3.66 345 10:22 16.09.2021
5735 Clouds 8 1019 79 10000 3.87 339 09:20 16.09.2021
5736 Clouds 7 1018 77 10000 3.91 338 07:52 16.09.2021
5737 Clouds 6 1018 77 10000 4.24 335 06:57 16.09.2021
5738 Clouds 6 1018 77 10000 4.24 335 06:38 16.09.2021
5739 Clouds 7 1016 80 10000 4.04 319 03:22 16.09.2021
5740 Clouds 7 1015 75 10000 4.69 323 00:53 16.09.2021
5741 Clouds 7 1015 66 10000 3.84 311 23:26 15.09.2021
5742 Rain 8 1014 62 10000 3.81 303 22:28 15.09.2021
5743 Rain 8 1014 62 10000 3.81 303 21:31 15.09.2021
5744 Clouds 7 1014 61 10000 3.45 303 20:42 15.09.2021
5745 Clouds 9 1014 60 10000 3.68 314 19:33 15.09.2021
5746 Clouds 10 1014 54 10000 4.34 321 18:45 15.09.2021
5747 Clouds 11 1013 49 10000 4.87 322 17:42 15.09.2021
5748 Clouds 12 1012 42 10000 5.23 322 16:30 15.09.2021
5749 Clouds 12 1012 41 10000 5.37 315 15:22 15.09.2021
5750 Clouds 12 1012 41 10000 5.37 315 14:42 15.09.2021
5751 Clouds 12 1012 40 10000 5.15 313 13:47 15.09.2021
5752 Clouds 12 1012 45 10000 4.96 311 13:28 15.09.2021
5753 Clouds 10 1012 45 10000 4.96 311 12:33 15.09.2021
5754 Clouds 10 1012 54 10000 5.04 309 11:51 15.09.2021
5755 Clouds 9 1012 61 10000 5.32 309 10:57 15.09.2021
5756 Clouds 10 1012 61 10000 5.32 309 10:33 15.09.2021
5757 Clouds 9 1011 65 10000 5.31 296 08:50 15.09.2021
5758 Clouds 8 1010 67 10000 5.61 296 07:26 15.09.2021
5759 Clouds 8 1008 59 10000 6.31 291 00:55 15.09.2021
5760 Clear 9 1008 51 10000 6.33 281 22:24 14.09.2021
5761 Clear 9 1008 48 10000 6.25 283 21:26 14.09.2021
5762 Clouds 8 1007 46 10000 6.5 283 20:21 14.09.2021
5763 Clouds 9 1007 46 10000 6.45 282 19:23 14.09.2021
5764 Clouds 12 1007 45 10000 6.07 275 17:33 14.09.2021
5765 Clouds 12 1007 42 10000 6.2 269 16:39 14.09.2021
5766 Clouds 13 1008 38 10000 7.11 275 15:24 14.09.2021
5767 Clouds 13 1008 40 10000 6.86 281 14:19 14.09.2021
5768 Clouds 12 1008 52 10000 6.36 285 11:47 14.09.2021
5769 Clouds 12 1008 50 10000 6.06 287 10:44 14.09.2021
5770 Clouds 13 1008 50 10000 6.28 287 09:49 14.09.2021
5771 Clouds 12 1008 61 10000 5.12 292 07:53 14.09.2021
5772 Clouds 14 1006 82 10000 5.23 292 02:55 14.09.2021
5773 Clouds 16 1004 81 10000 5.5 256 23:29 13.09.2021
5774 Clear 16 1004 83 10000 5.12 250 22:28 13.09.2021
5775 Clear 16 1004 83 10000 5.12 250 21:56 13.09.2021
5776 Clear 16 1004 83 10000 5.12 250 21:56 13.09.2021
5777 Clear 16 1004 83 10000 5.12 250 21:32 13.09.2021
5778 Clouds 17 1005 83 10000 4.7 258 19:38 13.09.2021
5779 Clouds 18 1005 80 10000 4.57 258 18:45 13.09.2021
5780 Clouds 20 1004 75 10000 5.33 258 17:38 13.09.2021
5781 Clouds 20 1004 57 10000 5.33 251 16:49 13.09.2021
5782 Clouds 21 1005 43 10000 5.07 239 14:45 13.09.2021
5783 Clouds 23 1007 41 10000 6.14 236 11:45 13.09.2021
5784 Clouds 21 1007 47 10000 5.79 231 10:50 13.09.2021
5785 Clouds 17 1008 68 10000 4.49 227 08:41 13.09.2021
5786 Clouds 15 1011 91 10000 2.5 236 00:38 13.09.2021
5787 Clouds 16 1012 91 10000 2.49 243 22:51 12.09.2021
5788 Clouds 16 1012 90 10000 2.56 246 22:23 12.09.2021
5789 Clouds 16 1012 89 10000 2.64 236 21:21 12.09.2021
5790 Clouds 17 1012 83 10000 2.66 222 20:19 12.09.2021
5791 Clouds 17 1012 70 10000 2.55 223 19:37 12.09.2021
5792 Clouds 17 1012 70 10000 2.55 223 19:18 12.09.2021
5793 Clouds 19 1012 70 10000 2.4 233 18:18 12.09.2021
5794 Clouds 20 1012 56 10000 2.93 245 15:58 12.09.2021
5795 Clouds 20 1013 56 10000 2.82 239 14:47 12.09.2021
5796 Clouds 20 1014 58 10000 3.91 238 12:43 12.09.2021
5797 Clouds 19 1014 51 10000 2.96 250 10:33 12.09.2021
5798 Clouds 16 1014 58 10000 2.62 255 08:39 12.09.2021
5799 Clouds 15 1014 65 10000 2.65 268 07:33 12.09.2021
5800 Clouds 15 1015 82 10000 2.67 225 00:47 12.09.2021
5801 Clouds 15 1016 90 10000 2.38 218 22:59 11.09.2021
5802 Clouds 15 1016 89 10000 2.46 210 21:39 11.09.2021
5803 Clouds 16 1016 89 10000 2.13 192 19:55 11.09.2021
5804 Clouds 16 1016 87 10000 2.26 183 18:30 11.09.2021
5805 Clouds 17 1017 83 10000 2.21 188 17:29 11.09.2021
5806 Clouds 17 1018 77 10000 2.63 200 15:38 11.09.2021
5807 Clouds 17 1019 75 10000 2.8 188 13:25 11.09.2021
5808 Rain 16 1019 74 10000 2.9 181 11:45 11.09.2021
5809 Rain 16 1020 72 10000 2.77 179 10:40 11.09.2021
5810 Clouds 15 1020 71 10000 2.47 164 09:28 11.09.2021
5811 Clouds 12 1020 72 10000 2.03 151 07:44 11.09.2021
5812 Clouds 11 1020 84 10000 1.61 85 04:23 11.09.2021
5813 Clouds 14 1020 86 10000 1.79 50 22:47 10.09.2021
5814 Clouds 14 1019 82 10000 1.77 54 22:22 10.09.2021
5815 Clouds 14 1019 82 10000 1.77 54 21:43 10.09.2021
5816 Clouds 15 1018 81 10000 2.06 46 19:32 10.09.2021
5817 Rain 15 1018 83 10000 2.3 27 17:59 10.09.2021
5818 Clouds 17 1017 81 10000 3.28 23 16:28 10.09.2021
5819 Clouds 19 1016 71 10000 3.35 325 13:52 10.09.2021
5820 Clouds 18 1016 72 10000 3.31 311 11:38 10.09.2021
5821 Clouds 16 1014 75 10000 3.43 287 08:27 10.09.2021
5822 Clouds 16 1014 76 10000 3.82 279 07:44 10.09.2021
5823 Clouds 13 1014 87 10000 3.79 261 00:41 10.09.2021
5824 Clouds 14 1015 87 10000 3.86 258 22:18 09.09.2021
5825 Clear 15 1015 86 10000 3.74 261 20:48 09.09.2021
5826 Clouds 16 1015 77 10000 4 258 20:30 09.09.2021
5827 Clouds 16 1015 74 10000 3.67 260 18:50 09.09.2021
5828 Clouds 17 1014 73 10000 3.85 270 17:54 09.09.2021
5829 Clouds 18 1014 73 10000 4.2 278 16:40 09.09.2021
5830 Clouds 18 1014 69 10000 5.08 276 15:26 09.09.2021
5831 Clouds 17 1014 72 10000 5.19 278 12:34 09.09.2021
5832 Clouds 17 1014 73 10000 5.09 275 11:33 09.09.2021
5833 Clouds 15 1014 74 10000 4.99 270 09:39 09.09.2021
5834 Clouds 14 1013 74 10000 5.54 267 07:57 09.09.2021
5835 Clouds 14 1013 81 10000 5.38 262 06:20 09.09.2021
5836 Clouds 14 1013 71 10000 5.89 257 01:31 09.09.2021
5837 Clouds 14 1013 71 10000 5.89 257 01:31 09.09.2021
5838 Clouds 14 1013 71 10000 5.89 257 01:31 09.09.2021
5839 Rain 14 1015 69 10000 5.91 260 21:50 08.09.2021
5840 Rain 14 1015 73 10000 5.43 258 20:57 08.09.2021
5841 Clouds 14 1016 74 10000 5.44 254 19:48 08.09.2021
5842 Clouds 14 1016 71 10000 5.37 253 18:49 08.09.2021
5843 Clouds 14 1016 68 10000 5.71 258 18:27 08.09.2021
5844 Clouds 14 1016 68 10000 5.71 258 17:52 08.09.2021
5845 Clouds 15 1017 71 10000 5.52 246 16:27 08.09.2021
5846 Clouds 14 1018 76 10000 5.4 239 13:53 08.09.2021
5847 Clouds 13 1018 80 10000 5.47 240 12:42 08.09.2021
5848 Clouds 13 1018 79 10000 5.54 241 12:24 08.09.2021
5849 Clouds 13 1018 79 10000 5.54 241 12:24 08.09.2021
5850 Rain 13 1019 78 10000 5.01 240 11:28 08.09.2021
5851 Rain 13 1019 78 10000 5.01 240 10:32 08.09.2021
5852 Rain 13 1019 74 10000 4.57 243 09:58 08.09.2021
5853 Clouds 12 1019 66 10000 4.86 249 07:55 08.09.2021
5854 Clouds 12 1019 73 10000 4.74 245 07:55 08.09.2021
5855 Clouds 12 1019 66 10000 4.86 249 07:55 08.09.2021
5856 Clouds 12 1019 66 10000 4.86 249 07:55 08.09.2021
5857 Clouds 12 1019 66 10000 4.86 249 07:55 08.09.2021
5858 Rain 11 1020 73 10000 4.69 243 07:30 08.09.2021
5859 Rain 12 1021 80 10000 5.18 258 00:33 08.09.2021
5860 Rain 12 1021 83 10000 5.23 255 22:35 07.09.2021
5861 Clouds 12 1021 84 10000 5.39 253 21:38 07.09.2021
5862 Rain 12 1022 83 10000 5.09 255 19:47 07.09.2021
5863 Rain 12 1021 85 10000 4.73 266 18:39 07.09.2021
5864 Rain 12 1021 85 10000 4.73 266 17:43 07.09.2021
5865 Clouds 12 1021 85 10000 4.77 266 15:57 07.09.2021
5866 Clouds 12 1022 84 10000 4.78 260 15:35 07.09.2021
5867 Clouds 12 1022 84 10000 4.78 260 14:38 07.09.2021
5868 Rain 12 1022 89 10000 5.46 255 12:38 07.09.2021
5869 Clouds 12 1022 79 10000 5.31 254 11:33 07.09.2021
5870 Clouds 12 1022 79 10000 5.31 254 10:40 07.09.2021
5871 Clouds 10 1022 72 10000 4.3 242 08:18 07.09.2021
5872 Clouds 8 1023 64 10000 4.44 244 06:44 07.09.2021
5873 Clouds 7 1023 69 10000 4.17 255 04:47 07.09.2021
5874 Clouds 7 1023 74 10000 3.42 262 02:28 07.09.2021
5875 Clouds 6 1023 77 10000 3.34 274 00:23 07.09.2021
5876 Clouds 6 1023 77 10000 3.34 274 23:31 06.09.2021
5877 Clouds 6 1023 75 10000 3.57 279 22:53 06.09.2021
5878 Clouds 6 1023 73 10000 3.64 283 22:28 06.09.2021
5879 Clouds 7 1023 70 10000 3.63 280 20:55 06.09.2021
5880 Clouds 9 1022 60 10000 3.69 279 19:22 06.09.2021
5881 Clouds 9 1022 60 10000 3.69 279 19:22 06.09.2021
5882 Clouds 9 1022 60 10000 3.69 279 19:22 06.09.2021
5883 Clouds 10 1022 60 10000 3.69 279 18:46 06.09.2021
5884 Clouds 10 1022 53 10000 4.03 279 18:18 06.09.2021
5885 Clouds 11 1022 53 10000 4.03 279 17:35 06.09.2021
5886 Rain 12 1021 41 10000 3.93 286 15:43 06.09.2021
5887 Clouds 12 1021 36 10000 4.47 295 13:47 06.09.2021
5888 Clouds 12 1021 37 10000 4.45 301 12:46 06.09.2021
5889 Clouds 10 1022 43 10000 4.53 301 10:44 06.09.2021
5890 Clouds 7 1023 60 10000 3.58 283 07:59 06.09.2021
5891 Clouds 5 1022 78 10000 2.98 296 04:44 06.09.2021
5892 Clouds 6 1021 77 10000 3.37 308 23:27 05.09.2021
5893 Clouds 6 1021 77 10000 3.37 308 22:47 05.09.2021
5894 Clouds 6 1021 74 10000 3.18 303 21:57 05.09.2021
5895 Clouds 6 1021 73 10000 3.05 307 21:29 05.09.2021
5896 Clouds 6 1020 72 10000 3.09 296 19:56 05.09.2021
5897 Clouds 7 1020 66 10000 2.98 297 18:41 05.09.2021
5898 Clouds 9 1019 60 10000 4.07 315 17:30 05.09.2021
5899 Clouds 10 1019 59 10000 4.76 314 15:27 05.09.2021
5900 Clouds 9 1018 59 10000 4.88 310 14:19 05.09.2021
5901 Clouds 8 1017 57 10000 4.61 311 12:26 05.09.2021
5902 Clouds 7 1017 60 10000 4.19 310 10:48 05.09.2021
5903 Clouds 7 1017 67 10000 3.87 312 10:23 05.09.2021
5904 Clouds 6 1016 74 10000 4.05 318 09:21 05.09.2021
5905 Clouds 6 1016 75 10000 4.29 317 07:43 05.09.2021
5906 Clouds 6 1012 87 10000 4.15 298 00:51 05.09.2021
5907 Clouds 6 1011 85 10000 4.16 293 00:22 05.09.2021
5908 Clouds 6 1011 85 10000 4.16 293 23:35 04.09.2021
5909 Clouds 6 1010 82 10000 4.17 292 22:35 04.09.2021
5910 Clouds 6 1011 84 10000 3.95 292 22:35 04.09.2021
5911 Clouds 6 1010 82 10000 4.17 292 21:55 04.09.2021
5912 Clouds 8 1010 70 10000 4.11 295 19:41 04.09.2021
5913 Rain 8 1010 69 10000 4.97 303 18:39 04.09.2021
5914 Clouds 11 1008 68 10000 5.67 302 16:22 04.09.2021
5915 Clouds 10 1007 57 10000 6.55 296 13:18 04.09.2021
5916 Clouds 10 1006 68 10000 6.48 290 11:19 04.09.2021
5917 Clouds 7 1006 77 10000 5.72 291 08:58 04.09.2021
5918 Clouds 6 1004 73 10000 5.95 303 04:50 04.09.2021
5919 Clouds 7 1000 82 10000 6.73 303 00:25 04.09.2021
5920 Clouds 7 1000 81 10000 6.58 305 23:31 03.09.2021
5921 Clouds 7 999 80 10000 6.42 303 21:59 03.09.2021
5922 Clouds 8 999 80 10000 6.42 303 21:34 03.09.2021
5923 Rain 8 998 82 10000 6.16 311 20:42 03.09.2021
5924 Clouds 8 997 87 10000 6.6 294 19:50 03.09.2021
5925 Rain 9 997 85 10000 5.36 285 18:59 03.09.2021
5926 Rain 9 996 85 10000 4.95 274 17:47 03.09.2021
5927 Rain 11 996 87 4896 7.28 278 16:34 03.09.2021
5928 Rain 12 997 75 10000 6.41 240 14:53 03.09.2021
5929 Clouds 10 1000 76 10000 5.89 241 11:59 03.09.2021
5930 Rain 11 1001 56 10000 5.64 231 10:27 03.09.2021
5931 Clouds 9 1002 53 10000 5.57 241 08:46 03.09.2021
5932 Clear 7 1004 56 10000 4.18 245 07:43 03.09.2021
5933 Clear 6 1007 73 10000 3.29 307 01:39 03.09.2021
5934 Clear 8 1008 67 10000 3.61 326 22:57 02.09.2021
5935 Clear 9 1007 60 10000 3.92 332 21:31 02.09.2021
5936 Clouds 10 1007 57 10000 4.42 337 19:55 02.09.2021
5937 Clouds 13 1005 54 10000 4.48 346 17:32 02.09.2021
5938 Clouds 13 1005 54 10000 4.48 346 17:32 02.09.2021
5939 Clouds 13 1005 55 10000 4.97 340 15:50 02.09.2021
5940 Rain 13 1005 49 10000 4.14 332 13:57 02.09.2021
5941 Rain 14 1004 48 10000 3.43 336 12:48 02.09.2021
5942 Rain 13 1004 54 10000 3.58 343 11:35 02.09.2021
5943 Rain 12 1004 64 10000 3.82 348 09:40 02.09.2021
5944 Clouds 11 1004 68 10000 4.05 327 07:48 02.09.2021
5945 Clouds 11 1004 73 10000 3.82 317 07:18 02.09.2021
5946 Clouds 11 1004 73 10000 3.82 317 07:18 02.09.2021
5947 Clouds 10 1003 87 10000 2.98 304 02:56 02.09.2021
5948 Clouds 10 1003 85 10000 2.94 301 01:56 02.09.2021
5949 Clouds 10 1003 84 10000 3.02 303 01:25 02.09.2021
5950 Clouds 11 1003 86 10000 3.05 288 23:39 01.09.2021
5951 Clouds 11 1003 86 10000 3.05 288 22:40 01.09.2021
5952 Clouds 12 1003 85 10000 3.37 298 21:39 01.09.2021
5953 Clouds 12 1002 85 10000 4.03 315 20:29 01.09.2021
5954 Rain 13 1002 87 10000 5.45 323 18:43 01.09.2021
5955 Clouds 14 1001 89 10000 4.67 321 17:40 01.09.2021
5956 Rain 15 1001 92 7837 6.13 325 16:47 01.09.2021
5957 Rain 17 1000 78 10000 1.66 252 15:29 01.09.2021
5958 Rain 19 1000 63 10000 2.21 314 12:19 01.09.2021
5959 Rain 19 1000 63 10000 2.21 314 11:44 01.09.2021
5960 Clouds 18 1001 52 10000 0.85 201 08:47 01.09.2021
5961 Rain 17 1001 45 10000 2.28 178 07:52 01.09.2021
5962 Clouds 17 1005 56 10000 2.4 100 03:27 01.09.2021
5963 Rain 20 1007 69 10000 3.99 343 22:41 31.08.2021
5964 Rain 20 1008 37 10000 2.68 181 21:27 31.08.2021
5965 Clouds 21 1008 36 10000 3.28 117 19:46 31.08.2021
5966 Clouds 23 1009 31 10000 2.9 123 18:29 31.08.2021
5967 Clouds 25 1009 31 10000 2.9 123 17:38 31.08.2021
5968 Clouds 25 1009 31 10000 2.9 123 17:38 31.08.2021
5969 Clouds 25 1009 27 10000 3.4 140 17:20 31.08.2021
5970 Clouds 26 1010 24 10000 4.41 144 16:24 31.08.2021
5971 Clouds 24 1011 24 10000 3.45 137 13:20 31.08.2021
5972 Clouds 21 1012 31 10000 3.48 119 11:28 31.08.2021
5973 Clouds 21 1012 31 10000 3.48 119 10:54 31.08.2021
5974 Clouds 18 1013 39 10000 3.4 105 09:45 31.08.2021
5975 Clouds 18 1013 51 10000 3.41 93 08:39 31.08.2021
5976 Clouds 16 1014 81 10000 3.87 78 07:35 31.08.2021
5977 Rain 17 1015 94 10000 3.04 55 03:40 31.08.2021
5978 Clouds 18 1015 93 10000 2.84 55 23:35 30.08.2021
5979 Clouds 19 1015 93 10000 2.75 35 21:52 30.08.2021
5980 Clouds 19 1015 93 10000 2.75 35 21:32 30.08.2021
5981 Rain 20 1014 77 10000 3.19 33 20:20 30.08.2021
5982 Rain 20 1014 74 10000 3.04 26 19:29 30.08.2021
5983 Rain 21 1014 68 10000 3.12 19 18:34 30.08.2021
5984 Clouds 22 1014 68 10000 3.12 19 17:45 30.08.2021
5985 Rain 23 1014 45 10000 2.14 339 16:24 30.08.2021
5986 Clouds 24 1014 45 10000 2.14 339 15:39 30.08.2021
5987 Clouds 22 1015 67 10000 2.35 343 13:43 30.08.2021
5988 Clouds 21 1016 68 10000 1.69 149 12:24 30.08.2021
5989 Clouds 18 1016 85 10000 1.63 134 10:33 30.08.2021
5990 Clouds 18 1016 63 10000 1.68 123 22:30 29.08.2021
5991 Clouds 19 1016 62 10000 2.05 118 21:33 29.08.2021
5992 Clouds 20 1016 61 10000 2.19 119 20:22 29.08.2021
5993 Clouds 21 1016 59 10000 2.21 113 19:19 29.08.2021
5994 Clouds 23 1016 55 10000 2.22 135 17:50 29.08.2021
5995 Clouds 23 1016 49 10000 3.18 151 15:48 29.08.2021
5996 Clouds 22 1016 41 10000 2.17 169 14:20 29.08.2021
5997 Rain 22 1016 41 10000 2.17 169 13:44 29.08.2021
5998 Clouds 22 1016 41 10000 2.17 154 12:32 29.08.2021
5999 Clouds 21 1016 43 10000 2.5 147 11:50 29.08.2021
6000 Clouds 21 1017 47 10000 3.47 139 11:23 29.08.2021
6001 Clouds 20 1017 47 10000 3.47 139 10:43 29.08.2021
6002 Clouds 20 1017 50 10000 3.83 133 10:24 29.08.2021
6003 Clouds 17 1017 59 10000 3.61 124 08:24 29.08.2021
6004 Clouds 15 1019 53 10000 4.06 107 00:25 29.08.2021
6005 Clouds 17 1019 51 10000 4.24 104 21:53 28.08.2021
6006 Clouds 17 1019 52 10000 4.34 94 20:28 28.08.2021
6007 Clouds 18 1019 48 10000 4.47 90 18:43 28.08.2021
6008 Clouds 19 1019 45 10000 4.55 91 18:19 28.08.2021
6009 Clouds 20 1019 41 10000 4.89 99 17:18 28.08.2021
6010 Clouds 21 1019 38 10000 5.21 102 15:46 28.08.2021
6011 Clouds 21 1020 36 10000 5.23 101 14:26 28.08.2021
6012 Clouds 20 1020 36 10000 5.23 101 13:45 28.08.2021
6013 Clouds 21 1020 37 10000 5.64 99 12:44 28.08.2021
6014 Clouds 20 1020 38 10000 5.75 100 11:54 28.08.2021
6015 Clouds 19 1021 39 10000 5.67 102 10:41 28.08.2021
6016 Clouds 15 1021 47 10000 5.22 97 08:41 28.08.2021
6017 Clouds 15 1022 56 10000 5.46 93 07:24 28.08.2021
6018 Clouds 16 1021 67 10000 4.73 77 22:30 27.08.2021
6019 Clouds 17 1021 63 10000 4.85 74 20:59 27.08.2021
6020 Clouds 17 1021 58 10000 4.81 73 20:30 27.08.2021
6021 Clouds 18 1021 55 10000 4.68 76 18:58 27.08.2021
6022 Clouds 18 1021 55 10000 4.68 76 18:37 27.08.2021
6023 Clouds 20 1020 51 10000 5.57 75 17:18 27.08.2021
6024 Clouds 22 1020 49 10000 5.93 80 15:46 27.08.2021
6025 Clouds 23 1020 45 10000 6.4 81 14:43 27.08.2021
6026 Clouds 21 1020 38 10000 6.32 107 12:33 27.08.2021
6027 Clouds 21 1020 36 10000 6.44 109 11:25 27.08.2021
6028 Clouds 20 1020 36 10000 6.44 109 10:43 27.08.2021
6029 Clouds 18 1020 57 10000 5.06 108 09:31 27.08.2021
6030 Clouds 17 1020 57 10000 5.06 108 08:44 27.08.2021
6031 Clouds 15 1020 72 10000 3.87 102 06:37 27.08.2021
6032 Rain 15 1019 76 10000 3.9 99 04:56 27.08.2021
6033 Rain 16 1018 84 10000 3.16 106 00:33 27.08.2021
6034 Clouds 17 1018 86 10000 4.04 106 22:43 26.08.2021
6035 Rain 17 1018 89 10000 3.59 112 22:18 26.08.2021
6036 Clouds 18 1017 87 10000 3.58 125 20:35 26.08.2021
6037 Clouds 18 1016 90 10000 4.22 141 18:50 26.08.2021
6038 Clouds 18 1015 85 10000 4.57 161 17:44 26.08.2021
6039 Clouds 19 1014 72 10000 4.85 157 16:33 26.08.2021
6040 Clouds 18 1014 72 10000 4.85 157 15:54 26.08.2021
6041 Clouds 19 1014 61 10000 3.54 124 13:48 26.08.2021
6042 Clouds 19 1014 64 10000 3.55 129 12:52 26.08.2021
6043 Clouds 18 1014 68 10000 4.06 139 12:24 26.08.2021
6044 Clouds 17 1014 65 10000 3.57 140 10:18 26.08.2021
6045 Clouds 15 1014 82 10000 4.26 116 08:34 26.08.2021
6046 Rain 13 1014 83 10000 3.26 93 03:27 26.08.2021
6047 Rain 14 1015 66 10000 3.76 134 22:50 25.08.2021
6048 Rain 15 1015 63 10000 3.35 120 22:32 25.08.2021
6049 Rain 15 1015 63 10000 3.35 120 21:41 25.08.2021
6050 Rain 15 1015 63 10000 2.96 132 20:46 25.08.2021
6051 Rain 16 1015 60 10000 2.94 143 20:27 25.08.2021
6052 Clouds 17 1015 61 10000 3.35 158 18:42 25.08.2021
6053 Clouds 18 1015 56 10000 4.11 159 17:31 25.08.2021
6054 Clouds 19 1015 44 10000 4.4 158 15:44 25.08.2021
6055 Clouds 19 1016 40 10000 3.02 150 14:48 25.08.2021
6056 Clouds 19 1016 38 10000 2.25 150 14:29 25.08.2021
6057 Clouds 18 1016 38 10000 2.34 156 12:56 25.08.2021
6058 Clouds 17 1017 37 10000 1.59 155 11:26 25.08.2021
6059 Clouds 17 1017 37 10000 1.59 155 10:43 25.08.2021
6060 Clear 16 1018 38 10000 1.21 126 09:55 25.08.2021
6061 Clear 15 1018 40 10000 1.17 74 08:50 25.08.2021
6062 Clouds 15 1019 43 10000 1.27 52 08:29 25.08.2021
6063 Clouds 9 1019 58 10000 1.92 358 03:53 25.08.2021
6064 Clouds 12 1020 64 10000 2.07 343 23:44 24.08.2021
6065 Clouds 13 1020 65 10000 1.54 6 21:49 24.08.2021
6066 Clouds 14 1020 65 10000 1.73 17 20:48 24.08.2021
6067 Clouds 14 1020 45 10000 2.34 359 19:52 24.08.2021
6068 Rain 16 1019 46 10000 3.94 357 17:58 24.08.2021
6069 Rain 16 1019 46 10000 3.94 357 17:58 24.08.2021
6070 Rain 16 1019 46 10000 3.94 357 17:58 24.08.2021
6071 Clouds 17 1019 44 10000 3.05 342 17:28 24.08.2021
6072 Clouds 17 1019 44 10000 3.05 342 16:56 24.08.2021
6073 Clouds 19 1019 39 10000 3.85 289 14:29 24.08.2021
6074 Clouds 19 1020 38 10000 2.15 259 13:25 24.08.2021
6075 Clouds 18 1020 46 10000 1.62 291 11:47 24.08.2021
6076 Clouds 18 1020 54 10000 1.6 299 10:48 24.08.2021
6077 Clouds 18 1020 57 10000 2.14 302 10:27 24.08.2021
6078 Clouds 17 1020 58 10000 2.38 298 08:50 24.08.2021
6079 Clouds 13 1020 59 10000 1.54 285 06:51 24.08.2021
6080 Clouds 10 1020 60 10000 1.35 283 04:54 24.08.2021
6081 Clouds 10 1020 60 10000 1.35 283 04:54 24.08.2021
6082 Clouds 12 1019 61 10000 2.03 266 00:48 24.08.2021
6083 Clouds 13 1019 53 10000 2.79 269 23:19 23.08.2021
6084 Clouds 14 1019 53 10000 2.79 269 22:39 23.08.2021
6085 Clouds 15 1019 46 10000 2.77 253 20:39 23.08.2021
6086 Clouds 17 1019 43 10000 2.87 260 19:19 23.08.2021
6087 Clouds 20 1019 37 10000 3.25 253 16:39 23.08.2021
6088 Clouds 20 1019 33 10000 3.38 279 14:49 23.08.2021
6089 Clouds 20 1019 32 10000 4.81 291 13:23 23.08.2021
6090 Clouds 21 1019 30 10000 4.64 276 12:19 23.08.2021
6091 Clouds 19 1019 30 10000 3.92 266 10:38 23.08.2021
6092 Clouds 18 1019 37 10000 3.41 269 09:48 23.08.2021
6093 Clouds 17 1019 45 10000 3.17 282 08:33 23.08.2021
6094 Clouds 13 1019 53 10000 2.55 277 06:50 23.08.2021
6095 Clouds 13 1019 53 10000 2.55 277 06:30 23.08.2021
6096 Clouds 13 1017 54 10000 1.49 311 00:54 23.08.2021
6097 Clouds 15 1016 53 10000 1.81 270 22:46 22.08.2021
6098 Clouds 14 1016 52 10000 1.89 259 22:26 22.08.2021
6099 Clouds 16 1016 52 10000 1.56 276 20:23 22.08.2021
6100 Clouds 17 1016 50 10000 2.51 280 19:40 22.08.2021
6101 Clouds 20 1015 43 10000 4.32 304 16:48 22.08.2021
6102 Clouds 20 1014 36 10000 3.37 293 15:22 22.08.2021
6103 Clouds 21 1014 36 10000 3.37 293 14:43 22.08.2021
6104 Clouds 20 1013 40 10000 4.47 298 13:21 22.08.2021
6105 Clouds 20 1013 40 10000 4.47 298 12:55 22.08.2021
6106 Clouds 19 1013 44 10000 4.33 312 12:26 22.08.2021
6107 Clouds 16 1013 50 10000 4.68 316 11:42 22.08.2021
6108 Clouds 16 1013 50 10000 4.68 316 10:31 22.08.2021
6109 Clouds 15 1012 70 10000 4.71 310 08:19 22.08.2021
6110 Clouds 13 1011 75 10000 3.48 311 04:57 22.08.2021
6111 Rain 16 1011 69 10000 2.56 345 00:32 22.08.2021
6112 Rain 17 1011 69 10000 2.09 335 22:34 21.08.2021
6113 Rain 17 1012 66 10000 3.1 338 20:38 21.08.2021
6114 Clouds 18 1011 63 10000 3.45 349 18:46 21.08.2021
6115 Clouds 18 1011 61 10000 4.11 353 17:59 21.08.2021
6116 Rain 19 1011 59 10000 3.98 343 16:55 21.08.2021
6117 Rain 19 1011 55 10000 4.02 345 16:28 21.08.2021
6118 Clouds 19 1011 52 10000 3.81 350 15:36 21.08.2021
6119 Clouds 20 1011 52 10000 3.81 350 14:47 21.08.2021
6120 Rain 20 1011 48 10000 3.76 1 13:32 21.08.2021
6121 Rain 21 1011 48 10000 3.76 1 12:38 21.08.2021
6122 Rain 20 1012 57 10000 4.3 14 09:30 21.08.2021
6123 Rain 18 1012 70 10000 3.9 12 06:19 21.08.2021
6124 Clouds 20 1012 65 10000 4 2 23:45 20.08.2021
6125 Rain 21 1012 60 10000 3.42 354 21:53 20.08.2021
6126 Clouds 23 1012 51 10000 3.15 358 18:31 20.08.2021
6127 Clouds 25 1012 36 10000 2.31 346 16:26 20.08.2021
6128 Clouds 25 1012 34 10000 2.19 338 13:48 20.08.2021
6129 Clouds 23 1012 35 10000 2.11 339 11:51 20.08.2021
6130 Clouds 23 1012 38 10000 2.39 348 11:25 20.08.2021
6131 Clouds 22 1012 41 10000 2.86 343 09:43 20.08.2021
6132 Clouds 21 1012 45 10000 2.94 340 08:51 20.08.2021
6133 Clouds 19 1013 51 10000 2.52 330 07:56 20.08.2021
6134 Clouds 16 1013 67 10000 1.69 312 04:36 20.08.2021
6135 Clouds 16 1013 68 10000 1.47 311 04:18 20.08.2021
6136 Clouds 18 1012 73 10000 1.99 293 23:26 19.08.2021
6137 Clouds 18 1012 73 10000 1.99 293 22:36 19.08.2021
6138 Clouds 18 1011 76 10000 2.4 284 20:55 19.08.2021
6139 Clouds 19 1011 76 10000 1.8 274 19:53 19.08.2021
6140 Clouds 21 1009 72 7066 4.36 292 17:28 19.08.2021
6141 Rain 22 1009 50 10000 3.89 273 16:34 19.08.2021
6142 Clouds 23 1009 48 10000 3.01 216 14:23 19.08.2021
6143 Clouds 23 1009 49 10000 1.99 217 12:39 19.08.2021
6144 Clouds 22 1010 53 10000 1.73 243 11:37 19.08.2021
6145 Clouds 21 1010 60 10000 1.08 214 10:42 19.08.2021
6146 Clouds 21 1010 74 10000 1.72 332 09:48 19.08.2021
6147 Clouds 21 1010 71 10000 2.08 292 09:24 19.08.2021
6148 Clouds 20 1010 81 10000 0.54 154 07:46 19.08.2021
6149 Rain 19 1010 79 10000 1.81 232 02:53 19.08.2021
6150 Clouds 19 1010 78 10000 2.47 210 01:55 19.08.2021
6151 Clouds 18 1011 68 10000 3.56 220 23:20 18.08.2021
6152 Rain 19 1010 67 10000 3.15 217 21:44 18.08.2021
6153 Clouds 19 1010 58 10000 4.12 184 20:35 18.08.2021
6154 Clouds 19 1011 70 10000 4.73 191 19:59 18.08.2021
6155 Clouds 20 1010 60 10000 2.79 179 18:57 18.08.2021
6156 Rain 20 1010 60 10000 2.79 179 18:32 18.08.2021
6157 Rain 22 1009 40 10000 4.19 185 16:40 18.08.2021
6158 Clouds 28 1008 32 10000 3.8 229 15:39 18.08.2021
6159 Clouds 30 1009 29 10000 4.31 222 15:20 18.08.2021
6160 Clear 30 1009 27 10000 4.72 190 12:44 18.08.2021
6161 Clear 30 1009 30 10000 4.89 184 12:26 18.08.2021
6162 Clear 28 1010 36 10000 4.83 172 11:22 18.08.2021
6163 Clear 24 1011 44 10000 3.44 172 07:49 18.08.2021
6164 Clouds 21 1011 52 10000 2.67 147 00:48 18.08.2021
6165 Clear 23 1012 51 10000 2.61 149 22:38 17.08.2021
6166 Clear 23 1012 51 10000 2.5 148 21:46 17.08.2021
6167 Clear 24 1012 51 10000 2.46 173 20:47 17.08.2021
6168 Clouds 26 1012 46 10000 3.01 146 19:20 17.08.2021
6169 Clouds 29 1012 40 10000 3.2 155 17:47 17.08.2021
6170 Clouds 30 1012 35 10000 3.83 169 17:21 17.08.2021
6171 Clouds 30 1013 31 10000 4.97 179 15:41 17.08.2021
6172 Clouds 30 1013 30 10000 5.04 177 14:47 17.08.2021
6173 Clouds 29 1013 32 10000 4.43 184 12:37 17.08.2021
6174 Clouds 24 1014 49 10000 3.11 168 09:27 17.08.2021
6175 Clouds 22 1014 49 10000 3.11 168 08:43 17.08.2021
6176 Rain 21 1015 55 10000 2.24 129 06:55 17.08.2021
6177 Clouds 19 1015 54 10000 2.21 154 23:24 16.08.2021
6178 Clouds 21 1015 54 10000 2.21 154 22:53 16.08.2021
6179 Clouds 21 1015 52 10000 1.81 153 22:35 16.08.2021
6180 Clouds 22 1015 52 10000 1.81 153 21:40 16.08.2021
6181 Clouds 22 1015 50 10000 2 166 20:51 16.08.2021
6182 Clouds 24 1014 51 10000 1.07 185 19:29 16.08.2021
6183 Clouds 27 1014 48 10000 1.19 220 18:26 16.08.2021
6184 Clouds 27 1014 48 10000 1.19 220 18:25 16.08.2021
6185 Clouds 27 1014 48 10000 1.19 220 18:25 16.08.2021
6186 Clouds 27 1014 48 10000 1.19 220 17:54 16.08.2021
6187 Clouds 28 1014 46 10000 2.22 274 16:29 16.08.2021
6188 Clouds 28 1014 40 10000 3.53 265 15:22 16.08.2021
6189 Clouds 28 1014 35 10000 3.39 247 13:55 16.08.2021
6190 Clouds 27 1014 36 10000 3.35 235 12:59 16.08.2021
6191 Clouds 27 1014 36 10000 3.35 235 12:59 16.08.2021
6192 Clouds 26 1014 41 10000 2.87 218 11:31 16.08.2021
6193 Clouds 24 1014 45 10000 2.54 216 09:33 16.08.2021
6194 Clouds 23 1014 51 10000 2.28 223 08:43 16.08.2021
6195 Clouds 20 1015 58 10000 2.26 232 07:30 16.08.2021
6196 Clouds 18 1014 75 10000 2.22 241 05:56 16.08.2021
6197 Clouds 18 1013 76 10000 3.35 240 01:21 16.08.2021
6198 Clouds 22 1013 60 10000 4.77 222 21:34 15.08.2021
6199 Clouds 23 1012 55 10000 3.68 203 19:41 15.08.2021
6200 Clouds 25 1012 51 10000 3.7 201 18:41 15.08.2021
6201 Clouds 25 1012 45 10000 4.15 210 17:49 15.08.2021
6202 Clouds 26 1012 40 10000 4.82 215 16:43 15.08.2021
6203 Clouds 26 1013 38 10000 5.33 216 15:45 15.08.2021
6204 Clouds 26 1013 37 10000 5.24 216 14:36 15.08.2021
6205 Clouds 26 1013 37 10000 5.01 215 13:34 15.08.2021
6206 Clouds 24 1015 41 10000 5.22 214 10:50 15.08.2021
6207 Clouds 21 1016 52 10000 4.54 205 08:34 15.08.2021
6208 Clouds 16 1018 64 10000 1.74 196 01:22 15.08.2021
6209 Clouds 17 1018 62 10000 1.39 194 00:33 15.08.2021
6210 Clear 17 1019 55 10000 1.12 294 21:27 14.08.2021
6211 Clouds 19 1019 51 10000 1.21 298 20:28 14.08.2021
6212 Clouds 21 1019 47 10000 1.72 290 19:31 14.08.2021
6213 Clouds 22 1019 47 10000 1.72 290 18:33 14.08.2021
6214 Clouds 24 1019 38 10000 2.98 262 16:44 14.08.2021
6215 Clouds 25 1019 32 10000 2.94 257 15:34 14.08.2021
6216 Clouds 25 1020 35 10000 2.29 249 13:49 14.08.2021
6217 Clear 23 1021 43 10000 2.28 269 10:58 14.08.2021
6218 Clear 22 1021 48 10000 2.31 269 09:53 14.08.2021
6219 Clear 14 1021 82 10000 1.62 276 05:26 14.08.2021
6220 Clear 15 1020 78 10000 3 287 23:51 13.08.2021
6221 Clear 16 1020 72 10000 3.4 279 22:18 13.08.2021
6222 Clouds 18 1019 66 10000 3.92 271 20:22 13.08.2021
6223 Clouds 21 1018 66 10000 3.86 275 18:46 13.08.2021
6224 Clouds 22 1017 52 10000 3.89 282 17:22 13.08.2021
6225 Clouds 22 1017 49 10000 4.97 294 15:55 13.08.2021
6226 Clouds 20 1015 61 10000 7.39 286 11:56 13.08.2021
6227 Clouds 19 1014 55 10000 6.8 268 11:18 13.08.2021
6228 Clear 17 1013 64 10000 5.99 261 08:40 13.08.2021
6229 Clouds 17 1014 77 10000 5.2 271 07:59 13.08.2021
6230 Clear 16 1013 84 10000 4.76 267 06:40 13.08.2021
6231 Clouds 16 1012 88 10000 2.81 258 02:27 13.08.2021
6232 Clouds 19 1012 86 10000 2.66 276 21:51 12.08.2021
6233 Clouds 19 1011 85 10000 3.07 280 20:43 12.08.2021
6234 Clouds 21 1010 87 10000 3.01 252 19:50 12.08.2021
6235 Clouds 23 1010 87 10000 2.44 247 18:35 12.08.2021
6236 Clouds 23 1009 83 10000 2.75 245 16:57 12.08.2021
6237 Clouds 23 1009 79 10000 2.55 234 16:27 12.08.2021
6238 Clouds 21 1009 89 10000 2.17 159 13:53 12.08.2021
6239 Rain 21 1009 92 10000 2.05 100 11:42 12.08.2021
6240 Rain 20 1009 93 10000 2.09 92 09:43 12.08.2021
6241 Rain 20 1010 96 10000 1.92 128 07:52 12.08.2021
6242 Rain 18 1012 96 10000 2.73 63 00:30 12.08.2021
6243 Rain 18 1013 96 10000 3.45 97 21:56 11.08.2021
6244 Rain 19 1013 84 10000 2.9 137 19:35 11.08.2021
6245 Rain 20 1014 82 10000 3.25 127 18:27 11.08.2021
6246 Rain 20 1014 82 10000 3.25 127 18:27 11.08.2021
6247 Rain 20 1015 83 10000 2.75 104 15:38 11.08.2021
6248 Rain 20 1015 85 10000 3.08 93 15:20 11.08.2021
6249 Rain 20 1015 84 10000 3.63 93 14:20 11.08.2021
6250 Rain 20 1015 68 10000 3.07 102 12:30 11.08.2021
6251 Rain 20 1015 68 10000 3.07 102 11:46 11.08.2021
6252 Rain 20 1015 65 10000 4.42 110 11:21 11.08.2021
6253 Rain 20 1015 62 10000 3.96 126 09:43 11.08.2021
6254 Rain 20 1016 81 10000 1.97 94 07:23 11.08.2021
6255 Rain 21 1016 75 10000 2.26 235 22:53 10.08.2021
6256 Rain 21 1015 75 10000 2.55 244 22:29 10.08.2021
6257 Rain 21 1015 74 10000 2.61 228 20:57 10.08.2021
6258 Rain 22 1015 77 10000 3.3 219 19:42 10.08.2021
6259 Rain 23 1016 80 10000 5.29 195 18:31 10.08.2021
6260 Rain 25 1014 49 10000 4.17 180 15:58 10.08.2021
6261 Rain 26 1015 47 10000 3.32 164 14:42 10.08.2021
6262 Clouds 27 1015 39 10000 3.18 118 12:22 10.08.2021
6263 Clouds 26 1015 42 10000 2.89 71 09:51 10.08.2021
6264 Clear 22 1016 59 10000 2.56 82 06:48 10.08.2021
6265 Clear 19 1016 73 10000 2.38 52 04:58 10.08.2021
6266 Clouds 23 1017 67 10000 2.26 35 23:41 09.08.2021
6267 Clouds 23 1017 63 10000 2.38 44 21:55 09.08.2021
6268 Clouds 23 1017 63 10000 2.38 44 21:34 09.08.2021
6269 Clear 27 1017 50 10000 1.35 13 19:35 09.08.2021
6270 Clear 29 1016 41 10000 0.55 235 17:19 09.08.2021
6271 Clear 29 1016 39 10000 0.73 237 15:35 09.08.2021
6272 Clear 28 1017 38 10000 1.74 268 13:46 09.08.2021
6273 Clear 28 1017 40 10000 1.73 268 13:26 09.08.2021
6274 Clear 26 1017 47 10000 0.95 265 10:44 09.08.2021
6275 Clear 23 1018 65 10000 1.16 344 08:26 09.08.2021
6276 Clear 19 1017 77 10000 1.47 184 23:26 08.08.2021
6277 Clear 20 1016 74 10000 1.26 160 21:26 08.08.2021
6278 Clouds 21 1016 75 10000 1.42 177 19:46 08.08.2021
6279 Clouds 24 1016 61 10000 3.8 173 16:54 08.08.2021
6280 Clouds 23 1016 64 10000 3.61 170 15:33 08.08.2021
6281 Rain 22 1016 61 10000 2.3 223 13:23 08.08.2021
6282 Rain 21 1015 64 10000 4.22 234 11:25 08.08.2021
6283 Clouds 20 1013 67 10000 2 202 06:45 08.08.2021
6284 Rain 19 1013 67 10000 1.54 152 05:37 08.08.2021
6285 Clouds 21 1011 55 10000 3.61 170 00:32 08.08.2021
6286 Clouds 21 1010 50 10000 2.94 181 22:20 07.08.2021
6287 Clouds 22 1010 50 10000 2.94 181 21:41 07.08.2021
6288 Clouds 21 1009 52 10000 3.03 147 20:51 07.08.2021
6289 Rain 23 1009 47 10000 3.46 148 17:38 07.08.2021
6290 Rain 23 1008 38 10000 3.17 152 16:43 07.08.2021
6291 Rain 24 1009 47 10000 5.08 182 14:28 07.08.2021
6292 Rain 26 1008 41 10000 5.85 176 13:32 07.08.2021
6293 Clouds 23 1008 54 10000 4.33 152 10:24 07.08.2021
6294 Clouds 18 1009 93 10000 3.76 105 06:21 07.08.2021
6295 Clouds 18 1009 97 10000 4.09 88 01:50 07.08.2021
6296 Clouds 18 1010 95 10000 3.95 81 21:38 06.08.2021
6297 Rain 18 1010 95 10000 4.02 77 20:32 06.08.2021
6298 Rain 18 1010 94 10000 3.43 78 19:56 06.08.2021
6299 Rain 19 1010 94 10000 3.94 71 18:32 06.08.2021
6300 Rain 19 1010 94 10000 3.94 71 18:32 06.08.2021
6301 Rain 19 1011 90 10000 3.42 88 15:48 06.08.2021
6302 Rain 20 1012 78 10000 2.22 135 10:42 06.08.2021
6303 Clouds 19 1012 75 10000 2.41 130 09:56 06.08.2021
6304 Clouds 17 1012 79 10000 1.94 152 07:32 06.08.2021
6305 Clouds 16 1014 75 10000 2.46 111 23:33 05.08.2021
6306 Clouds 17 1014 74 10000 2.76 113 21:32 05.08.2021
6307 Rain 17 1014 72 10000 3.02 110 20:44 05.08.2021
6308 Rain 17 1014 74 10000 3.23 108 19:24 05.08.2021
6309 Rain 19 1016 75 10000 3.03 201 16:25 05.08.2021
6310 Rain 22 1015 51 10000 5.49 207 14:19 05.08.2021
6311 Clouds 23 1016 40 10000 3.44 155 11:21 05.08.2021
6312 Clouds 19 1017 47 10000 2.45 144 08:35 05.08.2021
6313 Clouds 13 1017 67 10000 0.54 30 04:48 05.08.2021
6314 Clouds 14 1017 57 10000 0.76 257 23:20 04.08.2021
6315 Clouds 15 1017 54 10000 0.46 236 21:44 04.08.2021
6316 Clouds 16 1016 52 10000 0.18 281 21:21 04.08.2021
6317 Rain 20 1016 41 10000 2.79 306 17:25 04.08.2021
6318 Clouds 22 1016 41 10000 2.79 306 16:40 04.08.2021
6319 Clouds 23 1016 39 10000 2.27 316 14:42 04.08.2021
6320 Clouds 22 1016 46 10000 1.47 276 11:20 04.08.2021
6321 Clouds 15 1013 66 10000 2.72 254 01:46 04.08.2021
6322 Clouds 19 1011 47 10000 3.33 271 20:35 03.08.2021
6323 Clouds 19 1011 47 10000 3.33 271 19:56 03.08.2021
6324 Clouds 23 1009 42 10000 4.32 264 17:50 03.08.2021
6325 Clouds 23 1009 45 10000 5.08 269 16:23 03.08.2021
6326 Clouds 21 1009 44 10000 3.71 238 11:44 03.08.2021
6327 Clouds 21 1009 50 10000 3.75 246 10:39 03.08.2021
6328 Clear 19 1005 87 10000 4.13 242 02:38 03.08.2021
6329 Clouds 29 1003 40 10000 5.37 194 17:34 02.08.2021
6330 Clouds 29 1003 40 10000 5.37 194 16:38 02.08.2021
6331 Clouds 27 1004 44 10000 4.71 175 14:51 02.08.2021
6332 Clouds 25 1006 46 10000 4.77 186 11:59 02.08.2021
6333 Clouds 24 1006 46 10000 4.77 186 11:34 02.08.2021
6334 Rain 24 1008 57 10000 3.74 178 09:49 02.08.2021
6335 Clouds 20 1010 83 10000 1.9 213 22:40 01.08.2021
6336 Clouds 24 1009 76 10000 1.72 213 18:19 01.08.2021
6337 Clouds 22 1011 80 10000 0.6 128 13:38 01.08.2021
6338 Rain 25 1011 70 10000 3.19 297 11:38 01.08.2021
6339 Clouds 24 1010 48 10000 3.48 206 08:36 01.08.2021
6340 Clouds 16 1010 67 10000 2.34 235 03:47 01.08.2021
6341 Clouds 17 1009 61 10000 2.58 254 22:52 31.07.2021
6342 Clouds 20 1008 54 10000 2.86 254 20:52 31.07.2021
6343 Clear 25 1006 36 10000 5.78 266 17:28 31.07.2021
6344 Clear 25 1006 34 10000 6.41 263 16:22 31.07.2021
6345 Clear 26 1005 31 10000 6.95 260 12:31 31.07.2021
6346 Clear 22 1005 47 10000 5.91 249 08:34 31.07.2021
6347 Clouds 18 1004 89 10000 3.02 244 00:23 31.07.2021
6348 Rain 21 1004 87 10000 2.34 300 20:28 30.07.2021
6349 Clouds 22 1004 87 10000 2.47 283 19:22 30.07.2021
6350 Clouds 20 1006 66 10000 2.08 248 23:30 29.07.2021
6351 Clouds 24 1005 46 10000 3.8 296 12:35 29.07.2021
6352 Rain 18 1007 91 10000 2.65 299 05:49 29.07.2021
6353 Rain 18 1007 95 10000 1.86 280 04:29 29.07.2021
6354 Clouds 18 1010 92 10000 4.18 141 21:18 28.07.2021
6355 Rain 18 1012 86 10000 3.63 166 17:20 28.07.2021
6356 Rain 20 1014 85 10000 4.07 199 14:49 28.07.2021
6357 Rain 21 1015 51 10000 3.05 160 07:44 28.07.2021
6358 Clouds 22 1018 53 10000 1.47 184 21:46 27.07.2021
6359 Clouds 22 1018 49 10000 1.88 169 21:27 27.07.2021
6360 Clouds 28 1017 25 10000 2.61 337 14:52 27.07.2021
6361 Clear 27 1020 29 10000 0.41 25 10:46 27.07.2021
6362 Clouds 24 1021 40 10000 0.4 87 07:59 27.07.2021
6363 Clouds 26 1021 37 10000 2.33 298 15:48 26.07.2021
6364 Clouds 27 1021 30 10000 2.21 267 14:49 26.07.2021
6365 Clouds 14 1023 50 10000 1.34 246 04:51 26.07.2021
6366 Clouds 19 1021 44 10000 0.39 235 20:56 25.07.2021
6367 Clouds 22 1020 39 10000 1.03 251 18:24 25.07.2021
6368 Clouds 23 1020 33 10000 1.72 259 15:45 25.07.2021
6369 Clouds 22 1021 40 10000 1.86 262 10:56 25.07.2021
6370 Clouds 19 1020 46 10000 2.29 262 08:19 25.07.2021
6371 Clouds 17 1017 50 10000 1.84 101 21:22 24.07.2021
6372 Clouds 18 1017 50 10000 1.73 46 20:18 24.07.2021
6373 Clouds 21 1014 43 10000 5.02 349 13:44 24.07.2021
6374 Clouds 14 1010 73 10000 2.88 311 00:18 24.07.2021
6375 Clouds 20 1006 48 10000 5.31 314 14:36 23.07.2021
6376 Clouds 24 1005 36 10000 6.44 293 12:41 23.07.2021
6377 Clouds 13 1009 62 10000 3.47 255 04:48 23.07.2021
6378 Clouds 20 1009 35 10000 3.6 334 18:23 22.07.2021
6379 Clear 21 1010 32 10000 4.33 334 11:21 22.07.2021
6380 Clear 18 1010 38 10000 4.75 336 08:37 22.07.2021
6381 Clear 13 1009 77 10000 4.89 346 02:39 22.07.2021
6382 Rain 19 1008 73 10000 3.82 323 21:45 21.07.2021
6383 Rain 19 1007 62 10000 3.32 336 21:27 21.07.2021
6384 Clouds 24 1008 37 10000 3.74 306 12:38 21.07.2021
6385 Clouds 22 1008 47 10000 3.37 306 09:24 21.07.2021
6386 Clouds 19 1008 54 10000 2.25 301 07:25 21.07.2021
6387 Clouds 17 1009 51 10000 1.64 332 23:28 20.07.2021
6388 Clear 25 1008 33 10000 5.11 303 16:37 20.07.2021
6389 Clear 26 1007 32 10000 5.15 302 15:59 20.07.2021
6390 Clear 26 1008 31 10000 5.17 299 15:24 20.07.2021
6391 Clouds 25 1008 37 10000 5.37 305 10:21 20.07.2021
6392 Clouds 19 1007 74 10000 3.5 311 04:47 20.07.2021
6393 Clouds 22 1007 59 10000 2.56 265 21:29 19.07.2021
6394 Clouds 28 1006 37 10000 3.44 268 12:53 19.07.2021
6395 Clouds 26 1006 47 10000 2.73 266 10:28 19.07.2021
6396 Rain 22 1008 72 10000 3.05 209 19:25 18.07.2021
6397 Clouds 30 1008 38 10000 3.09 195 13:49 18.07.2021
6398 Clouds 28 1009 38 10000 0.99 139 10:18 18.07.2021
6399 Clouds 23 1010 59 10000 2.47 41 22:25 17.07.2021
6400 Clouds 24 1010 59 10000 2.47 41 21:45 17.07.2021
6401 Clear 24 1010 59 10000 2.45 12 21:23 17.07.2021
6402 Clouds 32 1010 35 10000 3.21 326 12:27 17.07.2021
6403 Clear 28 1011 46 10000 2.42 323 08:55 17.07.2021
6404 Clear 22 1011 67 10000 1.51 339 02:46 17.07.2021
6405 Clear 31 1011 29 10000 2.98 6 13:22 16.07.2021
6406 Clouds 24 1011 65 10000 2.27 336 07:33 16.07.2021
6407 Clouds 20 1011 85 10000 1.25 251 00:41 16.07.2021
6408 Rain 22 1010 26 10000 2.13 324 13:53 15.07.2021
6409 Clear 30 1011 28 10000 1.41 292 12:25 15.07.2021
6410 Clouds 25 1013 52 10000 2.01 273 07:27 15.07.2021
6411 Clouds 26 1015 52 10000 1.9 180 19:39 14.07.2021
6412 Clouds 33 1015 47 10000 2.43 72 15:55 14.07.2021
6413 Clear 31 1016 38 10000 1.78 274 09:52 14.07.2021
6414 Clear 23 1017 57 10000 3.2 265 23:19 13.07.2021
6415 Clouds 30 1017 47 10000 2.61 227 19:57 13.07.2021
6416 Clouds 30 1017 47 10000 2.61 227 19:37 13.07.2021
6417 Clouds 29 1016 39 10000 2.62 219 19:18 13.07.2021
6418 Clouds 31 1016 39 10000 2.62 219 18:42 13.07.2021
6419 Clouds 31 1016 34 10000 2.51 235 18:23 13.07.2021
6420 Clear 32 1018 30 10000 2.1 235 13:21 13.07.2021
6421 Clear 28 1019 43 10000 1.75 232 08:50 13.07.2021
6422 Clear 27 1018 46 10000 1.44 198 20:24 12.07.2021
6423 Clear 30 1018 32 10000 2.9 171 16:46 12.07.2021
6424 Clear 29 1019 31 10000 2.79 118 12:21 12.07.2021
6425 Clear 29 1019 31 10000 2.79 118 12:21 12.07.2021
6426 Clear 23 1020 59 10000 2.43 68 23:21 11.07.2021
6427 Clear 26 1019 51 10000 3.3 77 19:57 11.07.2021
6428 Clear 30 1018 34 10000 3.71 46 12:41 11.07.2021
6429 Clouds 23 1018 78 10000 1.9 79 23:48 10.07.2021
6430 Clouds 32 1017 32 10000 2.49 330 14:28 10.07.2021
6431 Clouds 25 1019 45 10000 2.87 327 07:50 10.07.2021
6432 Clouds 21 1020 59 10000 2.72 301 02:18 10.07.2021
6433 Clear 30 1020 33 10000 2.65 349 18:20 09.07.2021
6434 Clear 31 1021 27 10000 3.43 342 14:49 09.07.2021
6435 Clear 29 1023 39 10000 2.45 314 10:26 09.07.2021
6436 Clouds 21 1025 60 10000 1.87 291 23:52 08.07.2021
6437 Clouds 22 1025 57 10000 1.91 289 22:48 08.07.2021
6438 Clear 28 1024 43 10000 2.43 305 18:57 08.07.2021
6439 Clear 29 1024 35 10000 2.49 305 17:43 08.07.2021
6440 Clouds 29 1024 29 10000 2.28 296 13:32 08.07.2021
6441 Clouds 29 1025 29 10000 2.11 286 12:44 08.07.2021
6442 Clouds 28 1025 31 10000 2.1 267 11:32 08.07.2021
6443 Clear 28 1026 36 10000 1.65 269 09:55 08.07.2021
6444 Clear 17 1026 60 10000 1.19 275 05:30 08.07.2021
6445 Clear 17 1026 66 10000 1.37 281 02:22 08.07.2021
6446 Clear 20 1025 58 10000 1.38 266 22:56 07.07.2021
6447 Clear 20 1024 55 10000 0.74 274 22:19 07.07.2021
6448 Clear 21 1024 55 10000 0.74 274 21:42 07.07.2021
6449 Clear 22 1024 53 10000 0.74 271 21:23 07.07.2021
6450 Clear 25 1024 51 10000 1.69 236 19:57 07.07.2021
6451 Clear 25 1024 46 10000 2.46 218 19:28 07.07.2021
6452 Clear 27 1023 37 10000 3.33 194 17:36 07.07.2021
6453 Clear 28 1023 35 10000 3.22 184 15:45 07.07.2021
6454 Clear 27 1023 36 10000 3.34 151 12:27 07.07.2021
6455 Clear 24 1023 46 10000 2.86 122 08:39 07.07.2021
6456 Clear 21 1023 53 10000 2.39 115 06:46 07.07.2021
6457 Clear 20 1023 60 10000 2.27 120 05:48 07.07.2021
6458 Clear 17 1021 65 10000 2.07 114 23:47 06.07.2021
6459 Clear 25 1020 50 10000 3.35 71 19:30 06.07.2021
6460 Clear 27 1019 44 10000 3.71 71 18:48 06.07.2021
6461 Clear 26 1019 44 10000 3.71 71 18:30 06.07.2021
6462 Clear 27 1018 28 10000 3.89 93 14:58 06.07.2021
6463 Clear 26 1018 29 10000 3.59 99 12:58 06.07.2021
6464 Clear 24 1018 37 10000 3.58 93 09:42 06.07.2021
6465 Clear 23 1019 44 10000 3.42 88 08:35 06.07.2021
6466 Clear 22 1019 51 10000 3.11 83 07:34 06.07.2021
6467 Clear 17 1018 75 10000 2.18 73 01:43 06.07.2021
6468 Clear 19 1017 69 10000 2.77 79 22:44 05.07.2021
6469 Clear 21 1016 54 10000 3.9 53 20:27 05.07.2021
6470 Clear 25 1015 34 10000 5.18 74 15:45 05.07.2021
6471 Clear 23 1016 52 10000 4.2 76 08:45 05.07.2021
6472 Clear 17 1016 57 10000 3.61 69 05:47 05.07.2021
6473 Clear 17 1016 61 10000 3.33 59 04:40 05.07.2021
6474 Clouds 17 1014 73 10000 3.22 53 23:21 04.07.2021
6475 Clouds 20 1014 68 10000 3.38 45 20:42 04.07.2021
6476 Clouds 22 1013 57 10000 3.65 61 16:57 04.07.2021
6477 Clouds 21 1013 62 10000 3.89 70 13:37 04.07.2021
6478 Clouds 18 1014 61 10000 3.9 51 09:28 04.07.2021
6479 Clear 16 1013 71 10000 1.91 26 01:30 04.07.2021
6480 Clear 16 1012 71 10000 2.41 41 23:19 03.07.2021
6481 Clouds 20 1012 54 10000 4.34 29 17:23 03.07.2021
6482 Clouds 21 1011 44 10000 2.93 13 12:39 03.07.2021
6483 Clouds 21 1012 55 10000 3.7 31 10:59 03.07.2021
6484 Clouds 21 1011 59 10000 4.44 39 09:27 03.07.2021
6485 Clouds 19 1011 59 10000 4.44 39 08:45 03.07.2021
6486 Clear 18 1010 88 10000 2.8 13 21:31 02.07.2021
6487 Clouds 19 1010 85 10000 2.86 355 08:58 02.07.2021
6488 Clouds 19 1010 86 10000 3.01 358 07:28 02.07.2021
6489 Clouds 18 1010 87 10000 3.43 351 02:19 02.07.2021
6490 Clouds 19 1009 90 10000 3.59 6 22:30 01.07.2021
6491 Clear 20 1009 87 10000 4.06 355 21:35 01.07.2021
6492 Clouds 21 1010 81 10000 3.39 1 19:40 01.07.2021
6493 Clouds 22 1009 74 10000 3.71 7 19:20 01.07.2021
6494 Clouds 22 1009 74 10000 3.71 7 19:20 01.07.2021
6495 Clouds 22 1009 74 10000 3.71 7 18:47 01.07.2021
6496 Clouds 22 1009 68 10000 4.31 7 17:33 01.07.2021
6497 Clouds 22 1009 68 10000 4.31 7 17:33 01.07.2021
6498 Clouds 22 1009 60 10000 4.13 6 16:24 01.07.2021
6499 Rain 22 1009 61 10000 3.9 4 15:22 01.07.2021
6500 Clouds 21 1009 75 10000 3.43 10 12:31 01.07.2021
6501 Rain 20 1008 94 10000 3.96 354 09:42 01.07.2021
6502 Clouds 17 1006 95 10000 2.8 278 03:18 01.07.2021
6503 Clouds 17 1006 92 10000 2.64 247 23:18 30.06.2021
6504 Clouds 17 1006 91 10000 2.53 251 21:58 30.06.2021
6505 Clouds 17 1006 88 10000 3.02 264 21:19 30.06.2021
6506 Clouds 17 1007 89 10000 3.32 252 20:23 30.06.2021
6507 Clouds 17 1007 83 10000 4.64 253 16:50 30.06.2021
6508 Clouds 19 1007 76 10000 4.68 245 13:27 30.06.2021
6509 Clouds 20 1006 70 10000 5.53 254 10:43 30.06.2021
6510 Clouds 15 1006 89 10000 3.55 244 00:54 30.06.2021
6511 Clouds 18 1005 79 10000 3.4 258 20:30 29.06.2021
6512 Rain 19 1006 70 10000 4.32 257 17:48 29.06.2021
6513 Clouds 19 1006 69 10000 5.01 258 17:28 29.06.2021
6514 Rain 20 1006 73 10000 4.48 247 15:51 29.06.2021
6515 Rain 20 1006 81 10000 4.5 242 14:55 29.06.2021
6516 Clouds 19 1006 81 10000 4.8 237 13:26 29.06.2021
6517 Clouds 19 1006 81 10000 4.8 237 13:26 29.06.2021
6518 Clouds 18 1004 89 10000 3.89 248 06:25 29.06.2021
6519 Clouds 20 1003 94 10000 2.94 247 23:52 28.06.2021
6520 Clouds 21 1003 92 10000 2.44 254 21:32 28.06.2021
6521 Clouds 22 1003 89 10000 2.46 243 19:21 28.06.2021
6522 Rain 22 1004 85 10000 5.19 201 17:21 28.06.2021
6523 Clouds 21 1005 88 10000 3 100 14:32 28.06.2021
6524 Rain 21 1004 60 10000 4.81 157 12:57 28.06.2021
6525 Clouds 21 1007 84 10000 3.6 65 00:57 28.06.2021
6526 Clouds 22 1009 81 10000 2.77 57 22:52 27.06.2021
6527 Clouds 24 1009 64 10000 3.3 162 19:46 27.06.2021
6528 Clouds 24 1009 57 10000 3.97 156 18:56 27.06.2021
6529 Clouds 31 1010 40 10000 4.03 170 15:50 27.06.2021
6530 Clouds 32 1011 41 10000 3.55 160 11:26 27.06.2021
6531 Clear 21 1012 71 10000 1.1 34 02:52 27.06.2021
6532 Clear 25 1012 58 10000 0.8 114 22:40 26.06.2021
6533 Clear 27 1012 54 10000 1.44 36 20:56 26.06.2021
6534 Clouds 28 1011 51 10000 1.07 325 20:35 26.06.2021
6535 Clouds 32 1011 40 10000 2.01 268 17:46 26.06.2021
6536 Clouds 32 1013 33 10000 2.94 239 14:49 26.06.2021
6537 Clouds 31 1013 36 10000 2.57 239 12:27 26.06.2021
6538 Clouds 24 1014 56 10000 2.26 233 07:47 26.06.2021
6539 Clouds 22 1015 83 10000 1.91 325 00:19 26.06.2021
6540 Clouds 24 1014 67 10000 2.51 304 20:39 25.06.2021
6541 Clouds 26 1014 57 10000 1.98 242 19:31 25.06.2021
6542 Clouds 30 1014 49 10000 4.06 164 17:45 25.06.2021
6543 Clouds 31 1014 40 10000 4.35 174 16:43 25.06.2021
6544 Clouds 30 1015 30 10000 3.47 179 14:47 25.06.2021
6545 Rain 30 1016 37 10000 2.7 208 10:52 25.06.2021
6546 Clouds 28 1016 48 10000 1.94 193 07:58 25.06.2021
6547 Clouds 28 1017 53 10000 1.77 202 07:19 25.06.2021
6548 Clouds 21 1017 68 10000 1.39 236 03:46 25.06.2021
6549 Clear 26 1018 61 10000 2.33 250 21:49 24.06.2021
6550 Clear 27 1017 60 10000 2.51 238 20:59 24.06.2021
6551 Clouds 28 1018 61 10000 2.66 231 20:39 24.06.2021
6552 Clouds 31 1017 52 10000 3.26 184 18:43 24.06.2021
6553 Clouds 33 1018 31 10000 3.52 176 15:29 24.06.2021
6554 Clouds 33 1018 31 10000 3.52 176 14:55 24.06.2021
6555 Clouds 33 1018 30 10000 3.51 180 14:25 24.06.2021
6556 Clouds 32 1020 36 10000 3.14 197 10:57 24.06.2021
6557 Clouds 31 1020 41 10000 2.08 180 09:30 24.06.2021
6558 Clear 31 1020 45 10000 1.2 190 08:22 24.06.2021
6559 Clear 22 1021 71 10000 1.77 256 02:50 24.06.2021
6560 Clear 25 1020 64 10000 1.44 241 22:36 23.06.2021
6561 Clear 26 1020 60 10000 1.67 223 21:44 23.06.2021
6562 Clear 28 1020 54 10000 1.69 233 20:37 23.06.2021
6563 Clear 31 1020 43 10000 2.18 204 18:34 23.06.2021
6564 Clear 32 1020 36 10000 2.91 199 17:32 23.06.2021
6565 Clear 33 1020 32 10000 3.8 183 15:47 23.06.2021
6566 Clouds 33 1020 32 10000 2.72 173 12:58 23.06.2021
6567 Clear 32 1021 33 10000 2.13 168 11:56 23.06.2021
6568 Clear 32 1021 38 10000 0.65 111 09:55 23.06.2021
6569 Clear 31 1021 43 10000 0.5 141 08:46 23.06.2021
6570 Clear 28 1021 49 10000 0.07 158 07:51 23.06.2021
6571 Clouds 26 1021 55 10000 0.67 291 06:58 23.06.2021
6572 Clouds 21 1021 71 10000 1.33 270 04:25 23.06.2021
6573 Clouds 22 1021 70 10000 1.44 228 00:44 23.06.2021
6574 Clouds 22 1021 68 10000 1.9 212 23:56 22.06.2021
6575 Clouds 24 1020 66 10000 1.77 215 22:46 22.06.2021
6576 Clouds 24 1020 66 10000 2.08 209 22:22 22.06.2021
6577 Clouds 25 1020 66 10000 2.08 209 21:37 22.06.2021
6578 Clear 29 1020 62 10000 2.47 183 19:43 22.06.2021
6579 Clear 30 1020 55 10000 3.13 169 18:54 22.06.2021
6580 Clear 32 1019 44 10000 3.62 171 18:24 22.06.2021
6581 Clear 32 1019 37 10000 3.34 177 17:22 22.06.2021
6582 Clear 32 1020 36 10000 3.19 178 16:31 22.06.2021
6583 Clouds 32 1020 38 10000 3.24 178 14:38 22.06.2021
6584 Clouds 32 1020 38 10000 3.09 180 13:50 22.06.2021
6585 Clear 32 1020 40 10000 2.9 181 12:53 22.06.2021
6586 Clear 31 1021 45 10000 2.58 176 11:18 22.06.2021
6587 Clear 30 1021 49 10000 2.36 168 09:57 22.06.2021
6588 Clouds 24 1021 64 10000 2.26 142 06:46 22.06.2021
6589 Clouds 20 1021 79 10000 1.53 159 00:44 22.06.2021
6590 Clouds 21 1021 76 10000 1.75 175 23:23 21.06.2021
6591 Clouds 23 1021 75 10000 1.71 182 22:21 21.06.2021
6592 Clouds 24 1020 72 10000 1.87 173 21:18 21.06.2021
6593 Clouds 26 1021 73 10000 1.99 168 20:31 21.06.2021
6594 Clouds 27 1020 69 10000 2.3 160 19:53 21.06.2021
6595 Clouds 28 1020 57 10000 2.8 157 18:34 21.06.2021
6596 Clouds 29 1020 52 10000 3.33 159 17:24 21.06.2021
6597 Clouds 29 1020 52 10000 3.33 159 16:40 21.06.2021
6598 Rain 30 1020 48 10000 3.92 168 16:20 21.06.2021
6599 Rain 30 1020 44 10000 3.99 168 15:42 21.06.2021
6600 Clouds 29 1020 41 10000 4.02 165 13:59 21.06.2021
6601 Clouds 30 1020 41 10000 4.02 165 13:32 21.06.2021
6602 Clouds 29 1020 39 10000 3.37 160 12:36 21.06.2021
6603 Clouds 29 1021 41 10000 3.07 167 11:46 21.06.2021
6604 Clouds 28 1021 45 10000 2.21 169 10:29 21.06.2021
6605 Clouds 27 1021 50 10000 1.81 182 09:19 21.06.2021
6606 Clouds 27 1021 56 10000 1.99 190 08:20 21.06.2021
6607 Clouds 22 1021 59 10000 2.17 192 06:45 21.06.2021
6608 Clouds 21 1021 77 10000 2.13 220 23:59 20.06.2021
6609 Clouds 21 1021 77 10000 2.13 220 23:35 20.06.2021
6610 Clouds 22 1021 75 10000 2.13 214 22:57 20.06.2021
6611 Clouds 22 1021 73 10000 2.72 202 21:57 20.06.2021
6612 Clear 23 1020 70 10000 2.8 195 21:20 20.06.2021
6613 Clear 28 1021 65 10000 2.8 192 19:41 20.06.2021
6614 Clear 28 1020 57 10000 3.01 189 19:21 20.06.2021
6615 Clear 29 1020 47 10000 3.38 190 17:48 20.06.2021
6616 Clear 29 1020 41 10000 3.23 191 16:49 20.06.2021
6617 Clear 29 1021 39 10000 3.44 191 15:49 20.06.2021
6618 Clear 29 1021 39 10000 3.44 191 15:31 20.06.2021
6619 Clear 29 1021 37 10000 3.54 188 14:45 20.06.2021
6620 Clear 29 1021 36 10000 2.98 183 13:36 20.06.2021
6621 Clear 29 1021 37 10000 3.02 188 12:49 20.06.2021
6622 Clear 27 1022 39 10000 2.96 193 11:46 20.06.2021
6623 Clear 27 1022 45 10000 2.8 195 10:28 20.06.2021
6624 Clear 26 1022 45 10000 2.8 195 09:44 20.06.2021
6625 Clear 22 1023 62 10000 1.79 219 06:57 20.06.2021
6626 Clear 19 1024 74 10000 1.81 239 23:38 19.06.2021
6627 Clear 20 1024 72 10000 2.06 236 22:59 19.06.2021
6628 Clear 21 1023 69 10000 2.36 225 21:52 19.06.2021
6629 Clear 22 1023 66 10000 2.36 219 21:27 19.06.2021
6630 Clear 27 1023 52 10000 2.57 217 18:55 19.06.2021
6631 Clear 27 1023 43 10000 2.92 222 18:22 19.06.2021
6632 Clear 27 1023 37 10000 3.15 223 17:27 19.06.2021
6633 Clear 28 1023 37 10000 3.15 223 16:48 19.06.2021
6634 Clear 28 1023 34 10000 3.19 220 15:40 19.06.2021
6635 Clear 27 1024 34 10000 3.12 204 12:55 19.06.2021
6636 Clear 26 1024 35 10000 2.92 208 11:54 19.06.2021
6637 Clear 25 1025 38 10000 2.87 209 10:49 19.06.2021
6638 Clear 25 1025 42 10000 2.9 214 10:26 19.06.2021
6639 Clear 25 1025 42 10000 2.9 214 10:26 19.06.2021
6640 Clear 24 1025 42 10000 2.9 214 09:58 19.06.2021
6641 Clear 24 1025 42 10000 2.9 214 09:58 19.06.2021
6642 Clear 23 1026 53 10000 2.8 220 08:23 19.06.2021
6643 Clear 20 1027 59 10000 2.8 230 06:36 19.06.2021
6644 Clear 15 1027 78 10000 2.11 232 03:31 19.06.2021
6645 Clear 17 1027 74 10000 2.3 238 00:23 19.06.2021
6646 Clear 18 1027 74 10000 2.3 238 23:40 18.06.2021
6647 Clear 18 1027 72 10000 2.47 235 22:55 18.06.2021
6648 Clear 18 1027 72 10000 2.47 235 22:35 18.06.2021
6649 Clear 19 1026 70 10000 2.75 228 21:49 18.06.2021
6650 Clear 20 1026 67 10000 3.05 212 21:23 18.06.2021
6651 Clear 23 1026 64 10000 2.98 186 20:24 18.06.2021
6652 Clear 25 1026 56 10000 2.89 175 18:46 18.06.2021
6653 Clear 25 1026 47 10000 3.08 179 17:51 18.06.2021
6654 Clear 26 1026 43 10000 3.44 180 16:39 18.06.2021
6655 C